<?xml version="1.0" encoding="UTF-8" standalone="no" ?>
<gpx xmlns="http://www.topografix.com/GPX/1/1" xmlns:xsi="http://www.w3.org/2001/XMLSchema-instance" xsi:schemaLocation="http://www.topografix.com/GPX/1/1 http://www.topografix.com/GPX/1/1/gpx.xsd" version="1.1" creator="VisuGPX - https://www.visugpx.com">
  <metadata>
    <name>Balade hivernale</name>
    <desc><![CDATA[Balade effectuée du 9 décembre 2022 au 7 janvier 2023.]]></desc>
  </metadata>
  <trk>
    <name><![CDATA[Uzeste - Caureyges]]></name>
    <extensions>
      <line xmlns="http://www.topografix.com/GPX/gpx_style/0/2">
        <color>ff0000</color>
        <width>4</width>
      </line>
    </extensions>
    <trkseg>
      <trkpt lat="44.44086" lon="-0.31955">
        <ele>112.241743</ele>
        <time>2022-12-28T11:11:00.853Z</time>
      </trkpt>
      <trkpt lat="44.44087" lon="-0.31969">
        <ele>112.241743</ele>
        <time>2022-12-28T11:11:10.706Z</time>
      </trkpt>
      <trkpt lat="44.4409" lon="-0.31983">
        <ele>112.241743</ele>
        <time>2022-12-28T11:11:16.703Z</time>
      </trkpt>
      <trkpt lat="44.44091" lon="-0.31998">
        <ele>112.241743</ele>
        <time>2022-12-28T11:11:21.725Z</time>
      </trkpt>
      <trkpt lat="44.44092" lon="-0.32011">
        <ele>112.241743</ele>
        <time>2022-12-28T11:11:41.716Z</time>
      </trkpt>
      <trkpt lat="44.44093" lon="-0.32027">
        <ele>112.241743</ele>
        <time>2022-12-28T11:11:46.725Z</time>
      </trkpt>
      <trkpt lat="44.44093" lon="-0.3204">
        <ele>112.241743</ele>
        <time>2022-12-28T11:11:49.724Z</time>
      </trkpt>
      <trkpt lat="44.44094" lon="-0.32055">
        <ele>112.241743</ele>
        <time>2022-12-28T11:11:53.722Z</time>
      </trkpt>
      <trkpt lat="44.44096" lon="-0.32069">
        <ele>112.241743</ele>
        <time>2022-12-28T11:11:57.719Z</time>
      </trkpt>
      <trkpt lat="44.44097" lon="-0.32081">
        <ele>112.259001</ele>
        <time>2022-12-28T11:12:00.702Z</time>
      </trkpt>
      <trkpt lat="44.44099" lon="-0.32095">
        <ele>112.37876</ele>
        <time>2022-12-28T11:12:03.719Z</time>
      </trkpt>
      <trkpt lat="44.441" lon="-0.32111">
        <ele>112.517686</ele>
        <time>2022-12-28T11:12:06.725Z</time>
      </trkpt>
      <trkpt lat="44.44101" lon="-0.32127">
        <ele>112.662027</ele>
        <time>2022-12-28T11:12:09.727Z</time>
      </trkpt>
      <trkpt lat="44.44102" lon="-0.32143">
        <ele>112.802583</ele>
        <time>2022-12-28T11:12:12.722Z</time>
      </trkpt>
      <trkpt lat="44.44103" lon="-0.32159">
        <ele>112.94094</ele>
        <time>2022-12-28T11:12:15.725Z</time>
      </trkpt>
      <trkpt lat="44.44105" lon="-0.32174">
        <ele>113.07126</ele>
        <time>2022-12-28T11:12:18.714Z</time>
      </trkpt>
      <trkpt lat="44.44105" lon="-0.32188">
        <ele>113.201247</ele>
        <time>2022-12-28T11:12:21.723Z</time>
      </trkpt>
      <trkpt lat="44.44107" lon="-0.32203">
        <ele>113.333494</ele>
        <time>2022-12-28T11:12:24.713Z</time>
      </trkpt>
      <trkpt lat="44.44109" lon="-0.32217">
        <ele>113.453058</ele>
        <time>2022-12-28T11:12:27.705Z</time>
      </trkpt>
      <trkpt lat="44.4411" lon="-0.3223">
        <ele>113.573706</ele>
        <time>2022-12-28T11:12:30.726Z</time>
      </trkpt>
      <trkpt lat="44.44111" lon="-0.32245">
        <ele>113.699573</ele>
        <time>2022-12-28T11:12:33.706Z</time>
      </trkpt>
      <trkpt lat="44.44113" lon="-0.32257">
        <ele>113.812531</ele>
        <time>2022-12-28T11:12:36.725Z</time>
      </trkpt>
      <trkpt lat="44.44116" lon="-0.3227">
        <ele>113.925888</ele>
        <time>2022-12-28T11:12:39.702Z</time>
      </trkpt>
      <trkpt lat="44.44119" lon="-0.32283">
        <ele>114.04999</ele>
        <time>2022-12-28T11:12:42.725Z</time>
      </trkpt>
      <trkpt lat="44.44123" lon="-0.32296">
        <ele>114.172014</ele>
        <time>2022-12-28T11:12:45.725Z</time>
      </trkpt>
      <trkpt lat="44.44127" lon="-0.32309">
        <ele>114.295894</ele>
        <time>2022-12-28T11:12:48.722Z</time>
      </trkpt>
      <trkpt lat="44.4413" lon="-0.32322">
        <ele>114.413983</ele>
        <time>2022-12-28T11:12:51.714Z</time>
      </trkpt>
      <trkpt lat="44.44136" lon="-0.32332">
        <ele>114.413673</ele>
        <time>2022-12-28T11:12:55.713Z</time>
      </trkpt>
      <trkpt lat="44.44146" lon="-0.32332">
        <ele>114.365354</ele>
        <time>2022-12-28T11:13:02.716Z</time>
      </trkpt>
      <trkpt lat="44.44166" lon="-0.32324">
        <ele>114.263271</ele>
        <time>2022-12-28T11:13:48.702Z</time>
      </trkpt>
      <trkpt lat="44.44174" lon="-0.32331">
        <ele>114.218956</ele>
        <time>2022-12-28T11:14:00.704Z</time>
      </trkpt>
      <trkpt lat="44.44185" lon="-0.32329">
        <ele>114.16493</ele>
        <time>2022-12-28T11:14:06.706Z</time>
      </trkpt>
      <trkpt lat="44.44195" lon="-0.32327">
        <ele>114.117819</ele>
        <time>2022-12-28T11:14:09.724Z</time>
      </trkpt>
      <trkpt lat="44.44207" lon="-0.32326">
        <ele>114.057816</ele>
        <time>2022-12-28T11:14:11.726Z</time>
      </trkpt>
      <trkpt lat="44.44221" lon="-0.32324">
        <ele>113.990642</ele>
        <time>2022-12-28T11:14:14.724Z</time>
      </trkpt>
      <trkpt lat="44.4423" lon="-0.32324">
        <ele>113.946679</ele>
        <time>2022-12-28T11:14:16.714Z</time>
      </trkpt>
      <trkpt lat="44.4424" lon="-0.3232">
        <ele>113.895451</ele>
        <time>2022-12-28T11:14:18.717Z</time>
      </trkpt>
      <trkpt lat="44.44252" lon="-0.32313">
        <ele>113.835325</ele>
        <time>2022-12-28T11:14:21.711Z</time>
      </trkpt>
      <trkpt lat="44.44262" lon="-0.32306">
        <ele>113.78151</ele>
        <time>2022-12-28T11:14:24.702Z</time>
      </trkpt>
      <trkpt lat="44.44272" lon="-0.323">
        <ele>113.729895</ele>
        <time>2022-12-28T11:14:27.724Z</time>
      </trkpt>
      <trkpt lat="44.4428" lon="-0.32294">
        <ele>113.681599</ele>
        <time>2022-12-28T11:14:30.717Z</time>
      </trkpt>
      <trkpt lat="44.44289" lon="-0.32288">
        <ele>113.635492</ele>
        <time>2022-12-28T11:14:33.720Z</time>
      </trkpt>
      <trkpt lat="44.44298" lon="-0.32283">
        <ele>113.591313</ele>
        <time>2022-12-28T11:14:36.725Z</time>
      </trkpt>
      <trkpt lat="44.44307" lon="-0.32276">
        <ele>113.755911</ele>
        <time>2022-12-28T11:14:41.725Z</time>
      </trkpt>
      <trkpt lat="44.44315" lon="-0.3227">
        <ele>113.956633</ele>
        <time>2022-12-28T11:14:45.710Z</time>
      </trkpt>
      <trkpt lat="44.44323" lon="-0.32264">
        <ele>114.160914</ele>
        <time>2022-12-28T11:14:49.725Z</time>
      </trkpt>
      <trkpt lat="44.44332" lon="-0.32258">
        <ele>114.376403</ele>
        <time>2022-12-28T11:14:52.714Z</time>
      </trkpt>
      <trkpt lat="44.44341" lon="-0.32251">
        <ele>114.589216</ele>
        <time>2022-12-28T11:14:55.726Z</time>
      </trkpt>
      <trkpt lat="44.44349" lon="-0.32246">
        <ele>114.79923</ele>
        <time>2022-12-28T11:14:58.723Z</time>
      </trkpt>
      <trkpt lat="44.4436" lon="-0.32239">
        <ele>115.06241</ele>
        <time>2022-12-28T11:15:02.707Z</time>
      </trkpt>
      <trkpt lat="44.44371" lon="-0.32233">
        <ele>115.312518</ele>
        <time>2022-12-28T11:15:06.715Z</time>
      </trkpt>
      <trkpt lat="44.44379" lon="-0.32228">
        <ele>115.518833</ele>
        <time>2022-12-28T11:15:09.726Z</time>
      </trkpt>
      <trkpt lat="44.44389" lon="-0.32221">
        <ele>115.755748</ele>
        <time>2022-12-28T11:15:13.700Z</time>
      </trkpt>
      <trkpt lat="44.44397" lon="-0.32215">
        <ele>115.965886</ele>
        <time>2022-12-28T11:15:17.706Z</time>
      </trkpt>
      <trkpt lat="44.44406" lon="-0.32209">
        <ele>116.176023</ele>
        <time>2022-12-28T11:15:21.722Z</time>
      </trkpt>
      <trkpt lat="44.44415" lon="-0.32202">
        <ele>116.398674</ele>
        <time>2022-12-28T11:15:25.720Z</time>
      </trkpt>
      <trkpt lat="44.44424" lon="-0.32196">
        <ele>116.616681</ele>
        <time>2022-12-28T11:15:29.729Z</time>
      </trkpt>
      <trkpt lat="44.44433" lon="-0.3219">
        <ele>116.847333</ele>
        <time>2022-12-28T11:15:33.727Z</time>
      </trkpt>
      <trkpt lat="44.44442" lon="-0.32185">
        <ele>117.062986</ele>
        <time>2022-12-28T11:15:37.725Z</time>
      </trkpt>
      <trkpt lat="44.44452" lon="-0.32179">
        <ele>117.299363</ele>
        <time>2022-12-28T11:15:41.700Z</time>
      </trkpt>
      <trkpt lat="44.44463" lon="-0.32173">
        <ele>117.536049</ele>
        <time>2022-12-28T11:15:45.720Z</time>
      </trkpt>
      <trkpt lat="44.44473" lon="-0.32166">
        <ele>117.553388</ele>
        <time>2022-12-28T11:15:49.724Z</time>
      </trkpt>
      <trkpt lat="44.4448" lon="-0.32157">
        <ele>117.568094</ele>
        <time>2022-12-28T11:15:54.723Z</time>
      </trkpt>
      <trkpt lat="44.4448" lon="-0.32143">
        <ele>117.583137</ele>
        <time>2022-12-28T11:15:58.721Z</time>
      </trkpt>
      <trkpt lat="44.44477" lon="-0.32127">
        <ele>117.600809</ele>
        <time>2022-12-28T11:16:02.722Z</time>
      </trkpt>
      <trkpt lat="44.44474" lon="-0.32113">
        <ele>117.616801</ele>
        <time>2022-12-28T11:16:05.724Z</time>
      </trkpt>
      <trkpt lat="44.44471" lon="-0.32099">
        <ele>117.632073</ele>
        <time>2022-12-28T11:16:08.709Z</time>
      </trkpt>
      <trkpt lat="44.44468" lon="-0.32086">
        <ele>117.647016</ele>
        <time>2022-12-28T11:16:11.721Z</time>
      </trkpt>
      <trkpt lat="44.44466" lon="-0.32073">
        <ele>117.662081</ele>
        <time>2022-12-28T11:16:14.727Z</time>
      </trkpt>
      <trkpt lat="44.44464" lon="-0.32058">
        <ele>117.678144</ele>
        <time>2022-12-28T11:16:17.711Z</time>
      </trkpt>
      <trkpt lat="44.44462" lon="-0.32043">
        <ele>117.694042</ele>
        <time>2022-12-28T11:16:20.722Z</time>
      </trkpt>
      <trkpt lat="44.4446" lon="-0.32027">
        <ele>117.711577</ele>
        <time>2022-12-28T11:16:23.716Z</time>
      </trkpt>
      <trkpt lat="44.44458" lon="-0.32011">
        <ele>117.729105</ele>
        <time>2022-12-28T11:16:26.722Z</time>
      </trkpt>
      <trkpt lat="44.44456" lon="-0.31995">
        <ele>117.746232</ele>
        <time>2022-12-28T11:16:29.705Z</time>
      </trkpt>
      <trkpt lat="44.44455" lon="-0.3198">
        <ele>117.762435</ele>
        <time>2022-12-28T11:16:32.725Z</time>
      </trkpt>
      <trkpt lat="44.44454" lon="-0.31965">
        <ele>117.778825</ele>
        <time>2022-12-28T11:16:35.728Z</time>
      </trkpt>
      <trkpt lat="44.44454" lon="-0.31951">
        <ele>117.793773</ele>
        <time>2022-12-28T11:16:38.725Z</time>
      </trkpt>
      <trkpt lat="44.44454" lon="-0.31938">
        <ele>117.814051</ele>
        <time>2022-12-28T11:16:41.728Z</time>
      </trkpt>
      <trkpt lat="44.44453" lon="-0.31923">
        <ele>117.88089</ele>
        <time>2022-12-28T11:16:44.715Z</time>
      </trkpt>
      <trkpt lat="44.44452" lon="-0.31909">
        <ele>117.946406</ele>
        <time>2022-12-28T11:16:47.717Z</time>
      </trkpt>
      <trkpt lat="44.4445" lon="-0.31894">
        <ele>118.015392</ele>
        <time>2022-12-28T11:16:50.728Z</time>
      </trkpt>
      <trkpt lat="44.4445" lon="-0.3188">
        <ele>118.080305</ele>
        <time>2022-12-28T11:16:53.726Z</time>
      </trkpt>
      <trkpt lat="44.44451" lon="-0.31867">
        <ele>118.142059</ele>
        <time>2022-12-28T11:16:56.726Z</time>
      </trkpt>
      <trkpt lat="44.44451" lon="-0.31852">
        <ele>118.207616</ele>
        <time>2022-12-28T11:16:59.713Z</time>
      </trkpt>
      <trkpt lat="44.44452" lon="-0.31838">
        <ele>118.27348</ele>
        <time>2022-12-28T11:17:02.716Z</time>
      </trkpt>
      <trkpt lat="44.44453" lon="-0.31825">
        <ele>118.332331</ele>
        <time>2022-12-28T11:17:05.723Z</time>
      </trkpt>
      <trkpt lat="44.44454" lon="-0.31812">
        <ele>118.394534</ele>
        <time>2022-12-28T11:17:08.710Z</time>
      </trkpt>
      <trkpt lat="44.44456" lon="-0.31798">
        <ele>118.456075</ele>
        <time>2022-12-28T11:17:11.709Z</time>
      </trkpt>
      <trkpt lat="44.44457" lon="-0.31784">
        <ele>118.521745</ele>
        <time>2022-12-28T11:17:14.704Z</time>
      </trkpt>
      <trkpt lat="44.44459" lon="-0.31772">
        <ele>118.581075</ele>
        <time>2022-12-28T11:17:17.713Z</time>
      </trkpt>
      <trkpt lat="44.44463" lon="-0.31757">
        <ele>118.648941</ele>
        <time>2022-12-28T11:17:20.705Z</time>
      </trkpt>
      <trkpt lat="44.44465" lon="-0.31742">
        <ele>118.720031</ele>
        <time>2022-12-28T11:17:23.723Z</time>
      </trkpt>
      <trkpt lat="44.44466" lon="-0.31726">
        <ele>118.792586</ele>
        <time>2022-12-28T11:17:26.724Z</time>
      </trkpt>
      <trkpt lat="44.44467" lon="-0.31711">
        <ele>118.864823</ele>
        <time>2022-12-28T11:17:29.723Z</time>
      </trkpt>
      <trkpt lat="44.44469" lon="-0.31695">
        <ele>118.935582</ele>
        <time>2022-12-28T11:17:32.714Z</time>
      </trkpt>
      <trkpt lat="44.44472" lon="-0.3168">
        <ele>119.14911</ele>
        <time>2022-12-28T11:17:35.704Z</time>
      </trkpt>
      <trkpt lat="44.44475" lon="-0.31666">
        <ele>119.428909</ele>
        <time>2022-12-28T11:17:38.724Z</time>
      </trkpt>
      <trkpt lat="44.44479" lon="-0.31652">
        <ele>119.692724</ele>
        <time>2022-12-28T11:17:41.727Z</time>
      </trkpt>
      <trkpt lat="44.44483" lon="-0.31637">
        <ele>119.976413</ele>
        <time>2022-12-28T11:17:44.729Z</time>
      </trkpt>
      <trkpt lat="44.44487" lon="-0.31622">
        <ele>120.26727</ele>
        <time>2022-12-28T11:17:47.727Z</time>
      </trkpt>
      <trkpt lat="44.44491" lon="-0.31607">
        <ele>120.559186</ele>
        <time>2022-12-28T11:17:50.714Z</time>
      </trkpt>
      <trkpt lat="44.44495" lon="-0.31591">
        <ele>120.851375</ele>
        <time>2022-12-28T11:17:53.729Z</time>
      </trkpt>
      <trkpt lat="44.44499" lon="-0.31576">
        <ele>121.147821</ele>
        <time>2022-12-28T11:17:56.724Z</time>
      </trkpt>
      <trkpt lat="44.44504" lon="-0.3156">
        <ele>121.465193</ele>
        <time>2022-12-28T11:17:59.717Z</time>
      </trkpt>
      <trkpt lat="44.44508" lon="-0.31547">
        <ele>121.71525</ele>
        <time>2022-12-28T11:18:02.726Z</time>
      </trkpt>
      <trkpt lat="44.44513" lon="-0.31534">
        <ele>121.97294</ele>
        <time>2022-12-28T11:18:05.722Z</time>
      </trkpt>
      <trkpt lat="44.44518" lon="-0.31521">
        <ele>122.246005</ele>
        <time>2022-12-28T11:18:08.724Z</time>
      </trkpt>
      <trkpt lat="44.44523" lon="-0.31507">
        <ele>122.532552</ele>
        <time>2022-12-28T11:18:11.727Z</time>
      </trkpt>
      <trkpt lat="44.4453" lon="-0.31493">
        <ele>122.832858</ele>
        <time>2022-12-28T11:18:14.725Z</time>
      </trkpt>
      <trkpt lat="44.44535" lon="-0.31479">
        <ele>123.121785</ele>
        <time>2022-12-28T11:18:17.720Z</time>
      </trkpt>
      <trkpt lat="44.44542" lon="-0.31465">
        <ele>123.416338</ele>
        <time>2022-12-28T11:18:20.727Z</time>
      </trkpt>
      <trkpt lat="44.44547" lon="-0.31453">
        <ele>123.608204</ele>
        <time>2022-12-28T11:18:23.712Z</time>
      </trkpt>
      <trkpt lat="44.44552" lon="-0.31439">
        <ele>123.782644</ele>
        <time>2022-12-28T11:18:26.704Z</time>
      </trkpt>
      <trkpt lat="44.44557" lon="-0.31427">
        <ele>123.937185</ele>
        <time>2022-12-28T11:18:29.726Z</time>
      </trkpt>
      <trkpt lat="44.44564" lon="-0.31413">
        <ele>124.127374</ele>
        <time>2022-12-28T11:18:33.712Z</time>
      </trkpt>
      <trkpt lat="44.44571" lon="-0.31401">
        <ele>124.297516</ele>
        <time>2022-12-28T11:18:36.724Z</time>
      </trkpt>
      <trkpt lat="44.44578" lon="-0.3139">
        <ele>124.464371</ele>
        <time>2022-12-28T11:18:39.723Z</time>
      </trkpt>
      <trkpt lat="44.44583" lon="-0.31379">
        <ele>124.606133</ele>
        <time>2022-12-28T11:18:42.714Z</time>
      </trkpt>
      <trkpt lat="44.44589" lon="-0.31369">
        <ele>124.765992</ele>
        <time>2022-12-28T11:18:46.709Z</time>
      </trkpt>
      <trkpt lat="44.44597" lon="-0.31357">
        <ele>124.945126</ele>
        <time>2022-12-28T11:18:51.714Z</time>
      </trkpt>
      <trkpt lat="44.44603" lon="-0.31346">
        <ele>125.098173</ele>
        <time>2022-12-28T11:18:54.724Z</time>
      </trkpt>
      <trkpt lat="44.4461" lon="-0.31335">
        <ele>125.265797</ele>
        <time>2022-12-28T11:18:57.725Z</time>
      </trkpt>
      <trkpt lat="44.44618" lon="-0.31324">
        <ele>125.435914</ele>
        <time>2022-12-28T11:19:00.704Z</time>
      </trkpt>
      <trkpt lat="44.44624" lon="-0.31313">
        <ele>125.594572</ele>
        <time>2022-12-28T11:19:03.721Z</time>
      </trkpt>
      <trkpt lat="44.44631" lon="-0.31302">
        <ele>125.757687</ele>
        <time>2022-12-28T11:19:06.703Z</time>
      </trkpt>
      <trkpt lat="44.44638" lon="-0.31292">
        <ele>125.918228</ele>
        <time>2022-12-28T11:19:09.706Z</time>
      </trkpt>
      <trkpt lat="44.44645" lon="-0.31281">
        <ele>126.088081</ele>
        <time>2022-12-28T11:19:12.728Z</time>
      </trkpt>
      <trkpt lat="44.44654" lon="-0.31271">
        <ele>126.262115</ele>
        <time>2022-12-28T11:19:15.721Z</time>
      </trkpt>
      <trkpt lat="44.44661" lon="-0.3126">
        <ele>126.551578</ele>
        <time>2022-12-28T11:19:18.725Z</time>
      </trkpt>
      <trkpt lat="44.44669" lon="-0.31248">
        <ele>126.952917</ele>
        <time>2022-12-28T11:19:21.711Z</time>
      </trkpt>
      <trkpt lat="44.44677" lon="-0.31235">
        <ele>127.371577</ele>
        <time>2022-12-28T11:19:24.726Z</time>
      </trkpt>
      <trkpt lat="44.44684" lon="-0.31225">
        <ele>127.736862</ele>
        <time>2022-12-28T11:19:27.724Z</time>
      </trkpt>
      <trkpt lat="44.44691" lon="-0.31213">
        <ele>128.097107</ele>
        <time>2022-12-28T11:19:30.719Z</time>
      </trkpt>
      <trkpt lat="44.44699" lon="-0.31203">
        <ele>128.466544</ele>
        <time>2022-12-28T11:19:33.722Z</time>
      </trkpt>
      <trkpt lat="44.44705" lon="-0.31192">
        <ele>128.822693</ele>
        <time>2022-12-28T11:19:36.729Z</time>
      </trkpt>
      <trkpt lat="44.44712" lon="-0.3118">
        <ele>129.196331</ele>
        <time>2022-12-28T11:19:39.724Z</time>
      </trkpt>
      <trkpt lat="44.4472" lon="-0.31169">
        <ele>129.578233</ele>
        <time>2022-12-28T11:19:42.704Z</time>
      </trkpt>
      <trkpt lat="44.44727" lon="-0.31159">
        <ele>129.916551</ele>
        <time>2022-12-28T11:19:45.723Z</time>
      </trkpt>
      <trkpt lat="44.44733" lon="-0.31149">
        <ele>130.235713</ele>
        <time>2022-12-28T11:19:48.725Z</time>
      </trkpt>
      <trkpt lat="44.4474" lon="-0.3114">
        <ele>130.554268</ele>
        <time>2022-12-28T11:19:51.722Z</time>
      </trkpt>
      <trkpt lat="44.44747" lon="-0.3113">
        <ele>130.902955</ele>
        <time>2022-12-28T11:19:54.722Z</time>
      </trkpt>
      <trkpt lat="44.44755" lon="-0.31118">
        <ele>131.292474</ele>
        <time>2022-12-28T11:19:57.726Z</time>
      </trkpt>
      <trkpt lat="44.44762" lon="-0.31107">
        <ele>131.663917</ele>
        <time>2022-12-28T11:20:00.725Z</time>
      </trkpt>
      <trkpt lat="44.4477" lon="-0.31096">
        <ele>132.048256</ele>
        <time>2022-12-28T11:20:03.725Z</time>
      </trkpt>
      <trkpt lat="44.44777" lon="-0.31084">
        <ele>132.424908</ele>
        <time>2022-12-28T11:20:06.726Z</time>
      </trkpt>
      <trkpt lat="44.44785" lon="-0.31072">
        <ele>132.797188</ele>
        <time>2022-12-28T11:20:09.725Z</time>
      </trkpt>
      <trkpt lat="44.44793" lon="-0.3106">
        <ele>133.177964</ele>
        <time>2022-12-28T11:20:12.726Z</time>
      </trkpt>
      <trkpt lat="44.448" lon="-0.3105">
        <ele>133.507603</ele>
        <time>2022-12-28T11:20:15.717Z</time>
      </trkpt>
      <trkpt lat="44.44808" lon="-0.31038">
        <ele>133.871852</ele>
        <time>2022-12-28T11:20:18.725Z</time>
      </trkpt>
      <trkpt lat="44.44816" lon="-0.31026">
        <ele>134.242248</ele>
        <time>2022-12-28T11:20:21.726Z</time>
      </trkpt>
      <trkpt lat="44.44822" lon="-0.31013">
        <ele>134.61946</ele>
        <time>2022-12-28T11:20:24.725Z</time>
      </trkpt>
      <trkpt lat="44.44829" lon="-0.31001">
        <ele>134.957103</ele>
        <time>2022-12-28T11:20:27.726Z</time>
      </trkpt>
      <trkpt lat="44.44837" lon="-0.3099">
        <ele>135.324193</ele>
        <time>2022-12-28T11:20:30.726Z</time>
      </trkpt>
      <trkpt lat="44.44845" lon="-0.30979">
        <ele>135.656478</ele>
        <time>2022-12-28T11:20:33.727Z</time>
      </trkpt>
      <trkpt lat="44.44851" lon="-0.30969">
        <ele>135.970785</ele>
        <time>2022-12-28T11:20:36.705Z</time>
      </trkpt>
      <trkpt lat="44.44857" lon="-0.3096">
        <ele>136.260524</ele>
        <time>2022-12-28T11:20:39.723Z</time>
      </trkpt>
      <trkpt lat="44.44864" lon="-0.30949">
        <ele>136.602377</ele>
        <time>2022-12-28T11:20:42.725Z</time>
      </trkpt>
      <trkpt lat="44.44872" lon="-0.30937">
        <ele>136.95452</ele>
        <time>2022-12-28T11:20:45.710Z</time>
      </trkpt>
      <trkpt lat="44.44879" lon="-0.30925">
        <ele>137.321973</ele>
        <time>2022-12-28T11:20:48.725Z</time>
      </trkpt>
      <trkpt lat="44.44887" lon="-0.30913">
        <ele>137.690126</ele>
        <time>2022-12-28T11:20:51.726Z</time>
      </trkpt>
      <trkpt lat="44.44894" lon="-0.309">
        <ele>138.061884</ele>
        <time>2022-12-28T11:20:54.710Z</time>
      </trkpt>
      <trkpt lat="44.449" lon="-0.30889">
        <ele>138.243234</ele>
        <time>2022-12-28T11:20:57.727Z</time>
      </trkpt>
      <trkpt lat="44.44906" lon="-0.30876">
        <ele>138.265291</ele>
        <time>2022-12-28T11:21:00.725Z</time>
      </trkpt>
      <trkpt lat="44.44913" lon="-0.30865">
        <ele>138.287429</ele>
        <time>2022-12-28T11:21:03.706Z</time>
      </trkpt>
      <trkpt lat="44.4492" lon="-0.30855">
        <ele>138.306185</ele>
        <time>2022-12-28T11:21:06.718Z</time>
      </trkpt>
      <trkpt lat="44.44926" lon="-0.30844">
        <ele>138.327606</ele>
        <time>2022-12-28T11:21:09.725Z</time>
      </trkpt>
      <trkpt lat="44.44934" lon="-0.30832">
        <ele>138.349503</ele>
        <time>2022-12-28T11:21:12.706Z</time>
      </trkpt>
      <trkpt lat="44.44942" lon="-0.30821">
        <ele>138.372641</ele>
        <time>2022-12-28T11:21:15.727Z</time>
      </trkpt>
      <trkpt lat="44.4495" lon="-0.3081">
        <ele>138.395562</ele>
        <time>2022-12-28T11:21:18.723Z</time>
      </trkpt>
      <trkpt lat="44.44959" lon="-0.30798">
        <ele>138.419115</ele>
        <time>2022-12-28T11:21:21.724Z</time>
      </trkpt>
      <trkpt lat="44.44966" lon="-0.30786">
        <ele>138.441907</ele>
        <time>2022-12-28T11:21:24.703Z</time>
      </trkpt>
      <trkpt lat="44.44973" lon="-0.30773">
        <ele>138.465268</ele>
        <time>2022-12-28T11:21:27.725Z</time>
      </trkpt>
      <trkpt lat="44.44982" lon="-0.30761">
        <ele>138.489437</ele>
        <time>2022-12-28T11:21:30.708Z</time>
      </trkpt>
      <trkpt lat="44.4499" lon="-0.30748">
        <ele>138.514128</ele>
        <time>2022-12-28T11:21:33.721Z</time>
      </trkpt>
      <trkpt lat="44.44997" lon="-0.30735">
        <ele>138.537267</ele>
        <time>2022-12-28T11:21:36.728Z</time>
      </trkpt>
      <trkpt lat="44.45005" lon="-0.30723">
        <ele>138.559823</ele>
        <time>2022-12-28T11:21:39.723Z</time>
      </trkpt>
      <trkpt lat="44.45012" lon="-0.30712">
        <ele>138.580969</ele>
        <time>2022-12-28T11:21:42.709Z</time>
      </trkpt>
      <trkpt lat="44.4502" lon="-0.30701">
        <ele>138.56525</ele>
        <time>2022-12-28T11:21:45.725Z</time>
      </trkpt>
      <trkpt lat="44.45027" lon="-0.30691">
        <ele>138.504411</ele>
        <time>2022-12-28T11:21:48.727Z</time>
      </trkpt>
      <trkpt lat="44.45035" lon="-0.3068">
        <ele>138.438524</ele>
        <time>2022-12-28T11:21:51.724Z</time>
      </trkpt>
      <trkpt lat="44.45043" lon="-0.30669">
        <ele>138.371296</ele>
        <time>2022-12-28T11:21:54.721Z</time>
      </trkpt>
      <trkpt lat="44.4505" lon="-0.30657">
        <ele>138.304163</ele>
        <time>2022-12-28T11:21:57.727Z</time>
      </trkpt>
      <trkpt lat="44.45058" lon="-0.30644">
        <ele>138.232181</ele>
        <time>2022-12-28T11:22:00.725Z</time>
      </trkpt>
      <trkpt lat="44.45066" lon="-0.30633">
        <ele>138.16608</ele>
        <time>2022-12-28T11:22:03.724Z</time>
      </trkpt>
      <trkpt lat="44.45073" lon="-0.30621">
        <ele>138.098257</ele>
        <time>2022-12-28T11:22:06.710Z</time>
      </trkpt>
      <trkpt lat="44.4508" lon="-0.30611">
        <ele>138.036249</ele>
        <time>2022-12-28T11:22:09.727Z</time>
      </trkpt>
      <trkpt lat="44.45088" lon="-0.306">
        <ele>137.975087</ele>
        <time>2022-12-28T11:22:12.722Z</time>
      </trkpt>
      <trkpt lat="44.45095" lon="-0.30588">
        <ele>137.906289</ele>
        <time>2022-12-28T11:22:15.724Z</time>
      </trkpt>
      <trkpt lat="44.45102" lon="-0.30575">
        <ele>137.83647</ele>
        <time>2022-12-28T11:22:18.702Z</time>
      </trkpt>
      <trkpt lat="44.45111" lon="-0.30563">
        <ele>137.763772</ele>
        <time>2022-12-28T11:22:21.722Z</time>
      </trkpt>
      <trkpt lat="44.45119" lon="-0.30549">
        <ele>137.687924</ele>
        <time>2022-12-28T11:22:24.724Z</time>
      </trkpt>
      <trkpt lat="44.45127" lon="-0.30535">
        <ele>137.611462</ele>
        <time>2022-12-28T11:22:27.728Z</time>
      </trkpt>
      <trkpt lat="44.45135" lon="-0.30522">
        <ele>137.53821</ele>
        <time>2022-12-28T11:22:30.725Z</time>
      </trkpt>
      <trkpt lat="44.45144" lon="-0.30508">
        <ele>137.676888</ele>
        <time>2022-12-28T11:22:33.726Z</time>
      </trkpt>
      <trkpt lat="44.45152" lon="-0.30496">
        <ele>137.870837</ele>
        <time>2022-12-28T11:22:36.726Z</time>
      </trkpt>
      <trkpt lat="44.45159" lon="-0.30485">
        <ele>138.034926</ele>
        <time>2022-12-28T11:22:39.720Z</time>
      </trkpt>
      <trkpt lat="44.45167" lon="-0.30474">
        <ele>138.204946</ele>
        <time>2022-12-28T11:22:42.727Z</time>
      </trkpt>
      <trkpt lat="44.45175" lon="-0.30462">
        <ele>138.381673</ele>
        <time>2022-12-28T11:22:45.727Z</time>
      </trkpt>
      <trkpt lat="44.45184" lon="-0.3045">
        <ele>138.583946</ele>
        <time>2022-12-28T11:22:48.726Z</time>
      </trkpt>
      <trkpt lat="44.4519" lon="-0.3044">
        <ele>138.730548</ele>
        <time>2022-12-28T11:22:50.725Z</time>
      </trkpt>
      <trkpt lat="44.45197" lon="-0.30431">
        <ele>138.873382</ele>
        <time>2022-12-28T11:22:52.727Z</time>
      </trkpt>
      <trkpt lat="44.45203" lon="-0.30422">
        <ele>139.013035</ele>
        <time>2022-12-28T11:22:54.726Z</time>
      </trkpt>
      <trkpt lat="44.4521" lon="-0.30408">
        <ele>139.207292</ele>
        <time>2022-12-28T11:22:57.727Z</time>
      </trkpt>
      <trkpt lat="44.45219" lon="-0.30395">
        <ele>139.401396</ele>
        <time>2022-12-28T11:23:00.720Z</time>
      </trkpt>
      <trkpt lat="44.45227" lon="-0.30381">
        <ele>139.608378</ele>
        <time>2022-12-28T11:23:03.724Z</time>
      </trkpt>
      <trkpt lat="44.45234" lon="-0.30372">
        <ele>139.751491</ele>
        <time>2022-12-28T11:23:05.701Z</time>
      </trkpt>
      <trkpt lat="44.4524" lon="-0.30363">
        <ele>139.896208</ele>
        <time>2022-12-28T11:23:07.717Z</time>
      </trkpt>
      <trkpt lat="44.45249" lon="-0.30349">
        <ele>140.10281</ele>
        <time>2022-12-28T11:23:10.726Z</time>
      </trkpt>
      <trkpt lat="44.45258" lon="-0.30336">
        <ele>140.30805</ele>
        <time>2022-12-28T11:23:13.715Z</time>
      </trkpt>
      <trkpt lat="44.45267" lon="-0.30323">
        <ele>140.348476</ele>
        <time>2022-12-28T11:23:16.702Z</time>
      </trkpt>
      <trkpt lat="44.45275" lon="-0.3031">
        <ele>140.371369</ele>
        <time>2022-12-28T11:23:19.722Z</time>
      </trkpt>
      <trkpt lat="44.45283" lon="-0.30298">
        <ele>140.394637</ele>
        <time>2022-12-28T11:23:22.728Z</time>
      </trkpt>
      <trkpt lat="44.45291" lon="-0.30284">
        <ele>140.419044</ele>
        <time>2022-12-28T11:23:25.722Z</time>
      </trkpt>
      <trkpt lat="44.453" lon="-0.30271">
        <ele>140.442997</ele>
        <time>2022-12-28T11:23:28.723Z</time>
      </trkpt>
      <trkpt lat="44.45308" lon="-0.30259">
        <ele>140.464742</ele>
        <time>2022-12-28T11:23:31.729Z</time>
      </trkpt>
      <trkpt lat="44.45316" lon="-0.30247">
        <ele>140.486978</ele>
        <time>2022-12-28T11:23:34.711Z</time>
      </trkpt>
      <trkpt lat="44.45323" lon="-0.30235">
        <ele>140.509293</ele>
        <time>2022-12-28T11:23:37.726Z</time>
      </trkpt>
      <trkpt lat="44.45331" lon="-0.30222">
        <ele>140.531804</ele>
        <time>2022-12-28T11:23:40.726Z</time>
      </trkpt>
      <trkpt lat="44.45339" lon="-0.30209">
        <ele>140.555199</ele>
        <time>2022-12-28T11:23:43.727Z</time>
      </trkpt>
      <trkpt lat="44.45346" lon="-0.30197">
        <ele>140.577657</ele>
        <time>2022-12-28T11:23:46.725Z</time>
      </trkpt>
      <trkpt lat="44.45355" lon="-0.30183">
        <ele>140.601996</ele>
        <time>2022-12-28T11:23:49.726Z</time>
      </trkpt>
      <trkpt lat="44.45361" lon="-0.30173">
        <ele>140.620126</ele>
        <time>2022-12-28T11:23:51.728Z</time>
      </trkpt>
      <trkpt lat="44.45368" lon="-0.30164">
        <ele>140.638099</ele>
        <time>2022-12-28T11:23:53.727Z</time>
      </trkpt>
      <trkpt lat="44.45375" lon="-0.30155">
        <ele>140.655514</ele>
        <time>2022-12-28T11:23:55.715Z</time>
      </trkpt>
      <trkpt lat="44.45383" lon="-0.30142">
        <ele>140.675482</ele>
        <time>2022-12-28T11:23:58.702Z</time>
      </trkpt>
      <trkpt lat="44.45392" lon="-0.3013">
        <ele>140.689628</ele>
        <time>2022-12-28T11:24:01.721Z</time>
      </trkpt>
      <trkpt lat="44.45401" lon="-0.30118">
        <ele>140.703634</ele>
        <time>2022-12-28T11:24:04.723Z</time>
      </trkpt>
      <trkpt lat="44.45409" lon="-0.30105">
        <ele>140.717656</ele>
        <time>2022-12-28T11:24:07.723Z</time>
      </trkpt>
      <trkpt lat="44.45416" lon="-0.30097">
        <ele>140.727998</ele>
        <time>2022-12-28T11:24:09.727Z</time>
      </trkpt>
      <trkpt lat="44.45423" lon="-0.30083">
        <ele>140.742182</ele>
        <time>2022-12-28T11:24:12.726Z</time>
      </trkpt>
      <trkpt lat="44.4543" lon="-0.30071">
        <ele>140.754786</ele>
        <time>2022-12-28T11:24:15.726Z</time>
      </trkpt>
      <trkpt lat="44.45436" lon="-0.30061">
        <ele>140.765723</ele>
        <time>2022-12-28T11:24:18.722Z</time>
      </trkpt>
      <trkpt lat="44.45445" lon="-0.30048">
        <ele>140.779703</ele>
        <time>2022-12-28T11:24:22.711Z</time>
      </trkpt>
      <trkpt lat="44.45451" lon="-0.30039">
        <ele>140.79044</ele>
        <time>2022-12-28T11:24:25.703Z</time>
      </trkpt>
      <trkpt lat="44.45458" lon="-0.30028">
        <ele>140.802099</ele>
        <time>2022-12-28T11:24:28.711Z</time>
      </trkpt>
      <trkpt lat="44.45466" lon="-0.30017">
        <ele>140.814844</ele>
        <time>2022-12-28T11:24:31.712Z</time>
      </trkpt>
      <trkpt lat="44.45473" lon="-0.30005">
        <ele>140.82787</ele>
        <time>2022-12-28T11:24:34.721Z</time>
      </trkpt>
      <trkpt lat="44.45479" lon="-0.29992">
        <ele>140.840414</ele>
        <time>2022-12-28T11:24:37.713Z</time>
      </trkpt>
      <trkpt lat="44.45487" lon="-0.29979">
        <ele>140.854376</ele>
        <time>2022-12-28T11:24:40.709Z</time>
      </trkpt>
      <trkpt lat="44.45496" lon="-0.29966">
        <ele>140.868651</ele>
        <time>2022-12-28T11:24:43.728Z</time>
      </trkpt>
      <trkpt lat="44.45504" lon="-0.29954">
        <ele>140.959573</ele>
        <time>2022-12-28T11:24:46.721Z</time>
      </trkpt>
      <trkpt lat="44.45512" lon="-0.29942">
        <ele>141.114723</ele>
        <time>2022-12-28T11:24:49.722Z</time>
      </trkpt>
      <trkpt lat="44.4552" lon="-0.29929">
        <ele>141.278327</ele>
        <time>2022-12-28T11:24:52.724Z</time>
      </trkpt>
      <trkpt lat="44.45528" lon="-0.29917">
        <ele>141.432062</ele>
        <time>2022-12-28T11:24:55.710Z</time>
      </trkpt>
      <trkpt lat="44.45538" lon="-0.29904">
        <ele>141.602464</ele>
        <time>2022-12-28T11:24:58.727Z</time>
      </trkpt>
      <trkpt lat="44.45546" lon="-0.29891">
        <ele>141.767103</ele>
        <time>2022-12-28T11:25:01.724Z</time>
      </trkpt>
      <trkpt lat="44.45554" lon="-0.29878">
        <ele>141.928437</ele>
        <time>2022-12-28T11:25:04.722Z</time>
      </trkpt>
      <trkpt lat="44.45562" lon="-0.29866">
        <ele>142.077275</ele>
        <time>2022-12-28T11:25:07.723Z</time>
      </trkpt>
      <trkpt lat="44.45569" lon="-0.29855">
        <ele>142.220855</ele>
        <time>2022-12-28T11:25:10.728Z</time>
      </trkpt>
      <trkpt lat="44.45577" lon="-0.29844">
        <ele>142.359356</ele>
        <time>2022-12-28T11:25:13.710Z</time>
      </trkpt>
      <trkpt lat="44.45585" lon="-0.29833">
        <ele>142.507414</ele>
        <time>2022-12-28T11:25:16.726Z</time>
      </trkpt>
      <trkpt lat="44.45592" lon="-0.2982">
        <ele>142.663532</ele>
        <time>2022-12-28T11:25:19.707Z</time>
      </trkpt>
      <trkpt lat="44.45599" lon="-0.29808">
        <ele>142.811179</ele>
        <time>2022-12-28T11:25:22.726Z</time>
      </trkpt>
      <trkpt lat="44.45607" lon="-0.29794">
        <ele>142.974945</ele>
        <time>2022-12-28T11:25:25.723Z</time>
      </trkpt>
      <trkpt lat="44.45616" lon="-0.2978">
        <ele>143.147632</ele>
        <time>2022-12-28T11:25:28.714Z</time>
      </trkpt>
      <trkpt lat="44.45622" lon="-0.29771">
        <ele>143.330088</ele>
        <time>2022-12-28T11:25:30.721Z</time>
      </trkpt>
      <trkpt lat="44.4563" lon="-0.29758">
        <ele>143.812989</ele>
        <time>2022-12-28T11:25:33.726Z</time>
      </trkpt>
      <trkpt lat="44.45637" lon="-0.29748">
        <ele>144.150656</ele>
        <time>2022-12-28T11:25:35.727Z</time>
      </trkpt>
      <trkpt lat="44.45645" lon="-0.29734">
        <ele>144.63635</ele>
        <time>2022-12-28T11:25:38.726Z</time>
      </trkpt>
      <trkpt lat="44.45653" lon="-0.2972">
        <ele>145.1173</ele>
        <time>2022-12-28T11:25:41.727Z</time>
      </trkpt>
      <trkpt lat="44.45661" lon="-0.29706">
        <ele>145.608688</ele>
        <time>2022-12-28T11:25:44.725Z</time>
      </trkpt>
      <trkpt lat="44.4567" lon="-0.29692">
        <ele>146.095582</ele>
        <time>2022-12-28T11:25:47.727Z</time>
      </trkpt>
      <trkpt lat="44.45676" lon="-0.29683">
        <ele>146.436602</ele>
        <time>2022-12-28T11:25:49.725Z</time>
      </trkpt>
      <trkpt lat="44.45684" lon="-0.29668">
        <ele>146.939725</ele>
        <time>2022-12-28T11:25:52.730Z</time>
      </trkpt>
      <trkpt lat="44.45693" lon="-0.29655">
        <ele>147.422147</ele>
        <time>2022-12-28T11:25:55.722Z</time>
      </trkpt>
      <trkpt lat="44.45702" lon="-0.29641">
        <ele>147.902227</ele>
        <time>2022-12-28T11:25:58.706Z</time>
      </trkpt>
      <trkpt lat="44.4571" lon="-0.29628">
        <ele>148.367701</ele>
        <time>2022-12-28T11:26:01.722Z</time>
      </trkpt>
      <trkpt lat="44.45718" lon="-0.29615">
        <ele>148.850121</ele>
        <time>2022-12-28T11:26:04.724Z</time>
      </trkpt>
      <trkpt lat="44.45725" lon="-0.29606">
        <ele>149.191056</ele>
        <time>2022-12-28T11:26:06.720Z</time>
      </trkpt>
      <trkpt lat="44.45731" lon="-0.29596">
        <ele>149.553487</ele>
        <time>2022-12-28T11:26:08.724Z</time>
      </trkpt>
      <trkpt lat="44.4574" lon="-0.29582">
        <ele>149.95807</ele>
        <time>2022-12-28T11:26:11.710Z</time>
      </trkpt>
      <trkpt lat="44.45749" lon="-0.29568">
        <ele>149.972297</ele>
        <time>2022-12-28T11:26:14.725Z</time>
      </trkpt>
      <trkpt lat="44.45756" lon="-0.29558">
        <ele>149.981891</ele>
        <time>2022-12-28T11:26:16.714Z</time>
      </trkpt>
      <trkpt lat="44.45764" lon="-0.29546">
        <ele>149.994982</ele>
        <time>2022-12-28T11:26:19.722Z</time>
      </trkpt>
      <trkpt lat="44.45772" lon="-0.29534">
        <ele>150.006785</ele>
        <time>2022-12-28T11:26:22.710Z</time>
      </trkpt>
      <trkpt lat="44.45779" lon="-0.29522">
        <ele>150.01799</ele>
        <time>2022-12-28T11:26:25.722Z</time>
      </trkpt>
      <trkpt lat="44.45786" lon="-0.2951">
        <ele>150.029766</ele>
        <time>2022-12-28T11:26:28.724Z</time>
      </trkpt>
      <trkpt lat="44.45793" lon="-0.29499">
        <ele>150.040562</ele>
        <time>2022-12-28T11:26:31.725Z</time>
      </trkpt>
      <trkpt lat="44.45801" lon="-0.29486">
        <ele>150.053834</ele>
        <time>2022-12-28T11:26:34.723Z</time>
      </trkpt>
      <trkpt lat="44.4581" lon="-0.29472">
        <ele>150.067258</ele>
        <time>2022-12-28T11:26:37.721Z</time>
      </trkpt>
      <trkpt lat="44.45818" lon="-0.29458">
        <ele>150.081177</ele>
        <time>2022-12-28T11:26:40.726Z</time>
      </trkpt>
      <trkpt lat="44.45824" lon="-0.29448">
        <ele>150.090573</ele>
        <time>2022-12-28T11:26:42.726Z</time>
      </trkpt>
      <trkpt lat="44.45834" lon="-0.29435">
        <ele>150.104367</ele>
        <time>2022-12-28T11:26:45.726Z</time>
      </trkpt>
      <trkpt lat="44.4584" lon="-0.29426">
        <ele>150.113888</ele>
        <time>2022-12-28T11:26:47.723Z</time>
      </trkpt>
      <trkpt lat="44.45846" lon="-0.29415">
        <ele>150.123781</ele>
        <time>2022-12-28T11:26:49.708Z</time>
      </trkpt>
      <trkpt lat="44.45854" lon="-0.29401">
        <ele>150.137567</ele>
        <time>2022-12-28T11:26:52.706Z</time>
      </trkpt>
      <trkpt lat="44.45862" lon="-0.29389">
        <ele>150.210376</ele>
        <time>2022-12-28T11:26:55.723Z</time>
      </trkpt>
      <trkpt lat="44.4587" lon="-0.29375">
        <ele>150.330457</ele>
        <time>2022-12-28T11:26:58.726Z</time>
      </trkpt>
      <trkpt lat="44.45878" lon="-0.29362">
        <ele>150.444264</ele>
        <time>2022-12-28T11:27:01.721Z</time>
      </trkpt>
      <trkpt lat="44.45886" lon="-0.2935">
        <ele>150.563747</ele>
        <time>2022-12-28T11:27:04.728Z</time>
      </trkpt>
      <trkpt lat="44.45892" lon="-0.2934">
        <ele>150.653197</ele>
        <time>2022-12-28T11:27:06.728Z</time>
      </trkpt>
      <trkpt lat="44.45899" lon="-0.2933">
        <ele>150.7533</ele>
        <time>2022-12-28T11:27:08.727Z</time>
      </trkpt>
      <trkpt lat="44.45906" lon="-0.2932">
        <ele>150.843231</ele>
        <time>2022-12-28T11:27:10.706Z</time>
      </trkpt>
      <trkpt lat="44.45914" lon="-0.29306">
        <ele>150.968763</ele>
        <time>2022-12-28T11:27:13.702Z</time>
      </trkpt>
      <trkpt lat="44.4592" lon="-0.29297">
        <ele>151.056957</ele>
        <time>2022-12-28T11:27:15.725Z</time>
      </trkpt>
      <trkpt lat="44.45927" lon="-0.29288">
        <ele>151.148924</ele>
        <time>2022-12-28T11:27:17.708Z</time>
      </trkpt>
      <trkpt lat="44.45935" lon="-0.2928">
        <ele>151.241992</ele>
        <time>2022-12-28T11:27:19.723Z</time>
      </trkpt>
      <trkpt lat="44.45942" lon="-0.29271">
        <ele>151.329575</ele>
        <time>2022-12-28T11:27:21.722Z</time>
      </trkpt>
      <trkpt lat="44.45952" lon="-0.29262">
        <ele>151.448634</ele>
        <time>2022-12-28T11:27:24.724Z</time>
      </trkpt>
      <trkpt lat="44.45961" lon="-0.29251">
        <ele>151.566448</ele>
        <time>2022-12-28T11:27:27.703Z</time>
      </trkpt>
      <trkpt lat="44.45968" lon="-0.29242">
        <ele>151.655397</ele>
        <time>2022-12-28T11:27:30.714Z</time>
      </trkpt>
      <trkpt lat="44.45977" lon="-0.29233">
        <ele>151.762834</ele>
        <time>2022-12-28T11:27:33.711Z</time>
      </trkpt>
      <trkpt lat="44.45988" lon="-0.29225">
        <ele>151.883637</ele>
        <time>2022-12-28T11:27:36.719Z</time>
      </trkpt>
      <trkpt lat="44.45999" lon="-0.29217">
        <ele>151.706121</ele>
        <time>2022-12-28T11:27:39.725Z</time>
      </trkpt>
      <trkpt lat="44.4601" lon="-0.2921">
        <ele>151.527699</ele>
        <time>2022-12-28T11:27:42.725Z</time>
      </trkpt>
      <trkpt lat="44.4602" lon="-0.29204">
        <ele>151.372418</ele>
        <time>2022-12-28T11:27:45.726Z</time>
      </trkpt>
      <trkpt lat="44.46029" lon="-0.29198">
        <ele>151.231464</ele>
        <time>2022-12-28T11:27:48.716Z</time>
      </trkpt>
      <trkpt lat="44.4604" lon="-0.29192">
        <ele>151.062345</ele>
        <time>2022-12-28T11:27:51.711Z</time>
      </trkpt>
      <trkpt lat="44.46052" lon="-0.29188">
        <ele>150.8823</ele>
        <time>2022-12-28T11:27:54.710Z</time>
      </trkpt>
      <trkpt lat="44.46061" lon="-0.29186">
        <ele>150.751983</ele>
        <time>2022-12-28T11:27:56.718Z</time>
      </trkpt>
      <trkpt lat="44.46071" lon="-0.29183">
        <ele>150.607549</ele>
        <time>2022-12-28T11:27:59.713Z</time>
      </trkpt>
      <trkpt lat="44.46081" lon="-0.2918">
        <ele>150.454615</ele>
        <time>2022-12-28T11:28:02.708Z</time>
      </trkpt>
      <trkpt lat="44.46093" lon="-0.29178">
        <ele>150.281978</ele>
        <time>2022-12-28T11:28:05.725Z</time>
      </trkpt>
      <trkpt lat="44.46104" lon="-0.29177">
        <ele>150.12688</ele>
        <time>2022-12-28T11:28:08.725Z</time>
      </trkpt>
      <trkpt lat="44.46116" lon="-0.29176">
        <ele>149.951898</ele>
        <time>2022-12-28T11:28:11.725Z</time>
      </trkpt>
      <trkpt lat="44.46129" lon="-0.29176">
        <ele>149.756942</ele>
        <time>2022-12-28T11:28:14.722Z</time>
      </trkpt>
      <trkpt lat="44.46139" lon="-0.29176">
        <ele>149.613977</ele>
        <time>2022-12-28T11:28:16.722Z</time>
      </trkpt>
      <trkpt lat="44.46152" lon="-0.29176">
        <ele>149.430472</ele>
        <time>2022-12-28T11:28:19.711Z</time>
      </trkpt>
      <trkpt lat="44.46163" lon="-0.29177">
        <ele>149.268729</ele>
        <time>2022-12-28T11:28:21.711Z</time>
      </trkpt>
      <trkpt lat="44.46173" lon="-0.29178">
        <ele>149.125328</ele>
        <time>2022-12-28T11:28:23.725Z</time>
      </trkpt>
      <trkpt lat="44.46182" lon="-0.2918">
        <ele>148.998274</ele>
        <time>2022-12-28T11:28:25.726Z</time>
      </trkpt>
      <trkpt lat="44.46195" lon="-0.29184">
        <ele>148.819556</ele>
        <time>2022-12-28T11:28:28.727Z</time>
      </trkpt>
      <trkpt lat="44.46204" lon="-0.29187">
        <ele>148.690557</ele>
        <time>2022-12-28T11:28:30.723Z</time>
      </trkpt>
      <trkpt lat="44.46216" lon="-0.2919">
        <ele>148.521951</ele>
        <time>2022-12-28T11:28:33.726Z</time>
      </trkpt>
      <trkpt lat="44.46227" lon="-0.29194">
        <ele>148.367526</ele>
        <time>2022-12-28T11:28:36.729Z</time>
      </trkpt>
      <trkpt lat="44.46236" lon="-0.29197">
        <ele>148.237429</ele>
        <time>2022-12-28T11:28:39.723Z</time>
      </trkpt>
      <trkpt lat="44.46237" lon="-0.29184">
        <ele>148.104381</ele>
        <time>2022-12-28T11:28:53.717Z</time>
      </trkpt>
      <trkpt lat="44.46229" lon="-0.29177">
        <ele>147.977611</ele>
        <time>2022-12-28T11:28:56.725Z</time>
      </trkpt>
      <trkpt lat="44.4622" lon="-0.2917">
        <ele>147.833411</ele>
        <time>2022-12-28T11:28:59.724Z</time>
      </trkpt>
      <trkpt lat="44.46209" lon="-0.29162">
        <ele>147.661222</ele>
        <time>2022-12-28T11:29:02.720Z</time>
      </trkpt>
      <trkpt lat="44.46198" lon="-0.29153">
        <ele>147.48918</ele>
        <time>2022-12-28T11:29:05.703Z</time>
      </trkpt>
      <trkpt lat="44.46186" lon="-0.29145">
        <ele>147.300141</ele>
        <time>2022-12-28T11:29:08.712Z</time>
      </trkpt>
      <trkpt lat="44.46175" lon="-0.29135">
        <ele>147.111921</ele>
        <time>2022-12-28T11:29:11.716Z</time>
      </trkpt>
      <trkpt lat="44.46166" lon="-0.29128">
        <ele>146.977837</ele>
        <time>2022-12-28T11:29:13.701Z</time>
      </trkpt>
      <trkpt lat="44.46156" lon="-0.29119">
        <ele>146.804378</ele>
        <time>2022-12-28T11:29:16.722Z</time>
      </trkpt>
      <trkpt lat="44.46145" lon="-0.29111">
        <ele>146.694941</ele>
        <time>2022-12-28T11:29:19.723Z</time>
      </trkpt>
      <trkpt lat="44.46135" lon="-0.29103">
        <ele>146.590274</ele>
        <time>2022-12-28T11:29:22.719Z</time>
      </trkpt>
      <trkpt lat="44.46124" lon="-0.29095">
        <ele>146.483757</ele>
        <time>2022-12-28T11:29:25.725Z</time>
      </trkpt>
      <trkpt lat="44.46115" lon="-0.29087">
        <ele>146.393295</ele>
        <time>2022-12-28T11:29:27.713Z</time>
      </trkpt>
      <trkpt lat="44.46105" lon="-0.29077">
        <ele>146.284007</ele>
        <time>2022-12-28T11:29:30.709Z</time>
      </trkpt>
      <trkpt lat="44.46098" lon="-0.29066">
        <ele>146.196098</ele>
        <time>2022-12-28T11:29:32.702Z</time>
      </trkpt>
      <trkpt lat="44.46087" lon="-0.29052">
        <ele>146.066105</ele>
        <time>2022-12-28T11:29:35.706Z</time>
      </trkpt>
      <trkpt lat="44.46076" lon="-0.29043">
        <ele>145.953972</ele>
        <time>2022-12-28T11:29:38.723Z</time>
      </trkpt>
      <trkpt lat="44.46068" lon="-0.29037">
        <ele>145.874714</ele>
        <time>2022-12-28T11:29:41.723Z</time>
      </trkpt>
      <trkpt lat="44.46058" lon="-0.29031">
        <ele>145.778259</ele>
        <time>2022-12-28T11:29:44.718Z</time>
      </trkpt>
      <trkpt lat="44.4605" lon="-0.29023">
        <ele>145.69933</ele>
        <time>2022-12-28T11:29:46.714Z</time>
      </trkpt>
      <trkpt lat="44.46041" lon="-0.29014">
        <ele>145.596475</ele>
        <time>2022-12-28T11:29:49.724Z</time>
      </trkpt>
      <trkpt lat="44.4603" lon="-0.29007">
        <ele>145.497444</ele>
        <time>2022-12-28T11:29:53.726Z</time>
      </trkpt>
      <trkpt lat="44.46019" lon="-0.29004">
        <ele>145.392863</ele>
        <time>2022-12-28T11:29:56.717Z</time>
      </trkpt>
      <trkpt lat="44.46008" lon="-0.28998">
        <ele>145.296372</ele>
        <time>2022-12-28T11:29:59.710Z</time>
      </trkpt>
      <trkpt lat="44.45998" lon="-0.28992">
        <ele>145.301457</ele>
        <time>2022-12-28T11:30:03.724Z</time>
      </trkpt>
      <trkpt lat="44.45988" lon="-0.28984">
        <ele>145.634825</ele>
        <time>2022-12-28T11:30:06.715Z</time>
      </trkpt>
      <trkpt lat="44.45982" lon="-0.28976">
        <ele>145.898607</ele>
        <time>2022-12-28T11:30:08.718Z</time>
      </trkpt>
      <trkpt lat="44.45972" lon="-0.28969">
        <ele>146.217546</ele>
        <time>2022-12-28T11:30:11.729Z</time>
      </trkpt>
      <trkpt lat="44.45961" lon="-0.28959">
        <ele>146.584742</ele>
        <time>2022-12-28T11:30:14.725Z</time>
      </trkpt>
      <trkpt lat="44.45947" lon="-0.2895">
        <ele>147.039724</ele>
        <time>2022-12-28T11:30:17.723Z</time>
      </trkpt>
      <trkpt lat="44.45937" lon="-0.28941">
        <ele>147.393412</ele>
        <time>2022-12-28T11:30:20.706Z</time>
      </trkpt>
      <trkpt lat="44.45928" lon="-0.28933">
        <ele>147.699106</ele>
        <time>2022-12-28T11:30:23.722Z</time>
      </trkpt>
      <trkpt lat="44.45921" lon="-0.28925">
        <ele>147.979489</ele>
        <time>2022-12-28T11:30:26.724Z</time>
      </trkpt>
      <trkpt lat="44.4591" lon="-0.28916">
        <ele>148.343868</ele>
        <time>2022-12-28T11:30:29.725Z</time>
      </trkpt>
      <trkpt lat="44.45901" lon="-0.28908">
        <ele>148.648132</ele>
        <time>2022-12-28T11:30:32.712Z</time>
      </trkpt>
      <trkpt lat="44.45894" lon="-0.28899">
        <ele>148.930357</ele>
        <time>2022-12-28T11:30:35.727Z</time>
      </trkpt>
      <trkpt lat="44.45884" lon="-0.2889">
        <ele>149.294812</ele>
        <time>2022-12-28T11:30:38.727Z</time>
      </trkpt>
      <trkpt lat="44.45876" lon="-0.28879">
        <ele>149.600532</ele>
        <time>2022-12-28T11:30:41.707Z</time>
      </trkpt>
      <trkpt lat="44.45868" lon="-0.28869">
        <ele>149.915508</ele>
        <time>2022-12-28T11:30:44.721Z</time>
      </trkpt>
      <trkpt lat="44.45859" lon="-0.2886">
        <ele>150.231822</ele>
        <time>2022-12-28T11:30:47.728Z</time>
      </trkpt>
      <trkpt lat="44.45849" lon="-0.28852">
        <ele>150.519653</ele>
        <time>2022-12-28T11:30:50.725Z</time>
      </trkpt>
      <trkpt lat="44.45841" lon="-0.28845">
        <ele>150.632363</ele>
        <time>2022-12-28T11:30:52.722Z</time>
      </trkpt>
      <trkpt lat="44.45831" lon="-0.28835">
        <ele>150.767013</ele>
        <time>2022-12-28T11:30:55.707Z</time>
      </trkpt>
      <trkpt lat="44.45822" lon="-0.28826">
        <ele>150.896502</ele>
        <time>2022-12-28T11:30:58.729Z</time>
      </trkpt>
      <trkpt lat="44.45815" lon="-0.28817">
        <ele>151.006951</ele>
        <time>2022-12-28T11:31:01.727Z</time>
      </trkpt>
      <trkpt lat="44.45807" lon="-0.28808">
        <ele>151.127705</ele>
        <time>2022-12-28T11:31:04.723Z</time>
      </trkpt>
      <trkpt lat="44.45798" lon="-0.28798">
        <ele>151.253347</ele>
        <time>2022-12-28T11:31:07.724Z</time>
      </trkpt>
      <trkpt lat="44.45787" lon="-0.28787">
        <ele>151.404879</ele>
        <time>2022-12-28T11:31:10.707Z</time>
      </trkpt>
      <trkpt lat="44.45778" lon="-0.28776">
        <ele>151.541527</ele>
        <time>2022-12-28T11:31:13.701Z</time>
      </trkpt>
      <trkpt lat="44.45768" lon="-0.28765">
        <ele>151.689718</ele>
        <time>2022-12-28T11:31:16.722Z</time>
      </trkpt>
      <trkpt lat="44.45757" lon="-0.28755">
        <ele>151.83649</ele>
        <time>2022-12-28T11:31:19.722Z</time>
      </trkpt>
      <trkpt lat="44.45749" lon="-0.28743">
        <ele>151.969862</ele>
        <time>2022-12-28T11:31:22.705Z</time>
      </trkpt>
      <trkpt lat="44.45742" lon="-0.2873">
        <ele>152.103975</ele>
        <time>2022-12-28T11:31:25.709Z</time>
      </trkpt>
      <trkpt lat="44.45732" lon="-0.28719">
        <ele>152.244288</ele>
        <time>2022-12-28T11:31:28.724Z</time>
      </trkpt>
      <trkpt lat="44.45723" lon="-0.2871">
        <ele>152.373773</ele>
        <time>2022-12-28T11:31:31.726Z</time>
      </trkpt>
      <trkpt lat="44.45714" lon="-0.287">
        <ele>152.509322</ele>
        <time>2022-12-28T11:31:34.710Z</time>
      </trkpt>
      <trkpt lat="44.45703" lon="-0.28689">
        <ele>152.743682</ele>
        <time>2022-12-28T11:31:37.726Z</time>
      </trkpt>
      <trkpt lat="44.45692" lon="-0.28679">
        <ele>152.989381</ele>
        <time>2022-12-28T11:31:40.727Z</time>
      </trkpt>
      <trkpt lat="44.45683" lon="-0.28669">
        <ele>153.217728</ele>
        <time>2022-12-28T11:31:43.722Z</time>
      </trkpt>
      <trkpt lat="44.45673" lon="-0.28659">
        <ele>153.450035</ele>
        <time>2022-12-28T11:31:46.728Z</time>
      </trkpt>
      <trkpt lat="44.45666" lon="-0.2865">
        <ele>153.627891</ele>
        <time>2022-12-28T11:31:48.725Z</time>
      </trkpt>
      <trkpt lat="44.45657" lon="-0.28637">
        <ele>153.878445</ele>
        <time>2022-12-28T11:31:51.722Z</time>
      </trkpt>
      <trkpt lat="44.45649" lon="-0.28625">
        <ele>154.100762</ele>
        <time>2022-12-28T11:31:54.707Z</time>
      </trkpt>
      <trkpt lat="44.4564" lon="-0.28614">
        <ele>154.32908</ele>
        <time>2022-12-28T11:31:57.723Z</time>
      </trkpt>
      <trkpt lat="44.45631" lon="-0.28602">
        <ele>154.566205</ele>
        <time>2022-12-28T11:32:00.722Z</time>
      </trkpt>
      <trkpt lat="44.45621" lon="-0.2859">
        <ele>154.817045</ele>
        <time>2022-12-28T11:32:03.726Z</time>
      </trkpt>
      <trkpt lat="44.45611" lon="-0.28577">
        <ele>155.087532</ele>
        <time>2022-12-28T11:32:06.715Z</time>
      </trkpt>
      <trkpt lat="44.45604" lon="-0.28567">
        <ele>155.276114</ele>
        <time>2022-12-28T11:32:08.725Z</time>
      </trkpt>
      <trkpt lat="44.45595" lon="-0.28555">
        <ele>155.52164</ele>
        <time>2022-12-28T11:32:11.739Z</time>
      </trkpt>
      <trkpt lat="44.45589" lon="-0.28546">
        <ele>155.694384</ele>
        <time>2022-12-28T11:32:13.724Z</time>
      </trkpt>
      <trkpt lat="44.4558" lon="-0.28532">
        <ele>155.942244</ele>
        <time>2022-12-28T11:32:16.715Z</time>
      </trkpt>
      <trkpt lat="44.45572" lon="-0.28519">
        <ele>156.123801</ele>
        <time>2022-12-28T11:32:19.722Z</time>
      </trkpt>
      <trkpt lat="44.45564" lon="-0.28505">
        <ele>156.292124</ele>
        <time>2022-12-28T11:32:22.727Z</time>
      </trkpt>
      <trkpt lat="44.45557" lon="-0.28496">
        <ele>156.422232</ele>
        <time>2022-12-28T11:32:24.725Z</time>
      </trkpt>
      <trkpt lat="44.45548" lon="-0.28483">
        <ele>156.592383</ele>
        <time>2022-12-28T11:32:27.725Z</time>
      </trkpt>
      <trkpt lat="44.45542" lon="-0.28472">
        <ele>156.726158</ele>
        <time>2022-12-28T11:32:29.709Z</time>
      </trkpt>
      <trkpt lat="44.45536" lon="-0.28462">
        <ele>156.852589</ele>
        <time>2022-12-28T11:32:31.715Z</time>
      </trkpt>
      <trkpt lat="44.4553" lon="-0.28452">
        <ele>156.979224</ele>
        <time>2022-12-28T11:32:33.727Z</time>
      </trkpt>
      <trkpt lat="44.45524" lon="-0.28442">
        <ele>157.101179</ele>
        <time>2022-12-28T11:32:35.725Z</time>
      </trkpt>
      <trkpt lat="44.45518" lon="-0.28432">
        <ele>157.223194</ele>
        <time>2022-12-28T11:32:37.724Z</time>
      </trkpt>
      <trkpt lat="44.45512" lon="-0.28423">
        <ele>157.34883</ele>
        <time>2022-12-28T11:32:39.727Z</time>
      </trkpt>
      <trkpt lat="44.45505" lon="-0.28414">
        <ele>157.474724</ele>
        <time>2022-12-28T11:32:41.709Z</time>
      </trkpt>
      <trkpt lat="44.45499" lon="-0.28403">
        <ele>157.605995</ele>
        <time>2022-12-28T11:32:43.728Z</time>
      </trkpt>
      <trkpt lat="44.45494" lon="-0.28392">
        <ele>157.737278</ele>
        <time>2022-12-28T11:32:45.709Z</time>
      </trkpt>
      <trkpt lat="44.45488" lon="-0.28381">
        <ele>157.86331</ele>
        <time>2022-12-28T11:32:47.727Z</time>
      </trkpt>
      <trkpt lat="44.45482" lon="-0.28372">
        <ele>157.985977</ele>
        <time>2022-12-28T11:32:49.721Z</time>
      </trkpt>
      <trkpt lat="44.45474" lon="-0.28357">
        <ele>158.156312</ele>
        <time>2022-12-28T11:32:52.727Z</time>
      </trkpt>
      <trkpt lat="44.45468" lon="-0.28347">
        <ele>158.291343</ele>
        <time>2022-12-28T11:32:54.728Z</time>
      </trkpt>
      <trkpt lat="44.45462" lon="-0.28336">
        <ele>158.416395</ele>
        <time>2022-12-28T11:32:56.721Z</time>
      </trkpt>
      <trkpt lat="44.45457" lon="-0.28325">
        <ele>158.507845</ele>
        <time>2022-12-28T11:32:58.703Z</time>
      </trkpt>
      <trkpt lat="44.45451" lon="-0.28314">
        <ele>158.609504</ele>
        <time>2022-12-28T11:33:01.701Z</time>
      </trkpt>
      <trkpt lat="44.45442" lon="-0.283">
        <ele>158.734684</ele>
        <time>2022-12-28T11:33:04.713Z</time>
      </trkpt>
      <trkpt lat="44.45437" lon="-0.28288">
        <ele>158.84028</ele>
        <time>2022-12-28T11:33:07.709Z</time>
      </trkpt>
      <trkpt lat="44.45431" lon="-0.28277">
        <ele>158.935526</ele>
        <time>2022-12-28T11:33:09.710Z</time>
      </trkpt>
      <trkpt lat="44.45424" lon="-0.28267">
        <ele>159.032824</ele>
        <time>2022-12-28T11:33:11.709Z</time>
      </trkpt>
      <trkpt lat="44.45419" lon="-0.28256">
        <ele>159.12684</ele>
        <time>2022-12-28T11:33:13.706Z</time>
      </trkpt>
      <trkpt lat="44.45413" lon="-0.28245">
        <ele>159.222585</ele>
        <time>2022-12-28T11:33:15.712Z</time>
      </trkpt>
      <trkpt lat="44.45408" lon="-0.28235">
        <ele>159.31544</ele>
        <time>2022-12-28T11:33:17.709Z</time>
      </trkpt>
      <trkpt lat="44.45401" lon="-0.28226">
        <ele>159.409027</ele>
        <time>2022-12-28T11:33:19.711Z</time>
      </trkpt>
      <trkpt lat="44.45395" lon="-0.28213">
        <ele>159.510675</ele>
        <time>2022-12-28T11:33:21.712Z</time>
      </trkpt>
      <trkpt lat="44.4539" lon="-0.28201">
        <ele>159.617577</ele>
        <time>2022-12-28T11:33:23.702Z</time>
      </trkpt>
      <trkpt lat="44.45384" lon="-0.28188">
        <ele>159.723173</ele>
        <time>2022-12-28T11:33:25.707Z</time>
      </trkpt>
      <trkpt lat="44.45378" lon="-0.28176">
        <ele>159.824224</ele>
        <time>2022-12-28T11:33:27.711Z</time>
      </trkpt>
      <trkpt lat="44.45373" lon="-0.28164">
        <ele>159.925872</ele>
        <time>2022-12-28T11:33:29.709Z</time>
      </trkpt>
      <trkpt lat="44.45367" lon="-0.28151">
        <ele>160.034425</ele>
        <time>2022-12-28T11:33:31.729Z</time>
      </trkpt>
      <trkpt lat="44.45362" lon="-0.28138">
        <ele>160.142392</ele>
        <time>2022-12-28T11:33:33.725Z</time>
      </trkpt>
      <trkpt lat="44.45357" lon="-0.28126">
        <ele>160.237391</ele>
        <time>2022-12-28T11:33:35.712Z</time>
      </trkpt>
      <trkpt lat="44.45352" lon="-0.28115">
        <ele>160.32392</ele>
        <time>2022-12-28T11:33:37.710Z</time>
      </trkpt>
      <trkpt lat="44.45347" lon="-0.28104">
        <ele>160.407852</ele>
        <time>2022-12-28T11:33:39.715Z</time>
      </trkpt>
      <trkpt lat="44.45341" lon="-0.28089">
        <ele>160.524008</ele>
        <time>2022-12-28T11:33:42.723Z</time>
      </trkpt>
      <trkpt lat="44.45334" lon="-0.28074">
        <ele>160.641326</ele>
        <time>2022-12-28T11:33:45.731Z</time>
      </trkpt>
      <trkpt lat="44.45327" lon="-0.28059">
        <ele>160.75831</ele>
        <time>2022-12-28T11:33:48.722Z</time>
      </trkpt>
      <trkpt lat="44.45321" lon="-0.28042">
        <ele>160.87967</ele>
        <time>2022-12-28T11:33:51.722Z</time>
      </trkpt>
      <trkpt lat="44.45317" lon="-0.28031">
        <ele>160.966835</ele>
        <time>2022-12-28T11:33:53.711Z</time>
      </trkpt>
      <trkpt lat="44.45311" lon="-0.28019">
        <ele>161.058269</ele>
        <time>2022-12-28T11:33:55.726Z</time>
      </trkpt>
      <trkpt lat="44.45307" lon="-0.28007">
        <ele>161.147695</ele>
        <time>2022-12-28T11:33:57.708Z</time>
      </trkpt>
      <trkpt lat="44.45304" lon="-0.27994">
        <ele>161.240663</ele>
        <time>2022-12-28T11:33:59.719Z</time>
      </trkpt>
      <trkpt lat="44.45298" lon="-0.27982">
        <ele>161.33222</ele>
        <time>2022-12-28T11:34:01.725Z</time>
      </trkpt>
      <trkpt lat="44.45293" lon="-0.27971">
        <ele>161.418267</ele>
        <time>2022-12-28T11:34:03.721Z</time>
      </trkpt>
      <trkpt lat="44.45288" lon="-0.27959">
        <ele>161.512336</ele>
        <time>2022-12-28T11:34:05.724Z</time>
      </trkpt>
      <trkpt lat="44.45282" lon="-0.27949">
        <ele>161.597861</ele>
        <time>2022-12-28T11:34:07.718Z</time>
      </trkpt>
      <trkpt lat="44.45276" lon="-0.27937">
        <ele>161.691384</ele>
        <time>2022-12-28T11:34:09.715Z</time>
      </trkpt>
      <trkpt lat="44.45271" lon="-0.27926">
        <ele>161.782942</ele>
        <time>2022-12-28T11:34:11.726Z</time>
      </trkpt>
      <trkpt lat="44.45266" lon="-0.27915">
        <ele>161.825396</ele>
        <time>2022-12-28T11:34:13.726Z</time>
      </trkpt>
      <trkpt lat="44.45262" lon="-0.27902">
        <ele>161.670128</ele>
        <time>2022-12-28T11:34:15.721Z</time>
      </trkpt>
      <trkpt lat="44.45257" lon="-0.27891">
        <ele>161.517056</ele>
        <time>2022-12-28T11:34:17.717Z</time>
      </trkpt>
      <trkpt lat="44.45252" lon="-0.2788">
        <ele>161.370116</ele>
        <time>2022-12-28T11:34:19.709Z</time>
      </trkpt>
      <trkpt lat="44.45248" lon="-0.27869">
        <ele>161.220674</ele>
        <time>2022-12-28T11:34:21.733Z</time>
      </trkpt>
      <trkpt lat="44.45243" lon="-0.27857">
        <ele>161.057534</ele>
        <time>2022-12-28T11:34:23.722Z</time>
      </trkpt>
      <trkpt lat="44.45236" lon="-0.2784">
        <ele>160.830069</ele>
        <time>2022-12-28T11:34:26.705Z</time>
      </trkpt>
      <trkpt lat="44.45229" lon="-0.27823">
        <ele>160.60601</ele>
        <time>2022-12-28T11:34:29.706Z</time>
      </trkpt>
      <trkpt lat="44.45225" lon="-0.27811">
        <ele>160.458376</ele>
        <time>2022-12-28T11:34:31.718Z</time>
      </trkpt>
      <trkpt lat="44.4522" lon="-0.278">
        <ele>160.299672</ele>
        <time>2022-12-28T11:34:33.722Z</time>
      </trkpt>
      <trkpt lat="44.45215" lon="-0.27789">
        <ele>160.148048</ele>
        <time>2022-12-28T11:34:35.726Z</time>
      </trkpt>
      <trkpt lat="44.4521" lon="-0.27778">
        <ele>159.99907</ele>
        <time>2022-12-28T11:34:37.727Z</time>
      </trkpt>
      <trkpt lat="44.45205" lon="-0.27766">
        <ele>159.844806</ele>
        <time>2022-12-28T11:34:39.725Z</time>
      </trkpt>
      <trkpt lat="44.45198" lon="-0.27752">
        <ele>159.642365</ele>
        <time>2022-12-28T11:34:42.723Z</time>
      </trkpt>
      <trkpt lat="44.45192" lon="-0.27739">
        <ele>159.460503</ele>
        <time>2022-12-28T11:34:45.708Z</time>
      </trkpt>
      <trkpt lat="44.45185" lon="-0.27724">
        <ele>159.253038</ele>
        <time>2022-12-28T11:34:48.725Z</time>
      </trkpt>
      <trkpt lat="44.45179" lon="-0.27708">
        <ele>159.050128</ele>
        <time>2022-12-28T11:34:51.709Z</time>
      </trkpt>
      <trkpt lat="44.45173" lon="-0.27694">
        <ele>158.848003</ele>
        <time>2022-12-28T11:34:54.712Z</time>
      </trkpt>
      <trkpt lat="44.45168" lon="-0.2768">
        <ele>158.646866</ele>
        <time>2022-12-28T11:34:57.702Z</time>
      </trkpt>
      <trkpt lat="44.45162" lon="-0.27666">
        <ele>158.452903</ele>
        <time>2022-12-28T11:35:01.713Z</time>
      </trkpt>
      <trkpt lat="44.45155" lon="-0.27657">
        <ele>158.27935</ele>
        <time>2022-12-28T11:35:27.712Z</time>
      </trkpt>
      <trkpt lat="44.4515" lon="-0.27643">
        <ele>158.087324</ele>
        <time>2022-12-28T11:35:32.704Z</time>
      </trkpt>
      <trkpt lat="44.45144" lon="-0.27628">
        <ele>157.868775</ele>
        <time>2022-12-28T11:35:36.725Z</time>
      </trkpt>
      <trkpt lat="44.45138" lon="-0.27614">
        <ele>157.669743</ele>
        <time>2022-12-28T11:35:39.727Z</time>
      </trkpt>
      <trkpt lat="44.45132" lon="-0.27599">
        <ele>157.4471</ele>
        <time>2022-12-28T11:35:42.714Z</time>
      </trkpt>
      <trkpt lat="44.45126" lon="-0.27588">
        <ele>157.278082</ele>
        <time>2022-12-28T11:35:44.726Z</time>
      </trkpt>
      <trkpt lat="44.4512" lon="-0.27572">
        <ele>157.043744</ele>
        <time>2022-12-28T11:35:47.718Z</time>
      </trkpt>
      <trkpt lat="44.45115" lon="-0.27561">
        <ele>156.876757</ele>
        <time>2022-12-28T11:35:49.713Z</time>
      </trkpt>
      <trkpt lat="44.4511" lon="-0.2755">
        <ele>156.714795</ele>
        <time>2022-12-28T11:35:51.705Z</time>
      </trkpt>
      <trkpt lat="44.45101" lon="-0.27535">
        <ele>156.466142</ele>
        <time>2022-12-28T11:35:54.721Z</time>
      </trkpt>
      <trkpt lat="44.45095" lon="-0.27518">
        <ele>156.231328</ele>
        <time>2022-12-28T11:35:57.705Z</time>
      </trkpt>
      <trkpt lat="44.4509" lon="-0.27506">
        <ele>156.053901</ele>
        <time>2022-12-28T11:35:59.725Z</time>
      </trkpt>
      <trkpt lat="44.45085" lon="-0.27495">
        <ele>155.892882</ele>
        <time>2022-12-28T11:36:01.715Z</time>
      </trkpt>
      <trkpt lat="44.45078" lon="-0.2748">
        <ele>155.863866</ele>
        <time>2022-12-28T11:36:04.727Z</time>
      </trkpt>
      <trkpt lat="44.45073" lon="-0.27469">
        <ele>156.009596</ele>
        <time>2022-12-28T11:36:06.708Z</time>
      </trkpt>
      <trkpt lat="44.45066" lon="-0.27453">
        <ele>156.213946</ele>
        <time>2022-12-28T11:36:09.725Z</time>
      </trkpt>
      <trkpt lat="44.45061" lon="-0.27442">
        <ele>156.365702</ele>
        <time>2022-12-28T11:36:11.726Z</time>
      </trkpt>
      <trkpt lat="44.45055" lon="-0.27426">
        <ele>156.57419</ele>
        <time>2022-12-28T11:36:14.727Z</time>
      </trkpt>
      <trkpt lat="44.45048" lon="-0.27413">
        <ele>156.762939</ele>
        <time>2022-12-28T11:36:17.725Z</time>
      </trkpt>
      <trkpt lat="44.45043" lon="-0.27398">
        <ele>156.947399</ele>
        <time>2022-12-28T11:36:20.728Z</time>
      </trkpt>
      <trkpt lat="44.45038" lon="-0.27384">
        <ele>157.130131</ele>
        <time>2022-12-28T11:36:23.724Z</time>
      </trkpt>
      <trkpt lat="44.45033" lon="-0.27368">
        <ele>157.328469</ele>
        <time>2022-12-28T11:36:26.728Z</time>
      </trkpt>
      <trkpt lat="44.45027" lon="-0.27353">
        <ele>157.523539</ele>
        <time>2022-12-28T11:36:29.723Z</time>
      </trkpt>
      <trkpt lat="44.4502" lon="-0.27338">
        <ele>157.717471</ele>
        <time>2022-12-28T11:36:32.727Z</time>
      </trkpt>
      <trkpt lat="44.45014" lon="-0.27323">
        <ele>157.917914</ele>
        <time>2022-12-28T11:36:35.726Z</time>
      </trkpt>
      <trkpt lat="44.45006" lon="-0.27309">
        <ele>158.127214</ele>
        <time>2022-12-28T11:36:38.705Z</time>
      </trkpt>
      <trkpt lat="44.44998" lon="-0.27294">
        <ele>158.329843</ele>
        <time>2022-12-28T11:36:41.723Z</time>
      </trkpt>
      <trkpt lat="44.44992" lon="-0.27279">
        <ele>158.526294</ele>
        <time>2022-12-28T11:36:44.725Z</time>
      </trkpt>
      <trkpt lat="44.44989" lon="-0.27265">
        <ele>158.717975</ele>
        <time>2022-12-28T11:36:47.721Z</time>
      </trkpt>
      <trkpt lat="44.44986" lon="-0.27252">
        <ele>158.9457</ele>
        <time>2022-12-28T11:36:50.726Z</time>
      </trkpt>
      <trkpt lat="44.44982" lon="-0.27237">
        <ele>159.20458</ele>
        <time>2022-12-28T11:36:53.723Z</time>
      </trkpt>
      <trkpt lat="44.44975" lon="-0.27222">
        <ele>159.48755</ele>
        <time>2022-12-28T11:36:56.722Z</time>
      </trkpt>
      <trkpt lat="44.44969" lon="-0.27207">
        <ele>159.77743</ele>
        <time>2022-12-28T11:36:59.720Z</time>
      </trkpt>
      <trkpt lat="44.44962" lon="-0.27193">
        <ele>160.054603</ele>
        <time>2022-12-28T11:37:02.709Z</time>
      </trkpt>
      <trkpt lat="44.44955" lon="-0.2718">
        <ele>160.308124</ele>
        <time>2022-12-28T11:37:05.726Z</time>
      </trkpt>
      <trkpt lat="44.4495" lon="-0.27166">
        <ele>160.572009</ele>
        <time>2022-12-28T11:37:08.728Z</time>
      </trkpt>
      <trkpt lat="44.44943" lon="-0.27152">
        <ele>160.850506</ele>
        <time>2022-12-28T11:37:11.729Z</time>
      </trkpt>
      <trkpt lat="44.44937" lon="-0.27137">
        <ele>161.118082</ele>
        <time>2022-12-28T11:37:14.727Z</time>
      </trkpt>
      <trkpt lat="44.44931" lon="-0.27122">
        <ele>161.401496</ele>
        <time>2022-12-28T11:37:17.725Z</time>
      </trkpt>
      <trkpt lat="44.44924" lon="-0.27108">
        <ele>161.671076</ele>
        <time>2022-12-28T11:37:20.710Z</time>
      </trkpt>
      <trkpt lat="44.44918" lon="-0.27094">
        <ele>161.940531</ele>
        <time>2022-12-28T11:37:23.726Z</time>
      </trkpt>
      <trkpt lat="44.44912" lon="-0.2708">
        <ele>162.200473</ele>
        <time>2022-12-28T11:37:26.725Z</time>
      </trkpt>
      <trkpt lat="44.44907" lon="-0.27066">
        <ele>162.460704</ele>
        <time>2022-12-28T11:37:29.730Z</time>
      </trkpt>
      <trkpt lat="44.44901" lon="-0.2705">
        <ele>162.723062</ele>
        <time>2022-12-28T11:37:32.732Z</time>
      </trkpt>
      <trkpt lat="44.44895" lon="-0.27034">
        <ele>162.779201</ele>
        <time>2022-12-28T11:37:35.707Z</time>
      </trkpt>
      <trkpt lat="44.44888" lon="-0.2702">
        <ele>162.832949</ele>
        <time>2022-12-28T11:37:38.733Z</time>
      </trkpt>
      <trkpt lat="44.44881" lon="-0.27007">
        <ele>162.880486</ele>
        <time>2022-12-28T11:37:41.728Z</time>
      </trkpt>
      <trkpt lat="44.44877" lon="-0.26992">
        <ele>162.928716</ele>
        <time>2022-12-28T11:37:44.707Z</time>
      </trkpt>
      <trkpt lat="44.44871" lon="-0.26977">
        <ele>162.980052</ele>
        <time>2022-12-28T11:37:47.708Z</time>
      </trkpt>
      <trkpt lat="44.44865" lon="-0.26963">
        <ele>163.030664</ele>
        <time>2022-12-28T11:37:50.720Z</time>
      </trkpt>
      <trkpt lat="44.44857" lon="-0.26949">
        <ele>163.083877</ele>
        <time>2022-12-28T11:37:53.715Z</time>
      </trkpt>
      <trkpt lat="44.44851" lon="-0.26935">
        <ele>163.134749</ele>
        <time>2022-12-28T11:37:56.726Z</time>
      </trkpt>
      <trkpt lat="44.44846" lon="-0.2692">
        <ele>163.183899</ele>
        <time>2022-12-28T11:37:59.726Z</time>
      </trkpt>
      <trkpt lat="44.44841" lon="-0.26906">
        <ele>163.233238</ele>
        <time>2022-12-28T11:38:02.728Z</time>
      </trkpt>
      <trkpt lat="44.44835" lon="-0.26891">
        <ele>163.28552</ele>
        <time>2022-12-28T11:38:05.726Z</time>
      </trkpt>
      <trkpt lat="44.4483" lon="-0.26877">
        <ele>163.331095</ele>
        <time>2022-12-28T11:38:08.713Z</time>
      </trkpt>
      <trkpt lat="44.44822" lon="-0.26863">
        <ele>163.384805</ele>
        <time>2022-12-28T11:38:11.715Z</time>
      </trkpt>
      <trkpt lat="44.44815" lon="-0.26848">
        <ele>163.440089</ele>
        <time>2022-12-28T11:38:14.722Z</time>
      </trkpt>
      <trkpt lat="44.44809" lon="-0.26837">
        <ele>163.482809</ele>
        <time>2022-12-28T11:38:16.727Z</time>
      </trkpt>
      <trkpt lat="44.44804" lon="-0.26826">
        <ele>163.523447</ele>
        <time>2022-12-28T11:38:18.726Z</time>
      </trkpt>
      <trkpt lat="44.44798" lon="-0.26812">
        <ele>163.577864</ele>
        <time>2022-12-28T11:38:21.716Z</time>
      </trkpt>
      <trkpt lat="44.44789" lon="-0.26797">
        <ele>163.639186</ele>
        <time>2022-12-28T11:38:24.708Z</time>
      </trkpt>
      <trkpt lat="44.44783" lon="-0.26787">
        <ele>163.679775</ele>
        <time>2022-12-28T11:38:26.725Z</time>
      </trkpt>
      <trkpt lat="44.44778" lon="-0.26771">
        <ele>163.736179</ele>
        <time>2022-12-28T11:38:29.705Z</time>
      </trkpt>
      <trkpt lat="44.4477" lon="-0.26756">
        <ele>163.794629</ele>
        <time>2022-12-28T11:38:32.708Z</time>
      </trkpt>
      <trkpt lat="44.44763" lon="-0.26747">
        <ele>163.839189</ele>
        <time>2022-12-28T11:38:34.728Z</time>
      </trkpt>
      <trkpt lat="44.44756" lon="-0.26738">
        <ele>163.87963</ele>
        <time>2022-12-28T11:38:36.703Z</time>
      </trkpt>
      <trkpt lat="44.44749" lon="-0.26726">
        <ele>163.927493</ele>
        <time>2022-12-28T11:38:39.726Z</time>
      </trkpt>
      <trkpt lat="44.44743" lon="-0.26715">
        <ele>163.97046</ele>
        <time>2022-12-28T11:38:41.718Z</time>
      </trkpt>
      <trkpt lat="44.44739" lon="-0.26698">
        <ele>164.030005</ele>
        <time>2022-12-28T11:38:44.721Z</time>
      </trkpt>
      <trkpt lat="44.44734" lon="-0.26683">
        <ele>164.080694</ele>
        <time>2022-12-28T11:38:47.715Z</time>
      </trkpt>
      <trkpt lat="44.44728" lon="-0.26667">
        <ele>164.139297</ele>
        <time>2022-12-28T11:38:50.724Z</time>
      </trkpt>
      <trkpt lat="44.44726" lon="-0.26651">
        <ele>164.190179</ele>
        <time>2022-12-28T11:38:53.729Z</time>
      </trkpt>
      <trkpt lat="44.44719" lon="-0.26637">
        <ele>164.243949</ele>
        <time>2022-12-28T11:38:56.713Z</time>
      </trkpt>
      <trkpt lat="44.44712" lon="-0.26621">
        <ele>164.320412</ele>
        <time>2022-12-28T11:38:59.721Z</time>
      </trkpt>
      <trkpt lat="44.44706" lon="-0.26605">
        <ele>164.421788</ele>
        <time>2022-12-28T11:39:02.723Z</time>
      </trkpt>
      <trkpt lat="44.447" lon="-0.26589">
        <ele>164.527609</ele>
        <time>2022-12-28T11:39:05.707Z</time>
      </trkpt>
      <trkpt lat="44.44695" lon="-0.26573">
        <ele>164.632252</ele>
        <time>2022-12-28T11:39:08.722Z</time>
      </trkpt>
      <trkpt lat="44.44688" lon="-0.26557">
        <ele>164.737987</ele>
        <time>2022-12-28T11:39:11.720Z</time>
      </trkpt>
      <trkpt lat="44.44683" lon="-0.26546">
        <ele>164.812446</ele>
        <time>2022-12-28T11:39:13.725Z</time>
      </trkpt>
      <trkpt lat="44.44678" lon="-0.2653">
        <ele>164.916406</ele>
        <time>2022-12-28T11:39:16.726Z</time>
      </trkpt>
      <trkpt lat="44.44672" lon="-0.26514">
        <ele>165.02121</ele>
        <time>2022-12-28T11:39:19.726Z</time>
      </trkpt>
      <trkpt lat="44.44665" lon="-0.26497">
        <ele>165.130517</ele>
        <time>2022-12-28T11:39:22.717Z</time>
      </trkpt>
      <trkpt lat="44.44658" lon="-0.26482">
        <ele>165.23508</ele>
        <time>2022-12-28T11:39:25.724Z</time>
      </trkpt>
      <trkpt lat="44.44651" lon="-0.26466">
        <ele>165.345045</ele>
        <time>2022-12-28T11:39:28.727Z</time>
      </trkpt>
      <trkpt lat="44.44645" lon="-0.26455">
        <ele>165.424613</ele>
        <time>2022-12-28T11:39:30.717Z</time>
      </trkpt>
      <trkpt lat="44.44639" lon="-0.26439">
        <ele>165.532477</ele>
        <time>2022-12-28T11:39:33.726Z</time>
      </trkpt>
      <trkpt lat="44.44634" lon="-0.26428">
        <ele>165.605725</ele>
        <time>2022-12-28T11:39:35.725Z</time>
      </trkpt>
      <trkpt lat="44.44626" lon="-0.26416">
        <ele>165.702534</ele>
        <time>2022-12-28T11:39:37.716Z</time>
      </trkpt>
      <trkpt lat="44.44622" lon="-0.26404">
        <ele>165.762655</ele>
        <time>2022-12-28T11:39:39.730Z</time>
      </trkpt>
      <trkpt lat="44.44616" lon="-0.26388">
        <ele>165.826178</ele>
        <time>2022-12-28T11:39:42.711Z</time>
      </trkpt>
      <trkpt lat="44.44612" lon="-0.26376">
        <ele>165.873329</ele>
        <time>2022-12-28T11:39:44.705Z</time>
      </trkpt>
      <trkpt lat="44.44605" lon="-0.2636">
        <ele>165.93987</ele>
        <time>2022-12-28T11:39:47.716Z</time>
      </trkpt>
      <trkpt lat="44.44601" lon="-0.26348">
        <ele>165.984825</ele>
        <time>2022-12-28T11:39:49.731Z</time>
      </trkpt>
      <trkpt lat="44.44596" lon="-0.26338">
        <ele>166.02984</ele>
        <time>2022-12-28T11:39:51.715Z</time>
      </trkpt>
      <trkpt lat="44.44592" lon="-0.26326">
        <ele>166.077058</ele>
        <time>2022-12-28T11:39:53.724Z</time>
      </trkpt>
      <trkpt lat="44.44587" lon="-0.26314">
        <ele>166.124705</ele>
        <time>2022-12-28T11:39:55.725Z</time>
      </trkpt>
      <trkpt lat="44.44583" lon="-0.26303">
        <ele>166.171453</ele>
        <time>2022-12-28T11:39:57.723Z</time>
      </trkpt>
      <trkpt lat="44.44576" lon="-0.26286">
        <ele>166.238931</ele>
        <time>2022-12-28T11:40:00.727Z</time>
      </trkpt>
      <trkpt lat="44.44571" lon="-0.26274">
        <ele>166.287439</ele>
        <time>2022-12-28T11:40:02.737Z</time>
      </trkpt>
      <trkpt lat="44.44564" lon="-0.26259">
        <ele>166.350987</ele>
        <time>2022-12-28T11:40:05.731Z</time>
      </trkpt>
      <trkpt lat="44.44558" lon="-0.26244">
        <ele>166.413275</ele>
        <time>2022-12-28T11:40:08.724Z</time>
      </trkpt>
      <trkpt lat="44.44552" lon="-0.2623">
        <ele>166.46893</ele>
        <time>2022-12-28T11:40:11.729Z</time>
      </trkpt>
      <trkpt lat="44.44546" lon="-0.26216">
        <ele>166.529238</ele>
        <time>2022-12-28T11:40:14.727Z</time>
      </trkpt>
      <trkpt lat="44.4454" lon="-0.262">
        <ele>166.590874</ele>
        <time>2022-12-28T11:40:17.727Z</time>
      </trkpt>
      <trkpt lat="44.44534" lon="-0.26185">
        <ele>166.63344</ele>
        <time>2022-12-28T11:40:20.726Z</time>
      </trkpt>
      <trkpt lat="44.44527" lon="-0.26172">
        <ele>166.637321</ele>
        <time>2022-12-28T11:40:23.728Z</time>
      </trkpt>
      <trkpt lat="44.44522" lon="-0.26158">
        <ele>166.641426</ele>
        <time>2022-12-28T11:40:27.719Z</time>
      </trkpt>
      <trkpt lat="44.44516" lon="-0.26145">
        <ele>166.645145</ele>
        <time>2022-12-28T11:40:30.728Z</time>
      </trkpt>
      <trkpt lat="44.4451" lon="-0.26131">
        <ele>166.649297</ele>
        <time>2022-12-28T11:40:33.721Z</time>
      </trkpt>
      <trkpt lat="44.44503" lon="-0.26116">
        <ele>166.653593</ele>
        <time>2022-12-28T11:40:36.729Z</time>
      </trkpt>
      <trkpt lat="44.44497" lon="-0.26101">
        <ele>166.657876</ele>
        <time>2022-12-28T11:40:39.728Z</time>
      </trkpt>
      <trkpt lat="44.4449" lon="-0.26085">
        <ele>166.662589</ele>
        <time>2022-12-28T11:40:42.726Z</time>
      </trkpt>
      <trkpt lat="44.44486" lon="-0.26074">
        <ele>166.665747</ele>
        <time>2022-12-28T11:40:44.725Z</time>
      </trkpt>
      <trkpt lat="44.44482" lon="-0.26062">
        <ele>166.66899</ele>
        <time>2022-12-28T11:40:46.707Z</time>
      </trkpt>
      <trkpt lat="44.44478" lon="-0.26051">
        <ele>166.672148</ele>
        <time>2022-12-28T11:40:48.712Z</time>
      </trkpt>
      <trkpt lat="44.44473" lon="-0.26035">
        <ele>166.676513</ele>
        <time>2022-12-28T11:40:51.714Z</time>
      </trkpt>
      <trkpt lat="44.44468" lon="-0.26023">
        <ele>166.679808</ele>
        <time>2022-12-28T11:40:53.727Z</time>
      </trkpt>
      <trkpt lat="44.44462" lon="-0.26006">
        <ele>166.684444</ele>
        <time>2022-12-28T11:40:56.716Z</time>
      </trkpt>
      <trkpt lat="44.44458" lon="-0.25994">
        <ele>166.687725</ele>
        <time>2022-12-28T11:40:58.722Z</time>
      </trkpt>
      <trkpt lat="44.44454" lon="-0.25983">
        <ele>166.690917</ele>
        <time>2022-12-28T11:41:00.717Z</time>
      </trkpt>
      <trkpt lat="44.44449" lon="-0.25971">
        <ele>166.694251</ele>
        <time>2022-12-28T11:41:02.717Z</time>
      </trkpt>
      <trkpt lat="44.44445" lon="-0.25959">
        <ele>166.691349</ele>
        <time>2022-12-28T11:41:04.708Z</time>
      </trkpt>
      <trkpt lat="44.44442" lon="-0.25947">
        <ele>166.687673</ele>
        <time>2022-12-28T11:41:06.727Z</time>
      </trkpt>
      <trkpt lat="44.44436" lon="-0.2593">
        <ele>166.682246</ele>
        <time>2022-12-28T11:41:09.716Z</time>
      </trkpt>
      <trkpt lat="44.44431" lon="-0.25918">
        <ele>166.678146</ele>
        <time>2022-12-28T11:41:11.715Z</time>
      </trkpt>
      <trkpt lat="44.44426" lon="-0.259">
        <ele>166.67286</ele>
        <time>2022-12-28T11:41:14.703Z</time>
      </trkpt>
      <trkpt lat="44.44421" lon="-0.25884">
        <ele>166.667879</ele>
        <time>2022-12-28T11:41:17.716Z</time>
      </trkpt>
      <trkpt lat="44.44417" lon="-0.2587">
        <ele>166.663592</ele>
        <time>2022-12-28T11:41:20.725Z</time>
      </trkpt>
      <trkpt lat="44.44413" lon="-0.25854">
        <ele>166.65885</ele>
        <time>2022-12-28T11:41:23.706Z</time>
      </trkpt>
      <trkpt lat="44.44408" lon="-0.25837">
        <ele>166.653681</ele>
        <time>2022-12-28T11:41:26.727Z</time>
      </trkpt>
      <trkpt lat="44.44404" lon="-0.2582">
        <ele>166.648463</ele>
        <time>2022-12-28T11:41:29.725Z</time>
      </trkpt>
      <trkpt lat="44.444" lon="-0.25802">
        <ele>166.643204</ele>
        <time>2022-12-28T11:41:32.712Z</time>
      </trkpt>
      <trkpt lat="44.44396" lon="-0.2579">
        <ele>166.639516</ele>
        <time>2022-12-28T11:41:34.722Z</time>
      </trkpt>
      <trkpt lat="44.44392" lon="-0.25772">
        <ele>166.634151</ele>
        <time>2022-12-28T11:41:37.730Z</time>
      </trkpt>
      <trkpt lat="44.44389" lon="-0.25759">
        <ele>166.630477</ele>
        <time>2022-12-28T11:41:39.725Z</time>
      </trkpt>
      <trkpt lat="44.44386" lon="-0.25748">
        <ele>166.626895</ele>
        <time>2022-12-28T11:41:41.731Z</time>
      </trkpt>
      <trkpt lat="44.44383" lon="-0.25735">
        <ele>166.629629</ele>
        <time>2022-12-28T11:41:43.727Z</time>
      </trkpt>
      <trkpt lat="44.4438" lon="-0.25718">
        <ele>167.021043</ele>
        <time>2022-12-28T11:41:46.717Z</time>
      </trkpt>
      <trkpt lat="44.44376" lon="-0.25702">
        <ele>167.396048</ele>
        <time>2022-12-28T11:41:49.728Z</time>
      </trkpt>
      <trkpt lat="44.44373" lon="-0.25686">
        <ele>167.743289</ele>
        <time>2022-12-28T11:41:52.727Z</time>
      </trkpt>
      <trkpt lat="44.44372" lon="-0.25678">
        <ele>167.918368</ele>
        <time>2022-12-28T11:43:00.571Z</time>
      </trkpt>
      <trkpt lat="44.44375" lon="-0.25692">
        <ele>168.231341</ele>
        <time>2022-12-28T11:50:45.724Z</time>
      </trkpt>
      <trkpt lat="44.44373" lon="-0.2568">
        <ele>168.5181</ele>
        <time>2022-12-28T11:51:04.706Z</time>
      </trkpt>
      <trkpt lat="44.44371" lon="-0.25674">
        <ele>168.639725</ele>
        <time>2022-12-28T11:51:19.818Z</time>
      </trkpt>
      <trkpt lat="44.44367" lon="-0.25655">
        <ele>169.095279</ele>
        <time>2022-12-28T11:53:10.723Z</time>
      </trkpt>
      <trkpt lat="44.44365" lon="-0.2564">
        <ele>169.420707</ele>
        <time>2022-12-28T11:53:15.706Z</time>
      </trkpt>
      <trkpt lat="44.44362" lon="-0.25626">
        <ele>169.743588</ele>
        <time>2022-12-28T11:53:19.718Z</time>
      </trkpt>
      <trkpt lat="44.4436" lon="-0.25612">
        <ele>170.045204</ele>
        <time>2022-12-28T11:53:23.732Z</time>
      </trkpt>
      <trkpt lat="44.44358" lon="-0.256">
        <ele>170.331965</ele>
        <time>2022-12-28T11:53:27.727Z</time>
      </trkpt>
      <trkpt lat="44.44355" lon="-0.25585">
        <ele>170.667097</ele>
        <time>2022-12-28T11:53:32.730Z</time>
      </trkpt>
      <trkpt lat="44.44354" lon="-0.25569">
        <ele>171.003348</ele>
        <time>2022-12-28T11:53:37.722Z</time>
      </trkpt>
      <trkpt lat="44.44352" lon="-0.25554">
        <ele>171.347026</ele>
        <time>2022-12-28T11:53:42.728Z</time>
      </trkpt>
      <trkpt lat="44.44349" lon="-0.25539">
        <ele>171.685015</ele>
        <time>2022-12-28T11:53:47.730Z</time>
      </trkpt>
      <trkpt lat="44.44347" lon="-0.25524">
        <ele>172.024374</ele>
        <time>2022-12-28T11:53:52.716Z</time>
      </trkpt>
      <trkpt lat="44.44344" lon="-0.2551">
        <ele>172.106688</ele>
        <time>2022-12-28T11:53:56.728Z</time>
      </trkpt>
      <trkpt lat="44.44341" lon="-0.25497">
        <ele>172.058301</ele>
        <time>2022-12-28T11:54:00.730Z</time>
      </trkpt>
      <trkpt lat="44.44338" lon="-0.25484">
        <ele>172.010558</ele>
        <time>2022-12-28T11:54:04.729Z</time>
      </trkpt>
      <trkpt lat="44.44334" lon="-0.25471">
        <ele>171.962149</ele>
        <time>2022-12-28T11:54:08.720Z</time>
      </trkpt>
      <trkpt lat="44.4433" lon="-0.25458">
        <ele>171.914056</ele>
        <time>2022-12-28T11:54:12.718Z</time>
      </trkpt>
      <trkpt lat="44.44322" lon="-0.25448">
        <ele>171.864545</ele>
        <time>2022-12-28T11:54:16.713Z</time>
      </trkpt>
      <trkpt lat="44.44314" lon="-0.25438">
        <ele>171.812707</ele>
        <time>2022-12-28T11:54:20.715Z</time>
      </trkpt>
      <trkpt lat="44.44306" lon="-0.25428">
        <ele>171.761672</ele>
        <time>2022-12-28T11:54:24.711Z</time>
      </trkpt>
      <trkpt lat="44.44299" lon="-0.25419">
        <ele>171.717173</ele>
        <time>2022-12-28T11:54:27.729Z</time>
      </trkpt>
      <trkpt lat="44.44293" lon="-0.25407">
        <ele>171.66355</ele>
        <time>2022-12-28T11:54:30.710Z</time>
      </trkpt>
      <trkpt lat="44.44288" lon="-0.25388">
        <ele>171.597135</ele>
        <time>2022-12-28T11:54:33.708Z</time>
      </trkpt>
      <trkpt lat="44.44289" lon="-0.25373">
        <ele>171.546917</ele>
        <time>2022-12-28T11:54:35.720Z</time>
      </trkpt>
      <trkpt lat="44.44292" lon="-0.25358">
        <ele>171.492906</ele>
        <time>2022-12-28T11:54:37.716Z</time>
      </trkpt>
      <trkpt lat="44.44298" lon="-0.25344">
        <ele>171.436763</ele>
        <time>2022-12-28T11:54:39.719Z</time>
      </trkpt>
      <trkpt lat="44.44304" lon="-0.2533">
        <ele>171.382367</ele>
        <time>2022-12-28T11:54:41.719Z</time>
      </trkpt>
      <trkpt lat="44.44308" lon="-0.25317">
        <ele>171.332103</ele>
        <time>2022-12-28T11:54:43.731Z</time>
      </trkpt>
      <trkpt lat="44.44313" lon="-0.25304">
        <ele>171.282458</ele>
        <time>2022-12-28T11:54:45.710Z</time>
      </trkpt>
      <trkpt lat="44.44315" lon="-0.25289">
        <ele>171.135165</ele>
        <time>2022-12-28T11:54:47.746Z</time>
      </trkpt>
      <trkpt lat="44.44317" lon="-0.25273">
        <ele>170.970049</ele>
        <time>2022-12-28T11:54:49.727Z</time>
      </trkpt>
      <trkpt lat="44.44316" lon="-0.25256">
        <ele>170.798521</ele>
        <time>2022-12-28T11:54:51.730Z</time>
      </trkpt>
      <trkpt lat="44.44315" lon="-0.2524">
        <ele>170.633247</ele>
        <time>2022-12-28T11:54:53.732Z</time>
      </trkpt>
      <trkpt lat="44.44313" lon="-0.25223">
        <ele>170.448725</ele>
        <time>2022-12-28T11:54:56.716Z</time>
      </trkpt>
      <trkpt lat="44.4431" lon="-0.25204">
        <ele>170.255561</ele>
        <time>2022-12-28T11:54:59.729Z</time>
      </trkpt>
      <trkpt lat="44.44309" lon="-0.25187">
        <ele>170.070101</ele>
        <time>2022-12-28T11:55:02.732Z</time>
      </trkpt>
      <trkpt lat="44.44307" lon="-0.25174">
        <ele>169.939433</ele>
        <time>2022-12-28T11:55:04.731Z</time>
      </trkpt>
      <trkpt lat="44.44306" lon="-0.25162">
        <ele>169.807745</ele>
        <time>2022-12-28T11:55:06.729Z</time>
      </trkpt>
      <trkpt lat="44.44304" lon="-0.25149">
        <ele>169.67277</ele>
        <time>2022-12-28T11:55:08.733Z</time>
      </trkpt>
      <trkpt lat="44.44303" lon="-0.25136">
        <ele>169.539056</ele>
        <time>2022-12-28T11:55:10.723Z</time>
      </trkpt>
      <trkpt lat="44.443" lon="-0.25123">
        <ele>169.406441</ele>
        <time>2022-12-28T11:55:12.730Z</time>
      </trkpt>
      <trkpt lat="44.44298" lon="-0.25105">
        <ele>169.208681</ele>
        <time>2022-12-28T11:55:15.731Z</time>
      </trkpt>
      <trkpt lat="44.44297" lon="-0.25092">
        <ele>169.076383</ele>
        <time>2022-12-28T11:55:17.732Z</time>
      </trkpt>
      <trkpt lat="44.44296" lon="-0.25079">
        <ele>168.941191</ele>
        <time>2022-12-28T11:55:19.732Z</time>
      </trkpt>
      <trkpt lat="44.44295" lon="-0.25066">
        <ele>168.805419</ele>
        <time>2022-12-28T11:55:21.729Z</time>
      </trkpt>
      <trkpt lat="44.44293" lon="-0.25053">
        <ele>168.674966</ele>
        <time>2022-12-28T11:55:23.731Z</time>
      </trkpt>
      <trkpt lat="44.44292" lon="-0.2504">
        <ele>168.626543</ele>
        <time>2022-12-28T11:55:25.733Z</time>
      </trkpt>
      <trkpt lat="44.44291" lon="-0.25027">
        <ele>168.576384</ele>
        <time>2022-12-28T11:55:27.735Z</time>
      </trkpt>
      <trkpt lat="44.44289" lon="-0.25014">
        <ele>168.527231</ele>
        <time>2022-12-28T11:55:29.735Z</time>
      </trkpt>
      <trkpt lat="44.44288" lon="-0.25001">
        <ele>168.477271</ele>
        <time>2022-12-28T11:55:31.727Z</time>
      </trkpt>
      <trkpt lat="44.44287" lon="-0.24987">
        <ele>168.424972</ele>
        <time>2022-12-28T11:55:33.713Z</time>
      </trkpt>
      <trkpt lat="44.44285" lon="-0.24974">
        <ele>168.373958</ele>
        <time>2022-12-28T11:55:35.726Z</time>
      </trkpt>
      <trkpt lat="44.44284" lon="-0.2496">
        <ele>168.322943</ele>
        <time>2022-12-28T11:55:37.729Z</time>
      </trkpt>
      <trkpt lat="44.44283" lon="-0.24947">
        <ele>168.273409</ele>
        <time>2022-12-28T11:55:39.726Z</time>
      </trkpt>
      <trkpt lat="44.44281" lon="-0.24933">
        <ele>168.220838</ele>
        <time>2022-12-28T11:55:41.706Z</time>
      </trkpt>
      <trkpt lat="44.4428" lon="-0.24919">
        <ele>168.169006</ele>
        <time>2022-12-28T11:55:43.731Z</time>
      </trkpt>
      <trkpt lat="44.44278" lon="-0.24906">
        <ele>168.116354</ele>
        <time>2022-12-28T11:55:45.708Z</time>
      </trkpt>
      <trkpt lat="44.44276" lon="-0.24891">
        <ele>168.061494</ele>
        <time>2022-12-28T11:55:47.719Z</time>
      </trkpt>
      <trkpt lat="44.44275" lon="-0.24877">
        <ele>168.008764</ele>
        <time>2022-12-28T11:55:49.730Z</time>
      </trkpt>
      <trkpt lat="44.44274" lon="-0.24863">
        <ele>167.954978</ele>
        <time>2022-12-28T11:55:51.730Z</time>
      </trkpt>
      <trkpt lat="44.44272" lon="-0.24849">
        <ele>167.903064</ele>
        <time>2022-12-28T11:55:53.730Z</time>
      </trkpt>
      <trkpt lat="44.44271" lon="-0.24836">
        <ele>167.855223</ele>
        <time>2022-12-28T11:55:55.721Z</time>
      </trkpt>
      <trkpt lat="44.44269" lon="-0.24823">
        <ele>167.805233</ele>
        <time>2022-12-28T11:55:57.743Z</time>
      </trkpt>
      <trkpt lat="44.44268" lon="-0.2481">
        <ele>167.754792</ele>
        <time>2022-12-28T11:55:59.726Z</time>
      </trkpt>
      <trkpt lat="44.44266" lon="-0.24795">
        <ele>167.722858</ele>
        <time>2022-12-28T11:56:01.731Z</time>
      </trkpt>
      <trkpt lat="44.44265" lon="-0.2478">
        <ele>167.706146</ele>
        <time>2022-12-28T11:56:03.730Z</time>
      </trkpt>
      <trkpt lat="44.44263" lon="-0.24766">
        <ele>167.69065</ele>
        <time>2022-12-28T11:56:05.723Z</time>
      </trkpt>
      <trkpt lat="44.44261" lon="-0.24751">
        <ele>167.674028</ele>
        <time>2022-12-28T11:56:07.731Z</time>
      </trkpt>
      <trkpt lat="44.44259" lon="-0.24737">
        <ele>167.657816</ele>
        <time>2022-12-28T11:56:09.742Z</time>
      </trkpt>
      <trkpt lat="44.44258" lon="-0.24722">
        <ele>167.641495</ele>
        <time>2022-12-28T11:56:11.724Z</time>
      </trkpt>
      <trkpt lat="44.44255" lon="-0.24709">
        <ele>167.626254</ele>
        <time>2022-12-28T11:56:13.729Z</time>
      </trkpt>
      <trkpt lat="44.44254" lon="-0.24695">
        <ele>167.610976</ele>
        <time>2022-12-28T11:56:15.737Z</time>
      </trkpt>
      <trkpt lat="44.44252" lon="-0.24681">
        <ele>167.595363</ele>
        <time>2022-12-28T11:56:17.717Z</time>
      </trkpt>
      <trkpt lat="44.4425" lon="-0.24667">
        <ele>167.580584</ele>
        <time>2022-12-28T11:56:19.728Z</time>
      </trkpt>
      <trkpt lat="44.44248" lon="-0.24649">
        <ele>167.560055</ele>
        <time>2022-12-28T11:56:22.731Z</time>
      </trkpt>
      <trkpt lat="44.44247" lon="-0.24636">
        <ele>167.545994</ele>
        <time>2022-12-28T11:56:24.733Z</time>
      </trkpt>
      <trkpt lat="44.44246" lon="-0.24623">
        <ele>167.531735</ele>
        <time>2022-12-28T11:56:26.728Z</time>
      </trkpt>
      <trkpt lat="44.44244" lon="-0.2461">
        <ele>167.516581</ele>
        <time>2022-12-28T11:56:28.730Z</time>
      </trkpt>
      <trkpt lat="44.44243" lon="-0.24596">
        <ele>167.501776</ele>
        <time>2022-12-28T11:56:30.715Z</time>
      </trkpt>
      <trkpt lat="44.44241" lon="-0.24582">
        <ele>167.485648</ele>
        <time>2022-12-28T11:56:32.721Z</time>
      </trkpt>
      <trkpt lat="44.44239" lon="-0.24567">
        <ele>167.469251</ele>
        <time>2022-12-28T11:56:34.729Z</time>
      </trkpt>
      <trkpt lat="44.44237" lon="-0.24552">
        <ele>167.460296</ele>
        <time>2022-12-28T11:56:36.718Z</time>
      </trkpt>
      <trkpt lat="44.44236" lon="-0.24537">
        <ele>167.475473</ele>
        <time>2022-12-28T11:56:38.719Z</time>
      </trkpt>
      <trkpt lat="44.44234" lon="-0.24522">
        <ele>167.490529</ele>
        <time>2022-12-28T11:56:40.722Z</time>
      </trkpt>
      <trkpt lat="44.44232" lon="-0.24507">
        <ele>167.504942</ele>
        <time>2022-12-28T11:56:42.730Z</time>
      </trkpt>
      <trkpt lat="44.44231" lon="-0.24494">
        <ele>167.51876</ele>
        <time>2022-12-28T11:56:44.720Z</time>
      </trkpt>
      <trkpt lat="44.44229" lon="-0.24481">
        <ele>167.531657</ele>
        <time>2022-12-28T11:56:46.730Z</time>
      </trkpt>
      <trkpt lat="44.44227" lon="-0.24463">
        <ele>167.549353</ele>
        <time>2022-12-28T11:56:49.730Z</time>
      </trkpt>
      <trkpt lat="44.44225" lon="-0.24447">
        <ele>167.5656</ele>
        <time>2022-12-28T11:56:52.709Z</time>
      </trkpt>
      <trkpt lat="44.44223" lon="-0.24429">
        <ele>167.583405</ele>
        <time>2022-12-28T11:56:55.731Z</time>
      </trkpt>
      <trkpt lat="44.44222" lon="-0.2441">
        <ele>167.602054</ele>
        <time>2022-12-28T11:56:58.711Z</time>
      </trkpt>
      <trkpt lat="44.44221" lon="-0.24396">
        <ele>167.616139</ele>
        <time>2022-12-28T11:57:00.728Z</time>
      </trkpt>
      <trkpt lat="44.44219" lon="-0.24381">
        <ele>167.630863</ele>
        <time>2022-12-28T11:57:02.718Z</time>
      </trkpt>
      <trkpt lat="44.44217" lon="-0.24366">
        <ele>167.645481</ele>
        <time>2022-12-28T11:57:04.732Z</time>
      </trkpt>
      <trkpt lat="44.44216" lon="-0.24351">
        <ele>167.660854</ele>
        <time>2022-12-28T11:57:06.709Z</time>
      </trkpt>
      <trkpt lat="44.44214" lon="-0.24336">
        <ele>167.675968</ele>
        <time>2022-12-28T11:57:08.726Z</time>
      </trkpt>
      <trkpt lat="44.44212" lon="-0.2432">
        <ele>167.691798</ele>
        <time>2022-12-28T11:57:10.723Z</time>
      </trkpt>
      <trkpt lat="44.4421" lon="-0.24303">
        <ele>167.702066</ele>
        <time>2022-12-28T11:57:12.720Z</time>
      </trkpt>
      <trkpt lat="44.44208" lon="-0.24286">
        <ele>167.691043</ele>
        <time>2022-12-28T11:57:14.719Z</time>
      </trkpt>
      <trkpt lat="44.44206" lon="-0.2427">
        <ele>167.679985</ele>
        <time>2022-12-28T11:57:16.728Z</time>
      </trkpt>
      <trkpt lat="44.44204" lon="-0.24253">
        <ele>167.668897</ele>
        <time>2022-12-28T11:57:18.729Z</time>
      </trkpt>
      <trkpt lat="44.44202" lon="-0.24236">
        <ele>167.657372</ele>
        <time>2022-12-28T11:57:20.755Z</time>
      </trkpt>
      <trkpt lat="44.44201" lon="-0.24219">
        <ele>167.646167</ele>
        <time>2022-12-28T11:57:22.727Z</time>
      </trkpt>
      <trkpt lat="44.44199" lon="-0.24204">
        <ele>167.636272</ele>
        <time>2022-12-28T11:57:24.722Z</time>
      </trkpt>
      <trkpt lat="44.44198" lon="-0.24188">
        <ele>167.625783</ele>
        <time>2022-12-28T11:57:26.721Z</time>
      </trkpt>
      <trkpt lat="44.44196" lon="-0.24173">
        <ele>167.615808</ele>
        <time>2022-12-28T11:57:28.730Z</time>
      </trkpt>
      <trkpt lat="44.44194" lon="-0.24158">
        <ele>167.605696</ele>
        <time>2022-12-28T11:57:30.721Z</time>
      </trkpt>
      <trkpt lat="44.44193" lon="-0.24145">
        <ele>167.5972</ele>
        <time>2022-12-28T11:57:32.729Z</time>
      </trkpt>
      <trkpt lat="44.44192" lon="-0.24128">
        <ele>167.586362</ele>
        <time>2022-12-28T11:57:34.727Z</time>
      </trkpt>
      <trkpt lat="44.4419" lon="-0.24113">
        <ele>167.576237</ele>
        <time>2022-12-28T11:57:36.739Z</time>
      </trkpt>
      <trkpt lat="44.44188" lon="-0.24097">
        <ele>167.565833</ele>
        <time>2022-12-28T11:57:38.730Z</time>
      </trkpt>
      <trkpt lat="44.44186" lon="-0.24081">
        <ele>167.555267</ele>
        <time>2022-12-28T11:57:40.719Z</time>
      </trkpt>
      <trkpt lat="44.44185" lon="-0.24066">
        <ele>167.545345</ele>
        <time>2022-12-28T11:57:42.728Z</time>
      </trkpt>
      <trkpt lat="44.44184" lon="-0.2405">
        <ele>167.478518</ele>
        <time>2022-12-28T11:57:44.718Z</time>
      </trkpt>
      <trkpt lat="44.44182" lon="-0.24034">
        <ele>167.351387</ele>
        <time>2022-12-28T11:57:46.727Z</time>
      </trkpt>
      <trkpt lat="44.44181" lon="-0.24018">
        <ele>167.225988</ele>
        <time>2022-12-28T11:57:48.734Z</time>
      </trkpt>
      <trkpt lat="44.44179" lon="-0.24003">
        <ele>167.106373</ele>
        <time>2022-12-28T11:57:50.713Z</time>
      </trkpt>
      <trkpt lat="44.44176" lon="-0.23986">
        <ele>166.972713</ele>
        <time>2022-12-28T11:57:52.731Z</time>
      </trkpt>
      <trkpt lat="44.44175" lon="-0.2397">
        <ele>166.848832</ele>
        <time>2022-12-28T11:57:54.728Z</time>
      </trkpt>
      <trkpt lat="44.44173" lon="-0.23954">
        <ele>166.717313</ele>
        <time>2022-12-28T11:57:56.728Z</time>
      </trkpt>
      <trkpt lat="44.44171" lon="-0.23938">
        <ele>166.59213</ele>
        <time>2022-12-28T11:57:58.731Z</time>
      </trkpt>
      <trkpt lat="44.44168" lon="-0.23922">
        <ele>166.464354</ele>
        <time>2022-12-28T11:58:00.728Z</time>
      </trkpt>
      <trkpt lat="44.44166" lon="-0.23907">
        <ele>166.342433</ele>
        <time>2022-12-28T11:58:02.733Z</time>
      </trkpt>
      <trkpt lat="44.44164" lon="-0.2389">
        <ele>166.213986</ele>
        <time>2022-12-28T11:58:04.729Z</time>
      </trkpt>
      <trkpt lat="44.44162" lon="-0.23875">
        <ele>166.091106</ele>
        <time>2022-12-28T11:58:06.721Z</time>
      </trkpt>
      <trkpt lat="44.4416" lon="-0.2386">
        <ele>165.973597</ele>
        <time>2022-12-28T11:58:08.713Z</time>
      </trkpt>
      <trkpt lat="44.44159" lon="-0.23846">
        <ele>165.866044</ele>
        <time>2022-12-28T11:58:10.729Z</time>
      </trkpt>
      <trkpt lat="44.44158" lon="-0.23834">
        <ele>165.766104</ele>
        <time>2022-12-28T11:58:12.729Z</time>
      </trkpt>
      <trkpt lat="44.44156" lon="-0.2382">
        <ele>165.659518</ele>
        <time>2022-12-28T11:58:14.732Z</time>
      </trkpt>
      <trkpt lat="44.44155" lon="-0.23807">
        <ele>165.535235</ele>
        <time>2022-12-28T11:58:16.722Z</time>
      </trkpt>
      <trkpt lat="44.44153" lon="-0.2379">
        <ele>165.206689</ele>
        <time>2022-12-28T11:58:19.732Z</time>
      </trkpt>
      <trkpt lat="44.44151" lon="-0.23774">
        <ele>164.914898</ele>
        <time>2022-12-28T11:58:22.732Z</time>
      </trkpt>
      <trkpt lat="44.44143" lon="-0.23764">
        <ele>164.632629</ele>
        <time>2022-12-28T11:58:26.712Z</time>
      </trkpt>
      <trkpt lat="44.44134" lon="-0.23769">
        <ele>164.386536</ele>
        <time>2022-12-28T11:58:28.708Z</time>
      </trkpt>
      <trkpt lat="44.44125" lon="-0.23773">
        <ele>164.139324</ele>
        <time>2022-12-28T11:58:30.716Z</time>
      </trkpt>
      <trkpt lat="44.44115" lon="-0.23779">
        <ele>163.861805</ele>
        <time>2022-12-28T11:58:32.715Z</time>
      </trkpt>
      <trkpt lat="44.44105" lon="-0.23784">
        <ele>163.582779</ele>
        <time>2022-12-28T11:58:34.730Z</time>
      </trkpt>
      <trkpt lat="44.44094" lon="-0.23789">
        <ele>163.300124</ele>
        <time>2022-12-28T11:58:36.731Z</time>
      </trkpt>
      <trkpt lat="44.44084" lon="-0.23794">
        <ele>163.019696</ele>
        <time>2022-12-28T11:58:38.732Z</time>
      </trkpt>
      <trkpt lat="44.44074" lon="-0.23799">
        <ele>162.734733</ele>
        <time>2022-12-28T11:58:40.732Z</time>
      </trkpt>
      <trkpt lat="44.44063" lon="-0.23804">
        <ele>162.451588</ele>
        <time>2022-12-28T11:58:42.732Z</time>
      </trkpt>
      <trkpt lat="44.44053" lon="-0.23808">
        <ele>162.18563</ele>
        <time>2022-12-28T11:58:44.733Z</time>
      </trkpt>
      <trkpt lat="44.44044" lon="-0.23812">
        <ele>161.926079</ele>
        <time>2022-12-28T11:58:46.732Z</time>
      </trkpt>
      <trkpt lat="44.44034" lon="-0.23815">
        <ele>161.677973</ele>
        <time>2022-12-28T11:58:48.731Z</time>
      </trkpt>
      <trkpt lat="44.44025" lon="-0.23819">
        <ele>161.415964</ele>
        <time>2022-12-28T11:58:50.727Z</time>
      </trkpt>
      <trkpt lat="44.44015" lon="-0.23824">
        <ele>161.156579</ele>
        <time>2022-12-28T11:58:52.730Z</time>
      </trkpt>
      <trkpt lat="44.44005" lon="-0.23829">
        <ele>160.877699</ele>
        <time>2022-12-28T11:58:54.731Z</time>
      </trkpt>
      <trkpt lat="44.43996" lon="-0.23834">
        <ele>160.574949</ele>
        <time>2022-12-28T11:58:56.721Z</time>
      </trkpt>
      <trkpt lat="44.43987" lon="-0.23841">
        <ele>160.263455</ele>
        <time>2022-12-28T11:58:58.710Z</time>
      </trkpt>
      <trkpt lat="44.43978" lon="-0.23848">
        <ele>159.962615</ele>
        <time>2022-12-28T11:59:00.710Z</time>
      </trkpt>
      <trkpt lat="44.4397" lon="-0.23855">
        <ele>159.68478</ele>
        <time>2022-12-28T11:59:02.712Z</time>
      </trkpt>
      <trkpt lat="44.4396" lon="-0.23867">
        <ele>159.294533</ele>
        <time>2022-12-28T11:59:05.731Z</time>
      </trkpt>
      <trkpt lat="44.4395" lon="-0.23875">
        <ele>158.936903</ele>
        <time>2022-12-28T11:59:08.711Z</time>
      </trkpt>
      <trkpt lat="44.43938" lon="-0.2388">
        <ele>158.577277</ele>
        <time>2022-12-28T11:59:11.718Z</time>
      </trkpt>
      <trkpt lat="44.43927" lon="-0.23881">
        <ele>158.223274</ele>
        <time>2022-12-28T11:59:14.719Z</time>
      </trkpt>
      <trkpt lat="44.43916" lon="-0.23883">
        <ele>157.914092</ele>
        <time>2022-12-28T11:59:17.733Z</time>
      </trkpt>
      <trkpt lat="44.43908" lon="-0.23873">
        <ele>157.599803</ele>
        <time>2022-12-28T11:59:20.715Z</time>
      </trkpt>
      <trkpt lat="44.43901" lon="-0.23855">
        <ele>157.15522</ele>
        <time>2022-12-28T11:59:41.720Z</time>
      </trkpt>
      <trkpt lat="44.43897" lon="-0.23842">
        <ele>156.860834</ele>
        <time>2022-12-28T11:59:44.721Z</time>
      </trkpt>
      <trkpt lat="44.43894" lon="-0.23827">
        <ele>156.522365</ele>
        <time>2022-12-28T11:59:47.711Z</time>
      </trkpt>
      <trkpt lat="44.43889" lon="-0.2381">
        <ele>156.1293</ele>
        <time>2022-12-28T11:59:50.714Z</time>
      </trkpt>
      <trkpt lat="44.43884" lon="-0.23793">
        <ele>155.735939</ele>
        <time>2022-12-28T11:59:53.730Z</time>
      </trkpt>
      <trkpt lat="44.43878" lon="-0.23778">
        <ele>155.69167</ele>
        <time>2022-12-28T11:59:56.732Z</time>
      </trkpt>
      <trkpt lat="44.43873" lon="-0.23763">
        <ele>155.985561</ele>
        <time>2022-12-28T11:59:59.731Z</time>
      </trkpt>
      <trkpt lat="44.43868" lon="-0.23747">
        <ele>156.281819</ele>
        <time>2022-12-28T12:00:02.722Z</time>
      </trkpt>
      <trkpt lat="44.43863" lon="-0.23731">
        <ele>156.59311</ele>
        <time>2022-12-28T12:00:05.729Z</time>
      </trkpt>
      <trkpt lat="44.43859" lon="-0.23716">
        <ele>156.872783</ele>
        <time>2022-12-28T12:00:08.730Z</time>
      </trkpt>
      <trkpt lat="44.43856" lon="-0.23701">
        <ele>157.149331</ele>
        <time>2022-12-28T12:00:12.712Z</time>
      </trkpt>
      <trkpt lat="44.43854" lon="-0.23686">
        <ele>157.40982</ele>
        <time>2022-12-28T12:00:16.709Z</time>
      </trkpt>
      <trkpt lat="44.4386" lon="-0.23675">
        <ele>157.644942</ele>
        <time>2022-12-28T12:00:21.728Z</time>
      </trkpt>
      <trkpt lat="44.43869" lon="-0.23671">
        <ele>157.870436</ele>
        <time>2022-12-28T12:00:33.709Z</time>
      </trkpt>
      <trkpt lat="44.43877" lon="-0.23667">
        <ele>158.091854</ele>
        <time>2022-12-28T12:00:37.714Z</time>
      </trkpt>
      <trkpt lat="44.43887" lon="-0.23661">
        <ele>158.353702</ele>
        <time>2022-12-28T12:00:41.711Z</time>
      </trkpt>
      <trkpt lat="44.43897" lon="-0.23655">
        <ele>158.619457</ele>
        <time>2022-12-28T12:00:45.711Z</time>
      </trkpt>
      <trkpt lat="44.43908" lon="-0.23648">
        <ele>158.907522</ele>
        <time>2022-12-28T12:00:49.733Z</time>
      </trkpt>
      <trkpt lat="44.43917" lon="-0.23644">
        <ele>159.135426</ele>
        <time>2022-12-28T12:00:52.733Z</time>
      </trkpt>
      <trkpt lat="44.43926" lon="-0.23639">
        <ele>159.365598</ele>
        <time>2022-12-28T12:00:55.732Z</time>
      </trkpt>
      <trkpt lat="44.43934" lon="-0.23633">
        <ele>159.596214</ele>
        <time>2022-12-28T12:00:58.734Z</time>
      </trkpt>
      <trkpt lat="44.43942" lon="-0.23628">
        <ele>159.820245</ele>
        <time>2022-12-28T12:01:01.726Z</time>
      </trkpt>
      <trkpt lat="44.43951" lon="-0.23622">
        <ele>160.096654</ele>
        <time>2022-12-28T12:01:04.730Z</time>
      </trkpt>
      <trkpt lat="44.43959" lon="-0.23617">
        <ele>160.429772</ele>
        <time>2022-12-28T12:01:07.726Z</time>
      </trkpt>
      <trkpt lat="44.43968" lon="-0.23612">
        <ele>160.787904</ele>
        <time>2022-12-28T12:01:11.719Z</time>
      </trkpt>
      <trkpt lat="44.43978" lon="-0.23605">
        <ele>161.188174</ele>
        <time>2022-12-28T12:01:16.714Z</time>
      </trkpt>
      <trkpt lat="44.43988" lon="-0.23599">
        <ele>161.591517</ele>
        <time>2022-12-28T12:01:20.730Z</time>
      </trkpt>
      <trkpt lat="44.43998" lon="-0.23592">
        <ele>161.983898</ele>
        <time>2022-12-28T12:01:24.714Z</time>
      </trkpt>
      <trkpt lat="44.44007" lon="-0.23585">
        <ele>162.359182</ele>
        <time>2022-12-28T12:01:28.730Z</time>
      </trkpt>
      <trkpt lat="44.44014" lon="-0.23578">
        <ele>162.698961</ele>
        <time>2022-12-28T12:01:32.749Z</time>
      </trkpt>
      <trkpt lat="44.44023" lon="-0.23572">
        <ele>163.045294</ele>
        <time>2022-12-28T12:01:36.713Z</time>
      </trkpt>
      <trkpt lat="44.44033" lon="-0.23564">
        <ele>163.450391</ele>
        <time>2022-12-28T12:01:41.717Z</time>
      </trkpt>
      <trkpt lat="44.44041" lon="-0.23557">
        <ele>163.790289</ele>
        <time>2022-12-28T12:01:45.711Z</time>
      </trkpt>
      <trkpt lat="44.4405" lon="-0.23551">
        <ele>164.157602</ele>
        <time>2022-12-28T12:01:49.734Z</time>
      </trkpt>
      <trkpt lat="44.44058" lon="-0.23542">
        <ele>164.528637</ele>
        <time>2022-12-28T12:01:53.729Z</time>
      </trkpt>
      <trkpt lat="44.44066" lon="-0.23532">
        <ele>164.915346</ele>
        <time>2022-12-28T12:01:57.734Z</time>
      </trkpt>
      <trkpt lat="44.44074" lon="-0.23524">
        <ele>165.284914</ele>
        <time>2022-12-28T12:02:01.731Z</time>
      </trkpt>
      <trkpt lat="44.44082" lon="-0.23512">
        <ele>165.705527</ele>
        <time>2022-12-28T12:02:05.733Z</time>
      </trkpt>
      <trkpt lat="44.44085" lon="-0.23499">
        <ele>166.056658</ele>
        <time>2022-12-28T12:02:08.719Z</time>
      </trkpt>
      <trkpt lat="44.44084" lon="-0.23485">
        <ele>166.420425</ele>
        <time>2022-12-28T12:02:11.717Z</time>
      </trkpt>
      <trkpt lat="44.44081" lon="-0.23473">
        <ele>166.446812</ele>
        <time>2022-12-28T12:02:14.716Z</time>
      </trkpt>
      <trkpt lat="44.44074" lon="-0.23464">
        <ele>166.411607</ele>
        <time>2022-12-28T12:02:17.721Z</time>
      </trkpt>
      <trkpt lat="44.44066" lon="-0.23453">
        <ele>166.3692</ele>
        <time>2022-12-28T12:02:21.732Z</time>
      </trkpt>
      <trkpt lat="44.4406" lon="-0.23441">
        <ele>166.330063</ele>
        <time>2022-12-28T12:02:25.717Z</time>
      </trkpt>
      <trkpt lat="44.44054" lon="-0.23431">
        <ele>166.294867</ele>
        <time>2022-12-28T12:02:28.709Z</time>
      </trkpt>
      <trkpt lat="44.44047" lon="-0.23418">
        <ele>166.252119</ele>
        <time>2022-12-28T12:02:31.735Z</time>
      </trkpt>
      <trkpt lat="44.4404" lon="-0.23405">
        <ele>166.206619</ele>
        <time>2022-12-28T12:02:34.733Z</time>
      </trkpt>
      <trkpt lat="44.44033" lon="-0.23391">
        <ele>166.159132</ele>
        <time>2022-12-28T12:02:37.732Z</time>
      </trkpt>
      <trkpt lat="44.44025" lon="-0.23377">
        <ele>166.113124</ele>
        <time>2022-12-28T12:02:40.731Z</time>
      </trkpt>
      <trkpt lat="44.44018" lon="-0.23363">
        <ele>166.064985</ele>
        <time>2022-12-28T12:02:43.730Z</time>
      </trkpt>
      <trkpt lat="44.44012" lon="-0.23353">
        <ele>166.029291</ele>
        <time>2022-12-28T12:02:45.720Z</time>
      </trkpt>
      <trkpt lat="44.44006" lon="-0.23342">
        <ele>165.994779</ele>
        <time>2022-12-28T12:02:47.729Z</time>
      </trkpt>
      <trkpt lat="44.43999" lon="-0.23326">
        <ele>165.943928</ele>
        <time>2022-12-28T12:02:50.733Z</time>
      </trkpt>
      <trkpt lat="44.43994" lon="-0.23316">
        <ele>165.908534</ele>
        <time>2022-12-28T12:02:52.733Z</time>
      </trkpt>
      <trkpt lat="44.43988" lon="-0.23305">
        <ele>165.872478</ele>
        <time>2022-12-28T12:02:54.717Z</time>
      </trkpt>
      <trkpt lat="44.43982" lon="-0.23294">
        <ele>165.835104</ele>
        <time>2022-12-28T12:02:56.728Z</time>
      </trkpt>
      <trkpt lat="44.43976" lon="-0.23283">
        <ele>165.797676</ele>
        <time>2022-12-28T12:02:58.729Z</time>
      </trkpt>
      <trkpt lat="44.4397" lon="-0.23271">
        <ele>165.563151</ele>
        <time>2022-12-28T12:03:00.714Z</time>
      </trkpt>
      <trkpt lat="44.43965" lon="-0.23261">
        <ele>165.341599</ele>
        <time>2022-12-28T12:03:02.728Z</time>
      </trkpt>
      <trkpt lat="44.4396" lon="-0.2325">
        <ele>165.117255</ele>
        <time>2022-12-28T12:03:04.709Z</time>
      </trkpt>
      <trkpt lat="44.43954" lon="-0.23238">
        <ele>164.864973</ele>
        <time>2022-12-28T12:03:06.722Z</time>
      </trkpt>
      <trkpt lat="44.43948" lon="-0.23227">
        <ele>164.622521</ele>
        <time>2022-12-28T12:03:08.736Z</time>
      </trkpt>
      <trkpt lat="44.43941" lon="-0.23215">
        <ele>164.361384</ele>
        <time>2022-12-28T12:03:10.731Z</time>
      </trkpt>
      <trkpt lat="44.43935" lon="-0.23203">
        <ele>164.104999</ele>
        <time>2022-12-28T12:03:12.726Z</time>
      </trkpt>
      <trkpt lat="44.43929" lon="-0.23191">
        <ele>163.858366</ele>
        <time>2022-12-28T12:03:14.729Z</time>
      </trkpt>
      <trkpt lat="44.43922" lon="-0.23179">
        <ele>163.608833</ele>
        <time>2022-12-28T12:03:16.733Z</time>
      </trkpt>
      <trkpt lat="44.43916" lon="-0.23169">
        <ele>163.374227</ele>
        <time>2022-12-28T12:03:18.736Z</time>
      </trkpt>
      <trkpt lat="44.4391" lon="-0.23157">
        <ele>163.117587</ele>
        <time>2022-12-28T12:03:20.730Z</time>
      </trkpt>
      <trkpt lat="44.43903" lon="-0.23145">
        <ele>162.855123</ele>
        <time>2022-12-28T12:03:22.734Z</time>
      </trkpt>
      <trkpt lat="44.43896" lon="-0.23133">
        <ele>162.602855</ele>
        <time>2022-12-28T12:03:24.713Z</time>
      </trkpt>
      <trkpt lat="44.4389" lon="-0.23121">
        <ele>162.338108</ele>
        <time>2022-12-28T12:03:26.729Z</time>
      </trkpt>
      <trkpt lat="44.43884" lon="-0.2311">
        <ele>162.103287</ele>
        <time>2022-12-28T12:03:28.730Z</time>
      </trkpt>
      <trkpt lat="44.43878" lon="-0.23099">
        <ele>161.865004</ele>
        <time>2022-12-28T12:03:30.718Z</time>
      </trkpt>
      <trkpt lat="44.43872" lon="-0.23088">
        <ele>161.626018</ele>
        <time>2022-12-28T12:03:32.730Z</time>
      </trkpt>
      <trkpt lat="44.43865" lon="-0.23076">
        <ele>161.391833</ele>
        <time>2022-12-28T12:03:34.731Z</time>
      </trkpt>
      <trkpt lat="44.43859" lon="-0.23064">
        <ele>161.175672</ele>
        <time>2022-12-28T12:03:36.746Z</time>
      </trkpt>
      <trkpt lat="44.43852" lon="-0.23051">
        <ele>160.954926</ele>
        <time>2022-12-28T12:03:38.738Z</time>
      </trkpt>
      <trkpt lat="44.43845" lon="-0.23038">
        <ele>160.7296</ele>
        <time>2022-12-28T12:03:40.731Z</time>
      </trkpt>
      <trkpt lat="44.43839" lon="-0.23025">
        <ele>160.498508</ele>
        <time>2022-12-28T12:03:42.722Z</time>
      </trkpt>
      <trkpt lat="44.43832" lon="-0.23012">
        <ele>160.275478</ele>
        <time>2022-12-28T12:03:44.731Z</time>
      </trkpt>
      <trkpt lat="44.43826" lon="-0.23">
        <ele>160.065087</ele>
        <time>2022-12-28T12:03:46.733Z</time>
      </trkpt>
      <trkpt lat="44.43819" lon="-0.22987">
        <ele>159.840848</ele>
        <time>2022-12-28T12:03:48.733Z</time>
      </trkpt>
      <trkpt lat="44.43812" lon="-0.22976">
        <ele>159.629107</ele>
        <time>2022-12-28T12:03:50.735Z</time>
      </trkpt>
      <trkpt lat="44.43807" lon="-0.22964">
        <ele>159.426743</ele>
        <time>2022-12-28T12:03:52.731Z</time>
      </trkpt>
      <trkpt lat="44.43801" lon="-0.22953">
        <ele>159.239215</ele>
        <time>2022-12-28T12:03:54.743Z</time>
      </trkpt>
      <trkpt lat="44.43795" lon="-0.22942">
        <ele>159.050646</ele>
        <time>2022-12-28T12:03:56.731Z</time>
      </trkpt>
      <trkpt lat="44.43788" lon="-0.22928">
        <ele>158.790747</ele>
        <time>2022-12-28T12:03:59.730Z</time>
      </trkpt>
      <trkpt lat="44.4378" lon="-0.22914">
        <ele>158.551528</ele>
        <time>2022-12-28T12:04:02.731Z</time>
      </trkpt>
      <trkpt lat="44.43774" lon="-0.22902">
        <ele>158.335366</ele>
        <time>2022-12-28T12:04:05.732Z</time>
      </trkpt>
      <trkpt lat="44.43768" lon="-0.2289">
        <ele>158.129411</ele>
        <time>2022-12-28T12:04:08.728Z</time>
      </trkpt>
      <trkpt lat="44.43762" lon="-0.22879">
        <ele>157.938896</ele>
        <time>2022-12-28T12:04:12.732Z</time>
      </trkpt>
      <trkpt lat="44.43766" lon="-0.22865">
        <ele>157.977134</ele>
        <time>2022-12-28T12:04:16.721Z</time>
      </trkpt>
      <trkpt lat="44.43775" lon="-0.22857">
        <ele>158.029012</ele>
        <time>2022-12-28T12:04:19.715Z</time>
      </trkpt>
      <trkpt lat="44.43784" lon="-0.22849">
        <ele>158.079579</ele>
        <time>2022-12-28T12:04:22.709Z</time>
      </trkpt>
      <trkpt lat="44.43793" lon="-0.2284">
        <ele>158.134203</ele>
        <time>2022-12-28T12:04:26.735Z</time>
      </trkpt>
      <trkpt lat="44.43799" lon="-0.22836">
        <ele>158.164714</ele>
        <time>2022-12-28T12:04:36.722Z</time>
      </trkpt>
      <trkpt lat="44.43812" lon="-0.2287">
        <ele>158.299883</ele>
        <time>2022-12-28T13:14:05.190Z</time>
      </trkpt>
      <trkpt lat="44.43815" lon="-0.22858">
        <ele>158.344247</ele>
        <time>2022-12-28T13:14:47.724Z</time>
      </trkpt>
      <trkpt lat="44.43813" lon="-0.22844">
        <ele>158.392949</ele>
        <time>2022-12-28T13:14:51.723Z</time>
      </trkpt>
      <trkpt lat="44.43812" lon="-0.22829">
        <ele>158.445805</ele>
        <time>2022-12-28T13:14:55.722Z</time>
      </trkpt>
      <trkpt lat="44.43819" lon="-0.22818">
        <ele>158.495912</ele>
        <time>2022-12-28T13:14:59.717Z</time>
      </trkpt>
      <trkpt lat="44.43827" lon="-0.2281">
        <ele>158.541994</ele>
        <time>2022-12-28T13:15:03.724Z</time>
      </trkpt>
      <trkpt lat="44.43834" lon="-0.228">
        <ele>158.588292</ele>
        <time>2022-12-28T13:15:07.738Z</time>
      </trkpt>
      <trkpt lat="44.43833" lon="-0.22788">
        <ele>158.632341</ele>
        <time>2022-12-28T13:15:12.719Z</time>
      </trkpt>
      <trkpt lat="44.43831" lon="-0.22775">
        <ele>158.67714</ele>
        <time>2022-12-28T13:15:16.713Z</time>
      </trkpt>
      <trkpt lat="44.43827" lon="-0.22763">
        <ele>158.721255</ele>
        <time>2022-12-28T13:15:19.731Z</time>
      </trkpt>
      <trkpt lat="44.43823" lon="-0.22751">
        <ele>158.768993</ele>
        <time>2022-12-28T13:15:22.738Z</time>
      </trkpt>
      <trkpt lat="44.43818" lon="-0.22739">
        <ele>158.72016</ele>
        <time>2022-12-28T13:15:25.744Z</time>
      </trkpt>
      <trkpt lat="44.43813" lon="-0.22729">
        <ele>158.573489</ele>
        <time>2022-12-28T13:15:28.721Z</time>
      </trkpt>
      <trkpt lat="44.4381" lon="-0.22716">
        <ele>158.421242</ele>
        <time>2022-12-28T13:15:31.730Z</time>
      </trkpt>
      <trkpt lat="44.43806" lon="-0.22703">
        <ele>158.257003</ele>
        <time>2022-12-28T13:15:34.739Z</time>
      </trkpt>
      <trkpt lat="44.43802" lon="-0.2269">
        <ele>158.096438</ele>
        <time>2022-12-28T13:15:37.741Z</time>
      </trkpt>
      <trkpt lat="44.43797" lon="-0.2268">
        <ele>157.946924</ele>
        <time>2022-12-28T13:15:40.737Z</time>
      </trkpt>
      <trkpt lat="44.43792" lon="-0.22667">
        <ele>157.784818</ele>
        <time>2022-12-28T13:15:43.720Z</time>
      </trkpt>
      <trkpt lat="44.43787" lon="-0.22656">
        <ele>157.629804</ele>
        <time>2022-12-28T13:15:46.715Z</time>
      </trkpt>
      <trkpt lat="44.43783" lon="-0.22644">
        <ele>157.481182</ele>
        <time>2022-12-28T13:15:49.735Z</time>
      </trkpt>
      <trkpt lat="44.43778" lon="-0.22631">
        <ele>157.310134</ele>
        <time>2022-12-28T13:15:52.744Z</time>
      </trkpt>
      <trkpt lat="44.43773" lon="-0.22618">
        <ele>157.136642</ele>
        <time>2022-12-28T13:15:55.721Z</time>
      </trkpt>
      <trkpt lat="44.43768" lon="-0.22606">
        <ele>156.97019</ele>
        <time>2022-12-28T13:15:58.745Z</time>
      </trkpt>
      <trkpt lat="44.43763" lon="-0.22593">
        <ele>156.808333</ele>
        <time>2022-12-28T13:16:01.728Z</time>
      </trkpt>
      <trkpt lat="44.43758" lon="-0.22582">
        <ele>156.65286</ele>
        <time>2022-12-28T13:16:04.731Z</time>
      </trkpt>
      <trkpt lat="44.43755" lon="-0.2257">
        <ele>156.504858</ele>
        <time>2022-12-28T13:16:07.734Z</time>
      </trkpt>
      <trkpt lat="44.4375" lon="-0.22558">
        <ele>156.349367</ele>
        <time>2022-12-28T13:16:10.725Z</time>
      </trkpt>
      <trkpt lat="44.43746" lon="-0.22545">
        <ele>156.182882</ele>
        <time>2022-12-28T13:16:13.739Z</time>
      </trkpt>
      <trkpt lat="44.43741" lon="-0.22533">
        <ele>156.029235</ele>
        <time>2022-12-28T13:16:16.713Z</time>
      </trkpt>
      <trkpt lat="44.43735" lon="-0.22521">
        <ele>155.85061</ele>
        <time>2022-12-28T13:16:19.715Z</time>
      </trkpt>
      <trkpt lat="44.4373" lon="-0.22509">
        <ele>155.594196</ele>
        <time>2022-12-28T13:16:22.717Z</time>
      </trkpt>
      <trkpt lat="44.43726" lon="-0.22496">
        <ele>155.346046</ele>
        <time>2022-12-28T13:16:25.741Z</time>
      </trkpt>
      <trkpt lat="44.43722" lon="-0.22483">
        <ele>155.085351</ele>
        <time>2022-12-28T13:16:28.720Z</time>
      </trkpt>
      <trkpt lat="44.43717" lon="-0.2247">
        <ele>154.829263</ele>
        <time>2022-12-28T13:16:31.723Z</time>
      </trkpt>
      <trkpt lat="44.43711" lon="-0.22458">
        <ele>154.574998</ele>
        <time>2022-12-28T13:16:34.725Z</time>
      </trkpt>
      <trkpt lat="44.43706" lon="-0.22445">
        <ele>154.30035</ele>
        <time>2022-12-28T13:16:37.741Z</time>
      </trkpt>
      <trkpt lat="44.43701" lon="-0.22433">
        <ele>154.062559</ele>
        <time>2022-12-28T13:16:40.725Z</time>
      </trkpt>
      <trkpt lat="44.43696" lon="-0.22421">
        <ele>153.812339</ele>
        <time>2022-12-28T13:16:43.745Z</time>
      </trkpt>
      <trkpt lat="44.43691" lon="-0.22409">
        <ele>153.565354</ele>
        <time>2022-12-28T13:16:46.745Z</time>
      </trkpt>
      <trkpt lat="44.43686" lon="-0.22394">
        <ele>153.274639</ele>
        <time>2022-12-28T13:16:50.715Z</time>
      </trkpt>
      <trkpt lat="44.4368" lon="-0.22384">
        <ele>153.045856</ele>
        <time>2022-12-28T13:16:53.716Z</time>
      </trkpt>
      <trkpt lat="44.43676" lon="-0.22373">
        <ele>152.812933</ele>
        <time>2022-12-28T13:16:56.737Z</time>
      </trkpt>
      <trkpt lat="44.43672" lon="-0.22361">
        <ele>152.578402</ele>
        <time>2022-12-28T13:16:59.746Z</time>
      </trkpt>
      <trkpt lat="44.43668" lon="-0.22347">
        <ele>152.322841</ele>
        <time>2022-12-28T13:17:02.719Z</time>
      </trkpt>
      <trkpt lat="44.43663" lon="-0.22333">
        <ele>152.044865</ele>
        <time>2022-12-28T13:17:05.738Z</time>
      </trkpt>
      <trkpt lat="44.43658" lon="-0.22319">
        <ele>151.765292</ele>
        <time>2022-12-28T13:17:08.735Z</time>
      </trkpt>
      <trkpt lat="44.43653" lon="-0.22306">
        <ele>151.492041</ele>
        <time>2022-12-28T13:17:11.738Z</time>
      </trkpt>
      <trkpt lat="44.43648" lon="-0.22292">
        <ele>151.170225</ele>
        <time>2022-12-28T13:17:14.735Z</time>
      </trkpt>
      <trkpt lat="44.43642" lon="-0.22279">
        <ele>150.822637</ele>
        <time>2022-12-28T13:17:17.726Z</time>
      </trkpt>
      <trkpt lat="44.43637" lon="-0.22265">
        <ele>150.490343</ele>
        <time>2022-12-28T13:17:20.712Z</time>
      </trkpt>
      <trkpt lat="44.43632" lon="-0.22253">
        <ele>150.172471</ele>
        <time>2022-12-28T13:17:23.743Z</time>
      </trkpt>
      <trkpt lat="44.43627" lon="-0.2224">
        <ele>149.836106</ele>
        <time>2022-12-28T13:17:26.716Z</time>
      </trkpt>
      <trkpt lat="44.43621" lon="-0.22225">
        <ele>149.454003</ele>
        <time>2022-12-28T13:17:29.758Z</time>
      </trkpt>
      <trkpt lat="44.43614" lon="-0.22211">
        <ele>149.068594</ele>
        <time>2022-12-28T13:17:32.737Z</time>
      </trkpt>
      <trkpt lat="44.43608" lon="-0.22197">
        <ele>148.705264</ele>
        <time>2022-12-28T13:17:35.742Z</time>
      </trkpt>
      <trkpt lat="44.43604" lon="-0.22183">
        <ele>148.366263</ele>
        <time>2022-12-28T13:17:38.743Z</time>
      </trkpt>
      <trkpt lat="44.43599" lon="-0.22169">
        <ele>148.015152</ele>
        <time>2022-12-28T13:17:41.734Z</time>
      </trkpt>
      <trkpt lat="44.43593" lon="-0.22153">
        <ele>147.617725</ele>
        <time>2022-12-28T13:17:44.737Z</time>
      </trkpt>
      <trkpt lat="44.43589" lon="-0.22141">
        <ele>147.32524</ele>
        <time>2022-12-28T13:17:46.740Z</time>
      </trkpt>
      <trkpt lat="44.43581" lon="-0.22126">
        <ele>146.924042</ele>
        <time>2022-12-28T13:17:49.718Z</time>
      </trkpt>
      <trkpt lat="44.43574" lon="-0.22112">
        <ele>146.537397</ele>
        <time>2022-12-28T13:17:52.738Z</time>
      </trkpt>
      <trkpt lat="44.43568" lon="-0.22098">
        <ele>146.157426</ele>
        <time>2022-12-28T13:17:55.736Z</time>
      </trkpt>
      <trkpt lat="44.43565" lon="-0.22085">
        <ele>145.866448</ele>
        <time>2022-12-28T13:17:57.721Z</time>
      </trkpt>
      <trkpt lat="44.4356" lon="-0.22074">
        <ele>145.610553</ele>
        <time>2022-12-28T13:17:59.720Z</time>
      </trkpt>
      <trkpt lat="44.43556" lon="-0.22061">
        <ele>145.359542</ele>
        <time>2022-12-28T13:18:01.733Z</time>
      </trkpt>
      <trkpt lat="44.43551" lon="-0.22048">
        <ele>145.115956</ele>
        <time>2022-12-28T13:18:03.719Z</time>
      </trkpt>
      <trkpt lat="44.43547" lon="-0.22037">
        <ele>144.88188</ele>
        <time>2022-12-28T13:18:05.745Z</time>
      </trkpt>
      <trkpt lat="44.43542" lon="-0.22024">
        <ele>144.626387</ele>
        <time>2022-12-28T13:18:07.739Z</time>
      </trkpt>
      <trkpt lat="44.43537" lon="-0.22008">
        <ele>144.320405</ele>
        <time>2022-12-28T13:18:10.729Z</time>
      </trkpt>
      <trkpt lat="44.43531" lon="-0.21992">
        <ele>144.006311</ele>
        <time>2022-12-28T13:18:13.737Z</time>
      </trkpt>
      <trkpt lat="44.43526" lon="-0.21976">
        <ele>143.693854</ele>
        <time>2022-12-28T13:18:16.736Z</time>
      </trkpt>
      <trkpt lat="44.43522" lon="-0.21964">
        <ele>143.469735</ele>
        <time>2022-12-28T13:18:18.737Z</time>
      </trkpt>
      <trkpt lat="44.43519" lon="-0.21952">
        <ele>143.246236</ele>
        <time>2022-12-28T13:18:20.720Z</time>
      </trkpt>
      <trkpt lat="44.43514" lon="-0.21939">
        <ele>142.991561</ele>
        <time>2022-12-28T13:18:22.744Z</time>
      </trkpt>
      <trkpt lat="44.43508" lon="-0.21928">
        <ele>142.743877</ele>
        <time>2022-12-28T13:18:24.720Z</time>
      </trkpt>
      <trkpt lat="44.435" lon="-0.21919">
        <ele>142.485263</ele>
        <time>2022-12-28T13:18:26.721Z</time>
      </trkpt>
      <trkpt lat="44.4349" lon="-0.21916">
        <ele>142.224989</ele>
        <time>2022-12-28T13:18:28.720Z</time>
      </trkpt>
      <trkpt lat="44.4348" lon="-0.21918">
        <ele>141.977562</ele>
        <time>2022-12-28T13:18:30.722Z</time>
      </trkpt>
      <trkpt lat="44.4347" lon="-0.21922">
        <ele>141.732819</ele>
        <time>2022-12-28T13:18:32.719Z</time>
      </trkpt>
      <trkpt lat="44.4346" lon="-0.21927">
        <ele>141.472325</ele>
        <time>2022-12-28T13:18:34.721Z</time>
      </trkpt>
      <trkpt lat="44.43451" lon="-0.21932">
        <ele>141.225807</ele>
        <time>2022-12-28T13:18:36.718Z</time>
      </trkpt>
      <trkpt lat="44.43442" lon="-0.21938">
        <ele>140.974862</ele>
        <time>2022-12-28T13:18:38.728Z</time>
      </trkpt>
      <trkpt lat="44.43432" lon="-0.21943">
        <ele>140.717632</ele>
        <time>2022-12-28T13:18:40.736Z</time>
      </trkpt>
      <trkpt lat="44.43423" lon="-0.21948">
        <ele>140.470893</ele>
        <time>2022-12-28T13:18:42.737Z</time>
      </trkpt>
      <trkpt lat="44.43414" lon="-0.21953">
        <ele>140.227437</ele>
        <time>2022-12-28T13:18:44.743Z</time>
      </trkpt>
      <trkpt lat="44.43405" lon="-0.21959">
        <ele>139.971898</ele>
        <time>2022-12-28T13:18:46.745Z</time>
      </trkpt>
      <trkpt lat="44.43396" lon="-0.21965">
        <ele>139.727733</ele>
        <time>2022-12-28T13:18:48.745Z</time>
      </trkpt>
      <trkpt lat="44.43388" lon="-0.21969">
        <ele>139.501971</ele>
        <time>2022-12-28T13:18:50.721Z</time>
      </trkpt>
      <trkpt lat="44.43378" lon="-0.21969">
        <ele>139.247663</ele>
        <time>2022-12-28T13:18:52.715Z</time>
      </trkpt>
      <trkpt lat="44.43368" lon="-0.21969">
        <ele>138.99089</ele>
        <time>2022-12-28T13:18:54.723Z</time>
      </trkpt>
      <trkpt lat="44.43356" lon="-0.21961">
        <ele>138.66239</ele>
        <time>2022-12-28T13:18:57.718Z</time>
      </trkpt>
      <trkpt lat="44.43349" lon="-0.21951">
        <ele>138.413952</ele>
        <time>2022-12-28T13:18:59.718Z</time>
      </trkpt>
      <trkpt lat="44.43344" lon="-0.21938">
        <ele>138.160413</ele>
        <time>2022-12-28T13:19:01.715Z</time>
      </trkpt>
      <trkpt lat="44.43339" lon="-0.21926">
        <ele>137.903189</ele>
        <time>2022-12-28T13:19:03.715Z</time>
      </trkpt>
      <trkpt lat="44.43333" lon="-0.21912">
        <ele>137.606848</ele>
        <time>2022-12-28T13:19:05.720Z</time>
      </trkpt>
      <trkpt lat="44.43329" lon="-0.21898">
        <ele>137.32983</ele>
        <time>2022-12-28T13:19:07.715Z</time>
      </trkpt>
      <trkpt lat="44.43322" lon="-0.21883">
        <ele>137.026031</ele>
        <time>2022-12-28T13:19:09.738Z</time>
      </trkpt>
      <trkpt lat="44.43317" lon="-0.21869">
        <ele>136.678886</ele>
        <time>2022-12-28T13:19:11.737Z</time>
      </trkpt>
      <trkpt lat="44.43311" lon="-0.21854">
        <ele>136.246637</ele>
        <time>2022-12-28T13:19:13.725Z</time>
      </trkpt>
      <trkpt lat="44.43305" lon="-0.21838">
        <ele>135.789362</ele>
        <time>2022-12-28T13:19:15.736Z</time>
      </trkpt>
      <trkpt lat="44.43298" lon="-0.21825">
        <ele>135.359995</ele>
        <time>2022-12-28T13:19:17.725Z</time>
      </trkpt>
      <trkpt lat="44.4329" lon="-0.21813">
        <ele>134.947773</ele>
        <time>2022-12-28T13:19:19.729Z</time>
      </trkpt>
      <trkpt lat="44.43283" lon="-0.218">
        <ele>134.513052</ele>
        <time>2022-12-28T13:19:21.745Z</time>
      </trkpt>
      <trkpt lat="44.43278" lon="-0.21787">
        <ele>134.143504</ele>
        <time>2022-12-28T13:19:23.742Z</time>
      </trkpt>
      <trkpt lat="44.43273" lon="-0.21773">
        <ele>133.7344</ele>
        <time>2022-12-28T13:19:25.721Z</time>
      </trkpt>
      <trkpt lat="44.43269" lon="-0.21759">
        <ele>133.339334</ele>
        <time>2022-12-28T13:19:27.714Z</time>
      </trkpt>
      <trkpt lat="44.43264" lon="-0.21745">
        <ele>132.943702</ele>
        <time>2022-12-28T13:19:29.741Z</time>
      </trkpt>
      <trkpt lat="44.4326" lon="-0.21732">
        <ele>132.579001</ele>
        <time>2022-12-28T13:19:31.737Z</time>
      </trkpt>
      <trkpt lat="44.43256" lon="-0.2172">
        <ele>132.246745</ele>
        <time>2022-12-28T13:19:33.725Z</time>
      </trkpt>
      <trkpt lat="44.43251" lon="-0.2171">
        <ele>131.919206</ele>
        <time>2022-12-28T13:19:35.722Z</time>
      </trkpt>
      <trkpt lat="44.43244" lon="-0.21695">
        <ele>131.467759</ele>
        <time>2022-12-28T13:19:38.738Z</time>
      </trkpt>
      <trkpt lat="44.43238" lon="-0.21681">
        <ele>131.045347</ele>
        <time>2022-12-28T13:19:41.735Z</time>
      </trkpt>
      <trkpt lat="44.43233" lon="-0.21666">
        <ele>130.613695</ele>
        <time>2022-12-28T13:19:44.747Z</time>
      </trkpt>
      <trkpt lat="44.43228" lon="-0.21652">
        <ele>130.358928</ele>
        <time>2022-12-28T13:19:47.735Z</time>
      </trkpt>
      <trkpt lat="44.43222" lon="-0.21638">
        <ele>130.447867</ele>
        <time>2022-12-28T13:19:50.744Z</time>
      </trkpt>
      <trkpt lat="44.43217" lon="-0.21626">
        <ele>130.529979</ele>
        <time>2022-12-28T13:19:53.744Z</time>
      </trkpt>
      <trkpt lat="44.43213" lon="-0.21613">
        <ele>130.615649</ele>
        <time>2022-12-28T13:19:56.718Z</time>
      </trkpt>
      <trkpt lat="44.43208" lon="-0.21598">
        <ele>130.71174</ele>
        <time>2022-12-28T13:19:59.732Z</time>
      </trkpt>
      <trkpt lat="44.43202" lon="-0.21586">
        <ele>130.790237</ele>
        <time>2022-12-28T13:20:01.722Z</time>
      </trkpt>
      <trkpt lat="44.43198" lon="-0.21574">
        <ele>130.867078</ele>
        <time>2022-12-28T13:20:03.722Z</time>
      </trkpt>
      <trkpt lat="44.43193" lon="-0.21561">
        <ele>130.954596</ele>
        <time>2022-12-28T13:20:05.719Z</time>
      </trkpt>
      <trkpt lat="44.43188" lon="-0.21549">
        <ele>131.035928</ele>
        <time>2022-12-28T13:20:07.725Z</time>
      </trkpt>
      <trkpt lat="44.43184" lon="-0.21535">
        <ele>131.120778</ele>
        <time>2022-12-28T13:20:09.736Z</time>
      </trkpt>
      <trkpt lat="44.43181" lon="-0.21523">
        <ele>131.196384</ele>
        <time>2022-12-28T13:20:11.735Z</time>
      </trkpt>
      <trkpt lat="44.43176" lon="-0.2151">
        <ele>131.282055</ele>
        <time>2022-12-28T13:20:13.738Z</time>
      </trkpt>
      <trkpt lat="44.43173" lon="-0.21497">
        <ele>131.36144</ele>
        <time>2022-12-28T13:20:15.732Z</time>
      </trkpt>
      <trkpt lat="44.43171" lon="-0.2148">
        <ele>131.456921</ele>
        <time>2022-12-28T13:20:18.735Z</time>
      </trkpt>
      <trkpt lat="44.43168" lon="-0.21466">
        <ele>131.544912</ele>
        <time>2022-12-28T13:20:21.746Z</time>
      </trkpt>
      <trkpt lat="44.43167" lon="-0.21451">
        <ele>131.630313</ele>
        <time>2022-12-28T13:20:24.740Z</time>
      </trkpt>
      <trkpt lat="44.43165" lon="-0.21436">
        <ele>131.716418</ele>
        <time>2022-12-28T13:20:27.739Z</time>
      </trkpt>
      <trkpt lat="44.43163" lon="-0.21423">
        <ele>131.811966</ele>
        <time>2022-12-28T13:20:30.738Z</time>
      </trkpt>
      <trkpt lat="44.43159" lon="-0.21407">
        <ele>132.052771</ele>
        <time>2022-12-28T13:20:34.738Z</time>
      </trkpt>
      <trkpt lat="44.43157" lon="-0.2139">
        <ele>132.300282</ele>
        <time>2022-12-28T13:20:38.718Z</time>
      </trkpt>
      <trkpt lat="44.43157" lon="-0.21377">
        <ele>132.4989</ele>
        <time>2022-12-28T13:20:41.740Z</time>
      </trkpt>
      <trkpt lat="44.43157" lon="-0.21362">
        <ele>132.722792</ele>
        <time>2022-12-28T13:20:45.717Z</time>
      </trkpt>
      <trkpt lat="44.4316" lon="-0.21349">
        <ele>132.92223</ele>
        <time>2022-12-28T13:20:49.724Z</time>
      </trkpt>
      <trkpt lat="44.43171" lon="-0.21342">
        <ele>133.161281</ele>
        <time>2022-12-28T13:20:53.719Z</time>
      </trkpt>
      <trkpt lat="44.43179" lon="-0.2134">
        <ele>133.346104</ele>
        <time>2022-12-28T13:20:56.719Z</time>
      </trkpt>
      <trkpt lat="44.43191" lon="-0.21337">
        <ele>133.580786</ele>
        <time>2022-12-28T13:20:59.737Z</time>
      </trkpt>
      <trkpt lat="44.43202" lon="-0.21335">
        <ele>133.818354</ele>
        <time>2022-12-28T13:21:02.720Z</time>
      </trkpt>
      <trkpt lat="44.43215" lon="-0.21334">
        <ele>134.070239</ele>
        <time>2022-12-28T13:21:05.744Z</time>
      </trkpt>
      <trkpt lat="44.43225" lon="-0.21331">
        <ele>134.277978</ele>
        <time>2022-12-28T13:21:08.717Z</time>
      </trkpt>
      <trkpt lat="44.43235" lon="-0.21329">
        <ele>134.503627</ele>
        <time>2022-12-28T13:21:11.739Z</time>
      </trkpt>
      <trkpt lat="44.43246" lon="-0.21327">
        <ele>134.714258</ele>
        <time>2022-12-28T13:21:14.737Z</time>
      </trkpt>
      <trkpt lat="44.43257" lon="-0.21324">
        <ele>134.946926</ele>
        <time>2022-12-28T13:21:17.738Z</time>
      </trkpt>
      <trkpt lat="44.43262" lon="-0.21313">
        <ele>135.146701</ele>
        <time>2022-12-28T13:21:20.713Z</time>
      </trkpt>
      <trkpt lat="44.43258" lon="-0.21298">
        <ele>135.372236</ele>
        <time>2022-12-28T13:21:23.718Z</time>
      </trkpt>
      <trkpt lat="44.43254" lon="-0.21286">
        <ele>135.369129</ele>
        <time>2022-12-28T13:21:25.717Z</time>
      </trkpt>
      <trkpt lat="44.43248" lon="-0.21273">
        <ele>135.171903</ele>
        <time>2022-12-28T13:21:27.735Z</time>
      </trkpt>
      <trkpt lat="44.43243" lon="-0.21259">
        <ele>134.965685</ele>
        <time>2022-12-28T13:21:29.746Z</time>
      </trkpt>
      <trkpt lat="44.43236" lon="-0.21245">
        <ele>134.746613</ele>
        <time>2022-12-28T13:21:31.743Z</time>
      </trkpt>
      <trkpt lat="44.43231" lon="-0.21232">
        <ele>134.557054</ele>
        <time>2022-12-28T13:21:33.745Z</time>
      </trkpt>
      <trkpt lat="44.43226" lon="-0.21218">
        <ele>134.36044</ele>
        <time>2022-12-28T13:21:35.738Z</time>
      </trkpt>
      <trkpt lat="44.43221" lon="-0.21207">
        <ele>134.194536</ele>
        <time>2022-12-28T13:21:37.719Z</time>
      </trkpt>
      <trkpt lat="44.43214" lon="-0.21198">
        <ele>134.025558</ele>
        <time>2022-12-28T13:21:39.714Z</time>
      </trkpt>
      <trkpt lat="44.43206" lon="-0.21192">
        <ele>133.861429</ele>
        <time>2022-12-28T13:21:41.737Z</time>
      </trkpt>
      <trkpt lat="44.43196" lon="-0.21186">
        <ele>133.670246</ele>
        <time>2022-12-28T13:21:44.713Z</time>
      </trkpt>
      <trkpt lat="44.43188" lon="-0.21177">
        <ele>133.492408</ele>
        <time>2022-12-28T13:21:48.720Z</time>
      </trkpt>
      <trkpt lat="44.43184" lon="-0.21167">
        <ele>133.328393</ele>
        <time>2022-12-28T13:21:52.713Z</time>
      </trkpt>
      <trkpt lat="44.43178" lon="-0.21156">
        <ele>133.157129</ele>
        <time>2022-12-28T13:21:56.738Z</time>
      </trkpt>
      <trkpt lat="44.43172" lon="-0.21144">
        <ele>132.964117</ele>
        <time>2022-12-28T13:22:00.738Z</time>
      </trkpt>
      <trkpt lat="44.43166" lon="-0.21133">
        <ele>132.788865</ele>
        <time>2022-12-28T13:22:04.726Z</time>
      </trkpt>
      <trkpt lat="44.43158" lon="-0.21122">
        <ele>132.600301</ele>
        <time>2022-12-28T13:22:09.734Z</time>
      </trkpt>
      <trkpt lat="44.43154" lon="-0.21111">
        <ele>132.436151</ele>
        <time>2022-12-28T13:22:14.739Z</time>
      </trkpt>
      <trkpt lat="44.43149" lon="-0.21099">
        <ele>132.250829</ele>
        <time>2022-12-28T13:22:20.713Z</time>
      </trkpt>
      <trkpt lat="44.43148" lon="-0.21086">
        <ele>131.99821</ele>
        <time>2022-12-28T13:22:25.734Z</time>
      </trkpt>
      <trkpt lat="44.4315" lon="-0.21072">
        <ele>131.712305</ele>
        <time>2022-12-28T13:22:30.736Z</time>
      </trkpt>
      <trkpt lat="44.43153" lon="-0.2106">
        <ele>131.439166</ele>
        <time>2022-12-28T13:22:35.720Z</time>
      </trkpt>
      <trkpt lat="44.43159" lon="-0.21048">
        <ele>131.133838</ele>
        <time>2022-12-28T13:22:41.719Z</time>
      </trkpt>
      <trkpt lat="44.43165" lon="-0.21037">
        <ele>130.848712</ele>
        <time>2022-12-28T13:22:47.716Z</time>
      </trkpt>
      <trkpt lat="44.4317" lon="-0.21026">
        <ele>130.580081</ele>
        <time>2022-12-28T13:22:52.735Z</time>
      </trkpt>
      <trkpt lat="44.43174" lon="-0.21013">
        <ele>130.273552</ele>
        <time>2022-12-28T13:22:58.719Z</time>
      </trkpt>
      <trkpt lat="44.43176" lon="-0.20999">
        <ele>129.988039</ele>
        <time>2022-12-28T13:23:03.724Z</time>
      </trkpt>
      <trkpt lat="44.4318" lon="-0.20984">
        <ele>129.651181</ele>
        <time>2022-12-28T13:23:08.727Z</time>
      </trkpt>
      <trkpt lat="44.43183" lon="-0.2097">
        <ele>129.336862</ele>
        <time>2022-12-28T13:23:11.733Z</time>
      </trkpt>
      <trkpt lat="44.43187" lon="-0.20957">
        <ele>129.051073</ele>
        <time>2022-12-28T13:23:14.721Z</time>
      </trkpt>
      <trkpt lat="44.4319" lon="-0.20945">
        <ele>128.77463</ele>
        <time>2022-12-28T13:23:17.722Z</time>
      </trkpt>
      <trkpt lat="44.43193" lon="-0.20932">
        <ele>128.486251</ele>
        <time>2022-12-28T13:23:20.719Z</time>
      </trkpt>
      <trkpt lat="44.43193" lon="-0.20916">
        <ele>128.165012</ele>
        <time>2022-12-28T13:23:23.716Z</time>
      </trkpt>
      <trkpt lat="44.43193" lon="-0.20901">
        <ele>127.855665</ele>
        <time>2022-12-28T13:23:26.721Z</time>
      </trkpt>
      <trkpt lat="44.43193" lon="-0.20889">
        <ele>127.592617</ele>
        <time>2022-12-28T13:23:29.724Z</time>
      </trkpt>
      <trkpt lat="44.43195" lon="-0.20875">
        <ele>127.303548</ele>
        <time>2022-12-28T13:23:34.713Z</time>
      </trkpt>
      <trkpt lat="44.43197" lon="-0.20862">
        <ele>127.027601</ele>
        <time>2022-12-28T13:23:38.720Z</time>
      </trkpt>
      <trkpt lat="44.43199" lon="-0.2085">
        <ele>126.715265</ele>
        <time>2022-12-28T13:23:41.733Z</time>
      </trkpt>
      <trkpt lat="44.432" lon="-0.20835">
        <ele>126.34597</ele>
        <time>2022-12-28T13:23:44.738Z</time>
      </trkpt>
      <trkpt lat="44.432" lon="-0.20819">
        <ele>125.950019</ele>
        <time>2022-12-28T13:23:47.720Z</time>
      </trkpt>
      <trkpt lat="44.432" lon="-0.20806">
        <ele>125.616045</ele>
        <time>2022-12-28T13:23:50.735Z</time>
      </trkpt>
      <trkpt lat="44.432" lon="-0.2079">
        <ele>125.225027</ele>
        <time>2022-12-28T13:23:53.735Z</time>
      </trkpt>
      <trkpt lat="44.43201" lon="-0.20774">
        <ele>124.813426</ele>
        <time>2022-12-28T13:23:56.719Z</time>
      </trkpt>
      <trkpt lat="44.43201" lon="-0.20758">
        <ele>124.424569</ele>
        <time>2022-12-28T13:23:59.735Z</time>
      </trkpt>
      <trkpt lat="44.43203" lon="-0.20741">
        <ele>123.991013</ele>
        <time>2022-12-28T13:24:02.736Z</time>
      </trkpt>
      <trkpt lat="44.43203" lon="-0.20725">
        <ele>123.590097</ele>
        <time>2022-12-28T13:24:05.715Z</time>
      </trkpt>
      <trkpt lat="44.43203" lon="-0.2071">
        <ele>123.216166</ele>
        <time>2022-12-28T13:24:08.718Z</time>
      </trkpt>
      <trkpt lat="44.43203" lon="-0.20696">
        <ele>122.884809</ele>
        <time>2022-12-28T13:24:11.726Z</time>
      </trkpt>
      <trkpt lat="44.43204" lon="-0.20683">
        <ele>122.561069</ele>
        <time>2022-12-28T13:24:16.722Z</time>
      </trkpt>
      <trkpt lat="44.43202" lon="-0.20681">
        <ele>122.488844</ele>
        <time>2022-12-28T13:24:37.349Z</time>
      </trkpt>
      <trkpt lat="44.43199" lon="-0.20657">
        <ele>121.883748</ele>
        <time>2022-12-28T13:25:29.743Z</time>
      </trkpt>
      <trkpt lat="44.43197" lon="-0.20643">
        <ele>121.519388</ele>
        <time>2022-12-28T13:25:33.736Z</time>
      </trkpt>
      <trkpt lat="44.43196" lon="-0.2063">
        <ele>121.191318</ele>
        <time>2022-12-28T13:25:36.748Z</time>
      </trkpt>
      <trkpt lat="44.43194" lon="-0.20616">
        <ele>120.834353</ele>
        <time>2022-12-28T13:25:39.722Z</time>
      </trkpt>
      <trkpt lat="44.43192" lon="-0.20602">
        <ele>120.338286</ele>
        <time>2022-12-28T13:25:42.748Z</time>
      </trkpt>
      <trkpt lat="44.43191" lon="-0.20589">
        <ele>119.768325</ele>
        <time>2022-12-28T13:25:45.740Z</time>
      </trkpt>
      <trkpt lat="44.43189" lon="-0.20572">
        <ele>119.080248</ele>
        <time>2022-12-28T13:25:48.747Z</time>
      </trkpt>
      <trkpt lat="44.43187" lon="-0.20555">
        <ele>118.356407</ele>
        <time>2022-12-28T13:25:51.734Z</time>
      </trkpt>
      <trkpt lat="44.43184" lon="-0.2054">
        <ele>117.691889</ele>
        <time>2022-12-28T13:25:54.750Z</time>
      </trkpt>
      <trkpt lat="44.43184" lon="-0.20525">
        <ele>117.084705</ele>
        <time>2022-12-28T13:25:57.746Z</time>
      </trkpt>
      <trkpt lat="44.43182" lon="-0.20512">
        <ele>116.52959</ele>
        <time>2022-12-28T13:26:00.743Z</time>
      </trkpt>
      <trkpt lat="44.43181" lon="-0.20495">
        <ele>115.823279</ele>
        <time>2022-12-28T13:26:03.751Z</time>
      </trkpt>
      <trkpt lat="44.43179" lon="-0.20479">
        <ele>115.124093</ele>
        <time>2022-12-28T13:26:06.743Z</time>
      </trkpt>
      <trkpt lat="44.43177" lon="-0.20466">
        <ele>114.582968</ele>
        <time>2022-12-28T13:26:08.726Z</time>
      </trkpt>
      <trkpt lat="44.43175" lon="-0.20452">
        <ele>113.993636</ele>
        <time>2022-12-28T13:26:10.733Z</time>
      </trkpt>
      <trkpt lat="44.43174" lon="-0.20436">
        <ele>113.31993</ele>
        <time>2022-12-28T13:26:12.745Z</time>
      </trkpt>
      <trkpt lat="44.43172" lon="-0.20419">
        <ele>112.598851</ele>
        <time>2022-12-28T13:26:14.743Z</time>
      </trkpt>
      <trkpt lat="44.4317" lon="-0.20402">
        <ele>111.865782</ele>
        <time>2022-12-28T13:26:16.725Z</time>
      </trkpt>
      <trkpt lat="44.43167" lon="-0.20383">
        <ele>111.08214</ele>
        <time>2022-12-28T13:26:18.740Z</time>
      </trkpt>
      <trkpt lat="44.43164" lon="-0.20365">
        <ele>110.311042</ele>
        <time>2022-12-28T13:26:20.738Z</time>
      </trkpt>
      <trkpt lat="44.43162" lon="-0.20349">
        <ele>110.493726</ele>
        <time>2022-12-28T13:26:22.740Z</time>
      </trkpt>
      <trkpt lat="44.43161" lon="-0.20335">
        <ele>110.799146</ele>
        <time>2022-12-28T13:26:24.740Z</time>
      </trkpt>
      <trkpt lat="44.4316" lon="-0.20317">
        <ele>111.17378</ele>
        <time>2022-12-28T13:26:27.744Z</time>
      </trkpt>
      <trkpt lat="44.43159" lon="-0.20304">
        <ele>111.449974</ele>
        <time>2022-12-28T13:26:30.739Z</time>
      </trkpt>
      <trkpt lat="44.43157" lon="-0.20291">
        <ele>111.737296</ele>
        <time>2022-12-28T13:26:33.741Z</time>
      </trkpt>
      <trkpt lat="44.43155" lon="-0.20278">
        <ele>112.01567</ele>
        <time>2022-12-28T13:26:36.736Z</time>
      </trkpt>
      <trkpt lat="44.43153" lon="-0.20262">
        <ele>112.371078</ele>
        <time>2022-12-28T13:26:40.734Z</time>
      </trkpt>
      <trkpt lat="44.43151" lon="-0.20246">
        <ele>112.715931</ele>
        <time>2022-12-28T13:26:44.739Z</time>
      </trkpt>
      <trkpt lat="44.4315" lon="-0.20231">
        <ele>113.030649</ele>
        <time>2022-12-28T13:26:48.739Z</time>
      </trkpt>
      <trkpt lat="44.43148" lon="-0.20217">
        <ele>113.32998</ele>
        <time>2022-12-28T13:26:52.719Z</time>
      </trkpt>
      <trkpt lat="44.43147" lon="-0.20204">
        <ele>113.622996</ele>
        <time>2022-12-28T13:26:56.716Z</time>
      </trkpt>
      <trkpt lat="44.43146" lon="-0.2019">
        <ele>113.924423</ele>
        <time>2022-12-28T13:27:00.737Z</time>
      </trkpt>
      <trkpt lat="44.43144" lon="-0.20175">
        <ele>114.241506</ele>
        <time>2022-12-28T13:27:04.732Z</time>
      </trkpt>
      <trkpt lat="44.43142" lon="-0.2016">
        <ele>114.56548</ele>
        <time>2022-12-28T13:27:08.726Z</time>
      </trkpt>
      <trkpt lat="44.43139" lon="-0.20146">
        <ele>114.874121</ele>
        <time>2022-12-28T13:27:12.730Z</time>
      </trkpt>
      <trkpt lat="44.43138" lon="-0.20132">
        <ele>115.181206</ele>
        <time>2022-12-28T13:27:16.742Z</time>
      </trkpt>
      <trkpt lat="44.43136" lon="-0.20118">
        <ele>115.470999</ele>
        <time>2022-12-28T13:27:20.741Z</time>
      </trkpt>
      <trkpt lat="44.43134" lon="-0.20106">
        <ele>115.823995</ele>
        <time>2022-12-28T13:27:24.741Z</time>
      </trkpt>
      <trkpt lat="44.43133" lon="-0.20093">
        <ele>116.232836</ele>
        <time>2022-12-28T13:27:28.718Z</time>
      </trkpt>
      <trkpt lat="44.43131" lon="-0.20078">
        <ele>116.710375</ele>
        <time>2022-12-28T13:27:33.732Z</time>
      </trkpt>
      <trkpt lat="44.4313" lon="-0.20063">
        <ele>117.171824</ele>
        <time>2022-12-28T13:27:38.742Z</time>
      </trkpt>
      <trkpt lat="44.43128" lon="-0.20049">
        <ele>117.626523</ele>
        <time>2022-12-28T13:27:43.719Z</time>
      </trkpt>
      <trkpt lat="44.43126" lon="-0.20035">
        <ele>118.075495</ele>
        <time>2022-12-28T13:27:48.727Z</time>
      </trkpt>
      <trkpt lat="44.43125" lon="-0.20021">
        <ele>118.517079</ele>
        <time>2022-12-28T13:27:54.737Z</time>
      </trkpt>
      <trkpt lat="44.43123" lon="-0.20007">
        <ele>118.93483</ele>
        <time>2022-12-28T13:27:59.739Z</time>
      </trkpt>
      <trkpt lat="44.43122" lon="-0.19995">
        <ele>119.334419</ele>
        <time>2022-12-28T13:28:04.718Z</time>
      </trkpt>
      <trkpt lat="44.43119" lon="-0.19982">
        <ele>119.735386</ele>
        <time>2022-12-28T13:28:09.723Z</time>
      </trkpt>
      <trkpt lat="44.43117" lon="-0.19967">
        <ele>120.226246</ele>
        <time>2022-12-28T13:28:15.735Z</time>
      </trkpt>
      <trkpt lat="44.43115" lon="-0.19954">
        <ele>120.650914</ele>
        <time>2022-12-28T13:28:20.723Z</time>
      </trkpt>
      <trkpt lat="44.43114" lon="-0.1994">
        <ele>121.067437</ele>
        <time>2022-12-28T13:28:25.729Z</time>
      </trkpt>
      <trkpt lat="44.43113" lon="-0.19928">
        <ele>121.462285</ele>
        <time>2022-12-28T13:28:30.729Z</time>
      </trkpt>
      <trkpt lat="44.43111" lon="-0.19914">
        <ele>121.893964</ele>
        <time>2022-12-28T13:28:36.730Z</time>
      </trkpt>
      <trkpt lat="44.43109" lon="-0.19899">
        <ele>122.356579</ele>
        <time>2022-12-28T13:28:42.724Z</time>
      </trkpt>
      <trkpt lat="44.43108" lon="-0.19885">
        <ele>122.797114</ele>
        <time>2022-12-28T13:28:48.715Z</time>
      </trkpt>
      <trkpt lat="44.43107" lon="-0.19873">
        <ele>123.193021</ele>
        <time>2022-12-28T13:28:53.722Z</time>
      </trkpt>
      <trkpt lat="44.43106" lon="-0.19859">
        <ele>123.608768</ele>
        <time>2022-12-28T13:28:58.714Z</time>
      </trkpt>
      <trkpt lat="44.43105" lon="-0.19845">
        <ele>124.050669</ele>
        <time>2022-12-28T13:29:03.736Z</time>
      </trkpt>
      <trkpt lat="44.43103" lon="-0.19832">
        <ele>124.469957</ele>
        <time>2022-12-28T13:29:08.723Z</time>
      </trkpt>
      <trkpt lat="44.43101" lon="-0.19819">
        <ele>124.879021</ele>
        <time>2022-12-28T13:29:13.718Z</time>
      </trkpt>
      <trkpt lat="44.43098" lon="-0.19805">
        <ele>125.311691</ele>
        <time>2022-12-28T13:29:18.738Z</time>
      </trkpt>
      <trkpt lat="44.43094" lon="-0.19793">
        <ele>125.737697</ele>
        <time>2022-12-28T13:29:23.758Z</time>
      </trkpt>
      <trkpt lat="44.43089" lon="-0.19781">
        <ele>126.1369</ele>
        <time>2022-12-28T13:29:28.720Z</time>
      </trkpt>
      <trkpt lat="44.43084" lon="-0.1977">
        <ele>126.559146</ele>
        <time>2022-12-28T13:29:33.741Z</time>
      </trkpt>
      <trkpt lat="44.43078" lon="-0.19758">
        <ele>126.989286</ele>
        <time>2022-12-28T13:29:38.741Z</time>
      </trkpt>
      <trkpt lat="44.43074" lon="-0.19746">
        <ele>127.420871</ele>
        <time>2022-12-28T13:29:43.742Z</time>
      </trkpt>
      <trkpt lat="44.43068" lon="-0.19733">
        <ele>127.86888</ele>
        <time>2022-12-28T13:29:48.729Z</time>
      </trkpt>
      <trkpt lat="44.43062" lon="-0.19721">
        <ele>128.316334</ele>
        <time>2022-12-28T13:29:53.740Z</time>
      </trkpt>
      <trkpt lat="44.43057" lon="-0.19708">
        <ele>128.777449</ele>
        <time>2022-12-28T13:29:58.723Z</time>
      </trkpt>
      <trkpt lat="44.43052" lon="-0.19696">
        <ele>129.20825</ele>
        <time>2022-12-28T13:30:03.741Z</time>
      </trkpt>
      <trkpt lat="44.43046" lon="-0.19683">
        <ele>129.694019</ele>
        <time>2022-12-28T13:30:08.733Z</time>
      </trkpt>
      <trkpt lat="44.43041" lon="-0.19672">
        <ele>130.091924</ele>
        <time>2022-12-28T13:30:12.732Z</time>
      </trkpt>
      <trkpt lat="44.43035" lon="-0.19659">
        <ele>130.547781</ele>
        <time>2022-12-28T13:30:16.732Z</time>
      </trkpt>
      <trkpt lat="44.43031" lon="-0.19647">
        <ele>130.950248</ele>
        <time>2022-12-28T13:30:19.723Z</time>
      </trkpt>
      <trkpt lat="44.43026" lon="-0.19635">
        <ele>131.205793</ele>
        <time>2022-12-28T13:30:22.741Z</time>
      </trkpt>
      <trkpt lat="44.43021" lon="-0.19623">
        <ele>131.327438</ele>
        <time>2022-12-28T13:30:25.738Z</time>
      </trkpt>
      <trkpt lat="44.43016" lon="-0.19611">
        <ele>131.448242</ele>
        <time>2022-12-28T13:30:28.728Z</time>
      </trkpt>
      <trkpt lat="44.4301" lon="-0.19598">
        <ele>131.574792</ele>
        <time>2022-12-28T13:30:31.750Z</time>
      </trkpt>
      <trkpt lat="44.43004" lon="-0.19585">
        <ele>131.705229</ele>
        <time>2022-12-28T13:30:34.742Z</time>
      </trkpt>
      <trkpt lat="44.42999" lon="-0.19573">
        <ele>131.831569</ele>
        <time>2022-12-28T13:30:37.723Z</time>
      </trkpt>
      <trkpt lat="44.42994" lon="-0.1956">
        <ele>131.955734</ele>
        <time>2022-12-28T13:30:40.742Z</time>
      </trkpt>
      <trkpt lat="44.42988" lon="-0.19547">
        <ele>132.082284</ele>
        <time>2022-12-28T13:30:43.732Z</time>
      </trkpt>
      <trkpt lat="44.42983" lon="-0.19535">
        <ele>132.208834</ele>
        <time>2022-12-28T13:30:46.730Z</time>
      </trkpt>
      <trkpt lat="44.42978" lon="-0.19522">
        <ele>132.331953</ele>
        <time>2022-12-28T13:30:49.735Z</time>
      </trkpt>
      <trkpt lat="44.42973" lon="-0.19509">
        <ele>132.458946</ele>
        <time>2022-12-28T13:30:52.725Z</time>
      </trkpt>
      <trkpt lat="44.42967" lon="-0.19497">
        <ele>132.586114</ele>
        <time>2022-12-28T13:30:55.745Z</time>
      </trkpt>
      <trkpt lat="44.42961" lon="-0.19484">
        <ele>132.714464</ele>
        <time>2022-12-28T13:30:58.722Z</time>
      </trkpt>
      <trkpt lat="44.42956" lon="-0.19471">
        <ele>132.846656</ele>
        <time>2022-12-28T13:31:01.742Z</time>
      </trkpt>
      <trkpt lat="44.42951" lon="-0.19457">
        <ele>132.976479</ele>
        <time>2022-12-28T13:31:04.728Z</time>
      </trkpt>
      <trkpt lat="44.42945" lon="-0.19445">
        <ele>133.10438</ele>
        <time>2022-12-28T13:31:07.741Z</time>
      </trkpt>
      <trkpt lat="44.4294" lon="-0.19431">
        <ele>133.237453</ele>
        <time>2022-12-28T13:31:10.738Z</time>
      </trkpt>
      <trkpt lat="44.42934" lon="-0.19418">
        <ele>133.382821</ele>
        <time>2022-12-28T13:31:13.729Z</time>
      </trkpt>
      <trkpt lat="44.42929" lon="-0.19404">
        <ele>133.536118</ele>
        <time>2022-12-28T13:31:16.742Z</time>
      </trkpt>
      <trkpt lat="44.42924" lon="-0.19391">
        <ele>133.692758</ele>
        <time>2022-12-28T13:31:19.746Z</time>
      </trkpt>
      <trkpt lat="44.42918" lon="-0.19378">
        <ele>133.848913</ele>
        <time>2022-12-28T13:31:22.717Z</time>
      </trkpt>
      <trkpt lat="44.42912" lon="-0.19364">
        <ele>134.008712</ele>
        <time>2022-12-28T13:31:25.738Z</time>
      </trkpt>
      <trkpt lat="44.42906" lon="-0.1935">
        <ele>134.173869</ele>
        <time>2022-12-28T13:31:28.721Z</time>
      </trkpt>
      <trkpt lat="44.429" lon="-0.19337">
        <ele>134.327434</ele>
        <time>2022-12-28T13:31:31.746Z</time>
      </trkpt>
      <trkpt lat="44.42895" lon="-0.19324">
        <ele>134.480893</ele>
        <time>2022-12-28T13:31:34.738Z</time>
      </trkpt>
      <trkpt lat="44.42889" lon="-0.19311">
        <ele>134.639208</ele>
        <time>2022-12-28T13:31:37.750Z</time>
      </trkpt>
      <trkpt lat="44.42883" lon="-0.19298">
        <ele>134.794635</ele>
        <time>2022-12-28T13:31:40.742Z</time>
      </trkpt>
      <trkpt lat="44.42877" lon="-0.19285">
        <ele>134.954991</ele>
        <time>2022-12-28T13:31:43.737Z</time>
      </trkpt>
      <trkpt lat="44.42872" lon="-0.1927">
        <ele>135.12009</ele>
        <time>2022-12-28T13:31:46.733Z</time>
      </trkpt>
      <trkpt lat="44.42866" lon="-0.19256">
        <ele>135.283781</ele>
        <time>2022-12-28T13:31:49.737Z</time>
      </trkpt>
      <trkpt lat="44.4286" lon="-0.19242">
        <ele>135.449938</ele>
        <time>2022-12-28T13:31:52.741Z</time>
      </trkpt>
      <trkpt lat="44.42854" lon="-0.19228">
        <ele>135.618879</ele>
        <time>2022-12-28T13:31:55.750Z</time>
      </trkpt>
      <trkpt lat="44.42847" lon="-0.19213">
        <ele>135.796635</ele>
        <time>2022-12-28T13:31:58.723Z</time>
      </trkpt>
      <trkpt lat="44.42841" lon="-0.19198">
        <ele>135.925663</ele>
        <time>2022-12-28T13:32:01.736Z</time>
      </trkpt>
      <trkpt lat="44.42835" lon="-0.19183">
        <ele>136.036147</ele>
        <time>2022-12-28T13:32:04.745Z</time>
      </trkpt>
      <trkpt lat="44.42829" lon="-0.19168">
        <ele>136.148063</ele>
        <time>2022-12-28T13:32:07.735Z</time>
      </trkpt>
      <trkpt lat="44.42822" lon="-0.19154">
        <ele>136.257919</ele>
        <time>2022-12-28T13:32:10.731Z</time>
      </trkpt>
      <trkpt lat="44.42816" lon="-0.19139">
        <ele>136.36896</ele>
        <time>2022-12-28T13:32:13.724Z</time>
      </trkpt>
      <trkpt lat="44.4281" lon="-0.19125">
        <ele>136.476465</ele>
        <time>2022-12-28T13:32:16.744Z</time>
      </trkpt>
      <trkpt lat="44.42804" lon="-0.19111">
        <ele>136.582193</ele>
        <time>2022-12-28T13:32:19.733Z</time>
      </trkpt>
      <trkpt lat="44.42798" lon="-0.19097">
        <ele>136.686427</ele>
        <time>2022-12-28T13:32:22.743Z</time>
      </trkpt>
      <trkpt lat="44.42793" lon="-0.19083">
        <ele>136.793369</ele>
        <time>2022-12-28T13:32:25.730Z</time>
      </trkpt>
      <trkpt lat="44.42786" lon="-0.19069">
        <ele>136.900604</ele>
        <time>2022-12-28T13:32:28.723Z</time>
      </trkpt>
      <trkpt lat="44.4278" lon="-0.19055">
        <ele>137.008109</ele>
        <time>2022-12-28T13:32:31.750Z</time>
      </trkpt>
      <trkpt lat="44.42774" lon="-0.19042">
        <ele>137.111065</ele>
        <time>2022-12-28T13:32:34.734Z</time>
      </trkpt>
      <trkpt lat="44.42769" lon="-0.19028">
        <ele>137.216324</ele>
        <time>2022-12-28T13:32:37.741Z</time>
      </trkpt>
      <trkpt lat="44.42763" lon="-0.19014">
        <ele>137.32078</ele>
        <time>2022-12-28T13:32:40.739Z</time>
      </trkpt>
      <trkpt lat="44.42757" lon="-0.19">
        <ele>137.42548</ele>
        <time>2022-12-28T13:32:43.716Z</time>
      </trkpt>
      <trkpt lat="44.42751" lon="-0.18986">
        <ele>137.558689</ele>
        <time>2022-12-28T13:32:46.723Z</time>
      </trkpt>
      <trkpt lat="44.42746" lon="-0.18973">
        <ele>137.710392</ele>
        <time>2022-12-28T13:32:49.741Z</time>
      </trkpt>
      <trkpt lat="44.42741" lon="-0.18962">
        <ele>137.839708</ele>
        <time>2022-12-28T13:32:52.728Z</time>
      </trkpt>
      <trkpt lat="44.42736" lon="-0.18951">
        <ele>137.973863</ele>
        <time>2022-12-28T13:32:55.743Z</time>
      </trkpt>
      <trkpt lat="44.42731" lon="-0.18939">
        <ele>138.119597</ele>
        <time>2022-12-28T13:32:58.722Z</time>
      </trkpt>
      <trkpt lat="44.42725" lon="-0.18926">
        <ele>138.274344</ele>
        <time>2022-12-28T13:33:01.726Z</time>
      </trkpt>
      <trkpt lat="44.42719" lon="-0.18913">
        <ele>138.431162</ele>
        <time>2022-12-28T13:33:04.735Z</time>
      </trkpt>
      <trkpt lat="44.42713" lon="-0.18899">
        <ele>138.594439</ele>
        <time>2022-12-28T13:33:07.728Z</time>
      </trkpt>
      <trkpt lat="44.42707" lon="-0.18885">
        <ele>138.763298</ele>
        <time>2022-12-28T13:33:10.728Z</time>
      </trkpt>
      <trkpt lat="44.42701" lon="-0.1887">
        <ele>138.935349</ele>
        <time>2022-12-28T13:33:13.729Z</time>
      </trkpt>
      <trkpt lat="44.42695" lon="-0.18856">
        <ele>139.107967</ele>
        <time>2022-12-28T13:33:16.742Z</time>
      </trkpt>
      <trkpt lat="44.4269" lon="-0.18841">
        <ele>139.276337</ele>
        <time>2022-12-28T13:33:19.743Z</time>
      </trkpt>
      <trkpt lat="44.42684" lon="-0.18829">
        <ele>139.427169</ele>
        <time>2022-12-28T13:33:22.742Z</time>
      </trkpt>
      <trkpt lat="44.42679" lon="-0.18818">
        <ele>139.561324</ele>
        <time>2022-12-28T13:33:25.737Z</time>
      </trkpt>
      <trkpt lat="44.42674" lon="-0.18806">
        <ele>139.698102</ele>
        <time>2022-12-28T13:33:28.721Z</time>
      </trkpt>
      <trkpt lat="44.42669" lon="-0.18795">
        <ele>139.831388</ele>
        <time>2022-12-28T13:33:31.730Z</time>
      </trkpt>
      <trkpt lat="44.42664" lon="-0.18783">
        <ele>139.974633</ele>
        <time>2022-12-28T13:33:34.741Z</time>
      </trkpt>
      <trkpt lat="44.42659" lon="-0.18771">
        <ele>139.977141</ele>
        <time>2022-12-28T13:33:37.747Z</time>
      </trkpt>
      <trkpt lat="44.42654" lon="-0.18759">
        <ele>139.808096</ele>
        <time>2022-12-28T13:33:40.731Z</time>
      </trkpt>
      <trkpt lat="44.42649" lon="-0.18748">
        <ele>139.640956</ele>
        <time>2022-12-28T13:33:43.751Z</time>
      </trkpt>
      <trkpt lat="44.42644" lon="-0.18736">
        <ele>139.463195</ele>
        <time>2022-12-28T13:33:46.747Z</time>
      </trkpt>
      <trkpt lat="44.42639" lon="-0.18723">
        <ele>139.269616</ele>
        <time>2022-12-28T13:33:49.750Z</time>
      </trkpt>
      <trkpt lat="44.42633" lon="-0.18708">
        <ele>139.053907</ele>
        <time>2022-12-28T13:33:52.735Z</time>
      </trkpt>
      <trkpt lat="44.42626" lon="-0.18692">
        <ele>138.817911</ele>
        <time>2022-12-28T13:33:55.728Z</time>
      </trkpt>
      <trkpt lat="44.42621" lon="-0.1868">
        <ele>138.643088</ele>
        <time>2022-12-28T13:33:57.726Z</time>
      </trkpt>
      <trkpt lat="44.42615" lon="-0.18667">
        <ele>138.45483</ele>
        <time>2022-12-28T13:33:59.741Z</time>
      </trkpt>
      <trkpt lat="44.4261" lon="-0.18655">
        <ele>138.273031</ele>
        <time>2022-12-28T13:34:01.737Z</time>
      </trkpt>
      <trkpt lat="44.42604" lon="-0.18642">
        <ele>138.077797</ele>
        <time>2022-12-28T13:34:03.748Z</time>
      </trkpt>
      <trkpt lat="44.42599" lon="-0.18627">
        <ele>137.868366</ele>
        <time>2022-12-28T13:34:05.743Z</time>
      </trkpt>
      <trkpt lat="44.42593" lon="-0.18613">
        <ele>137.666687</ele>
        <time>2022-12-28T13:34:07.740Z</time>
      </trkpt>
      <trkpt lat="44.42588" lon="-0.18599">
        <ele>137.464158</ele>
        <time>2022-12-28T13:34:09.746Z</time>
      </trkpt>
      <trkpt lat="44.42582" lon="-0.18585">
        <ele>137.256287</ele>
        <time>2022-12-28T13:34:11.737Z</time>
      </trkpt>
      <trkpt lat="44.42576" lon="-0.18571">
        <ele>137.05042</ele>
        <time>2022-12-28T13:34:13.741Z</time>
      </trkpt>
      <trkpt lat="44.4257" lon="-0.18557">
        <ele>136.841594</ele>
        <time>2022-12-28T13:34:15.732Z</time>
      </trkpt>
      <trkpt lat="44.42563" lon="-0.18543">
        <ele>136.65563</ele>
        <time>2022-12-28T13:34:17.732Z</time>
      </trkpt>
      <trkpt lat="44.42557" lon="-0.18527">
        <ele>136.452566</ele>
        <time>2022-12-28T13:34:19.732Z</time>
      </trkpt>
      <trkpt lat="44.4255" lon="-0.18511">
        <ele>136.244258</ele>
        <time>2022-12-28T13:34:21.730Z</time>
      </trkpt>
      <trkpt lat="44.42543" lon="-0.18495">
        <ele>136.039619</ele>
        <time>2022-12-28T13:34:23.729Z</time>
      </trkpt>
      <trkpt lat="44.42536" lon="-0.1848">
        <ele>135.83498</ele>
        <time>2022-12-28T13:34:25.747Z</time>
      </trkpt>
      <trkpt lat="44.4253" lon="-0.18464">
        <ele>135.631915</ele>
        <time>2022-12-28T13:34:27.747Z</time>
      </trkpt>
      <trkpt lat="44.42523" lon="-0.18448">
        <ele>135.431558</ele>
        <time>2022-12-28T13:34:29.754Z</time>
      </trkpt>
      <trkpt lat="44.42517" lon="-0.18434">
        <ele>135.241942</ele>
        <time>2022-12-28T13:34:31.725Z</time>
      </trkpt>
      <trkpt lat="44.4251" lon="-0.18419">
        <ele>135.047735</ele>
        <time>2022-12-28T13:34:33.730Z</time>
      </trkpt>
      <trkpt lat="44.42504" lon="-0.18404">
        <ele>134.852186</ele>
        <time>2022-12-28T13:34:35.741Z</time>
      </trkpt>
      <trkpt lat="44.42497" lon="-0.18388">
        <ele>134.644666</ele>
        <time>2022-12-28T13:34:37.741Z</time>
      </trkpt>
      <trkpt lat="44.42491" lon="-0.18373">
        <ele>134.454364</ele>
        <time>2022-12-28T13:34:39.738Z</time>
      </trkpt>
      <trkpt lat="44.42484" lon="-0.18359">
        <ele>134.264648</ele>
        <time>2022-12-28T13:34:41.741Z</time>
      </trkpt>
      <trkpt lat="44.42479" lon="-0.18345">
        <ele>134.08247</ele>
        <time>2022-12-28T13:34:43.738Z</time>
      </trkpt>
      <trkpt lat="44.42473" lon="-0.18332">
        <ele>133.789548</ele>
        <time>2022-12-28T13:34:45.742Z</time>
      </trkpt>
      <trkpt lat="44.42468" lon="-0.1832">
        <ele>133.499615</ele>
        <time>2022-12-28T13:34:47.739Z</time>
      </trkpt>
      <trkpt lat="44.42462" lon="-0.18304">
        <ele>133.102195</ele>
        <time>2022-12-28T13:34:50.737Z</time>
      </trkpt>
      <trkpt lat="44.42457" lon="-0.18292">
        <ele>132.82366</ele>
        <time>2022-12-28T13:34:52.749Z</time>
      </trkpt>
      <trkpt lat="44.42453" lon="-0.18281">
        <ele>132.543612</ele>
        <time>2022-12-28T13:34:54.729Z</time>
      </trkpt>
      <trkpt lat="44.42449" lon="-0.18268">
        <ele>132.252725</ele>
        <time>2022-12-28T13:34:56.745Z</time>
      </trkpt>
      <trkpt lat="44.42444" lon="-0.18256">
        <ele>131.955415</ele>
        <time>2022-12-28T13:34:58.745Z</time>
      </trkpt>
      <trkpt lat="44.4244" lon="-0.18245">
        <ele>131.684831</ele>
        <time>2022-12-28T13:35:00.722Z</time>
      </trkpt>
      <trkpt lat="44.42434" lon="-0.18227">
        <ele>131.262896</ele>
        <time>2022-12-28T13:35:03.726Z</time>
      </trkpt>
      <trkpt lat="44.42428" lon="-0.18215">
        <ele>130.972327</ele>
        <time>2022-12-28T13:35:05.748Z</time>
      </trkpt>
      <trkpt lat="44.42423" lon="-0.18205">
        <ele>130.700545</ele>
        <time>2022-12-28T13:35:07.740Z</time>
      </trkpt>
      <trkpt lat="44.42418" lon="-0.18193">
        <ele>130.392765</ele>
        <time>2022-12-28T13:35:09.724Z</time>
      </trkpt>
      <trkpt lat="44.42411" lon="-0.1818">
        <ele>130.067792</ele>
        <time>2022-12-28T13:35:11.742Z</time>
      </trkpt>
      <trkpt lat="44.42405" lon="-0.18168">
        <ele>129.744524</ele>
        <time>2022-12-28T13:35:13.725Z</time>
      </trkpt>
      <trkpt lat="44.42399" lon="-0.18156">
        <ele>129.428097</ele>
        <time>2022-12-28T13:35:15.742Z</time>
      </trkpt>
      <trkpt lat="44.42392" lon="-0.18143">
        <ele>129.096188</ele>
        <time>2022-12-28T13:35:17.738Z</time>
      </trkpt>
      <trkpt lat="44.42386" lon="-0.18132">
        <ele>128.812644</ele>
        <time>2022-12-28T13:35:19.731Z</time>
      </trkpt>
      <trkpt lat="44.42381" lon="-0.18122">
        <ele>128.290113</ele>
        <time>2022-12-28T13:35:21.726Z</time>
      </trkpt>
      <trkpt lat="44.42375" lon="-0.18112">
        <ele>127.609483</ele>
        <time>2022-12-28T13:35:23.738Z</time>
      </trkpt>
      <trkpt lat="44.42368" lon="-0.18101">
        <ele>126.888549</ele>
        <time>2022-12-28T13:35:25.745Z</time>
      </trkpt>
      <trkpt lat="44.42362" lon="-0.18088">
        <ele>126.118027</ele>
        <time>2022-12-28T13:35:27.750Z</time>
      </trkpt>
      <trkpt lat="44.42356" lon="-0.18076">
        <ele>125.326999</ele>
        <time>2022-12-28T13:35:29.731Z</time>
      </trkpt>
      <trkpt lat="44.4235" lon="-0.18063">
        <ele>124.523412</ele>
        <time>2022-12-28T13:35:31.731Z</time>
      </trkpt>
      <trkpt lat="44.42344" lon="-0.1805">
        <ele>123.750385</ele>
        <time>2022-12-28T13:35:33.749Z</time>
      </trkpt>
      <trkpt lat="44.42339" lon="-0.18036">
        <ele>122.952126</ele>
        <time>2022-12-28T13:35:35.743Z</time>
      </trkpt>
      <trkpt lat="44.42335" lon="-0.18022">
        <ele>122.187454</ele>
        <time>2022-12-28T13:35:37.745Z</time>
      </trkpt>
      <trkpt lat="44.4233" lon="-0.18009">
        <ele>121.426817</ele>
        <time>2022-12-28T13:35:39.745Z</time>
      </trkpt>
      <trkpt lat="44.42327" lon="-0.17993">
        <ele>120.604884</ele>
        <time>2022-12-28T13:35:41.736Z</time>
      </trkpt>
      <trkpt lat="44.42323" lon="-0.17979">
        <ele>119.812128</ele>
        <time>2022-12-28T13:35:43.739Z</time>
      </trkpt>
      <trkpt lat="44.42321" lon="-0.17963">
        <ele>118.962653</ele>
        <time>2022-12-28T13:35:45.741Z</time>
      </trkpt>
      <trkpt lat="44.42319" lon="-0.17946">
        <ele>118.097493</ele>
        <time>2022-12-28T13:35:47.735Z</time>
      </trkpt>
      <trkpt lat="44.42318" lon="-0.17929">
        <ele>117.240109</ele>
        <time>2022-12-28T13:35:49.731Z</time>
      </trkpt>
      <trkpt lat="44.42317" lon="-0.17912">
        <ele>116.374037</ele>
        <time>2022-12-28T13:35:51.741Z</time>
      </trkpt>
      <trkpt lat="44.42316" lon="-0.17895">
        <ele>115.627334</ele>
        <time>2022-12-28T13:35:53.740Z</time>
      </trkpt>
      <trkpt lat="44.42316" lon="-0.17879">
        <ele>115.161378</ele>
        <time>2022-12-28T13:35:55.743Z</time>
      </trkpt>
      <trkpt lat="44.42316" lon="-0.17863">
        <ele>114.656272</ele>
        <time>2022-12-28T13:35:57.750Z</time>
      </trkpt>
      <trkpt lat="44.42317" lon="-0.17846">
        <ele>114.148073</ele>
        <time>2022-12-28T13:35:59.738Z</time>
      </trkpt>
      <trkpt lat="44.42317" lon="-0.17829">
        <ele>113.654613</ele>
        <time>2022-12-28T13:36:01.744Z</time>
      </trkpt>
      <trkpt lat="44.42317" lon="-0.17811">
        <ele>113.101222</ele>
        <time>2022-12-28T13:36:03.740Z</time>
      </trkpt>
      <trkpt lat="44.42318" lon="-0.17793">
        <ele>112.547303</ele>
        <time>2022-12-28T13:36:05.753Z</time>
      </trkpt>
      <trkpt lat="44.42319" lon="-0.17774">
        <ele>111.991867</ele>
        <time>2022-12-28T13:36:07.749Z</time>
      </trkpt>
      <trkpt lat="44.4232" lon="-0.17753">
        <ele>111.358877</ele>
        <time>2022-12-28T13:36:09.740Z</time>
      </trkpt>
      <trkpt lat="44.42322" lon="-0.17731">
        <ele>110.683605</ele>
        <time>2022-12-28T13:36:11.741Z</time>
      </trkpt>
      <trkpt lat="44.42322" lon="-0.17707">
        <ele>109.968088</ele>
        <time>2022-12-28T13:36:13.741Z</time>
      </trkpt>
      <trkpt lat="44.42322" lon="-0.17694">
        <ele>109.589312</ele>
        <time>2022-12-28T13:36:14.745Z</time>
      </trkpt>
      <trkpt lat="44.42322" lon="-0.17669">
        <ele>108.840729</ele>
        <time>2022-12-28T13:36:16.743Z</time>
      </trkpt>
      <trkpt lat="44.42321" lon="-0.17657">
        <ele>108.455848</ele>
        <time>2022-12-28T13:36:17.749Z</time>
      </trkpt>
      <trkpt lat="44.4232" lon="-0.17632">
        <ele>108.341967</ele>
        <time>2022-12-28T13:36:19.739Z</time>
      </trkpt>
      <trkpt lat="44.42319" lon="-0.17608">
        <ele>108.460014</ele>
        <time>2022-12-28T13:36:21.742Z</time>
      </trkpt>
      <trkpt lat="44.42318" lon="-0.17585">
        <ele>108.575833</ele>
        <time>2022-12-28T13:36:23.740Z</time>
      </trkpt>
      <trkpt lat="44.42316" lon="-0.17561">
        <ele>108.689844</ele>
        <time>2022-12-28T13:36:25.721Z</time>
      </trkpt>
      <trkpt lat="44.42313" lon="-0.17541">
        <ele>108.791743</ele>
        <time>2022-12-28T13:36:27.729Z</time>
      </trkpt>
      <trkpt lat="44.4231" lon="-0.17522">
        <ele>108.885108</ele>
        <time>2022-12-28T13:36:29.744Z</time>
      </trkpt>
      <trkpt lat="44.42306" lon="-0.17506">
        <ele>108.96831</ele>
        <time>2022-12-28T13:36:31.743Z</time>
      </trkpt>
      <trkpt lat="44.42303" lon="-0.17492">
        <ele>109.040631</ele>
        <time>2022-12-28T13:36:33.742Z</time>
      </trkpt>
      <trkpt lat="44.423" lon="-0.1748">
        <ele>109.103246</ele>
        <time>2022-12-28T13:36:35.792Z</time>
      </trkpt>
      <trkpt lat="44.42296" lon="-0.17465">
        <ele>109.180126</ele>
        <time>2022-12-28T13:36:38.749Z</time>
      </trkpt>
      <trkpt lat="44.42292" lon="-0.17452">
        <ele>109.250669</ele>
        <time>2022-12-28T13:36:41.794Z</time>
      </trkpt>
      <trkpt lat="44.42287" lon="-0.17437">
        <ele>109.328642</ele>
        <time>2022-12-28T13:36:45.743Z</time>
      </trkpt>
      <trkpt lat="44.42283" lon="-0.17424">
        <ele>109.402071</ele>
        <time>2022-12-28T13:36:49.743Z</time>
      </trkpt>
      <trkpt lat="44.42278" lon="-0.17411">
        <ele>109.473869</ele>
        <time>2022-12-28T13:36:53.723Z</time>
      </trkpt>
      <trkpt lat="44.42273" lon="-0.17398">
        <ele>109.939652</ele>
        <time>2022-12-28T13:36:58.821Z</time>
      </trkpt>
      <trkpt lat="44.42268" lon="-0.17385">
        <ele>110.506935</ele>
        <time>2022-12-28T13:37:04.811Z</time>
      </trkpt>
      <trkpt lat="44.42263" lon="-0.17372">
        <ele>111.09314</ele>
        <time>2022-12-28T13:37:10.746Z</time>
      </trkpt>
      <trkpt lat="44.42259" lon="-0.17361">
        <ele>111.590104</ele>
        <time>2022-12-28T13:37:15.794Z</time>
      </trkpt>
      <trkpt lat="44.42253" lon="-0.17349">
        <ele>112.154761</ele>
        <time>2022-12-28T13:37:21.765Z</time>
      </trkpt>
      <trkpt lat="44.42248" lon="-0.17337">
        <ele>112.680816</ele>
        <time>2022-12-28T13:37:26.743Z</time>
      </trkpt>
      <trkpt lat="44.42243" lon="-0.17324">
        <ele>113.24405</ele>
        <time>2022-12-28T13:37:32.743Z</time>
      </trkpt>
      <trkpt lat="44.42238" lon="-0.17313">
        <ele>113.789712</ele>
        <time>2022-12-28T13:37:38.748Z</time>
      </trkpt>
      <trkpt lat="44.42232" lon="-0.17301">
        <ele>114.360159</ele>
        <time>2022-12-28T13:37:44.747Z</time>
      </trkpt>
      <trkpt lat="44.42226" lon="-0.17288">
        <ele>114.949793</ele>
        <time>2022-12-28T13:37:50.757Z</time>
      </trkpt>
      <trkpt lat="44.4222" lon="-0.17276">
        <ele>115.50432</ele>
        <time>2022-12-28T13:37:57.743Z</time>
      </trkpt>
      <trkpt lat="44.42214" lon="-0.17265">
        <ele>116.059763</ele>
        <time>2022-12-28T13:38:03.748Z</time>
      </trkpt>
      <trkpt lat="44.42208" lon="-0.17254">
        <ele>116.588978</ele>
        <time>2022-12-28T13:38:09.744Z</time>
      </trkpt>
      <trkpt lat="44.42202" lon="-0.17241">
        <ele>117.175378</ele>
        <time>2022-12-28T13:38:15.746Z</time>
      </trkpt>
      <trkpt lat="44.42197" lon="-0.17231">
        <ele>117.676303</ele>
        <time>2022-12-28T13:38:20.749Z</time>
      </trkpt>
      <trkpt lat="44.42191" lon="-0.17218">
        <ele>118.261851</ele>
        <time>2022-12-28T13:38:26.742Z</time>
      </trkpt>
      <trkpt lat="44.42185" lon="-0.17207">
        <ele>118.822669</ele>
        <time>2022-12-28T13:38:32.747Z</time>
      </trkpt>
      <trkpt lat="44.4218" lon="-0.17196">
        <ele>119.321643</ele>
        <time>2022-12-28T13:38:38.748Z</time>
      </trkpt>
      <trkpt lat="44.42174" lon="-0.17184">
        <ele>119.925008</ele>
        <time>2022-12-28T13:38:44.731Z</time>
      </trkpt>
      <trkpt lat="44.42168" lon="-0.17171">
        <ele>120.535579</ele>
        <time>2022-12-28T13:38:50.747Z</time>
      </trkpt>
      <trkpt lat="44.42163" lon="-0.17159">
        <ele>121.143045</ele>
        <time>2022-12-28T13:38:56.743Z</time>
      </trkpt>
      <trkpt lat="44.42157" lon="-0.17147">
        <ele>121.734434</ele>
        <time>2022-12-28T13:39:02.743Z</time>
      </trkpt>
      <trkpt lat="44.42152" lon="-0.17134">
        <ele>122.352775</ele>
        <time>2022-12-28T13:39:08.727Z</time>
      </trkpt>
      <trkpt lat="44.42147" lon="-0.17121">
        <ele>122.936044</ele>
        <time>2022-12-28T13:39:14.744Z</time>
      </trkpt>
      <trkpt lat="44.42141" lon="-0.17109">
        <ele>123.529412</ele>
        <time>2022-12-28T13:39:21.742Z</time>
      </trkpt>
      <trkpt lat="44.42136" lon="-0.17098">
        <ele>124.083658</ele>
        <time>2022-12-28T13:39:27.746Z</time>
      </trkpt>
      <trkpt lat="44.42131" lon="-0.17084">
        <ele>124.706754</ele>
        <time>2022-12-28T13:39:33.745Z</time>
      </trkpt>
      <trkpt lat="44.42126" lon="-0.17073">
        <ele>125.25381</ele>
        <time>2022-12-28T13:39:38.743Z</time>
      </trkpt>
      <trkpt lat="44.42122" lon="-0.1706">
        <ele>125.801304</ele>
        <time>2022-12-28T13:39:43.744Z</time>
      </trkpt>
      <trkpt lat="44.42119" lon="-0.17048">
        <ele>126.353375</ele>
        <time>2022-12-28T13:39:48.746Z</time>
      </trkpt>
      <trkpt lat="44.42115" lon="-0.17036">
        <ele>126.890286</ele>
        <time>2022-12-28T13:39:54.750Z</time>
      </trkpt>
      <trkpt lat="44.42111" lon="-0.17023">
        <ele>127.465224</ele>
        <time>2022-12-28T13:40:00.742Z</time>
      </trkpt>
      <trkpt lat="44.42108" lon="-0.17011">
        <ele>127.98792</ele>
        <time>2022-12-28T13:40:05.744Z</time>
      </trkpt>
      <trkpt lat="44.42105" lon="-0.16998">
        <ele>128.555221</ele>
        <time>2022-12-28T13:40:10.743Z</time>
      </trkpt>
      <trkpt lat="44.42102" lon="-0.16984">
        <ele>129.153929</ele>
        <time>2022-12-28T13:40:15.751Z</time>
      </trkpt>
      <trkpt lat="44.42098" lon="-0.16972">
        <ele>129.661504</ele>
        <time>2022-12-28T13:40:19.744Z</time>
      </trkpt>
      <trkpt lat="44.42095" lon="-0.16957">
        <ele>130.121166</ele>
        <time>2022-12-28T13:40:24.744Z</time>
      </trkpt>
      <trkpt lat="44.42091" lon="-0.16944">
        <ele>130.553782</ele>
        <time>2022-12-28T13:40:29.746Z</time>
      </trkpt>
      <trkpt lat="44.42088" lon="-0.16931">
        <ele>130.96573</ele>
        <time>2022-12-28T13:40:34.744Z</time>
      </trkpt>
      <trkpt lat="44.42084" lon="-0.16916">
        <ele>131.44226</ele>
        <time>2022-12-28T13:40:39.747Z</time>
      </trkpt>
      <trkpt lat="44.42081" lon="-0.16904">
        <ele>131.825193</ele>
        <time>2022-12-28T13:40:43.744Z</time>
      </trkpt>
      <trkpt lat="44.42077" lon="-0.16891">
        <ele>132.2564</ele>
        <time>2022-12-28T13:40:48.806Z</time>
      </trkpt>
      <trkpt lat="44.42074" lon="-0.16877">
        <ele>132.685114</ele>
        <time>2022-12-28T13:40:53.746Z</time>
      </trkpt>
      <trkpt lat="44.42071" lon="-0.16865">
        <ele>133.073739</ele>
        <time>2022-12-28T13:40:57.727Z</time>
      </trkpt>
      <trkpt lat="44.42067" lon="-0.16852">
        <ele>133.50008</ele>
        <time>2022-12-28T13:41:01.744Z</time>
      </trkpt>
      <trkpt lat="44.42063" lon="-0.16838">
        <ele>133.969571</ele>
        <time>2022-12-28T13:41:05.789Z</time>
      </trkpt>
      <trkpt lat="44.4206" lon="-0.16824">
        <ele>134.409248</ele>
        <time>2022-12-28T13:41:09.744Z</time>
      </trkpt>
      <trkpt lat="44.42056" lon="-0.16811">
        <ele>134.813639</ele>
        <time>2022-12-28T13:41:13.745Z</time>
      </trkpt>
      <trkpt lat="44.42052" lon="-0.16799">
        <ele>135.231146</ele>
        <time>2022-12-28T13:41:18.744Z</time>
      </trkpt>
      <trkpt lat="44.42049" lon="-0.16785">
        <ele>135.653909</ele>
        <time>2022-12-28T13:41:22.746Z</time>
      </trkpt>
      <trkpt lat="44.42045" lon="-0.1677">
        <ele>136.136164</ele>
        <time>2022-12-28T13:41:26.747Z</time>
      </trkpt>
      <trkpt lat="44.42041" lon="-0.16757">
        <ele>136.576019</ele>
        <time>2022-12-28T13:41:30.745Z</time>
      </trkpt>
      <trkpt lat="44.42038" lon="-0.16744">
        <ele>136.983064</ele>
        <time>2022-12-28T13:41:34.822Z</time>
      </trkpt>
      <trkpt lat="44.42034" lon="-0.1673">
        <ele>137.323789</ele>
        <time>2022-12-28T13:41:38.743Z</time>
      </trkpt>
      <trkpt lat="44.4203" lon="-0.16716">
        <ele>137.586053</ele>
        <time>2022-12-28T13:41:42.743Z</time>
      </trkpt>
      <trkpt lat="44.42027" lon="-0.16702">
        <ele>137.840294</ele>
        <time>2022-12-28T13:41:46.822Z</time>
      </trkpt>
      <trkpt lat="44.42023" lon="-0.16688">
        <ele>138.094384</ele>
        <time>2022-12-28T13:41:50.744Z</time>
      </trkpt>
      <trkpt lat="44.42018" lon="-0.16674">
        <ele>138.365867</ele>
        <time>2022-12-28T13:41:54.745Z</time>
      </trkpt>
      <trkpt lat="44.42014" lon="-0.16662">
        <ele>138.586979</ele>
        <time>2022-12-28T13:41:57.745Z</time>
      </trkpt>
      <trkpt lat="44.4201" lon="-0.16651">
        <ele>138.805035</ele>
        <time>2022-12-28T13:42:00.744Z</time>
      </trkpt>
      <trkpt lat="44.42005" lon="-0.16639">
        <ele>139.030214</ele>
        <time>2022-12-28T13:42:03.721Z</time>
      </trkpt>
      <trkpt lat="44.42" lon="-0.16629">
        <ele>139.247528</ele>
        <time>2022-12-28T13:42:06.745Z</time>
      </trkpt>
      <trkpt lat="44.41995" lon="-0.16618">
        <ele>139.471463</ele>
        <time>2022-12-28T13:42:09.746Z</time>
      </trkpt>
      <trkpt lat="44.41988" lon="-0.16604">
        <ele>139.75795</ele>
        <time>2022-12-28T13:42:13.748Z</time>
      </trkpt>
      <trkpt lat="44.41983" lon="-0.16593">
        <ele>139.987339</ele>
        <time>2022-12-28T13:42:16.797Z</time>
      </trkpt>
      <trkpt lat="44.41977" lon="-0.16582">
        <ele>140.218276</ele>
        <time>2022-12-28T13:42:19.748Z</time>
      </trkpt>
      <trkpt lat="44.41971" lon="-0.16572">
        <ele>140.442945</ele>
        <time>2022-12-28T13:42:22.806Z</time>
      </trkpt>
      <trkpt lat="44.41964" lon="-0.16563">
        <ele>140.672253</ele>
        <time>2022-12-28T13:42:25.744Z</time>
      </trkpt>
      <trkpt lat="44.41957" lon="-0.16553">
        <ele>140.90113</ele>
        <time>2022-12-28T13:42:28.821Z</time>
      </trkpt>
      <trkpt lat="44.41951" lon="-0.16543">
        <ele>141.129219</ele>
        <time>2022-12-28T13:42:31.744Z</time>
      </trkpt>
      <trkpt lat="44.41944" lon="-0.16535">
        <ele>141.350186</ele>
        <time>2022-12-28T13:42:34.726Z</time>
      </trkpt>
      <trkpt lat="44.41937" lon="-0.16526">
        <ele>141.561439</ele>
        <time>2022-12-28T13:42:37.744Z</time>
      </trkpt>
      <trkpt lat="44.41931" lon="-0.16517">
        <ele>141.749482</ele>
        <time>2022-12-28T13:42:40.742Z</time>
      </trkpt>
      <trkpt lat="44.41924" lon="-0.16508">
        <ele>141.938546</ele>
        <time>2022-12-28T13:42:43.745Z</time>
      </trkpt>
      <trkpt lat="44.41915" lon="-0.16496">
        <ele>142.185336</ele>
        <time>2022-12-28T13:42:47.746Z</time>
      </trkpt>
      <trkpt lat="44.41908" lon="-0.16486">
        <ele>142.380821</ele>
        <time>2022-12-28T13:42:50.793Z</time>
      </trkpt>
      <trkpt lat="44.41901" lon="-0.16478">
        <ele>142.57461</ele>
        <time>2022-12-28T13:42:53.745Z</time>
      </trkpt>
      <trkpt lat="44.41894" lon="-0.16469">
        <ele>142.769087</ele>
        <time>2022-12-28T13:42:56.795Z</time>
      </trkpt>
      <trkpt lat="44.41887" lon="-0.16457">
        <ele>142.995358</ele>
        <time>2022-12-28T13:43:00.742Z</time>
      </trkpt>
      <trkpt lat="44.41879" lon="-0.16446">
        <ele>143.231851</ele>
        <time>2022-12-28T13:43:04.743Z</time>
      </trkpt>
      <trkpt lat="44.41872" lon="-0.16437">
        <ele>143.41907</ele>
        <time>2022-12-28T13:43:07.790Z</time>
      </trkpt>
      <trkpt lat="44.41865" lon="-0.16428">
        <ele>143.607576</ele>
        <time>2022-12-28T13:43:10.742Z</time>
      </trkpt>
      <trkpt lat="44.41859" lon="-0.16419">
        <ele>143.792595</ele>
        <time>2022-12-28T13:43:13.747Z</time>
      </trkpt>
      <trkpt lat="44.41852" lon="-0.1641">
        <ele>143.98607</ele>
        <time>2022-12-28T13:43:16.744Z</time>
      </trkpt>
      <trkpt lat="44.41845" lon="-0.16401">
        <ele>144.176594</ele>
        <time>2022-12-28T13:43:19.718Z</time>
      </trkpt>
      <trkpt lat="44.41839" lon="-0.16391">
        <ele>144.375872</ele>
        <time>2022-12-28T13:43:22.744Z</time>
      </trkpt>
      <trkpt lat="44.41831" lon="-0.16378">
        <ele>144.61368</ele>
        <time>2022-12-28T13:43:26.745Z</time>
      </trkpt>
      <trkpt lat="44.41825" lon="-0.16369">
        <ele>144.803192</ele>
        <time>2022-12-28T13:43:30.744Z</time>
      </trkpt>
      <trkpt lat="44.41818" lon="-0.16359">
        <ele>145.007996</ele>
        <time>2022-12-28T13:43:34.779Z</time>
      </trkpt>
      <trkpt lat="44.4181" lon="-0.16349">
        <ele>145.251168</ele>
        <time>2022-12-28T13:43:38.743Z</time>
      </trkpt>
      <trkpt lat="44.41802" lon="-0.16339">
        <ele>145.606289</ele>
        <time>2022-12-28T13:43:42.743Z</time>
      </trkpt>
      <trkpt lat="44.41795" lon="-0.16329">
        <ele>145.952559</ele>
        <time>2022-12-28T13:43:46.742Z</time>
      </trkpt>
      <trkpt lat="44.41787" lon="-0.16318">
        <ele>146.306403</ele>
        <time>2022-12-28T13:43:50.729Z</time>
      </trkpt>
      <trkpt lat="44.4178" lon="-0.16309">
        <ele>146.628561</ele>
        <time>2022-12-28T13:43:54.742Z</time>
      </trkpt>
      <trkpt lat="44.41773" lon="-0.163">
        <ele>146.930531</ele>
        <time>2022-12-28T13:43:58.748Z</time>
      </trkpt>
      <trkpt lat="44.41767" lon="-0.1629">
        <ele>147.248447</ele>
        <time>2022-12-28T13:44:02.738Z</time>
      </trkpt>
      <trkpt lat="44.4176" lon="-0.1628">
        <ele>147.572631</ele>
        <time>2022-12-28T13:44:06.746Z</time>
      </trkpt>
      <trkpt lat="44.41753" lon="-0.16271">
        <ele>147.884405</ele>
        <time>2022-12-28T13:44:10.740Z</time>
      </trkpt>
      <trkpt lat="44.41747" lon="-0.16261">
        <ele>148.200064</ele>
        <time>2022-12-28T13:44:14.745Z</time>
      </trkpt>
      <trkpt lat="44.4174" lon="-0.16251">
        <ele>148.520257</ele>
        <time>2022-12-28T13:44:18.745Z</time>
      </trkpt>
      <trkpt lat="44.41734" lon="-0.16242">
        <ele>148.826775</ele>
        <time>2022-12-28T13:44:22.744Z</time>
      </trkpt>
      <trkpt lat="44.41727" lon="-0.16234">
        <ele>149.13395</ele>
        <time>2022-12-28T13:44:27.811Z</time>
      </trkpt>
      <trkpt lat="44.41719" lon="-0.16222">
        <ele>149.496315</ele>
        <time>2022-12-28T13:44:32.745Z</time>
      </trkpt>
      <trkpt lat="44.41711" lon="-0.16212">
        <ele>149.856325</ele>
        <time>2022-12-28T13:44:37.749Z</time>
      </trkpt>
      <trkpt lat="44.41703" lon="-0.16202">
        <ele>150.213173</ele>
        <time>2022-12-28T13:44:42.751Z</time>
      </trkpt>
      <trkpt lat="44.41695" lon="-0.16191">
        <ele>150.57569</ele>
        <time>2022-12-28T13:44:47.747Z</time>
      </trkpt>
      <trkpt lat="44.41688" lon="-0.16179">
        <ele>150.94279</ele>
        <time>2022-12-28T13:44:52.746Z</time>
      </trkpt>
      <trkpt lat="44.41681" lon="-0.16168">
        <ele>151.333505</ele>
        <time>2022-12-28T13:44:57.731Z</time>
      </trkpt>
      <trkpt lat="44.41673" lon="-0.16158">
        <ele>151.76067</ele>
        <time>2022-12-28T13:45:02.745Z</time>
      </trkpt>
      <trkpt lat="44.41666" lon="-0.16147">
        <ele>152.178005</ele>
        <time>2022-12-28T13:45:07.792Z</time>
      </trkpt>
      <trkpt lat="44.41658" lon="-0.16136">
        <ele>152.620652</ele>
        <time>2022-12-28T13:45:12.739Z</time>
      </trkpt>
      <trkpt lat="44.41651" lon="-0.16126">
        <ele>153.022798</ele>
        <time>2022-12-28T13:45:17.747Z</time>
      </trkpt>
      <trkpt lat="44.41643" lon="-0.16116">
        <ele>153.466372</ele>
        <time>2022-12-28T13:45:22.744Z</time>
      </trkpt>
      <trkpt lat="44.41636" lon="-0.16105">
        <ele>153.899639</ele>
        <time>2022-12-28T13:45:27.748Z</time>
      </trkpt>
      <trkpt lat="44.41628" lon="-0.16094">
        <ele>154.310234</ele>
        <time>2022-12-28T13:45:32.722Z</time>
      </trkpt>
      <trkpt lat="44.41621" lon="-0.16083">
        <ele>154.753121</ele>
        <time>2022-12-28T13:45:37.745Z</time>
      </trkpt>
      <trkpt lat="44.41613" lon="-0.16073">
        <ele>155.18602</ele>
        <time>2022-12-28T13:45:42.798Z</time>
      </trkpt>
      <trkpt lat="44.41605" lon="-0.16062">
        <ele>155.605238</ele>
        <time>2022-12-28T13:45:47.745Z</time>
      </trkpt>
      <trkpt lat="44.41598" lon="-0.16052">
        <ele>156.011507</ele>
        <time>2022-12-28T13:45:52.745Z</time>
      </trkpt>
      <trkpt lat="44.41591" lon="-0.16041">
        <ele>156.448387</ele>
        <time>2022-12-28T13:45:57.742Z</time>
      </trkpt>
      <trkpt lat="44.41583" lon="-0.16031">
        <ele>156.879589</ele>
        <time>2022-12-28T13:46:02.747Z</time>
      </trkpt>
      <trkpt lat="44.41576" lon="-0.16021">
        <ele>157.286575</ele>
        <time>2022-12-28T13:46:07.746Z</time>
      </trkpt>
      <trkpt lat="44.4157" lon="-0.16011">
        <ele>157.648015</ele>
        <time>2022-12-28T13:46:11.822Z</time>
      </trkpt>
      <trkpt lat="44.41563" lon="-0.16001">
        <ele>158.031701</ele>
        <time>2022-12-28T13:46:15.745Z</time>
      </trkpt>
      <trkpt lat="44.41556" lon="-0.15991">
        <ele>158.415125</ele>
        <time>2022-12-28T13:46:19.744Z</time>
      </trkpt>
      <trkpt lat="44.41549" lon="-0.15981">
        <ele>158.721267</ele>
        <time>2022-12-28T13:46:23.799Z</time>
      </trkpt>
      <trkpt lat="44.41543" lon="-0.15971">
        <ele>159.0039</ele>
        <time>2022-12-28T13:46:27.727Z</time>
      </trkpt>
      <trkpt lat="44.41535" lon="-0.15961">
        <ele>159.318922</ele>
        <time>2022-12-28T13:46:31.750Z</time>
      </trkpt>
      <trkpt lat="44.41528" lon="-0.1595">
        <ele>159.646023</ele>
        <time>2022-12-28T13:46:35.749Z</time>
      </trkpt>
      <trkpt lat="44.41519" lon="-0.1594">
        <ele>159.993833</ele>
        <time>2022-12-28T13:46:39.730Z</time>
      </trkpt>
      <trkpt lat="44.41511" lon="-0.1593">
        <ele>160.31736</ele>
        <time>2022-12-28T13:46:43.746Z</time>
      </trkpt>
      <trkpt lat="44.41503" lon="-0.15919">
        <ele>160.63787</ele>
        <time>2022-12-28T13:46:47.754Z</time>
      </trkpt>
      <trkpt lat="44.41496" lon="-0.15909">
        <ele>160.955583</ele>
        <time>2022-12-28T13:46:51.752Z</time>
      </trkpt>
      <trkpt lat="44.41488" lon="-0.15897">
        <ele>161.303553</ele>
        <time>2022-12-28T13:46:55.746Z</time>
      </trkpt>
      <trkpt lat="44.4148" lon="-0.15885">
        <ele>161.6677</ele>
        <time>2022-12-28T13:46:59.730Z</time>
      </trkpt>
      <trkpt lat="44.41473" lon="-0.15875">
        <ele>161.956648</ele>
        <time>2022-12-28T13:47:02.745Z</time>
      </trkpt>
      <trkpt lat="44.41465" lon="-0.15864">
        <ele>162.304448</ele>
        <time>2022-12-28T13:47:06.745Z</time>
      </trkpt>
      <trkpt lat="44.41459" lon="-0.15855">
        <ele>162.579311</ele>
        <time>2022-12-28T13:47:09.737Z</time>
      </trkpt>
      <trkpt lat="44.41452" lon="-0.15846">
        <ele>162.865111</ele>
        <time>2022-12-28T13:47:12.734Z</time>
      </trkpt>
      <trkpt lat="44.41446" lon="-0.15836">
        <ele>163.143646</ele>
        <time>2022-12-28T13:47:15.746Z</time>
      </trkpt>
      <trkpt lat="44.41438" lon="-0.15825">
        <ele>163.490771</ele>
        <time>2022-12-28T13:47:19.731Z</time>
      </trkpt>
      <trkpt lat="44.41431" lon="-0.15816">
        <ele>163.768129</ele>
        <time>2022-12-28T13:47:22.720Z</time>
      </trkpt>
      <trkpt lat="44.41424" lon="-0.15807">
        <ele>163.939558</ele>
        <time>2022-12-28T13:47:25.745Z</time>
      </trkpt>
      <trkpt lat="44.41418" lon="-0.15797">
        <ele>164.1129</ele>
        <time>2022-12-28T13:47:28.744Z</time>
      </trkpt>
      <trkpt lat="44.4141" lon="-0.15786">
        <ele>164.320609</ele>
        <time>2022-12-28T13:47:32.745Z</time>
      </trkpt>
      <trkpt lat="44.41402" lon="-0.15774">
        <ele>164.535875</ele>
        <time>2022-12-28T13:47:36.738Z</time>
      </trkpt>
      <trkpt lat="44.41395" lon="-0.15765">
        <ele>164.702731</ele>
        <time>2022-12-28T13:47:39.745Z</time>
      </trkpt>
      <trkpt lat="44.41389" lon="-0.15756">
        <ele>164.870632</ele>
        <time>2022-12-28T13:47:42.730Z</time>
      </trkpt>
      <trkpt lat="44.41382" lon="-0.15747">
        <ele>165.04154</ele>
        <time>2022-12-28T13:47:45.738Z</time>
      </trkpt>
      <trkpt lat="44.41375" lon="-0.15738">
        <ele>165.220505</ele>
        <time>2022-12-28T13:47:49.730Z</time>
      </trkpt>
      <trkpt lat="44.41368" lon="-0.15727">
        <ele>165.422995</ele>
        <time>2022-12-28T13:47:53.797Z</time>
      </trkpt>
      <trkpt lat="44.41359" lon="-0.15715">
        <ele>165.639248</ele>
        <time>2022-12-28T13:47:57.746Z</time>
      </trkpt>
      <trkpt lat="44.41352" lon="-0.15706">
        <ele>165.808346</ele>
        <time>2022-12-28T13:48:00.721Z</time>
      </trkpt>
      <trkpt lat="44.41346" lon="-0.15696">
        <ele>165.981449</ele>
        <time>2022-12-28T13:48:03.745Z</time>
      </trkpt>
      <trkpt lat="44.4134" lon="-0.15687">
        <ele>166.150648</ele>
        <time>2022-12-28T13:48:06.741Z</time>
      </trkpt>
      <trkpt lat="44.41333" lon="-0.15678">
        <ele>166.330631</ele>
        <time>2022-12-28T13:48:09.745Z</time>
      </trkpt>
      <trkpt lat="44.41326" lon="-0.15668">
        <ele>166.50454</ele>
        <time>2022-12-28T13:48:12.747Z</time>
      </trkpt>
      <trkpt lat="44.41319" lon="-0.15657">
        <ele>166.694337</ele>
        <time>2022-12-28T13:48:15.742Z</time>
      </trkpt>
      <trkpt lat="44.41313" lon="-0.15648">
        <ele>166.863808</ele>
        <time>2022-12-28T13:48:18.747Z</time>
      </trkpt>
      <trkpt lat="44.41304" lon="-0.15636">
        <ele>167.061228</ele>
        <time>2022-12-28T13:48:22.744Z</time>
      </trkpt>
      <trkpt lat="44.41296" lon="-0.15626">
        <ele>167.026088</ele>
        <time>2022-12-28T13:48:25.746Z</time>
      </trkpt>
      <trkpt lat="44.41289" lon="-0.15614">
        <ele>166.989411</ele>
        <time>2022-12-28T13:48:28.745Z</time>
      </trkpt>
      <trkpt lat="44.4128" lon="-0.15604">
        <ele>166.953323</ele>
        <time>2022-12-28T13:48:31.747Z</time>
      </trkpt>
      <trkpt lat="44.41273" lon="-0.15593">
        <ele>166.918156</ele>
        <time>2022-12-28T13:48:34.742Z</time>
      </trkpt>
      <trkpt lat="44.41265" lon="-0.15582">
        <ele>166.881705</ele>
        <time>2022-12-28T13:48:37.746Z</time>
      </trkpt>
      <trkpt lat="44.41256" lon="-0.1557">
        <ele>166.842762</ele>
        <time>2022-12-28T13:48:40.737Z</time>
      </trkpt>
      <trkpt lat="44.41247" lon="-0.15558">
        <ele>166.802639</ele>
        <time>2022-12-28T13:48:43.746Z</time>
      </trkpt>
      <trkpt lat="44.41238" lon="-0.15547">
        <ele>166.762058</ele>
        <time>2022-12-28T13:48:46.747Z</time>
      </trkpt>
      <trkpt lat="44.41228" lon="-0.15536">
        <ele>166.721699</ele>
        <time>2022-12-28T13:48:49.749Z</time>
      </trkpt>
      <trkpt lat="44.41218" lon="-0.15526">
        <ele>166.68185</ele>
        <time>2022-12-28T13:48:52.735Z</time>
      </trkpt>
      <trkpt lat="44.41209" lon="-0.15515">
        <ele>166.643341</ele>
        <time>2022-12-28T13:48:55.748Z</time>
      </trkpt>
      <trkpt lat="44.412" lon="-0.15505">
        <ele>166.605517</ele>
        <time>2022-12-28T13:48:58.748Z</time>
      </trkpt>
      <trkpt lat="44.41191" lon="-0.15495">
        <ele>166.567805</ele>
        <time>2022-12-28T13:49:01.744Z</time>
      </trkpt>
      <trkpt lat="44.41181" lon="-0.15485">
        <ele>166.528129</ele>
        <time>2022-12-28T13:49:04.744Z</time>
      </trkpt>
      <trkpt lat="44.4117" lon="-0.15474">
        <ele>166.485961</ele>
        <time>2022-12-28T13:49:07.748Z</time>
      </trkpt>
      <trkpt lat="44.41163" lon="-0.15466">
        <ele>166.707813</ele>
        <time>2022-12-28T13:49:09.744Z</time>
      </trkpt>
      <trkpt lat="44.41155" lon="-0.15459">
        <ele>166.96413</ele>
        <time>2022-12-28T13:49:11.719Z</time>
      </trkpt>
      <trkpt lat="44.41145" lon="-0.15447">
        <ele>167.326223</ele>
        <time>2022-12-28T13:49:14.746Z</time>
      </trkpt>
      <trkpt lat="44.41137" lon="-0.15439">
        <ele>167.572966</ele>
        <time>2022-12-28T13:49:16.746Z</time>
      </trkpt>
      <trkpt lat="44.41127" lon="-0.15429">
        <ele>167.906191</ele>
        <time>2022-12-28T13:49:19.746Z</time>
      </trkpt>
      <trkpt lat="44.41118" lon="-0.15419">
        <ele>168.233925</ele>
        <time>2022-12-28T13:49:22.733Z</time>
      </trkpt>
      <trkpt lat="44.41108" lon="-0.15408">
        <ele>168.576881</ele>
        <time>2022-12-28T13:49:25.747Z</time>
      </trkpt>
      <trkpt lat="44.41098" lon="-0.15397">
        <ele>168.91954</ele>
        <time>2022-12-28T13:49:28.748Z</time>
      </trkpt>
      <trkpt lat="44.41088" lon="-0.15386">
        <ele>169.254601</ele>
        <time>2022-12-28T13:49:31.746Z</time>
      </trkpt>
      <trkpt lat="44.41079" lon="-0.15376">
        <ele>169.568416</ele>
        <time>2022-12-28T13:49:34.745Z</time>
      </trkpt>
      <trkpt lat="44.41071" lon="-0.15368">
        <ele>169.853852</ele>
        <time>2022-12-28T13:49:37.745Z</time>
      </trkpt>
      <trkpt lat="44.41062" lon="-0.15358">
        <ele>170.149501</ele>
        <time>2022-12-28T13:49:40.744Z</time>
      </trkpt>
      <trkpt lat="44.41053" lon="-0.15348">
        <ele>170.467358</ele>
        <time>2022-12-28T13:49:43.745Z</time>
      </trkpt>
      <trkpt lat="44.41044" lon="-0.15339">
        <ele>170.783857</ele>
        <time>2022-12-28T13:49:46.746Z</time>
      </trkpt>
      <trkpt lat="44.41035" lon="-0.15329">
        <ele>171.081899</ele>
        <time>2022-12-28T13:49:49.745Z</time>
      </trkpt>
      <trkpt lat="44.41027" lon="-0.15322">
        <ele>171.337133</ele>
        <time>2022-12-28T13:49:52.746Z</time>
      </trkpt>
      <trkpt lat="44.41019" lon="-0.15313">
        <ele>171.237483</ele>
        <time>2022-12-28T13:49:55.747Z</time>
      </trkpt>
      <trkpt lat="44.41011" lon="-0.15304">
        <ele>171.073457</ele>
        <time>2022-12-28T13:49:58.745Z</time>
      </trkpt>
      <trkpt lat="44.41003" lon="-0.15295">
        <ele>170.912199</ele>
        <time>2022-12-28T13:50:01.745Z</time>
      </trkpt>
      <trkpt lat="44.40994" lon="-0.15285">
        <ele>170.735854</ele>
        <time>2022-12-28T13:50:04.743Z</time>
      </trkpt>
      <trkpt lat="44.40985" lon="-0.15275">
        <ele>170.555173</ele>
        <time>2022-12-28T13:50:07.743Z</time>
      </trkpt>
      <trkpt lat="44.40975" lon="-0.15267">
        <ele>170.37664</ele>
        <time>2022-12-28T13:50:10.747Z</time>
      </trkpt>
      <trkpt lat="44.40966" lon="-0.15257">
        <ele>170.197868</ele>
        <time>2022-12-28T13:50:13.744Z</time>
      </trkpt>
      <trkpt lat="44.40957" lon="-0.15247">
        <ele>170.020002</ele>
        <time>2022-12-28T13:50:16.760Z</time>
      </trkpt>
      <trkpt lat="44.40948" lon="-0.15237">
        <ele>169.835323</ele>
        <time>2022-12-28T13:50:19.745Z</time>
      </trkpt>
      <trkpt lat="44.40939" lon="-0.15227">
        <ele>169.660679</ele>
        <time>2022-12-28T13:50:22.746Z</time>
      </trkpt>
      <trkpt lat="44.4093" lon="-0.15218">
        <ele>169.488459</ele>
        <time>2022-12-28T13:50:25.748Z</time>
      </trkpt>
      <trkpt lat="44.40921" lon="-0.1521">
        <ele>169.325678</ele>
        <time>2022-12-28T13:50:28.747Z</time>
      </trkpt>
      <trkpt lat="44.40913" lon="-0.15203">
        <ele>169.176989</ele>
        <time>2022-12-28T13:50:31.747Z</time>
      </trkpt>
      <trkpt lat="44.40904" lon="-0.15197">
        <ele>169.027661</ele>
        <time>2022-12-28T13:50:34.745Z</time>
      </trkpt>
      <trkpt lat="44.40896" lon="-0.15188">
        <ele>168.874648</ele>
        <time>2022-12-28T13:50:37.728Z</time>
      </trkpt>
      <trkpt lat="44.40888" lon="-0.15181">
        <ele>168.724162</ele>
        <time>2022-12-28T13:50:40.744Z</time>
      </trkpt>
      <trkpt lat="44.4088" lon="-0.15173">
        <ele>168.577875</ele>
        <time>2022-12-28T13:50:43.794Z</time>
      </trkpt>
      <trkpt lat="44.40872" lon="-0.15164">
        <ele>168.613539</ele>
        <time>2022-12-28T13:50:46.745Z</time>
      </trkpt>
      <trkpt lat="44.40864" lon="-0.15156">
        <ele>168.649348</ele>
        <time>2022-12-28T13:50:49.767Z</time>
      </trkpt>
      <trkpt lat="44.40855" lon="-0.15147">
        <ele>168.686144</ele>
        <time>2022-12-28T13:50:52.745Z</time>
      </trkpt>
      <trkpt lat="44.40845" lon="-0.15138">
        <ele>168.727767</ele>
        <time>2022-12-28T13:50:55.794Z</time>
      </trkpt>
      <trkpt lat="44.40836" lon="-0.15128">
        <ele>168.766649</ele>
        <time>2022-12-28T13:50:58.745Z</time>
      </trkpt>
      <trkpt lat="44.40829" lon="-0.15121">
        <ele>168.798354</ele>
        <time>2022-12-28T13:51:01.795Z</time>
      </trkpt>
      <trkpt lat="44.4082" lon="-0.15112">
        <ele>168.836869</ele>
        <time>2022-12-28T13:51:04.726Z</time>
      </trkpt>
      <trkpt lat="44.40811" lon="-0.15101">
        <ele>168.877341</ele>
        <time>2022-12-28T13:51:07.797Z</time>
      </trkpt>
      <trkpt lat="44.40802" lon="-0.15092">
        <ele>168.917413</ele>
        <time>2022-12-28T13:51:10.741Z</time>
      </trkpt>
      <trkpt lat="44.40792" lon="-0.15082">
        <ele>168.958059</ele>
        <time>2022-12-28T13:51:13.795Z</time>
      </trkpt>
      <trkpt lat="44.40783" lon="-0.15073">
        <ele>168.996982</ele>
        <time>2022-12-28T13:51:16.731Z</time>
      </trkpt>
      <trkpt lat="44.40773" lon="-0.15063">
        <ele>169.039611</ele>
        <time>2022-12-28T13:51:19.799Z</time>
      </trkpt>
      <trkpt lat="44.40763" lon="-0.15051">
        <ele>169.084449</ele>
        <time>2022-12-28T13:51:22.747Z</time>
      </trkpt>
      <trkpt lat="44.40753" lon="-0.15041">
        <ele>169.128504</ele>
        <time>2022-12-28T13:51:25.792Z</time>
      </trkpt>
      <trkpt lat="44.40742" lon="-0.15029">
        <ele>169.174891</ele>
        <time>2022-12-28T13:51:28.746Z</time>
      </trkpt>
      <trkpt lat="44.40735" lon="-0.15022">
        <ele>169.245565</ele>
        <time>2022-12-28T13:51:30.726Z</time>
      </trkpt>
      <trkpt lat="44.40725" lon="-0.15009">
        <ele>169.615022</ele>
        <time>2022-12-28T13:51:33.751Z</time>
      </trkpt>
      <trkpt lat="44.40718" lon="-0.15001">
        <ele>169.864206</ele>
        <time>2022-12-28T13:51:35.756Z</time>
      </trkpt>
      <trkpt lat="44.40707" lon="-0.1499">
        <ele>170.23468</ele>
        <time>2022-12-28T13:51:38.747Z</time>
      </trkpt>
      <trkpt lat="44.40697" lon="-0.14978">
        <ele>170.604138</ele>
        <time>2022-12-28T13:51:41.744Z</time>
      </trkpt>
      <trkpt lat="44.40686" lon="-0.14966">
        <ele>170.971237</ele>
        <time>2022-12-28T13:51:44.744Z</time>
      </trkpt>
      <trkpt lat="44.40675" lon="-0.14954">
        <ele>171.355626</ele>
        <time>2022-12-28T13:51:47.748Z</time>
      </trkpt>
      <trkpt lat="44.40668" lon="-0.14946">
        <ele>171.609153</ele>
        <time>2022-12-28T13:51:49.727Z</time>
      </trkpt>
      <trkpt lat="44.40657" lon="-0.14935">
        <ele>171.978616</ele>
        <time>2022-12-28T13:51:52.743Z</time>
      </trkpt>
      <trkpt lat="44.4065" lon="-0.14927">
        <ele>172.231524</ele>
        <time>2022-12-28T13:51:54.824Z</time>
      </trkpt>
      <trkpt lat="44.40642" lon="-0.14919">
        <ele>172.488152</ele>
        <time>2022-12-28T13:51:56.748Z</time>
      </trkpt>
      <trkpt lat="44.40633" lon="-0.14909">
        <ele>172.830616</ele>
        <time>2022-12-28T13:51:59.746Z</time>
      </trkpt>
      <trkpt lat="44.40624" lon="-0.149">
        <ele>173.136819</ele>
        <time>2022-12-28T13:52:02.743Z</time>
      </trkpt>
      <trkpt lat="44.40614" lon="-0.1489">
        <ele>173.462093</ele>
        <time>2022-12-28T13:52:05.731Z</time>
      </trkpt>
      <trkpt lat="44.40605" lon="-0.1488">
        <ele>173.776595</ele>
        <time>2022-12-28T13:52:08.747Z</time>
      </trkpt>
      <trkpt lat="44.40596" lon="-0.1487">
        <ele>174.103653</ele>
        <time>2022-12-28T13:52:11.750Z</time>
      </trkpt>
      <trkpt lat="44.40586" lon="-0.14859">
        <ele>174.165421</ele>
        <time>2022-12-28T13:52:14.747Z</time>
      </trkpt>
      <trkpt lat="44.40576" lon="-0.1485">
        <ele>174.191162</ele>
        <time>2022-12-28T13:52:17.723Z</time>
      </trkpt>
      <trkpt lat="44.40566" lon="-0.1484">
        <ele>174.217521</ele>
        <time>2022-12-28T13:52:20.745Z</time>
      </trkpt>
      <trkpt lat="44.40556" lon="-0.1483">
        <ele>174.243648</ele>
        <time>2022-12-28T13:52:23.749Z</time>
      </trkpt>
      <trkpt lat="44.40546" lon="-0.1482">
        <ele>174.270628</ele>
        <time>2022-12-28T13:52:26.747Z</time>
      </trkpt>
      <trkpt lat="44.40535" lon="-0.14809">
        <ele>174.299445</ele>
        <time>2022-12-28T13:52:29.745Z</time>
      </trkpt>
      <trkpt lat="44.40525" lon="-0.14798">
        <ele>174.32648</ele>
        <time>2022-12-28T13:52:32.751Z</time>
      </trkpt>
      <trkpt lat="44.40515" lon="-0.14787">
        <ele>174.353612</ele>
        <time>2022-12-28T13:52:35.739Z</time>
      </trkpt>
      <trkpt lat="44.40505" lon="-0.14775">
        <ele>174.381509</ele>
        <time>2022-12-28T13:52:38.737Z</time>
      </trkpt>
      <trkpt lat="44.40496" lon="-0.14765">
        <ele>174.406565</ele>
        <time>2022-12-28T13:52:41.744Z</time>
      </trkpt>
      <trkpt lat="44.40486" lon="-0.14755">
        <ele>174.432645</ele>
        <time>2022-12-28T13:52:44.744Z</time>
      </trkpt>
      <trkpt lat="44.40477" lon="-0.14743">
        <ele>174.458414</ele>
        <time>2022-12-28T13:52:47.743Z</time>
      </trkpt>
      <trkpt lat="44.40468" lon="-0.14732">
        <ele>174.484138</ele>
        <time>2022-12-28T13:52:50.745Z</time>
      </trkpt>
      <trkpt lat="44.4046" lon="-0.14721">
        <ele>174.509905</ele>
        <time>2022-12-28T13:52:53.799Z</time>
      </trkpt>
      <trkpt lat="44.40451" lon="-0.14708">
        <ele>174.55216</ele>
        <time>2022-12-28T13:52:56.752Z</time>
      </trkpt>
      <trkpt lat="44.40443" lon="-0.14696">
        <ele>174.627562</ele>
        <time>2022-12-28T13:52:59.795Z</time>
      </trkpt>
      <trkpt lat="44.40434" lon="-0.14682">
        <ele>174.707446</ele>
        <time>2022-12-28T13:53:02.747Z</time>
      </trkpt>
      <trkpt lat="44.40427" lon="-0.14667">
        <ele>174.785747</ele>
        <time>2022-12-28T13:53:05.804Z</time>
      </trkpt>
      <trkpt lat="44.40419" lon="-0.14652">
        <ele>174.866202</ele>
        <time>2022-12-28T13:53:08.744Z</time>
      </trkpt>
      <trkpt lat="44.40413" lon="-0.14637">
        <ele>174.945375</ele>
        <time>2022-12-28T13:53:11.748Z</time>
      </trkpt>
      <trkpt lat="44.40406" lon="-0.14621">
        <ele>175.025647</ele>
        <time>2022-12-28T13:53:14.745Z</time>
      </trkpt>
      <trkpt lat="44.404" lon="-0.14605">
        <ele>175.10737</ele>
        <time>2022-12-28T13:53:17.750Z</time>
      </trkpt>
      <trkpt lat="44.40394" lon="-0.14588">
        <ele>175.188564</ele>
        <time>2022-12-28T13:53:20.746Z</time>
      </trkpt>
      <trkpt lat="44.40389" lon="-0.14572">
        <ele>175.267</ele>
        <time>2022-12-28T13:53:23.747Z</time>
      </trkpt>
      <trkpt lat="44.40384" lon="-0.14556">
        <ele>175.343597</ele>
        <time>2022-12-28T13:53:26.745Z</time>
      </trkpt>
      <trkpt lat="44.4038" lon="-0.14539">
        <ele>175.420974</ele>
        <time>2022-12-28T13:53:29.741Z</time>
      </trkpt>
      <trkpt lat="44.40375" lon="-0.14522">
        <ele>175.500658</ele>
        <time>2022-12-28T13:53:32.744Z</time>
      </trkpt>
      <trkpt lat="44.4037" lon="-0.14505">
        <ele>175.58202</ele>
        <time>2022-12-28T13:53:35.747Z</time>
      </trkpt>
      <trkpt lat="44.40367" lon="-0.14493">
        <ele>175.648711</ele>
        <time>2022-12-28T13:53:37.745Z</time>
      </trkpt>
      <trkpt lat="44.40363" lon="-0.14481">
        <ele>175.800919</ele>
        <time>2022-12-28T13:53:39.745Z</time>
      </trkpt>
      <trkpt lat="44.40358" lon="-0.14464">
        <ele>176.001497</ele>
        <time>2022-12-28T13:53:42.735Z</time>
      </trkpt>
      <trkpt lat="44.40355" lon="-0.14452">
        <ele>176.147238</ele>
        <time>2022-12-28T13:53:44.741Z</time>
      </trkpt>
      <trkpt lat="44.40349" lon="-0.14434">
        <ele>176.360389</ele>
        <time>2022-12-28T13:53:47.744Z</time>
      </trkpt>
      <trkpt lat="44.40345" lon="-0.14422">
        <ele>176.515829</ele>
        <time>2022-12-28T13:53:49.747Z</time>
      </trkpt>
      <trkpt lat="44.40341" lon="-0.14404">
        <ele>176.722339</ele>
        <time>2022-12-28T13:53:52.745Z</time>
      </trkpt>
      <trkpt lat="44.40335" lon="-0.14387">
        <ele>176.936109</ele>
        <time>2022-12-28T13:53:55.749Z</time>
      </trkpt>
      <trkpt lat="44.40331" lon="-0.14371">
        <ele>177.12569</ele>
        <time>2022-12-28T13:53:58.748Z</time>
      </trkpt>
      <trkpt lat="44.40328" lon="-0.14355">
        <ele>177.313707</ele>
        <time>2022-12-28T13:54:01.745Z</time>
      </trkpt>
      <trkpt lat="44.40322" lon="-0.14337">
        <ele>177.527288</ele>
        <time>2022-12-28T13:54:04.744Z</time>
      </trkpt>
      <trkpt lat="44.40319" lon="-0.14326">
        <ele>177.668348</ele>
        <time>2022-12-28T13:54:06.800Z</time>
      </trkpt>
      <trkpt lat="44.40314" lon="-0.14309">
        <ele>177.878407</ele>
        <time>2022-12-28T13:54:09.746Z</time>
      </trkpt>
      <trkpt lat="44.40311" lon="-0.14296">
        <ele>178.02256</ele>
        <time>2022-12-28T13:54:11.728Z</time>
      </trkpt>
      <trkpt lat="44.40308" lon="-0.14284">
        <ele>178.169355</ele>
        <time>2022-12-28T13:54:13.746Z</time>
      </trkpt>
      <trkpt lat="44.40304" lon="-0.14272">
        <ele>178.319913</ele>
        <time>2022-12-28T13:54:15.746Z</time>
      </trkpt>
      <trkpt lat="44.40301" lon="-0.14259">
        <ele>178.463019</ele>
        <time>2022-12-28T13:54:17.745Z</time>
      </trkpt>
      <trkpt lat="44.40297" lon="-0.14248">
        <ele>178.537016</ele>
        <time>2022-12-28T13:54:19.744Z</time>
      </trkpt>
      <trkpt lat="44.40294" lon="-0.14235">
        <ele>178.615557</ele>
        <time>2022-12-28T13:54:21.746Z</time>
      </trkpt>
      <trkpt lat="44.4029" lon="-0.14222">
        <ele>178.693077</ele>
        <time>2022-12-28T13:54:23.747Z</time>
      </trkpt>
      <trkpt lat="44.40287" lon="-0.1421">
        <ele>178.767304</ele>
        <time>2022-12-28T13:54:25.754Z</time>
      </trkpt>
      <trkpt lat="44.40283" lon="-0.14199">
        <ele>178.840995</ele>
        <time>2022-12-28T13:54:27.744Z</time>
      </trkpt>
      <trkpt lat="44.4028" lon="-0.14186">
        <ele>178.916535</ele>
        <time>2022-12-28T13:54:29.742Z</time>
      </trkpt>
      <trkpt lat="44.40277" lon="-0.14174">
        <ele>178.994292</ele>
        <time>2022-12-28T13:54:31.746Z</time>
      </trkpt>
      <trkpt lat="44.40274" lon="-0.14161">
        <ele>179.073667</ele>
        <time>2022-12-28T13:54:33.724Z</time>
      </trkpt>
      <trkpt lat="44.4027" lon="-0.14148">
        <ele>179.156932</ele>
        <time>2022-12-28T13:54:35.745Z</time>
      </trkpt>
      <trkpt lat="44.40266" lon="-0.14134">
        <ele>179.239974</ele>
        <time>2022-12-28T13:54:37.747Z</time>
      </trkpt>
      <trkpt lat="44.40261" lon="-0.1412">
        <ele>179.331332</ele>
        <time>2022-12-28T13:54:39.746Z</time>
      </trkpt>
      <trkpt lat="44.40258" lon="-0.14102">
        <ele>179.439032</ele>
        <time>2022-12-28T13:54:42.768Z</time>
      </trkpt>
      <trkpt lat="44.40253" lon="-0.14089">
        <ele>179.520779</ele>
        <time>2022-12-28T13:54:44.749Z</time>
      </trkpt>
      <trkpt lat="44.40249" lon="-0.14077">
        <ele>179.598924</ele>
        <time>2022-12-28T13:54:46.746Z</time>
      </trkpt>
      <trkpt lat="44.40246" lon="-0.14064">
        <ele>179.675845</ele>
        <time>2022-12-28T13:54:48.808Z</time>
      </trkpt>
      <trkpt lat="44.40243" lon="-0.1405">
        <ele>179.763939</ele>
        <time>2022-12-28T13:54:50.750Z</time>
      </trkpt>
      <trkpt lat="44.4024" lon="-0.14037">
        <ele>179.844935</ele>
        <time>2022-12-28T13:54:52.746Z</time>
      </trkpt>
      <trkpt lat="44.40234" lon="-0.14018">
        <ele>179.931603</ele>
        <time>2022-12-28T13:54:55.748Z</time>
      </trkpt>
      <trkpt lat="44.4023" lon="-0.14006">
        <ele>179.958327</ele>
        <time>2022-12-28T13:54:57.731Z</time>
      </trkpt>
      <trkpt lat="44.40225" lon="-0.13988">
        <ele>179.995191</ele>
        <time>2022-12-28T13:55:00.793Z</time>
      </trkpt>
      <trkpt lat="44.40222" lon="-0.13976">
        <ele>180.020741</ele>
        <time>2022-12-28T13:55:02.744Z</time>
      </trkpt>
      <trkpt lat="44.40218" lon="-0.13964">
        <ele>180.046217</ele>
        <time>2022-12-28T13:55:04.744Z</time>
      </trkpt>
      <trkpt lat="44.40213" lon="-0.13946">
        <ele>180.082846</ele>
        <time>2022-12-28T13:55:07.747Z</time>
      </trkpt>
      <trkpt lat="44.40208" lon="-0.13929">
        <ele>180.119761</ele>
        <time>2022-12-28T13:55:10.818Z</time>
      </trkpt>
      <trkpt lat="44.40204" lon="-0.13916">
        <ele>180.146347</ele>
        <time>2022-12-28T13:55:12.739Z</time>
      </trkpt>
      <trkpt lat="44.40201" lon="-0.13904">
        <ele>180.172539</ele>
        <time>2022-12-28T13:55:14.748Z</time>
      </trkpt>
      <trkpt lat="44.40198" lon="-0.13891">
        <ele>180.19827</ele>
        <time>2022-12-28T13:55:16.818Z</time>
      </trkpt>
      <trkpt lat="44.40195" lon="-0.13879">
        <ele>180.224004</ele>
        <time>2022-12-28T13:55:18.748Z</time>
      </trkpt>
      <trkpt lat="44.40191" lon="-0.13866">
        <ele>180.25138</ele>
        <time>2022-12-28T13:55:20.743Z</time>
      </trkpt>
      <trkpt lat="44.40188" lon="-0.13853">
        <ele>180.277671</ele>
        <time>2022-12-28T13:55:22.802Z</time>
      </trkpt>
      <trkpt lat="44.40184" lon="-0.1384">
        <ele>180.305654</ele>
        <time>2022-12-28T13:55:24.745Z</time>
      </trkpt>
      <trkpt lat="44.4018" lon="-0.13826">
        <ele>180.334798</ele>
        <time>2022-12-28T13:55:26.744Z</time>
      </trkpt>
      <trkpt lat="44.40176" lon="-0.13812">
        <ele>180.364224</ele>
        <time>2022-12-28T13:55:28.745Z</time>
      </trkpt>
      <trkpt lat="44.40172" lon="-0.13799">
        <ele>180.391434</ele>
        <time>2022-12-28T13:55:30.745Z</time>
      </trkpt>
      <trkpt lat="44.40168" lon="-0.13785">
        <ele>180.46498</ele>
        <time>2022-12-28T13:55:32.747Z</time>
      </trkpt>
      <trkpt lat="44.40165" lon="-0.13772">
        <ele>180.581856</ele>
        <time>2022-12-28T13:55:34.747Z</time>
      </trkpt>
      <trkpt lat="44.40161" lon="-0.13758">
        <ele>180.70837</ele>
        <time>2022-12-28T13:55:36.745Z</time>
      </trkpt>
      <trkpt lat="44.40156" lon="-0.13745">
        <ele>180.833018</ele>
        <time>2022-12-28T13:55:38.745Z</time>
      </trkpt>
      <trkpt lat="44.40153" lon="-0.13731">
        <ele>180.952681</ele>
        <time>2022-12-28T13:55:40.740Z</time>
      </trkpt>
      <trkpt lat="44.40149" lon="-0.13718">
        <ele>181.076995</ele>
        <time>2022-12-28T13:55:42.745Z</time>
      </trkpt>
      <trkpt lat="44.40145" lon="-0.13704">
        <ele>181.206555</ele>
        <time>2022-12-28T13:55:44.745Z</time>
      </trkpt>
      <trkpt lat="44.4014" lon="-0.13689">
        <ele>181.336771</ele>
        <time>2022-12-28T13:55:46.745Z</time>
      </trkpt>
      <trkpt lat="44.40136" lon="-0.13677">
        <ele>181.451232</ele>
        <time>2022-12-28T13:55:48.746Z</time>
      </trkpt>
      <trkpt lat="44.40132" lon="-0.13662">
        <ele>181.58321</ele>
        <time>2022-12-28T13:55:50.746Z</time>
      </trkpt>
      <trkpt lat="44.40127" lon="-0.13648">
        <ele>181.715879</ele>
        <time>2022-12-28T13:55:52.746Z</time>
      </trkpt>
      <trkpt lat="44.40124" lon="-0.13633">
        <ele>181.845632</ele>
        <time>2022-12-28T13:55:54.745Z</time>
      </trkpt>
      <trkpt lat="44.40121" lon="-0.13619">
        <ele>181.975572</ele>
        <time>2022-12-28T13:55:56.747Z</time>
      </trkpt>
      <trkpt lat="44.40116" lon="-0.13604">
        <ele>182.11033</ele>
        <time>2022-12-28T13:55:58.746Z</time>
      </trkpt>
      <trkpt lat="44.40113" lon="-0.1359">
        <ele>182.23162</ele>
        <time>2022-12-28T13:56:00.724Z</time>
      </trkpt>
      <trkpt lat="44.40108" lon="-0.13577">
        <ele>182.359525</ele>
        <time>2022-12-28T13:56:02.728Z</time>
      </trkpt>
      <trkpt lat="44.40105" lon="-0.13563">
        <ele>182.478769</ele>
        <time>2022-12-28T13:56:04.723Z</time>
      </trkpt>
      <trkpt lat="44.40101" lon="-0.13549">
        <ele>182.447075</ele>
        <time>2022-12-28T13:56:06.732Z</time>
      </trkpt>
      <trkpt lat="44.40098" lon="-0.13536">
        <ele>182.325289</ele>
        <time>2022-12-28T13:56:08.749Z</time>
      </trkpt>
      <trkpt lat="44.40093" lon="-0.13518">
        <ele>182.167455</ele>
        <time>2022-12-28T13:56:11.747Z</time>
      </trkpt>
      <trkpt lat="44.40088" lon="-0.13501">
        <ele>182.012064</ele>
        <time>2022-12-28T13:56:14.746Z</time>
      </trkpt>
      <trkpt lat="44.40085" lon="-0.13489">
        <ele>181.904442</ele>
        <time>2022-12-28T13:56:16.720Z</time>
      </trkpt>
      <trkpt lat="44.40082" lon="-0.13477">
        <ele>181.798078</ele>
        <time>2022-12-28T13:56:18.721Z</time>
      </trkpt>
      <trkpt lat="44.40078" lon="-0.13465">
        <ele>181.687556</ele>
        <time>2022-12-28T13:56:20.744Z</time>
      </trkpt>
      <trkpt lat="44.40073" lon="-0.13451">
        <ele>181.557394</ele>
        <time>2022-12-28T13:56:22.747Z</time>
      </trkpt>
      <trkpt lat="44.4007" lon="-0.13437">
        <ele>181.432003</ele>
        <time>2022-12-28T13:56:24.731Z</time>
      </trkpt>
      <trkpt lat="44.40067" lon="-0.13423">
        <ele>181.314525</ele>
        <time>2022-12-28T13:56:26.726Z</time>
      </trkpt>
      <trkpt lat="44.40063" lon="-0.1341">
        <ele>181.195879</ele>
        <time>2022-12-28T13:56:28.731Z</time>
      </trkpt>
      <trkpt lat="44.40059" lon="-0.13395">
        <ele>181.060642</ele>
        <time>2022-12-28T13:56:30.740Z</time>
      </trkpt>
      <trkpt lat="44.40055" lon="-0.13382">
        <ele>180.937653</ele>
        <time>2022-12-28T13:56:32.746Z</time>
      </trkpt>
      <trkpt lat="44.40051" lon="-0.13368">
        <ele>180.81215</ele>
        <time>2022-12-28T13:56:34.746Z</time>
      </trkpt>
      <trkpt lat="44.40047" lon="-0.13354">
        <ele>180.684031</ele>
        <time>2022-12-28T13:56:36.744Z</time>
      </trkpt>
      <trkpt lat="44.40044" lon="-0.13341">
        <ele>180.570856</ele>
        <time>2022-12-28T13:56:38.746Z</time>
      </trkpt>
      <trkpt lat="44.4004" lon="-0.13328">
        <ele>180.44823</ele>
        <time>2022-12-28T13:56:40.744Z</time>
      </trkpt>
      <trkpt lat="44.40036" lon="-0.13314">
        <ele>180.372379</ele>
        <time>2022-12-28T13:56:42.734Z</time>
      </trkpt>
      <trkpt lat="44.40032" lon="-0.133">
        <ele>180.312843</ele>
        <time>2022-12-28T13:56:44.745Z</time>
      </trkpt>
      <trkpt lat="44.40028" lon="-0.13287">
        <ele>180.255999</ele>
        <time>2022-12-28T13:56:46.744Z</time>
      </trkpt>
      <trkpt lat="44.40025" lon="-0.13274">
        <ele>180.204361</ele>
        <time>2022-12-28T13:56:48.746Z</time>
      </trkpt>
      <trkpt lat="44.4002" lon="-0.13261">
        <ele>180.147746</ele>
        <time>2022-12-28T13:56:50.743Z</time>
      </trkpt>
      <trkpt lat="44.40016" lon="-0.13248">
        <ele>180.091791</ele>
        <time>2022-12-28T13:56:52.717Z</time>
      </trkpt>
      <trkpt lat="44.40013" lon="-0.13235">
        <ele>180.039238</ele>
        <time>2022-12-28T13:56:54.728Z</time>
      </trkpt>
      <trkpt lat="44.4001" lon="-0.13223">
        <ele>179.98797</ele>
        <time>2022-12-28T13:56:56.727Z</time>
      </trkpt>
      <trkpt lat="44.40006" lon="-0.13211">
        <ele>179.935002</ele>
        <time>2022-12-28T13:56:58.721Z</time>
      </trkpt>
      <trkpt lat="44.40002" lon="-0.13197">
        <ele>179.87754</ele>
        <time>2022-12-28T13:57:00.746Z</time>
      </trkpt>
      <trkpt lat="44.39999" lon="-0.13183">
        <ele>179.821932</ele>
        <time>2022-12-28T13:57:02.750Z</time>
      </trkpt>
      <trkpt lat="44.39995" lon="-0.13171">
        <ele>179.768446</ele>
        <time>2022-12-28T13:57:04.747Z</time>
      </trkpt>
      <trkpt lat="44.39992" lon="-0.13158">
        <ele>179.716441</ele>
        <time>2022-12-28T13:57:06.744Z</time>
      </trkpt>
      <trkpt lat="44.39988" lon="-0.13146">
        <ele>179.664638</ele>
        <time>2022-12-28T13:57:08.744Z</time>
      </trkpt>
      <trkpt lat="44.39985" lon="-0.13132">
        <ele>179.606564</ele>
        <time>2022-12-28T13:57:10.742Z</time>
      </trkpt>
      <trkpt lat="44.39981" lon="-0.13118">
        <ele>179.547722</ele>
        <time>2022-12-28T13:57:12.745Z</time>
      </trkpt>
      <trkpt lat="44.39977" lon="-0.13103">
        <ele>179.487259</ele>
        <time>2022-12-28T13:57:14.805Z</time>
      </trkpt>
      <trkpt lat="44.39973" lon="-0.13089">
        <ele>179.42466</ele>
        <time>2022-12-28T13:57:16.730Z</time>
      </trkpt>
      <trkpt lat="44.3997" lon="-0.13074">
        <ele>179.343507</ele>
        <time>2022-12-28T13:57:18.754Z</time>
      </trkpt>
      <trkpt lat="44.39966" lon="-0.13062">
        <ele>179.269482</ele>
        <time>2022-12-28T13:57:20.802Z</time>
      </trkpt>
      <trkpt lat="44.39962" lon="-0.13049">
        <ele>179.191707</ele>
        <time>2022-12-28T13:57:22.745Z</time>
      </trkpt>
      <trkpt lat="44.39959" lon="-0.13037">
        <ele>179.118079</ele>
        <time>2022-12-28T13:57:24.746Z</time>
      </trkpt>
      <trkpt lat="44.39955" lon="-0.13024">
        <ele>179.045554</ele>
        <time>2022-12-28T13:57:26.799Z</time>
      </trkpt>
      <trkpt lat="44.39952" lon="-0.13012">
        <ele>178.975847</ele>
        <time>2022-12-28T13:57:28.745Z</time>
      </trkpt>
      <trkpt lat="44.39948" lon="-0.13">
        <ele>178.900186</ele>
        <time>2022-12-28T13:57:30.745Z</time>
      </trkpt>
      <trkpt lat="44.39944" lon="-0.12986">
        <ele>178.820082</ele>
        <time>2022-12-28T13:57:32.753Z</time>
      </trkpt>
      <trkpt lat="44.39941" lon="-0.12975">
        <ele>178.750137</ele>
        <time>2022-12-28T13:57:34.744Z</time>
      </trkpt>
      <trkpt lat="44.39937" lon="-0.1296">
        <ele>178.665595</ele>
        <time>2022-12-28T13:57:36.744Z</time>
      </trkpt>
      <trkpt lat="44.39933" lon="-0.12947">
        <ele>178.585407</ele>
        <time>2022-12-28T13:57:38.801Z</time>
      </trkpt>
      <trkpt lat="44.39928" lon="-0.12932">
        <ele>178.493881</ele>
        <time>2022-12-28T13:57:40.747Z</time>
      </trkpt>
      <trkpt lat="44.39924" lon="-0.12916">
        <ele>178.404258</ele>
        <time>2022-12-28T13:57:42.746Z</time>
      </trkpt>
      <trkpt lat="44.3992" lon="-0.12902">
        <ele>178.323175</ele>
        <time>2022-12-28T13:57:44.760Z</time>
      </trkpt>
      <trkpt lat="44.39916" lon="-0.12889">
        <ele>178.245107</ele>
        <time>2022-12-28T13:57:46.729Z</time>
      </trkpt>
      <trkpt lat="44.39913" lon="-0.12876">
        <ele>178.168177</ele>
        <time>2022-12-28T13:57:48.723Z</time>
      </trkpt>
      <trkpt lat="44.3991" lon="-0.12862">
        <ele>178.088365</ele>
        <time>2022-12-28T13:57:50.730Z</time>
      </trkpt>
      <trkpt lat="44.39906" lon="-0.1285">
        <ele>178.019477</ele>
        <time>2022-12-28T13:57:52.744Z</time>
      </trkpt>
      <trkpt lat="44.39902" lon="-0.12837">
        <ele>177.95902</ele>
        <time>2022-12-28T13:57:54.767Z</time>
      </trkpt>
      <trkpt lat="44.39899" lon="-0.12824">
        <ele>177.89553</ele>
        <time>2022-12-28T13:57:56.739Z</time>
      </trkpt>
      <trkpt lat="44.39895" lon="-0.1281">
        <ele>177.828858</ele>
        <time>2022-12-28T13:57:58.743Z</time>
      </trkpt>
      <trkpt lat="44.3989" lon="-0.12796">
        <ele>177.763232</ele>
        <time>2022-12-28T13:58:00.740Z</time>
      </trkpt>
      <trkpt lat="44.39887" lon="-0.1278">
        <ele>177.691903</ele>
        <time>2022-12-28T13:58:02.734Z</time>
      </trkpt>
      <trkpt lat="44.39882" lon="-0.12766">
        <ele>177.620385</ele>
        <time>2022-12-28T13:58:04.748Z</time>
      </trkpt>
      <trkpt lat="44.39878" lon="-0.1275">
        <ele>177.547183</ele>
        <time>2022-12-28T13:58:06.747Z</time>
      </trkpt>
      <trkpt lat="44.39873" lon="-0.12733">
        <ele>177.467997</ele>
        <time>2022-12-28T13:58:08.744Z</time>
      </trkpt>
      <trkpt lat="44.39868" lon="-0.12717">
        <ele>177.391156</ele>
        <time>2022-12-28T13:58:10.746Z</time>
      </trkpt>
      <trkpt lat="44.39864" lon="-0.12702">
        <ele>177.317921</ele>
        <time>2022-12-28T13:58:12.745Z</time>
      </trkpt>
      <trkpt lat="44.39859" lon="-0.12685">
        <ele>177.241625</ele>
        <time>2022-12-28T13:58:14.740Z</time>
      </trkpt>
      <trkpt lat="44.39855" lon="-0.12669">
        <ele>177.165079</ele>
        <time>2022-12-28T13:58:16.727Z</time>
      </trkpt>
      <trkpt lat="44.3985" lon="-0.12653">
        <ele>177.089929</ele>
        <time>2022-12-28T13:58:18.734Z</time>
      </trkpt>
      <trkpt lat="44.39845" lon="-0.12638">
        <ele>177.016058</ele>
        <time>2022-12-28T13:58:20.745Z</time>
      </trkpt>
      <trkpt lat="44.39841" lon="-0.12622">
        <ele>176.942822</ele>
        <time>2022-12-28T13:58:22.746Z</time>
      </trkpt>
      <trkpt lat="44.39837" lon="-0.12606">
        <ele>176.702912</ele>
        <time>2022-12-28T13:58:24.724Z</time>
      </trkpt>
      <trkpt lat="44.39832" lon="-0.1259">
        <ele>176.465396</ele>
        <time>2022-12-28T13:58:26.730Z</time>
      </trkpt>
      <trkpt lat="44.39828" lon="-0.12574">
        <ele>176.220745</ele>
        <time>2022-12-28T13:58:28.724Z</time>
      </trkpt>
      <trkpt lat="44.39823" lon="-0.12558">
        <ele>175.972136</ele>
        <time>2022-12-28T13:58:30.743Z</time>
      </trkpt>
      <trkpt lat="44.39819" lon="-0.12542">
        <ele>175.729586</ele>
        <time>2022-12-28T13:58:32.743Z</time>
      </trkpt>
      <trkpt lat="44.39814" lon="-0.12525">
        <ele>175.474982</ele>
        <time>2022-12-28T13:58:34.731Z</time>
      </trkpt>
      <trkpt lat="44.3981" lon="-0.12509">
        <ele>175.232785</ele>
        <time>2022-12-28T13:58:36.727Z</time>
      </trkpt>
      <trkpt lat="44.39805" lon="-0.12493">
        <ele>174.984041</ele>
        <time>2022-12-28T13:58:38.724Z</time>
      </trkpt>
      <trkpt lat="44.398" lon="-0.12475">
        <ele>174.717323</ele>
        <time>2022-12-28T13:58:40.745Z</time>
      </trkpt>
      <trkpt lat="44.39796" lon="-0.12458">
        <ele>174.458111</ele>
        <time>2022-12-28T13:58:42.736Z</time>
      </trkpt>
      <trkpt lat="44.39791" lon="-0.1244">
        <ele>174.188871</ele>
        <time>2022-12-28T13:58:44.746Z</time>
      </trkpt>
      <trkpt lat="44.39786" lon="-0.12422">
        <ele>173.918996</ele>
        <time>2022-12-28T13:58:46.726Z</time>
      </trkpt>
      <trkpt lat="44.39781" lon="-0.12405">
        <ele>173.656768</ele>
        <time>2022-12-28T13:58:48.748Z</time>
      </trkpt>
      <trkpt lat="44.39776" lon="-0.12389">
        <ele>173.401563</ele>
        <time>2022-12-28T13:58:50.748Z</time>
      </trkpt>
      <trkpt lat="44.39771" lon="-0.12372">
        <ele>173.141607</ele>
        <time>2022-12-28T13:58:52.748Z</time>
      </trkpt>
      <trkpt lat="44.39766" lon="-0.12356">
        <ele>172.880241</ele>
        <time>2022-12-28T13:58:54.741Z</time>
      </trkpt>
      <trkpt lat="44.39762" lon="-0.12339">
        <ele>172.61553</ele>
        <time>2022-12-28T13:58:56.726Z</time>
      </trkpt>
      <trkpt lat="44.39758" lon="-0.12324">
        <ele>172.372608</ele>
        <time>2022-12-28T13:58:58.745Z</time>
      </trkpt>
      <trkpt lat="44.39753" lon="-0.12308">
        <ele>172.11862</ele>
        <time>2022-12-28T13:59:00.746Z</time>
      </trkpt>
      <trkpt lat="44.39749" lon="-0.12292">
        <ele>171.857552</ele>
        <time>2022-12-28T13:59:02.744Z</time>
      </trkpt>
      <trkpt lat="44.39743" lon="-0.12275">
        <ele>171.590202</ele>
        <time>2022-12-28T13:59:04.740Z</time>
      </trkpt>
      <trkpt lat="44.39739" lon="-0.12258">
        <ele>171.32071</ele>
        <time>2022-12-28T13:59:06.749Z</time>
      </trkpt>
      <trkpt lat="44.39734" lon="-0.1224">
        <ele>171.0393</ele>
        <time>2022-12-28T13:59:08.757Z</time>
      </trkpt>
      <trkpt lat="44.39729" lon="-0.12223">
        <ele>170.761265</ele>
        <time>2022-12-28T13:59:10.730Z</time>
      </trkpt>
      <trkpt lat="44.39725" lon="-0.12205">
        <ele>170.479136</ele>
        <time>2022-12-28T13:59:12.744Z</time>
      </trkpt>
      <trkpt lat="44.39719" lon="-0.12187">
        <ele>170.190514</ele>
        <time>2022-12-28T13:59:14.792Z</time>
      </trkpt>
      <trkpt lat="44.39714" lon="-0.12169">
        <ele>169.897558</ele>
        <time>2022-12-28T13:59:16.746Z</time>
      </trkpt>
      <trkpt lat="44.39709" lon="-0.12151">
        <ele>169.619639</ele>
        <time>2022-12-28T13:59:18.744Z</time>
      </trkpt>
      <trkpt lat="44.39704" lon="-0.12134">
        <ele>169.364182</ele>
        <time>2022-12-28T13:59:20.801Z</time>
      </trkpt>
      <trkpt lat="44.39699" lon="-0.12117">
        <ele>169.113648</ele>
        <time>2022-12-28T13:59:22.745Z</time>
      </trkpt>
      <trkpt lat="44.39694" lon="-0.12099">
        <ele>168.862569</ele>
        <time>2022-12-28T13:59:24.746Z</time>
      </trkpt>
      <trkpt lat="44.3969" lon="-0.12083">
        <ele>168.618657</ele>
        <time>2022-12-28T13:59:26.796Z</time>
      </trkpt>
      <trkpt lat="44.39684" lon="-0.12066">
        <ele>168.36963</ele>
        <time>2022-12-28T13:59:28.748Z</time>
      </trkpt>
      <trkpt lat="44.3968" lon="-0.12049">
        <ele>168.121942</ele>
        <time>2022-12-28T13:59:30.732Z</time>
      </trkpt>
      <trkpt lat="44.39676" lon="-0.12032">
        <ele>167.880654</ele>
        <time>2022-12-28T13:59:32.808Z</time>
      </trkpt>
      <trkpt lat="44.39672" lon="-0.12017">
        <ele>167.658627</ele>
        <time>2022-12-28T13:59:34.729Z</time>
      </trkpt>
      <trkpt lat="44.39667" lon="-0.12001">
        <ele>167.421206</ele>
        <time>2022-12-28T13:59:36.752Z</time>
      </trkpt>
      <trkpt lat="44.39664" lon="-0.11985">
        <ele>167.20046</ele>
        <time>2022-12-28T13:59:38.824Z</time>
      </trkpt>
      <trkpt lat="44.39659" lon="-0.11971">
        <ele>166.988763</ele>
        <time>2022-12-28T13:59:40.746Z</time>
      </trkpt>
      <trkpt lat="44.39655" lon="-0.11956">
        <ele>166.766668</ele>
        <time>2022-12-28T13:59:42.725Z</time>
      </trkpt>
      <trkpt lat="44.39651" lon="-0.11942">
        <ele>166.559403</ele>
        <time>2022-12-28T13:59:44.797Z</time>
      </trkpt>
      <trkpt lat="44.39646" lon="-0.11927">
        <ele>166.333392</ele>
        <time>2022-12-28T13:59:46.747Z</time>
      </trkpt>
      <trkpt lat="44.39642" lon="-0.11911">
        <ele>166.15744</ele>
        <time>2022-12-28T13:59:48.730Z</time>
      </trkpt>
      <trkpt lat="44.39638" lon="-0.11895">
        <ele>166.044636</ele>
        <time>2022-12-28T13:59:50.732Z</time>
      </trkpt>
      <trkpt lat="44.39633" lon="-0.11879">
        <ele>165.932127</ele>
        <time>2022-12-28T13:59:52.747Z</time>
      </trkpt>
      <trkpt lat="44.39629" lon="-0.11863">
        <ele>165.814511</ele>
        <time>2022-12-28T13:59:54.748Z</time>
      </trkpt>
      <trkpt lat="44.39624" lon="-0.11847">
        <ele>165.697514</ele>
        <time>2022-12-28T13:59:56.748Z</time>
      </trkpt>
      <trkpt lat="44.3962" lon="-0.1183">
        <ele>165.580619</ele>
        <time>2022-12-28T13:59:58.745Z</time>
      </trkpt>
      <trkpt lat="44.39615" lon="-0.11813">
        <ele>165.458345</ele>
        <time>2022-12-28T14:00:00.731Z</time>
      </trkpt>
      <trkpt lat="44.3961" lon="-0.11797">
        <ele>165.340107</ele>
        <time>2022-12-28T14:00:02.745Z</time>
      </trkpt>
      <trkpt lat="44.39605" lon="-0.11781">
        <ele>165.22399</ele>
        <time>2022-12-28T14:00:04.758Z</time>
      </trkpt>
      <trkpt lat="44.396" lon="-0.11764">
        <ele>165.102211</ele>
        <time>2022-12-28T14:00:06.746Z</time>
      </trkpt>
      <trkpt lat="44.39596" lon="-0.11748">
        <ele>164.985282</ele>
        <time>2022-12-28T14:00:08.746Z</time>
      </trkpt>
      <trkpt lat="44.39592" lon="-0.11732">
        <ele>164.876858</ele>
        <time>2022-12-28T14:00:10.746Z</time>
      </trkpt>
      <trkpt lat="44.39588" lon="-0.11718">
        <ele>164.773754</ele>
        <time>2022-12-28T14:00:12.797Z</time>
      </trkpt>
      <trkpt lat="44.39584" lon="-0.11704">
        <ele>164.670081</ele>
        <time>2022-12-28T14:00:14.747Z</time>
      </trkpt>
      <trkpt lat="44.3958" lon="-0.11689">
        <ele>164.567362</ele>
        <time>2022-12-28T14:00:16.746Z</time>
      </trkpt>
      <trkpt lat="44.39576" lon="-0.11676">
        <ele>164.492206</ele>
        <time>2022-12-28T14:00:18.804Z</time>
      </trkpt>
      <trkpt lat="44.39572" lon="-0.11662">
        <ele>164.429963</ele>
        <time>2022-12-28T14:00:20.744Z</time>
      </trkpt>
      <trkpt lat="44.39568" lon="-0.11647">
        <ele>164.36543</ele>
        <time>2022-12-28T14:00:22.746Z</time>
      </trkpt>
      <trkpt lat="44.39564" lon="-0.11632">
        <ele>164.297964</ele>
        <time>2022-12-28T14:00:24.797Z</time>
      </trkpt>
      <trkpt lat="44.39559" lon="-0.11617">
        <ele>164.23157</ele>
        <time>2022-12-28T14:00:26.747Z</time>
      </trkpt>
      <trkpt lat="44.39555" lon="-0.11601">
        <ele>164.163388</ele>
        <time>2022-12-28T14:00:28.744Z</time>
      </trkpt>
      <trkpt lat="44.39551" lon="-0.11586">
        <ele>164.095541</ele>
        <time>2022-12-28T14:00:30.800Z</time>
      </trkpt>
      <trkpt lat="44.39547" lon="-0.1157">
        <ele>164.025988</ele>
        <time>2022-12-28T14:00:32.747Z</time>
      </trkpt>
      <trkpt lat="44.39543" lon="-0.11556">
        <ele>163.963423</ele>
        <time>2022-12-28T14:00:34.725Z</time>
      </trkpt>
      <trkpt lat="44.39539" lon="-0.1154">
        <ele>163.894072</ele>
        <time>2022-12-28T14:00:36.795Z</time>
      </trkpt>
      <trkpt lat="44.39534" lon="-0.11524">
        <ele>163.82452</ele>
        <time>2022-12-28T14:00:38.745Z</time>
      </trkpt>
      <trkpt lat="44.3953" lon="-0.11509">
        <ele>163.755094</ele>
        <time>2022-12-28T14:00:40.739Z</time>
      </trkpt>
      <trkpt lat="44.39526" lon="-0.11492">
        <ele>163.683806</ele>
        <time>2022-12-28T14:00:42.805Z</time>
      </trkpt>
      <trkpt lat="44.39521" lon="-0.11477">
        <ele>163.616721</ele>
        <time>2022-12-28T14:00:44.739Z</time>
      </trkpt>
      <trkpt lat="44.39517" lon="-0.11462">
        <ele>163.549571</ele>
        <time>2022-12-28T14:00:46.720Z</time>
      </trkpt>
      <trkpt lat="44.39513" lon="-0.11448">
        <ele>163.495436</ele>
        <time>2022-12-28T14:00:48.746Z</time>
      </trkpt>
      <trkpt lat="44.39509" lon="-0.11434">
        <ele>163.524675</ele>
        <time>2022-12-28T14:00:50.748Z</time>
      </trkpt>
      <trkpt lat="44.39505" lon="-0.1142">
        <ele>163.553633</ele>
        <time>2022-12-28T14:00:52.742Z</time>
      </trkpt>
      <trkpt lat="44.39501" lon="-0.11406">
        <ele>163.581006</ele>
        <time>2022-12-28T14:00:54.745Z</time>
      </trkpt>
      <trkpt lat="44.39497" lon="-0.11392">
        <ele>163.610956</ele>
        <time>2022-12-28T14:00:56.746Z</time>
      </trkpt>
      <trkpt lat="44.39493" lon="-0.11377">
        <ele>163.6411</ele>
        <time>2022-12-28T14:00:58.746Z</time>
      </trkpt>
      <trkpt lat="44.39489" lon="-0.11362">
        <ele>163.672748</ele>
        <time>2022-12-28T14:01:00.744Z</time>
      </trkpt>
      <trkpt lat="44.39485" lon="-0.11346">
        <ele>163.704754</ele>
        <time>2022-12-28T14:01:02.745Z</time>
      </trkpt>
      <trkpt lat="44.3948" lon="-0.11331">
        <ele>163.735429</ele>
        <time>2022-12-28T14:01:04.746Z</time>
      </trkpt>
      <trkpt lat="44.39476" lon="-0.11315">
        <ele>163.767078</ele>
        <time>2022-12-28T14:01:06.744Z</time>
      </trkpt>
      <trkpt lat="44.39471" lon="-0.113">
        <ele>163.79935</ele>
        <time>2022-12-28T14:01:08.745Z</time>
      </trkpt>
      <trkpt lat="44.39467" lon="-0.11285">
        <ele>163.830224</ele>
        <time>2022-12-28T14:01:10.747Z</time>
      </trkpt>
      <trkpt lat="44.39463" lon="-0.11269">
        <ele>163.861513</ele>
        <time>2022-12-28T14:01:12.748Z</time>
      </trkpt>
      <trkpt lat="44.39459" lon="-0.11253">
        <ele>163.89443</ele>
        <time>2022-12-28T14:01:14.729Z</time>
      </trkpt>
      <trkpt lat="44.39455" lon="-0.11237">
        <ele>163.92716</ele>
        <time>2022-12-28T14:01:16.748Z</time>
      </trkpt>
      <trkpt lat="44.3945" lon="-0.11222">
        <ele>163.958012</ele>
        <time>2022-12-28T14:01:18.743Z</time>
      </trkpt>
      <trkpt lat="44.39445" lon="-0.11207">
        <ele>164.03831</ele>
        <time>2022-12-28T14:01:20.749Z</time>
      </trkpt>
      <trkpt lat="44.39441" lon="-0.11192">
        <ele>164.15787</ele>
        <time>2022-12-28T14:01:22.746Z</time>
      </trkpt>
      <trkpt lat="44.39438" lon="-0.11178">
        <ele>164.268169</ele>
        <time>2022-12-28T14:01:24.746Z</time>
      </trkpt>
      <trkpt lat="44.39434" lon="-0.11165">
        <ele>164.379979</ele>
        <time>2022-12-28T14:01:26.744Z</time>
      </trkpt>
      <trkpt lat="44.3943" lon="-0.11151">
        <ele>164.487814</ele>
        <time>2022-12-28T14:01:28.744Z</time>
      </trkpt>
      <trkpt lat="44.39427" lon="-0.11137">
        <ele>164.596113</ele>
        <time>2022-12-28T14:01:30.745Z</time>
      </trkpt>
      <trkpt lat="44.39424" lon="-0.11124">
        <ele>164.701461</ele>
        <time>2022-12-28T14:01:32.746Z</time>
      </trkpt>
      <trkpt lat="44.3942" lon="-0.11112">
        <ele>164.799321</ele>
        <time>2022-12-28T14:01:34.744Z</time>
      </trkpt>
      <trkpt lat="44.39416" lon="-0.11098">
        <ele>164.910741</ele>
        <time>2022-12-28T14:01:36.745Z</time>
      </trkpt>
      <trkpt lat="44.39412" lon="-0.11085">
        <ele>165.022551</ele>
        <time>2022-12-28T14:01:38.746Z</time>
      </trkpt>
      <trkpt lat="44.39408" lon="-0.11071">
        <ele>165.135455</ele>
        <time>2022-12-28T14:01:40.752Z</time>
      </trkpt>
      <trkpt lat="44.39404" lon="-0.11058">
        <ele>165.241723</ele>
        <time>2022-12-28T14:01:42.735Z</time>
      </trkpt>
      <trkpt lat="44.394" lon="-0.11043">
        <ele>165.357021</ele>
        <time>2022-12-28T14:01:44.746Z</time>
      </trkpt>
      <trkpt lat="44.39396" lon="-0.11029">
        <ele>165.474891</ele>
        <time>2022-12-28T14:01:46.746Z</time>
      </trkpt>
      <trkpt lat="44.39391" lon="-0.11015">
        <ele>165.591786</ele>
        <time>2022-12-28T14:01:48.745Z</time>
      </trkpt>
      <trkpt lat="44.39388" lon="-0.11">
        <ele>165.710928</ele>
        <time>2022-12-28T14:01:50.746Z</time>
      </trkpt>
      <trkpt lat="44.39384" lon="-0.10985">
        <ele>165.829406</ele>
        <time>2022-12-28T14:01:52.745Z</time>
      </trkpt>
      <trkpt lat="44.3938" lon="-0.1097">
        <ele>165.730188</ele>
        <time>2022-12-28T14:01:54.795Z</time>
      </trkpt>
      <trkpt lat="44.39376" lon="-0.10955">
        <ele>165.534542</ele>
        <time>2022-12-28T14:01:56.747Z</time>
      </trkpt>
      <trkpt lat="44.39371" lon="-0.10941">
        <ele>165.346208</ele>
        <time>2022-12-28T14:01:58.746Z</time>
      </trkpt>
      <trkpt lat="44.39367" lon="-0.10926">
        <ele>165.160016</ele>
        <time>2022-12-28T14:02:00.734Z</time>
      </trkpt>
      <trkpt lat="44.39363" lon="-0.10912">
        <ele>164.976043</ele>
        <time>2022-12-28T14:02:02.720Z</time>
      </trkpt>
      <trkpt lat="44.39359" lon="-0.10897">
        <ele>164.79276</ele>
        <time>2022-12-28T14:02:04.745Z</time>
      </trkpt>
      <trkpt lat="44.39355" lon="-0.10884">
        <ele>164.618262</ele>
        <time>2022-12-28T14:02:06.747Z</time>
      </trkpt>
      <trkpt lat="44.39352" lon="-0.10871">
        <ele>164.449604</ele>
        <time>2022-12-28T14:02:08.730Z</time>
      </trkpt>
      <trkpt lat="44.39348" lon="-0.10858">
        <ele>164.281259</ele>
        <time>2022-12-28T14:02:10.798Z</time>
      </trkpt>
      <trkpt lat="44.39344" lon="-0.10844">
        <ele>164.106971</ele>
        <time>2022-12-28T14:02:12.726Z</time>
      </trkpt>
      <trkpt lat="44.39341" lon="-0.10831">
        <ele>163.941615</ele>
        <time>2022-12-28T14:02:14.746Z</time>
      </trkpt>
      <trkpt lat="44.39337" lon="-0.10817">
        <ele>163.762263</ele>
        <time>2022-12-28T14:02:16.796Z</time>
      </trkpt>
      <trkpt lat="44.39333" lon="-0.10802">
        <ele>163.575048</ele>
        <time>2022-12-28T14:02:18.744Z</time>
      </trkpt>
      <trkpt lat="44.39329" lon="-0.10787">
        <ele>163.383882</ele>
        <time>2022-12-28T14:02:20.745Z</time>
      </trkpt>
      <trkpt lat="44.39325" lon="-0.10772">
        <ele>163.195467</ele>
        <time>2022-12-28T14:02:22.797Z</time>
      </trkpt>
      <trkpt lat="44.39321" lon="-0.10757">
        <ele>163.002633</ele>
        <time>2022-12-28T14:02:24.745Z</time>
      </trkpt>
      <trkpt lat="44.39318" lon="-0.10743">
        <ele>162.840454</ele>
        <time>2022-12-28T14:02:26.746Z</time>
      </trkpt>
      <trkpt lat="44.39314" lon="-0.10729">
        <ele>162.752856</ele>
        <time>2022-12-28T14:02:28.796Z</time>
      </trkpt>
      <trkpt lat="44.3931" lon="-0.10716">
        <ele>162.66581</ele>
        <time>2022-12-28T14:02:30.745Z</time>
      </trkpt>
      <trkpt lat="44.39306" lon="-0.10701">
        <ele>162.573369</ele>
        <time>2022-12-28T14:02:32.729Z</time>
      </trkpt>
      <trkpt lat="44.39301" lon="-0.10687">
        <ele>162.483521</ele>
        <time>2022-12-28T14:02:34.744Z</time>
      </trkpt>
      <trkpt lat="44.39297" lon="-0.10673">
        <ele>162.393472</ele>
        <time>2022-12-28T14:02:36.745Z</time>
      </trkpt>
      <trkpt lat="44.39293" lon="-0.1066">
        <ele>162.304082</ele>
        <time>2022-12-28T14:02:38.747Z</time>
      </trkpt>
      <trkpt lat="44.39288" lon="-0.10646">
        <ele>162.215665</ele>
        <time>2022-12-28T14:02:40.748Z</time>
      </trkpt>
      <trkpt lat="44.39283" lon="-0.10633">
        <ele>162.127249</ele>
        <time>2022-12-28T14:02:42.742Z</time>
      </trkpt>
      <trkpt lat="44.39278" lon="-0.1062">
        <ele>162.039794</ele>
        <time>2022-12-28T14:02:44.727Z</time>
      </trkpt>
      <trkpt lat="44.39273" lon="-0.10607">
        <ele>161.951032</ele>
        <time>2022-12-28T14:02:46.744Z</time>
      </trkpt>
      <trkpt lat="44.39268" lon="-0.10594">
        <ele>161.864403</ele>
        <time>2022-12-28T14:02:48.744Z</time>
      </trkpt>
      <trkpt lat="44.39263" lon="-0.10581">
        <ele>161.775427</ele>
        <time>2022-12-28T14:02:50.746Z</time>
      </trkpt>
      <trkpt lat="44.39257" lon="-0.10568">
        <ele>161.685516</ele>
        <time>2022-12-28T14:02:52.745Z</time>
      </trkpt>
      <trkpt lat="44.39252" lon="-0.10555">
        <ele>161.596731</ele>
        <time>2022-12-28T14:02:54.747Z</time>
      </trkpt>
      <trkpt lat="44.39247" lon="-0.10542">
        <ele>161.509804</ele>
        <time>2022-12-28T14:02:56.748Z</time>
      </trkpt>
      <trkpt lat="44.39242" lon="-0.10528">
        <ele>161.419086</ele>
        <time>2022-12-28T14:02:58.747Z</time>
      </trkpt>
      <trkpt lat="44.39237" lon="-0.10516">
        <ele>161.367064</ele>
        <time>2022-12-28T14:03:00.747Z</time>
      </trkpt>
      <trkpt lat="44.39231" lon="-0.10502">
        <ele>161.37031</ele>
        <time>2022-12-28T14:03:02.749Z</time>
      </trkpt>
      <trkpt lat="44.39226" lon="-0.10488">
        <ele>161.37333</ele>
        <time>2022-12-28T14:03:04.747Z</time>
      </trkpt>
      <trkpt lat="44.39221" lon="-0.10476">
        <ele>161.376349</ele>
        <time>2022-12-28T14:03:06.748Z</time>
      </trkpt>
      <trkpt lat="44.39216" lon="-0.10462">
        <ele>161.379433</ele>
        <time>2022-12-28T14:03:08.744Z</time>
      </trkpt>
      <trkpt lat="44.39211" lon="-0.10451">
        <ele>161.382149</ele>
        <time>2022-12-28T14:03:10.747Z</time>
      </trkpt>
      <trkpt lat="44.39207" lon="-0.10439">
        <ele>161.384806</ele>
        <time>2022-12-28T14:03:12.749Z</time>
      </trkpt>
      <trkpt lat="44.39202" lon="-0.10428">
        <ele>161.387492</ele>
        <time>2022-12-28T14:03:14.745Z</time>
      </trkpt>
      <trkpt lat="44.39198" lon="-0.10417">
        <ele>161.390162</ele>
        <time>2022-12-28T14:03:16.746Z</time>
      </trkpt>
      <trkpt lat="44.39193" lon="-0.10404">
        <ele>161.392981</ele>
        <time>2022-12-28T14:03:18.743Z</time>
      </trkpt>
      <trkpt lat="44.39188" lon="-0.10393">
        <ele>161.39572</ele>
        <time>2022-12-28T14:03:20.745Z</time>
      </trkpt>
      <trkpt lat="44.39183" lon="-0.10381">
        <ele>161.398548</ele>
        <time>2022-12-28T14:03:22.744Z</time>
      </trkpt>
      <trkpt lat="44.39178" lon="-0.10368">
        <ele>161.401468</ele>
        <time>2022-12-28T14:03:24.744Z</time>
      </trkpt>
      <trkpt lat="44.39173" lon="-0.10356">
        <ele>161.404485</ele>
        <time>2022-12-28T14:03:26.746Z</time>
      </trkpt>
      <trkpt lat="44.39168" lon="-0.10343">
        <ele>161.407426</ele>
        <time>2022-12-28T14:03:28.745Z</time>
      </trkpt>
      <trkpt lat="44.39163" lon="-0.10331">
        <ele>161.410299</ele>
        <time>2022-12-28T14:03:30.747Z</time>
      </trkpt>
      <trkpt lat="44.39157" lon="-0.10319">
        <ele>161.413255</ele>
        <time>2022-12-28T14:03:32.746Z</time>
      </trkpt>
      <trkpt lat="44.39152" lon="-0.10305">
        <ele>161.416357</ele>
        <time>2022-12-28T14:03:34.744Z</time>
      </trkpt>
      <trkpt lat="44.39147" lon="-0.10292">
        <ele>161.25438</ele>
        <time>2022-12-28T14:03:36.747Z</time>
      </trkpt>
      <trkpt lat="44.39141" lon="-0.10278">
        <ele>161.020963</ele>
        <time>2022-12-28T14:03:38.727Z</time>
      </trkpt>
      <trkpt lat="44.39136" lon="-0.10264">
        <ele>160.789503</ele>
        <time>2022-12-28T14:03:40.724Z</time>
      </trkpt>
      <trkpt lat="44.3913" lon="-0.1025">
        <ele>160.557298</ele>
        <time>2022-12-28T14:03:42.746Z</time>
      </trkpt>
      <trkpt lat="44.39125" lon="-0.10236">
        <ele>160.308884</ele>
        <time>2022-12-28T14:03:44.733Z</time>
      </trkpt>
      <trkpt lat="44.39119" lon="-0.10221">
        <ele>160.065885</ele>
        <time>2022-12-28T14:03:46.746Z</time>
      </trkpt>
      <trkpt lat="44.39114" lon="-0.10207">
        <ele>159.833023</ele>
        <time>2022-12-28T14:03:48.746Z</time>
      </trkpt>
      <trkpt lat="44.39108" lon="-0.10193">
        <ele>159.594712</ele>
        <time>2022-12-28T14:03:50.749Z</time>
      </trkpt>
      <trkpt lat="44.39102" lon="-0.10179">
        <ele>159.351712</ele>
        <time>2022-12-28T14:03:52.747Z</time>
      </trkpt>
      <trkpt lat="44.39097" lon="-0.10164">
        <ele>159.105884</ele>
        <time>2022-12-28T14:03:54.746Z</time>
      </trkpt>
      <trkpt lat="44.39091" lon="-0.1015">
        <ele>158.86205</ele>
        <time>2022-12-28T14:03:56.746Z</time>
      </trkpt>
      <trkpt lat="44.39086" lon="-0.10136">
        <ele>158.630871</ele>
        <time>2022-12-28T14:03:58.743Z</time>
      </trkpt>
      <trkpt lat="44.3908" lon="-0.10122">
        <ele>158.395513</ele>
        <time>2022-12-28T14:04:00.745Z</time>
      </trkpt>
      <trkpt lat="44.39075" lon="-0.10109">
        <ele>158.167328</ele>
        <time>2022-12-28T14:04:02.743Z</time>
      </trkpt>
      <trkpt lat="44.39069" lon="-0.10094">
        <ele>157.918803</ele>
        <time>2022-12-28T14:04:04.746Z</time>
      </trkpt>
      <trkpt lat="44.39063" lon="-0.10079">
        <ele>157.679658</ele>
        <time>2022-12-28T14:04:06.745Z</time>
      </trkpt>
      <trkpt lat="44.39058" lon="-0.10065">
        <ele>157.580769</ele>
        <time>2022-12-28T14:04:08.743Z</time>
      </trkpt>
      <trkpt lat="44.39051" lon="-0.10051">
        <ele>157.478222</ele>
        <time>2022-12-28T14:04:10.745Z</time>
      </trkpt>
      <trkpt lat="44.39046" lon="-0.10036">
        <ele>157.370792</ele>
        <time>2022-12-28T14:04:12.744Z</time>
      </trkpt>
      <trkpt lat="44.39039" lon="-0.10021">
        <ele>157.262727</ele>
        <time>2022-12-28T14:04:14.733Z</time>
      </trkpt>
      <trkpt lat="44.39033" lon="-0.10005">
        <ele>157.144131</ele>
        <time>2022-12-28T14:04:16.746Z</time>
      </trkpt>
      <trkpt lat="44.39027" lon="-0.0999">
        <ele>157.037808</ele>
        <time>2022-12-28T14:04:18.745Z</time>
      </trkpt>
      <trkpt lat="44.39021" lon="-0.09974">
        <ele>156.929326</ele>
        <time>2022-12-28T14:04:20.748Z</time>
      </trkpt>
      <trkpt lat="44.39017" lon="-0.0996">
        <ele>156.832325</ele>
        <time>2022-12-28T14:04:22.745Z</time>
      </trkpt>
      <trkpt lat="44.39011" lon="-0.09946">
        <ele>156.733024</ele>
        <time>2022-12-28T14:04:24.758Z</time>
      </trkpt>
      <trkpt lat="44.39006" lon="-0.09933">
        <ele>156.637043</ele>
        <time>2022-12-28T14:04:26.740Z</time>
      </trkpt>
      <trkpt lat="44.39" lon="-0.09919">
        <ele>156.535026</ele>
        <time>2022-12-28T14:04:28.749Z</time>
      </trkpt>
      <trkpt lat="44.38995" lon="-0.09907">
        <ele>156.448631</ele>
        <time>2022-12-28T14:04:30.750Z</time>
      </trkpt>
      <trkpt lat="44.3899" lon="-0.09895">
        <ele>156.363111</ele>
        <time>2022-12-28T14:04:32.750Z</time>
      </trkpt>
      <trkpt lat="44.38985" lon="-0.09883">
        <ele>156.275525</ele>
        <time>2022-12-28T14:04:34.747Z</time>
      </trkpt>
      <trkpt lat="44.3898" lon="-0.09871">
        <ele>156.19082</ele>
        <time>2022-12-28T14:04:36.748Z</time>
      </trkpt>
      <trkpt lat="44.38976" lon="-0.0986">
        <ele>156.150762</ele>
        <time>2022-12-28T14:04:38.747Z</time>
      </trkpt>
      <trkpt lat="44.38972" lon="-0.09848">
        <ele>156.433757</ele>
        <time>2022-12-28T14:04:40.727Z</time>
      </trkpt>
      <trkpt lat="44.38967" lon="-0.09837">
        <ele>156.713712</ele>
        <time>2022-12-28T14:04:42.746Z</time>
      </trkpt>
      <trkpt lat="44.38964" lon="-0.09825">
        <ele>156.993095</ele>
        <time>2022-12-28T14:04:44.748Z</time>
      </trkpt>
      <trkpt lat="44.3896" lon="-0.09809">
        <ele>157.372037</ele>
        <time>2022-12-28T14:04:47.745Z</time>
      </trkpt>
      <trkpt lat="44.38956" lon="-0.09792">
        <ele>157.766387</ele>
        <time>2022-12-28T14:04:50.752Z</time>
      </trkpt>
      <trkpt lat="44.38953" lon="-0.09775">
        <ele>158.149343</ele>
        <time>2022-12-28T14:04:53.746Z</time>
      </trkpt>
      <trkpt lat="44.3895" lon="-0.09759">
        <ele>158.513507</ele>
        <time>2022-12-28T14:04:56.747Z</time>
      </trkpt>
      <trkpt lat="44.38947" lon="-0.09743">
        <ele>158.861221</ele>
        <time>2022-12-28T14:04:59.750Z</time>
      </trkpt>
      <trkpt lat="44.38946" lon="-0.09727">
        <ele>159.204139</ele>
        <time>2022-12-28T14:05:02.749Z</time>
      </trkpt>
      <trkpt lat="44.38944" lon="-0.09711">
        <ele>159.564176</ele>
        <time>2022-12-28T14:05:05.746Z</time>
      </trkpt>
      <trkpt lat="44.38942" lon="-0.09695">
        <ele>159.927011</ele>
        <time>2022-12-28T14:05:08.748Z</time>
      </trkpt>
      <trkpt lat="44.3894" lon="-0.09679">
        <ele>160.268248</ele>
        <time>2022-12-28T14:05:11.746Z</time>
      </trkpt>
      <trkpt lat="44.38939" lon="-0.09664">
        <ele>160.614853</ele>
        <time>2022-12-28T14:05:14.749Z</time>
      </trkpt>
      <trkpt lat="44.3894" lon="-0.09649">
        <ele>160.931231</ele>
        <time>2022-12-28T14:05:17.745Z</time>
      </trkpt>
      <trkpt lat="44.3894" lon="-0.09634">
        <ele>161.268341</ele>
        <time>2022-12-28T14:05:20.746Z</time>
      </trkpt>
      <trkpt lat="44.38939" lon="-0.0962">
        <ele>161.581781</ele>
        <time>2022-12-28T14:05:23.746Z</time>
      </trkpt>
      <trkpt lat="44.38939" lon="-0.09607">
        <ele>161.801751</ele>
        <time>2022-12-28T14:05:26.745Z</time>
      </trkpt>
      <trkpt lat="44.38939" lon="-0.09593">
        <ele>162.028748</ele>
        <time>2022-12-28T14:05:29.744Z</time>
      </trkpt>
      <trkpt lat="44.38938" lon="-0.09578">
        <ele>162.283556</ele>
        <time>2022-12-28T14:05:32.745Z</time>
      </trkpt>
      <trkpt lat="44.38937" lon="-0.09564">
        <ele>162.512357</ele>
        <time>2022-12-28T14:05:35.747Z</time>
      </trkpt>
      <trkpt lat="44.38936" lon="-0.09548">
        <ele>162.785864</ele>
        <time>2022-12-28T14:05:39.748Z</time>
      </trkpt>
      <trkpt lat="44.38936" lon="-0.09534">
        <ele>163.014383</ele>
        <time>2022-12-28T14:05:43.746Z</time>
      </trkpt>
      <trkpt lat="44.38934" lon="-0.09519">
        <ele>163.268937</ele>
        <time>2022-12-28T14:05:47.810Z</time>
      </trkpt>
      <trkpt lat="44.38934" lon="-0.09503">
        <ele>163.531904</ele>
        <time>2022-12-28T14:05:51.746Z</time>
      </trkpt>
      <trkpt lat="44.38935" lon="-0.09487">
        <ele>163.788412</ele>
        <time>2022-12-28T14:05:55.745Z</time>
      </trkpt>
      <trkpt lat="44.38934" lon="-0.09472">
        <ele>164.04171</ele>
        <time>2022-12-28T14:05:59.746Z</time>
      </trkpt>
      <trkpt lat="44.38934" lon="-0.09456">
        <ele>164.298062</ele>
        <time>2022-12-28T14:06:03.748Z</time>
      </trkpt>
      <trkpt lat="44.38933" lon="-0.09441">
        <ele>164.545565</ele>
        <time>2022-12-28T14:06:07.746Z</time>
      </trkpt>
      <trkpt lat="44.38933" lon="-0.09427">
        <ele>164.787421</ele>
        <time>2022-12-28T14:06:11.791Z</time>
      </trkpt>
      <trkpt lat="44.38932" lon="-0.09411">
        <ele>165.044024</ele>
        <time>2022-12-28T14:06:15.749Z</time>
      </trkpt>
      <trkpt lat="44.38932" lon="-0.09396">
        <ele>165.305695</ele>
        <time>2022-12-28T14:06:19.745Z</time>
      </trkpt>
      <trkpt lat="44.3893" lon="-0.0938">
        <ele>165.568725</ele>
        <time>2022-12-28T14:06:23.797Z</time>
      </trkpt>
      <trkpt lat="44.38929" lon="-0.09364">
        <ele>165.824886</ele>
        <time>2022-12-28T14:06:27.747Z</time>
      </trkpt>
      <trkpt lat="44.38929" lon="-0.09348">
        <ele>166.043208</ele>
        <time>2022-12-28T14:06:31.745Z</time>
      </trkpt>
      <trkpt lat="44.38928" lon="-0.09335">
        <ele>166.219737</ele>
        <time>2022-12-28T14:06:34.784Z</time>
      </trkpt>
      <trkpt lat="44.38928" lon="-0.09323">
        <ele>166.39601</ele>
        <time>2022-12-28T14:06:37.747Z</time>
      </trkpt>
      <trkpt lat="44.38928" lon="-0.09308">
        <ele>166.607192</ele>
        <time>2022-12-28T14:06:41.734Z</time>
      </trkpt>
      <trkpt lat="44.38928" lon="-0.09292">
        <ele>166.825169</ele>
        <time>2022-12-28T14:06:45.744Z</time>
      </trkpt>
      <trkpt lat="44.38927" lon="-0.09275">
        <ele>167.057604</ele>
        <time>2022-12-28T14:06:49.745Z</time>
      </trkpt>
      <trkpt lat="44.38927" lon="-0.09262">
        <ele>167.234037</ele>
        <time>2022-12-28T14:06:52.763Z</time>
      </trkpt>
      <trkpt lat="44.38927" lon="-0.09249">
        <ele>167.424337</ele>
        <time>2022-12-28T14:06:55.737Z</time>
      </trkpt>
      <trkpt lat="44.38927" lon="-0.09234">
        <ele>167.624231</ele>
        <time>2022-12-28T14:06:58.818Z</time>
      </trkpt>
      <trkpt lat="44.38927" lon="-0.0922">
        <ele>167.824238</ele>
        <time>2022-12-28T14:07:01.747Z</time>
      </trkpt>
      <trkpt lat="44.38928" lon="-0.09206">
        <ele>168.024433</ele>
        <time>2022-12-28T14:07:04.734Z</time>
      </trkpt>
      <trkpt lat="44.38929" lon="-0.0919">
        <ele>168.246776</ele>
        <time>2022-12-28T14:07:07.746Z</time>
      </trkpt>
      <trkpt lat="44.38931" lon="-0.09174">
        <ele>168.466101</ele>
        <time>2022-12-28T14:07:10.747Z</time>
      </trkpt>
      <trkpt lat="44.38933" lon="-0.09159">
        <ele>168.673846</ele>
        <time>2022-12-28T14:07:13.748Z</time>
      </trkpt>
      <trkpt lat="44.38935" lon="-0.09143">
        <ele>168.899981</ele>
        <time>2022-12-28T14:07:16.759Z</time>
      </trkpt>
      <trkpt lat="44.38938" lon="-0.09127">
        <ele>169.136399</ele>
        <time>2022-12-28T14:07:19.746Z</time>
      </trkpt>
      <trkpt lat="44.38941" lon="-0.0911">
        <ele>169.305167</ele>
        <time>2022-12-28T14:07:22.730Z</time>
      </trkpt>
      <trkpt lat="44.38945" lon="-0.09094">
        <ele>169.374255</ele>
        <time>2022-12-28T14:07:25.745Z</time>
      </trkpt>
      <trkpt lat="44.38949" lon="-0.09077">
        <ele>169.446322</ele>
        <time>2022-12-28T14:07:28.745Z</time>
      </trkpt>
      <trkpt lat="44.38954" lon="-0.09059">
        <ele>169.519909</ele>
        <time>2022-12-28T14:07:31.747Z</time>
      </trkpt>
      <trkpt lat="44.38957" lon="-0.09047">
        <ele>169.571263</ele>
        <time>2022-12-28T14:07:33.771Z</time>
      </trkpt>
      <trkpt lat="44.3896" lon="-0.09035">
        <ele>169.622828</ele>
        <time>2022-12-28T14:07:35.748Z</time>
      </trkpt>
      <trkpt lat="44.38964" lon="-0.09023">
        <ele>169.675899</ele>
        <time>2022-12-28T14:07:37.747Z</time>
      </trkpt>
      <trkpt lat="44.38967" lon="-0.09011">
        <ele>169.726717</ele>
        <time>2022-12-28T14:07:39.792Z</time>
      </trkpt>
      <trkpt lat="44.38972" lon="-0.08994">
        <ele>169.796989</ele>
        <time>2022-12-28T14:07:42.747Z</time>
      </trkpt>
      <trkpt lat="44.38976" lon="-0.08978">
        <ele>169.866828</ele>
        <time>2022-12-28T14:07:45.795Z</time>
      </trkpt>
      <trkpt lat="44.3898" lon="-0.08961">
        <ele>169.937972</ele>
        <time>2022-12-28T14:07:48.741Z</time>
      </trkpt>
      <trkpt lat="44.38985" lon="-0.08943">
        <ele>170.011346</ele>
        <time>2022-12-28T14:07:51.816Z</time>
      </trkpt>
      <trkpt lat="44.3899" lon="-0.08926">
        <ele>170.084767</ele>
        <time>2022-12-28T14:07:54.749Z</time>
      </trkpt>
      <trkpt lat="44.38992" lon="-0.08914">
        <ele>170.134621</ele>
        <time>2022-12-28T14:07:56.746Z</time>
      </trkpt>
      <trkpt lat="44.38996" lon="-0.08902">
        <ele>170.185963</ele>
        <time>2022-12-28T14:07:58.748Z</time>
      </trkpt>
      <trkpt lat="44.38999" lon="-0.08889">
        <ele>170.237873</ele>
        <time>2022-12-28T14:08:00.746Z</time>
      </trkpt>
      <trkpt lat="44.39002" lon="-0.08877">
        <ele>170.282565</ele>
        <time>2022-12-28T14:08:02.738Z</time>
      </trkpt>
      <trkpt lat="44.39005" lon="-0.08865">
        <ele>170.307856</ele>
        <time>2022-12-28T14:08:04.739Z</time>
      </trkpt>
      <trkpt lat="44.39009" lon="-0.08853">
        <ele>170.333862</ele>
        <time>2022-12-28T14:08:06.749Z</time>
      </trkpt>
      <trkpt lat="44.39013" lon="-0.08834">
        <ele>170.371093</ele>
        <time>2022-12-28T14:08:09.748Z</time>
      </trkpt>
      <trkpt lat="44.39017" lon="-0.08822">
        <ele>170.396307</ele>
        <time>2022-12-28T14:08:11.749Z</time>
      </trkpt>
      <trkpt lat="44.3902" lon="-0.08809">
        <ele>170.422847</ele>
        <time>2022-12-28T14:08:13.740Z</time>
      </trkpt>
      <trkpt lat="44.39024" lon="-0.08797">
        <ele>170.447487</ele>
        <time>2022-12-28T14:08:15.748Z</time>
      </trkpt>
      <trkpt lat="44.39027" lon="-0.08784">
        <ele>170.474572</ele>
        <time>2022-12-28T14:08:17.746Z</time>
      </trkpt>
      <trkpt lat="44.3903" lon="-0.08772">
        <ele>170.499405</ele>
        <time>2022-12-28T14:08:19.748Z</time>
      </trkpt>
      <trkpt lat="44.39034" lon="-0.08759">
        <ele>170.526146</ele>
        <time>2022-12-28T14:08:21.747Z</time>
      </trkpt>
      <trkpt lat="44.39038" lon="-0.08742">
        <ele>170.561477</ele>
        <time>2022-12-28T14:08:24.745Z</time>
      </trkpt>
      <trkpt lat="44.39043" lon="-0.08726">
        <ele>170.594458</ele>
        <time>2022-12-28T14:08:27.731Z</time>
      </trkpt>
      <trkpt lat="44.39047" lon="-0.0871">
        <ele>170.626614</ele>
        <time>2022-12-28T14:08:30.746Z</time>
      </trkpt>
      <trkpt lat="44.39051" lon="-0.08694">
        <ele>170.658977</ele>
        <time>2022-12-28T14:08:33.747Z</time>
      </trkpt>
      <trkpt lat="44.39057" lon="-0.08678">
        <ele>170.693669</ele>
        <time>2022-12-28T14:08:36.730Z</time>
      </trkpt>
      <trkpt lat="44.39061" lon="-0.08661">
        <ele>170.728367</ele>
        <time>2022-12-28T14:08:39.745Z</time>
      </trkpt>
      <trkpt lat="44.39065" lon="-0.08643">
        <ele>170.758184</ele>
        <time>2022-12-28T14:08:42.748Z</time>
      </trkpt>
      <trkpt lat="44.39069" lon="-0.08625">
        <ele>170.73245</ele>
        <time>2022-12-28T14:08:45.748Z</time>
      </trkpt>
      <trkpt lat="44.39074" lon="-0.08607">
        <ele>170.707525</ele>
        <time>2022-12-28T14:08:48.746Z</time>
      </trkpt>
      <trkpt lat="44.39077" lon="-0.08595">
        <ele>170.690474</ele>
        <time>2022-12-28T14:08:50.805Z</time>
      </trkpt>
      <trkpt lat="44.3908" lon="-0.08583">
        <ele>170.673292</ele>
        <time>2022-12-28T14:08:52.759Z</time>
      </trkpt>
      <trkpt lat="44.39083" lon="-0.0857">
        <ele>170.655366</ele>
        <time>2022-12-28T14:08:54.746Z</time>
      </trkpt>
      <trkpt lat="44.39086" lon="-0.08558">
        <ele>170.638436</ele>
        <time>2022-12-28T14:08:56.808Z</time>
      </trkpt>
      <trkpt lat="44.3909" lon="-0.08541">
        <ele>170.614934</ele>
        <time>2022-12-28T14:08:59.745Z</time>
      </trkpt>
      <trkpt lat="44.39094" lon="-0.08526">
        <ele>170.594002</ele>
        <time>2022-12-28T14:09:02.746Z</time>
      </trkpt>
      <trkpt lat="44.39097" lon="-0.0851">
        <ele>170.57137</ele>
        <time>2022-12-28T14:09:05.745Z</time>
      </trkpt>
      <trkpt lat="44.39101" lon="-0.08492">
        <ele>170.546997</ele>
        <time>2022-12-28T14:09:08.746Z</time>
      </trkpt>
      <trkpt lat="44.39105" lon="-0.08475">
        <ele>170.523068</ele>
        <time>2022-12-28T14:09:11.748Z</time>
      </trkpt>
      <trkpt lat="44.39108" lon="-0.08457">
        <ele>170.49872</ele>
        <time>2022-12-28T14:09:14.743Z</time>
      </trkpt>
      <trkpt lat="44.3911" lon="-0.08445">
        <ele>170.481935</ele>
        <time>2022-12-28T14:09:16.745Z</time>
      </trkpt>
      <trkpt lat="44.39112" lon="-0.08432">
        <ele>170.464925</ele>
        <time>2022-12-28T14:09:18.748Z</time>
      </trkpt>
      <trkpt lat="44.39113" lon="-0.0842">
        <ele>170.448127</ele>
        <time>2022-12-28T14:09:20.748Z</time>
      </trkpt>
      <trkpt lat="44.39113" lon="-0.08406">
        <ele>170.43004</ele>
        <time>2022-12-28T14:09:22.747Z</time>
      </trkpt>
      <trkpt lat="44.39114" lon="-0.08393">
        <ele>170.459095</ele>
        <time>2022-12-28T14:09:24.756Z</time>
      </trkpt>
      <trkpt lat="44.39114" lon="-0.08379">
        <ele>170.500434</ele>
        <time>2022-12-28T14:09:26.746Z</time>
      </trkpt>
      <trkpt lat="44.39115" lon="-0.08365">
        <ele>170.540028</ele>
        <time>2022-12-28T14:09:28.744Z</time>
      </trkpt>
      <trkpt lat="44.39115" lon="-0.08351">
        <ele>170.581023</ele>
        <time>2022-12-28T14:09:30.789Z</time>
      </trkpt>
      <trkpt lat="44.39115" lon="-0.08338">
        <ele>170.62172</ele>
        <time>2022-12-28T14:09:32.745Z</time>
      </trkpt>
      <trkpt lat="44.39114" lon="-0.08324">
        <ele>170.661745</ele>
        <time>2022-12-28T14:09:34.750Z</time>
      </trkpt>
      <trkpt lat="44.39113" lon="-0.0831">
        <ele>170.703493</ele>
        <time>2022-12-28T14:09:36.803Z</time>
      </trkpt>
      <trkpt lat="44.39112" lon="-0.08296">
        <ele>170.744598</ele>
        <time>2022-12-28T14:09:38.749Z</time>
      </trkpt>
      <trkpt lat="44.3911" lon="-0.08282">
        <ele>170.786817</ele>
        <time>2022-12-28T14:09:40.748Z</time>
      </trkpt>
      <trkpt lat="44.39109" lon="-0.08268">
        <ele>170.827108</ele>
        <time>2022-12-28T14:09:42.771Z</time>
      </trkpt>
      <trkpt lat="44.39108" lon="-0.08254">
        <ele>170.86869</ele>
        <time>2022-12-28T14:09:44.746Z</time>
      </trkpt>
      <trkpt lat="44.39106" lon="-0.08241">
        <ele>170.910032</ele>
        <time>2022-12-28T14:09:46.747Z</time>
      </trkpt>
      <trkpt lat="44.39105" lon="-0.08227">
        <ele>170.951275</ele>
        <time>2022-12-28T14:09:48.805Z</time>
      </trkpt>
      <trkpt lat="44.39104" lon="-0.08213">
        <ele>170.99126</ele>
        <time>2022-12-28T14:09:50.748Z</time>
      </trkpt>
      <trkpt lat="44.39103" lon="-0.08199">
        <ele>171.033241</ele>
        <time>2022-12-28T14:09:52.748Z</time>
      </trkpt>
      <trkpt lat="44.39102" lon="-0.08186">
        <ele>171.073361</ele>
        <time>2022-12-28T14:09:54.748Z</time>
      </trkpt>
      <trkpt lat="44.39101" lon="-0.08172">
        <ele>171.114944</ele>
        <time>2022-12-28T14:09:56.747Z</time>
      </trkpt>
      <trkpt lat="44.39099" lon="-0.08158">
        <ele>171.155817</ele>
        <time>2022-12-28T14:09:58.748Z</time>
      </trkpt>
      <trkpt lat="44.39097" lon="-0.08144">
        <ele>171.210556</ele>
        <time>2022-12-28T14:10:00.747Z</time>
      </trkpt>
      <trkpt lat="44.39096" lon="-0.08129">
        <ele>171.272327</ele>
        <time>2022-12-28T14:10:02.747Z</time>
      </trkpt>
      <trkpt lat="44.39095" lon="-0.08115">
        <ele>171.334602</ele>
        <time>2022-12-28T14:10:04.747Z</time>
      </trkpt>
      <trkpt lat="44.39093" lon="-0.08101">
        <ele>171.397128</ele>
        <time>2022-12-28T14:10:06.748Z</time>
      </trkpt>
      <trkpt lat="44.39093" lon="-0.08085">
        <ele>171.461791</ele>
        <time>2022-12-28T14:10:08.746Z</time>
      </trkpt>
      <trkpt lat="44.39091" lon="-0.08072">
        <ele>171.522053</ele>
        <time>2022-12-28T14:10:10.751Z</time>
      </trkpt>
      <trkpt lat="44.3909" lon="-0.08058">
        <ele>171.57909</ele>
        <time>2022-12-28T14:10:12.743Z</time>
      </trkpt>
      <trkpt lat="44.39089" lon="-0.08045">
        <ele>171.63588</ele>
        <time>2022-12-28T14:10:14.758Z</time>
      </trkpt>
      <trkpt lat="44.39087" lon="-0.08027">
        <ele>171.71474</ele>
        <time>2022-12-28T14:10:17.823Z</time>
      </trkpt>
      <trkpt lat="44.39086" lon="-0.08014">
        <ele>171.769988</ele>
        <time>2022-12-28T14:10:19.749Z</time>
      </trkpt>
      <trkpt lat="44.39085" lon="-0.08001">
        <ele>171.82439</ele>
        <time>2022-12-28T14:10:21.758Z</time>
      </trkpt>
      <trkpt lat="44.39084" lon="-0.07988">
        <ele>171.881754</ele>
        <time>2022-12-28T14:10:23.816Z</time>
      </trkpt>
      <trkpt lat="44.39083" lon="-0.07974">
        <ele>171.940409</ele>
        <time>2022-12-28T14:10:25.751Z</time>
      </trkpt>
      <trkpt lat="44.39082" lon="-0.0796">
        <ele>172.002902</ele>
        <time>2022-12-28T14:10:27.759Z</time>
      </trkpt>
      <trkpt lat="44.39081" lon="-0.07946">
        <ele>172.064243</ele>
        <time>2022-12-28T14:10:29.820Z</time>
      </trkpt>
      <trkpt lat="44.3908" lon="-0.07931">
        <ele>172.124855</ele>
        <time>2022-12-28T14:10:31.760Z</time>
      </trkpt>
      <trkpt lat="44.39079" lon="-0.07918">
        <ele>172.18087</ele>
        <time>2022-12-28T14:10:33.750Z</time>
      </trkpt>
      <trkpt lat="44.39077" lon="-0.07905">
        <ele>172.238411</ele>
        <time>2022-12-28T14:10:35.805Z</time>
      </trkpt>
      <trkpt lat="44.39076" lon="-0.07892">
        <ele>172.174772</ele>
        <time>2022-12-28T14:10:37.757Z</time>
      </trkpt>
      <trkpt lat="44.39074" lon="-0.07874">
        <ele>172.063278</ele>
        <time>2022-12-28T14:10:40.750Z</time>
      </trkpt>
      <trkpt lat="44.39073" lon="-0.07857">
        <ele>171.957269</ele>
        <time>2022-12-28T14:10:43.760Z</time>
      </trkpt>
      <trkpt lat="44.39072" lon="-0.07839">
        <ele>171.846245</ele>
        <time>2022-12-28T14:10:46.747Z</time>
      </trkpt>
      <trkpt lat="44.39069" lon="-0.0782">
        <ele>171.731334</ele>
        <time>2022-12-28T14:10:49.747Z</time>
      </trkpt>
      <trkpt lat="44.39067" lon="-0.07808">
        <ele>171.65254</ele>
        <time>2022-12-28T14:10:51.747Z</time>
      </trkpt>
      <trkpt lat="44.39066" lon="-0.07795">
        <ele>171.572426</ele>
        <time>2022-12-28T14:10:53.796Z</time>
      </trkpt>
      <trkpt lat="44.39066" lon="-0.07781">
        <ele>171.489526</ele>
        <time>2022-12-28T14:10:55.747Z</time>
      </trkpt>
      <trkpt lat="44.39065" lon="-0.07768">
        <ele>171.40872</ele>
        <time>2022-12-28T14:10:57.734Z</time>
      </trkpt>
      <trkpt lat="44.39063" lon="-0.07754">
        <ele>171.326508</ele>
        <time>2022-12-28T14:10:59.821Z</time>
      </trkpt>
      <trkpt lat="44.39063" lon="-0.07741">
        <ele>171.24411</ele>
        <time>2022-12-28T14:11:01.751Z</time>
      </trkpt>
      <trkpt lat="44.39062" lon="-0.07727">
        <ele>171.162319</ele>
        <time>2022-12-28T14:11:03.747Z</time>
      </trkpt>
      <trkpt lat="44.39061" lon="-0.07713">
        <ele>171.074851</ele>
        <time>2022-12-28T14:11:05.821Z</time>
      </trkpt>
      <trkpt lat="44.3906" lon="-0.07699">
        <ele>170.989619</ele>
        <time>2022-12-28T14:11:07.748Z</time>
      </trkpt>
      <trkpt lat="44.39059" lon="-0.07685">
        <ele>170.901017</ele>
        <time>2022-12-28T14:11:09.744Z</time>
      </trkpt>
      <trkpt lat="44.39057" lon="-0.07671">
        <ele>170.81905</ele>
        <time>2022-12-28T14:11:11.813Z</time>
      </trkpt>
      <trkpt lat="44.39056" lon="-0.07658">
        <ele>170.737685</ele>
        <time>2022-12-28T14:11:13.746Z</time>
      </trkpt>
      <trkpt lat="44.39054" lon="-0.07646">
        <ele>170.692253</ele>
        <time>2022-12-28T14:11:15.747Z</time>
      </trkpt>
      <trkpt lat="44.39053" lon="-0.07633">
        <ele>170.661882</ele>
        <time>2022-12-28T14:11:17.791Z</time>
      </trkpt>
      <trkpt lat="44.39051" lon="-0.0762">
        <ele>170.630204</ele>
        <time>2022-12-28T14:11:19.750Z</time>
      </trkpt>
      <trkpt lat="44.3905" lon="-0.07607">
        <ele>170.598226</ele>
        <time>2022-12-28T14:11:21.750Z</time>
      </trkpt>
      <trkpt lat="44.39048" lon="-0.07594">
        <ele>170.565915</ele>
        <time>2022-12-28T14:11:23.804Z</time>
      </trkpt>
      <trkpt lat="44.39047" lon="-0.07579">
        <ele>170.531653</ele>
        <time>2022-12-28T14:11:25.750Z</time>
      </trkpt>
      <trkpt lat="44.39046" lon="-0.07566">
        <ele>170.498763</ele>
        <time>2022-12-28T14:11:27.750Z</time>
      </trkpt>
      <trkpt lat="44.39044" lon="-0.07551">
        <ele>170.463577</ele>
        <time>2022-12-28T14:11:29.803Z</time>
      </trkpt>
      <trkpt lat="44.39042" lon="-0.07537">
        <ele>170.428808</ele>
        <time>2022-12-28T14:11:31.750Z</time>
      </trkpt>
      <trkpt lat="44.39041" lon="-0.07522">
        <ele>170.393996</ele>
        <time>2022-12-28T14:11:33.755Z</time>
      </trkpt>
      <trkpt lat="44.3904" lon="-0.07508">
        <ele>170.360792</ele>
        <time>2022-12-28T14:11:35.805Z</time>
      </trkpt>
      <trkpt lat="44.39038" lon="-0.07494">
        <ele>170.327198</ele>
        <time>2022-12-28T14:11:37.753Z</time>
      </trkpt>
      <trkpt lat="44.39037" lon="-0.07481">
        <ele>170.295136</ele>
        <time>2022-12-28T14:11:39.753Z</time>
      </trkpt>
      <trkpt lat="44.39037" lon="-0.07468">
        <ele>170.265113</ele>
        <time>2022-12-28T14:11:41.798Z</time>
      </trkpt>
      <trkpt lat="44.39034" lon="-0.07451">
        <ele>170.22296</ele>
        <time>2022-12-28T14:11:44.743Z</time>
      </trkpt>
      <trkpt lat="44.39033" lon="-0.07434">
        <ele>170.183246</ele>
        <time>2022-12-28T14:11:47.748Z</time>
      </trkpt>
      <trkpt lat="44.39032" lon="-0.07422">
        <ele>170.153201</ele>
        <time>2022-12-28T14:11:49.747Z</time>
      </trkpt>
      <trkpt lat="44.39032" lon="-0.07402">
        <ele>170.108812</ele>
        <time>2022-12-28T14:11:52.733Z</time>
      </trkpt>
      <trkpt lat="44.3903" lon="-0.0739">
        <ele>170.089029</ele>
        <time>2022-12-28T14:11:54.748Z</time>
      </trkpt>
      <trkpt lat="44.3903" lon="-0.07377">
        <ele>170.069168</ele>
        <time>2022-12-28T14:11:56.747Z</time>
      </trkpt>
      <trkpt lat="44.39028" lon="-0.07364">
        <ele>170.048425</ele>
        <time>2022-12-28T14:11:58.747Z</time>
      </trkpt>
      <trkpt lat="44.39026" lon="-0.0735">
        <ele>170.026452</ele>
        <time>2022-12-28T14:12:00.749Z</time>
      </trkpt>
      <trkpt lat="44.39025" lon="-0.07337">
        <ele>170.005154</ele>
        <time>2022-12-28T14:12:02.746Z</time>
      </trkpt>
      <trkpt lat="44.39024" lon="-0.07323">
        <ele>169.983671</ele>
        <time>2022-12-28T14:12:04.773Z</time>
      </trkpt>
      <trkpt lat="44.39022" lon="-0.0731">
        <ele>169.961909</ele>
        <time>2022-12-28T14:12:06.748Z</time>
      </trkpt>
      <trkpt lat="44.39021" lon="-0.07295">
        <ele>169.939464</ele>
        <time>2022-12-28T14:12:08.747Z</time>
      </trkpt>
      <trkpt lat="44.39021" lon="-0.07282">
        <ele>169.918316</ele>
        <time>2022-12-28T14:12:10.755Z</time>
      </trkpt>
      <trkpt lat="44.39019" lon="-0.07267">
        <ele>169.89575</ele>
        <time>2022-12-28T14:12:12.802Z</time>
      </trkpt>
      <trkpt lat="44.39018" lon="-0.07253">
        <ele>169.87274</ele>
        <time>2022-12-28T14:12:14.743Z</time>
      </trkpt>
      <trkpt lat="44.39017" lon="-0.07239">
        <ele>169.850158</ele>
        <time>2022-12-28T14:12:16.748Z</time>
      </trkpt>
      <trkpt lat="44.39015" lon="-0.07224">
        <ele>169.826844</ele>
        <time>2022-12-28T14:12:18.797Z</time>
      </trkpt>
      <trkpt lat="44.39013" lon="-0.07209">
        <ele>169.802963</ele>
        <time>2022-12-28T14:12:20.729Z</time>
      </trkpt>
      <trkpt lat="44.39012" lon="-0.07194">
        <ele>169.780297</ele>
        <time>2022-12-28T14:12:22.747Z</time>
      </trkpt>
      <trkpt lat="44.3901" lon="-0.0718">
        <ele>169.757595</ele>
        <time>2022-12-28T14:12:24.746Z</time>
      </trkpt>
      <trkpt lat="44.39009" lon="-0.07165">
        <ele>169.734436</ele>
        <time>2022-12-28T14:12:26.756Z</time>
      </trkpt>
      <trkpt lat="44.39007" lon="-0.0715">
        <ele>169.731775</ele>
        <time>2022-12-28T14:12:28.746Z</time>
      </trkpt>
      <trkpt lat="44.39007" lon="-0.07136">
        <ele>169.765692</ele>
        <time>2022-12-28T14:12:30.732Z</time>
      </trkpt>
      <trkpt lat="44.39006" lon="-0.07122">
        <ele>169.798489</ele>
        <time>2022-12-28T14:12:32.730Z</time>
      </trkpt>
      <trkpt lat="44.39004" lon="-0.07108">
        <ele>169.830471</ele>
        <time>2022-12-28T14:12:34.746Z</time>
      </trkpt>
      <trkpt lat="44.39004" lon="-0.07094">
        <ele>169.861636</ele>
        <time>2022-12-28T14:12:36.746Z</time>
      </trkpt>
      <trkpt lat="44.39002" lon="-0.0708">
        <ele>169.89393</ele>
        <time>2022-12-28T14:12:38.748Z</time>
      </trkpt>
      <trkpt lat="44.39001" lon="-0.07067">
        <ele>169.925227</ele>
        <time>2022-12-28T14:12:40.753Z</time>
      </trkpt>
      <trkpt lat="44.39" lon="-0.07053">
        <ele>169.957935</ele>
        <time>2022-12-28T14:12:42.728Z</time>
      </trkpt>
      <trkpt lat="44.38999" lon="-0.07038">
        <ele>169.991481</ele>
        <time>2022-12-28T14:12:44.744Z</time>
      </trkpt>
      <trkpt lat="44.38997" lon="-0.07024">
        <ele>170.024504</ele>
        <time>2022-12-28T14:12:46.734Z</time>
      </trkpt>
      <trkpt lat="44.38996" lon="-0.0701">
        <ele>170.057576</ele>
        <time>2022-12-28T14:12:48.721Z</time>
      </trkpt>
      <trkpt lat="44.38994" lon="-0.06996">
        <ele>170.090701</ele>
        <time>2022-12-28T14:12:50.729Z</time>
      </trkpt>
      <trkpt lat="44.38993" lon="-0.06982">
        <ele>170.122587</ele>
        <time>2022-12-28T14:12:52.770Z</time>
      </trkpt>
      <trkpt lat="44.38993" lon="-0.06968">
        <ele>170.15435</ele>
        <time>2022-12-28T14:12:54.745Z</time>
      </trkpt>
      <trkpt lat="44.38991" lon="-0.06954">
        <ele>170.186918</ele>
        <time>2022-12-28T14:12:56.725Z</time>
      </trkpt>
      <trkpt lat="44.3899" lon="-0.0694">
        <ele>170.219397</ele>
        <time>2022-12-28T14:12:58.795Z</time>
      </trkpt>
      <trkpt lat="44.38988" lon="-0.06927">
        <ele>170.250087</ele>
        <time>2022-12-28T14:13:00.746Z</time>
      </trkpt>
      <trkpt lat="44.38987" lon="-0.06914">
        <ele>170.280168</ele>
        <time>2022-12-28T14:13:02.745Z</time>
      </trkpt>
      <trkpt lat="44.38985" lon="-0.06896">
        <ele>170.370457</ele>
        <time>2022-12-28T14:13:05.745Z</time>
      </trkpt>
      <trkpt lat="44.38984" lon="-0.06877">
        <ele>170.496317</ele>
        <time>2022-12-28T14:13:08.757Z</time>
      </trkpt>
      <trkpt lat="44.38982" lon="-0.06859">
        <ele>170.624649</ele>
        <time>2022-12-28T14:13:11.759Z</time>
      </trkpt>
      <trkpt lat="44.38981" lon="-0.06846">
        <ele>170.712405</ele>
        <time>2022-12-28T14:13:13.752Z</time>
      </trkpt>
      <trkpt lat="44.3898" lon="-0.06833">
        <ele>170.802569</ele>
        <time>2022-12-28T14:13:15.813Z</time>
      </trkpt>
      <trkpt lat="44.38979" lon="-0.06819">
        <ele>170.896725</ele>
        <time>2022-12-28T14:13:17.750Z</time>
      </trkpt>
      <trkpt lat="44.38978" lon="-0.06807">
        <ele>170.98372</ele>
        <time>2022-12-28T14:13:19.751Z</time>
      </trkpt>
      <trkpt lat="44.38976" lon="-0.06794">
        <ele>171.075048</ele>
        <time>2022-12-28T14:13:21.793Z</time>
      </trkpt>
      <trkpt lat="44.38975" lon="-0.0678">
        <ele>171.166679</ele>
        <time>2022-12-28T14:13:23.749Z</time>
      </trkpt>
      <trkpt lat="44.38974" lon="-0.06767">
        <ele>171.256654</ele>
        <time>2022-12-28T14:13:25.747Z</time>
      </trkpt>
      <trkpt lat="44.38972" lon="-0.06749">
        <ele>171.38295</ele>
        <time>2022-12-28T14:13:28.741Z</time>
      </trkpt>
      <trkpt lat="44.38971" lon="-0.06731">
        <ele>171.504864</ele>
        <time>2022-12-28T14:13:31.747Z</time>
      </trkpt>
      <trkpt lat="44.38969" lon="-0.06712">
        <ele>171.63427</ele>
        <time>2022-12-28T14:13:34.747Z</time>
      </trkpt>
      <trkpt lat="44.38968" lon="-0.06694">
        <ele>171.760228</ele>
        <time>2022-12-28T14:13:37.749Z</time>
      </trkpt>
      <trkpt lat="44.38968" lon="-0.06677">
        <ele>171.880091</ele>
        <time>2022-12-28T14:13:40.746Z</time>
      </trkpt>
      <trkpt lat="44.38966" lon="-0.06658">
        <ele>172.006268</ele>
        <time>2022-12-28T14:13:43.800Z</time>
      </trkpt>
      <trkpt lat="44.38965" lon="-0.0664">
        <ele>171.863239</ele>
        <time>2022-12-28T14:13:46.746Z</time>
      </trkpt>
      <trkpt lat="44.38962" lon="-0.06622">
        <ele>171.679613</ele>
        <time>2022-12-28T14:13:49.799Z</time>
      </trkpt>
      <trkpt lat="44.38961" lon="-0.06603">
        <ele>171.497449</ele>
        <time>2022-12-28T14:13:52.746Z</time>
      </trkpt>
      <trkpt lat="44.3896" lon="-0.06586">
        <ele>171.330477</ele>
        <time>2022-12-28T14:13:55.798Z</time>
      </trkpt>
      <trkpt lat="44.38958" lon="-0.06569">
        <ele>171.158368</ele>
        <time>2022-12-28T14:13:58.734Z</time>
      </trkpt>
      <trkpt lat="44.38956" lon="-0.06553">
        <ele>170.99962</ele>
        <time>2022-12-28T14:14:01.807Z</time>
      </trkpt>
      <trkpt lat="44.38954" lon="-0.06536">
        <ele>170.83101</ele>
        <time>2022-12-28T14:14:04.754Z</time>
      </trkpt>
      <trkpt lat="44.38952" lon="-0.06517">
        <ele>170.649637</ele>
        <time>2022-12-28T14:14:07.806Z</time>
      </trkpt>
      <trkpt lat="44.3895" lon="-0.06499">
        <ele>170.46601</ele>
        <time>2022-12-28T14:14:10.746Z</time>
      </trkpt>
      <trkpt lat="44.38949" lon="-0.06481">
        <ele>170.289028</ele>
        <time>2022-12-28T14:14:13.804Z</time>
      </trkpt>
      <trkpt lat="44.38947" lon="-0.06462">
        <ele>170.109771</ele>
        <time>2022-12-28T14:14:16.746Z</time>
      </trkpt>
      <trkpt lat="44.38945" lon="-0.06444">
        <ele>169.931971</ele>
        <time>2022-12-28T14:14:19.811Z</time>
      </trkpt>
      <trkpt lat="44.38944" lon="-0.06426">
        <ele>169.74654</ele>
        <time>2022-12-28T14:14:22.750Z</time>
      </trkpt>
      <trkpt lat="44.38942" lon="-0.06407">
        <ele>169.562837</ele>
        <time>2022-12-28T14:14:25.725Z</time>
      </trkpt>
      <trkpt lat="44.38941" lon="-0.06394">
        <ele>169.67543</ele>
        <time>2022-12-28T14:14:27.741Z</time>
      </trkpt>
      <trkpt lat="44.38939" lon="-0.06375">
        <ele>169.83805</ele>
        <time>2022-12-28T14:14:30.737Z</time>
      </trkpt>
      <trkpt lat="44.38937" lon="-0.06357">
        <ele>169.998237</ele>
        <time>2022-12-28T14:14:33.746Z</time>
      </trkpt>
      <trkpt lat="44.38936" lon="-0.06345">
        <ele>170.109117</ele>
        <time>2022-12-28T14:14:35.746Z</time>
      </trkpt>
      <trkpt lat="44.38935" lon="-0.06332">
        <ele>170.221416</ele>
        <time>2022-12-28T14:14:37.746Z</time>
      </trkpt>
      <trkpt lat="44.38934" lon="-0.06318">
        <ele>170.337635</ele>
        <time>2022-12-28T14:14:39.746Z</time>
      </trkpt>
      <trkpt lat="44.38933" lon="-0.06306">
        <ele>170.449696</ele>
        <time>2022-12-28T14:14:41.745Z</time>
      </trkpt>
      <trkpt lat="44.38932" lon="-0.06293">
        <ele>170.561605</ele>
        <time>2022-12-28T14:14:43.743Z</time>
      </trkpt>
      <trkpt lat="44.3893" lon="-0.06275">
        <ele>170.713467</ele>
        <time>2022-12-28T14:14:46.745Z</time>
      </trkpt>
      <trkpt lat="44.38929" lon="-0.0626">
        <ele>170.843918</ele>
        <time>2022-12-28T14:14:49.732Z</time>
      </trkpt>
      <trkpt lat="44.38928" lon="-0.06246">
        <ele>170.973354</ele>
        <time>2022-12-28T14:14:52.742Z</time>
      </trkpt>
      <trkpt lat="44.38926" lon="-0.06232">
        <ele>171.09471</ele>
        <time>2022-12-28T14:14:55.735Z</time>
      </trkpt>
      <trkpt lat="44.38925" lon="-0.06217">
        <ele>171.22819</ele>
        <time>2022-12-28T14:14:58.746Z</time>
      </trkpt>
      <trkpt lat="44.38923" lon="-0.06201">
        <ele>171.361738</ele>
        <time>2022-12-28T14:15:01.736Z</time>
      </trkpt>
      <trkpt lat="44.38922" lon="-0.06187">
        <ele>171.489307</ele>
        <time>2022-12-28T14:15:04.749Z</time>
      </trkpt>
      <trkpt lat="44.38921" lon="-0.06173">
        <ele>171.613736</ele>
        <time>2022-12-28T14:15:07.746Z</time>
      </trkpt>
      <trkpt lat="44.3892" lon="-0.06159">
        <ele>171.735867</ele>
        <time>2022-12-28T14:15:10.748Z</time>
      </trkpt>
      <trkpt lat="44.38919" lon="-0.06144">
        <ele>172.071157</ele>
        <time>2022-12-28T14:15:13.748Z</time>
      </trkpt>
      <trkpt lat="44.38917" lon="-0.0613">
        <ele>172.426366</ele>
        <time>2022-12-28T14:15:16.744Z</time>
      </trkpt>
      <trkpt lat="44.38916" lon="-0.06117">
        <ele>172.777413</ele>
        <time>2022-12-28T14:15:19.747Z</time>
      </trkpt>
      <trkpt lat="44.38914" lon="-0.06103">
        <ele>173.120187</ele>
        <time>2022-12-28T14:15:22.759Z</time>
      </trkpt>
      <trkpt lat="44.38913" lon="-0.0609">
        <ele>173.45374</ele>
        <time>2022-12-28T14:15:25.750Z</time>
      </trkpt>
      <trkpt lat="44.38912" lon="-0.06075">
        <ele>173.844431</ele>
        <time>2022-12-28T14:15:29.797Z</time>
      </trkpt>
      <trkpt lat="44.38911" lon="-0.06059">
        <ele>174.256487</ele>
        <time>2022-12-28T14:15:33.749Z</time>
      </trkpt>
      <trkpt lat="44.38909" lon="-0.06045">
        <ele>174.593575</ele>
        <time>2022-12-28T14:15:36.749Z</time>
      </trkpt>
      <trkpt lat="44.38908" lon="-0.06031">
        <ele>174.947124</ele>
        <time>2022-12-28T14:15:39.751Z</time>
      </trkpt>
      <trkpt lat="44.38907" lon="-0.06017">
        <ele>175.308177</ele>
        <time>2022-12-28T14:15:42.756Z</time>
      </trkpt>
      <trkpt lat="44.38906" lon="-0.06004">
        <ele>175.649817</ele>
        <time>2022-12-28T14:15:45.753Z</time>
      </trkpt>
      <trkpt lat="44.38905" lon="-0.05991">
        <ele>175.968917</ele>
        <time>2022-12-28T14:15:48.753Z</time>
      </trkpt>
      <trkpt lat="44.38903" lon="-0.05978">
        <ele>176.301025</ele>
        <time>2022-12-28T14:15:51.746Z</time>
      </trkpt>
      <trkpt lat="44.38902" lon="-0.05965">
        <ele>176.640152</ele>
        <time>2022-12-28T14:15:54.738Z</time>
      </trkpt>
      <trkpt lat="44.38901" lon="-0.05952">
        <ele>176.961689</ele>
        <time>2022-12-28T14:15:57.754Z</time>
      </trkpt>
      <trkpt lat="44.38902" lon="-0.05935">
        <ele>177.387924</ele>
        <time>2022-12-28T14:16:01.732Z</time>
      </trkpt>
      <trkpt lat="44.389" lon="-0.05921">
        <ele>177.760994</ele>
        <time>2022-12-28T14:16:04.746Z</time>
      </trkpt>
      <trkpt lat="44.38898" lon="-0.05907">
        <ele>178.104184</ele>
        <time>2022-12-28T14:16:07.748Z</time>
      </trkpt>
      <trkpt lat="44.38896" lon="-0.05891">
        <ele>178.38817</ele>
        <time>2022-12-28T14:16:11.809Z</time>
      </trkpt>
      <trkpt lat="44.38895" lon="-0.05878">
        <ele>178.613679</ele>
        <time>2022-12-28T14:16:14.760Z</time>
      </trkpt>
      <trkpt lat="44.38894" lon="-0.05865">
        <ele>178.846685</ele>
        <time>2022-12-28T14:16:17.790Z</time>
      </trkpt>
      <trkpt lat="44.38893" lon="-0.05852">
        <ele>179.070449</ele>
        <time>2022-12-28T14:16:20.746Z</time>
      </trkpt>
      <trkpt lat="44.38892" lon="-0.0584">
        <ele>179.293548</ele>
        <time>2022-12-28T14:16:23.801Z</time>
      </trkpt>
      <trkpt lat="44.3889" lon="-0.05827">
        <ele>179.520093</ele>
        <time>2022-12-28T14:16:26.755Z</time>
      </trkpt>
      <trkpt lat="44.38889" lon="-0.05814">
        <ele>179.745855</ele>
        <time>2022-12-28T14:16:29.797Z</time>
      </trkpt>
      <trkpt lat="44.38888" lon="-0.05802">
        <ele>179.972536</ele>
        <time>2022-12-28T14:16:32.759Z</time>
      </trkpt>
      <trkpt lat="44.38887" lon="-0.05789">
        <ele>180.198045</ele>
        <time>2022-12-28T14:16:35.805Z</time>
      </trkpt>
      <trkpt lat="44.38886" lon="-0.05776">
        <ele>180.425074</ele>
        <time>2022-12-28T14:16:38.728Z</time>
      </trkpt>
      <trkpt lat="44.38885" lon="-0.05763">
        <ele>180.656066</ele>
        <time>2022-12-28T14:16:41.806Z</time>
      </trkpt>
      <trkpt lat="44.38884" lon="-0.0575">
        <ele>180.890545</ele>
        <time>2022-12-28T14:16:44.749Z</time>
      </trkpt>
      <trkpt lat="44.38883" lon="-0.05737">
        <ele>181.11202</ele>
        <time>2022-12-28T14:16:47.823Z</time>
      </trkpt>
      <trkpt lat="44.38881" lon="-0.05721">
        <ele>181.40335</ele>
        <time>2022-12-28T14:16:51.739Z</time>
      </trkpt>
      <trkpt lat="44.3888" lon="-0.05708">
        <ele>181.631767</ele>
        <time>2022-12-28T14:16:54.746Z</time>
      </trkpt>
      <trkpt lat="44.38878" lon="-0.05691">
        <ele>181.925198</ele>
        <time>2022-12-28T14:16:58.749Z</time>
      </trkpt>
      <trkpt lat="44.38876" lon="-0.05675">
        <ele>182.209873</ele>
        <time>2022-12-28T14:17:02.745Z</time>
      </trkpt>
      <trkpt lat="44.38875" lon="-0.05659">
        <ele>182.500428</ele>
        <time>2022-12-28T14:17:06.747Z</time>
      </trkpt>
      <trkpt lat="44.38873" lon="-0.05645">
        <ele>182.50375</ele>
        <time>2022-12-28T14:17:10.749Z</time>
      </trkpt>
      <trkpt lat="44.38871" lon="-0.05631">
        <ele>182.498445</ele>
        <time>2022-12-28T14:17:14.730Z</time>
      </trkpt>
      <trkpt lat="44.3887" lon="-0.05615">
        <ele>182.492481</ele>
        <time>2022-12-28T14:17:18.730Z</time>
      </trkpt>
      <trkpt lat="44.38869" lon="-0.05599">
        <ele>182.486595</ele>
        <time>2022-12-28T14:17:22.734Z</time>
      </trkpt>
      <trkpt lat="44.38867" lon="-0.05586">
        <ele>182.481689</ele>
        <time>2022-12-28T14:17:25.745Z</time>
      </trkpt>
      <trkpt lat="44.38866" lon="-0.05572">
        <ele>182.476421</ele>
        <time>2022-12-28T14:17:28.743Z</time>
      </trkpt>
      <trkpt lat="44.38865" lon="-0.05558">
        <ele>182.471383</ele>
        <time>2022-12-28T14:17:31.744Z</time>
      </trkpt>
      <trkpt lat="44.38864" lon="-0.05545">
        <ele>182.466596</ele>
        <time>2022-12-28T14:17:34.743Z</time>
      </trkpt>
      <trkpt lat="44.38863" lon="-0.05533">
        <ele>182.461796</ele>
        <time>2022-12-28T14:17:37.745Z</time>
      </trkpt>
      <trkpt lat="44.38861" lon="-0.05517">
        <ele>182.455892</ele>
        <time>2022-12-28T14:17:41.749Z</time>
      </trkpt>
      <trkpt lat="44.38858" lon="-0.05487">
        <ele>182.444643</ele>
        <time>2022-12-28T14:19:24.828Z</time>
      </trkpt>
      <trkpt lat="44.38856" lon="-0.0547">
        <ele>182.43849</ele>
        <time>2022-12-28T14:19:28.747Z</time>
      </trkpt>
      <trkpt lat="44.38855" lon="-0.05457">
        <ele>182.433521</ele>
        <time>2022-12-28T14:19:31.749Z</time>
      </trkpt>
      <trkpt lat="44.38853" lon="-0.05443">
        <ele>182.428421</ele>
        <time>2022-12-28T14:19:34.745Z</time>
      </trkpt>
      <trkpt lat="44.38852" lon="-0.0543">
        <ele>182.423488</ele>
        <time>2022-12-28T14:19:37.746Z</time>
      </trkpt>
      <trkpt lat="44.38851" lon="-0.05417">
        <ele>182.418676</ele>
        <time>2022-12-28T14:19:40.746Z</time>
      </trkpt>
      <trkpt lat="44.3885" lon="-0.05404">
        <ele>182.560976</ele>
        <time>2022-12-28T14:19:43.746Z</time>
      </trkpt>
      <trkpt lat="44.38849" lon="-0.05391">
        <ele>182.925155</ele>
        <time>2022-12-28T14:19:46.748Z</time>
      </trkpt>
      <trkpt lat="44.38848" lon="-0.05378">
        <ele>183.280857</ele>
        <time>2022-12-28T14:19:49.756Z</time>
      </trkpt>
      <trkpt lat="44.38846" lon="-0.05362">
        <ele>183.735876</ele>
        <time>2022-12-28T14:19:53.753Z</time>
      </trkpt>
      <trkpt lat="44.38846" lon="-0.05347">
        <ele>184.131427</ele>
        <time>2022-12-28T14:19:57.741Z</time>
      </trkpt>
      <trkpt lat="44.38846" lon="-0.05333">
        <ele>184.516541</ele>
        <time>2022-12-28T14:20:01.752Z</time>
      </trkpt>
      <trkpt lat="44.38844" lon="-0.05319">
        <ele>184.920828</ele>
        <time>2022-12-28T14:20:05.749Z</time>
      </trkpt>
      <trkpt lat="44.38842" lon="-0.05306">
        <ele>185.276209</ele>
        <time>2022-12-28T14:20:09.813Z</time>
      </trkpt>
      <trkpt lat="44.38841" lon="-0.05291">
        <ele>185.707814</ele>
        <time>2022-12-28T14:20:14.745Z</time>
      </trkpt>
      <trkpt lat="44.3884" lon="-0.05278">
        <ele>186.058417</ele>
        <time>2022-12-28T14:20:18.733Z</time>
      </trkpt>
      <trkpt lat="44.38839" lon="-0.05265">
        <ele>186.411769</ele>
        <time>2022-12-28T14:20:22.736Z</time>
      </trkpt>
      <trkpt lat="44.38837" lon="-0.05253">
        <ele>186.766387</ele>
        <time>2022-12-28T14:20:26.745Z</time>
      </trkpt>
      <trkpt lat="44.38836" lon="-0.05237">
        <ele>187.198585</ele>
        <time>2022-12-28T14:20:31.746Z</time>
      </trkpt>
      <trkpt lat="44.38834" lon="-0.05222">
        <ele>187.620579</ele>
        <time>2022-12-28T14:20:36.752Z</time>
      </trkpt>
      <trkpt lat="44.38831" lon="-0.05209">
        <ele>188.010784</ele>
        <time>2022-12-28T14:20:41.748Z</time>
      </trkpt>
      <trkpt lat="44.38831" lon="-0.05196">
        <ele>188.363055</ele>
        <time>2022-12-28T14:20:45.750Z</time>
      </trkpt>
      <trkpt lat="44.3883" lon="-0.05182">
        <ele>188.742432</ele>
        <time>2022-12-28T14:20:49.745Z</time>
      </trkpt>
      <trkpt lat="44.3883" lon="-0.05167">
        <ele>189.157285</ele>
        <time>2022-12-28T14:20:53.758Z</time>
      </trkpt>
      <trkpt lat="44.38829" lon="-0.05152">
        <ele>189.445859</ele>
        <time>2022-12-28T14:20:57.728Z</time>
      </trkpt>
      <trkpt lat="44.38828" lon="-0.05136">
        <ele>189.589349</ele>
        <time>2022-12-28T14:21:01.745Z</time>
      </trkpt>
      <trkpt lat="44.38826" lon="-0.05123">
        <ele>189.705584</ele>
        <time>2022-12-28T14:21:04.751Z</time>
      </trkpt>
      <trkpt lat="44.38825" lon="-0.05109">
        <ele>189.827459</ele>
        <time>2022-12-28T14:21:07.798Z</time>
      </trkpt>
      <trkpt lat="44.38823" lon="-0.05096">
        <ele>189.944821</ele>
        <time>2022-12-28T14:21:10.751Z</time>
      </trkpt>
      <trkpt lat="44.38823" lon="-0.05083">
        <ele>190.064137</ele>
        <time>2022-12-28T14:21:13.741Z</time>
      </trkpt>
      <trkpt lat="44.38822" lon="-0.05069">
        <ele>190.187227</ele>
        <time>2022-12-28T14:21:16.749Z</time>
      </trkpt>
      <trkpt lat="44.38821" lon="-0.05056">
        <ele>190.309989</ele>
        <time>2022-12-28T14:21:19.755Z</time>
      </trkpt>
      <trkpt lat="44.38819" lon="-0.05039">
        <ele>190.459398</ele>
        <time>2022-12-28T14:21:23.752Z</time>
      </trkpt>
      <trkpt lat="44.38818" lon="-0.05026">
        <ele>190.577728</ele>
        <time>2022-12-28T14:21:26.750Z</time>
      </trkpt>
      <trkpt lat="44.38817" lon="-0.05012">
        <ele>190.701072</ele>
        <time>2022-12-28T14:21:29.759Z</time>
      </trkpt>
      <trkpt lat="44.38816" lon="-0.04999">
        <ele>190.822787</ele>
        <time>2022-12-28T14:21:32.759Z</time>
      </trkpt>
      <trkpt lat="44.38813" lon="-0.04983">
        <ele>190.971069</ele>
        <time>2022-12-28T14:21:36.796Z</time>
      </trkpt>
      <trkpt lat="44.38812" lon="-0.04968">
        <ele>191.101528</ele>
        <time>2022-12-28T14:21:39.757Z</time>
      </trkpt>
      <trkpt lat="44.3881" lon="-0.04953">
        <ele>191.24183</ele>
        <time>2022-12-28T14:21:42.759Z</time>
      </trkpt>
      <trkpt lat="44.38809" lon="-0.04936">
        <ele>191.392269</ele>
        <time>2022-12-28T14:21:45.822Z</time>
      </trkpt>
      <trkpt lat="44.38807" lon="-0.04919">
        <ele>191.544963</ele>
        <time>2022-12-28T14:21:48.749Z</time>
      </trkpt>
      <trkpt lat="44.38806" lon="-0.04902">
        <ele>191.658958</ele>
        <time>2022-12-28T14:21:51.801Z</time>
      </trkpt>
      <trkpt lat="44.38804" lon="-0.04885">
        <ele>191.727452</ele>
        <time>2022-12-28T14:21:54.744Z</time>
      </trkpt>
      <trkpt lat="44.38803" lon="-0.04867">
        <ele>191.79704</ele>
        <time>2022-12-28T14:21:57.793Z</time>
      </trkpt>
      <trkpt lat="44.38801" lon="-0.04849">
        <ele>191.868681</ele>
        <time>2022-12-28T14:22:00.751Z</time>
      </trkpt>
      <trkpt lat="44.388" lon="-0.04837">
        <ele>191.917838</ele>
        <time>2022-12-28T14:22:02.750Z</time>
      </trkpt>
      <trkpt lat="44.38799" lon="-0.04824">
        <ele>191.968473</ele>
        <time>2022-12-28T14:22:04.745Z</time>
      </trkpt>
      <trkpt lat="44.38798" lon="-0.04811">
        <ele>192.01853</ele>
        <time>2022-12-28T14:22:06.747Z</time>
      </trkpt>
      <trkpt lat="44.38797" lon="-0.04798">
        <ele>192.070881</ele>
        <time>2022-12-28T14:22:08.817Z</time>
      </trkpt>
      <trkpt lat="44.38796" lon="-0.04779">
        <ele>192.1458</ele>
        <time>2022-12-28T14:22:11.746Z</time>
      </trkpt>
      <trkpt lat="44.38794" lon="-0.04761">
        <ele>192.216945</ele>
        <time>2022-12-28T14:22:14.800Z</time>
      </trkpt>
      <trkpt lat="44.38792" lon="-0.04743">
        <ele>192.287846</ele>
        <time>2022-12-28T14:22:17.752Z</time>
      </trkpt>
      <trkpt lat="44.38791" lon="-0.04726">
        <ele>192.356417</ele>
        <time>2022-12-28T14:22:20.819Z</time>
      </trkpt>
      <trkpt lat="44.38789" lon="-0.04711">
        <ele>192.415824</ele>
        <time>2022-12-28T14:22:23.747Z</time>
      </trkpt>
      <trkpt lat="44.38787" lon="-0.04695">
        <ele>192.477417</ele>
        <time>2022-12-28T14:22:26.805Z</time>
      </trkpt>
      <trkpt lat="44.38786" lon="-0.04679">
        <ele>192.539195</ele>
        <time>2022-12-28T14:22:29.747Z</time>
      </trkpt>
      <trkpt lat="44.38785" lon="-0.04663">
        <ele>192.604145</ele>
        <time>2022-12-28T14:22:32.810Z</time>
      </trkpt>
      <trkpt lat="44.38784" lon="-0.04646">
        <ele>192.689851</ele>
        <time>2022-12-28T14:22:35.748Z</time>
      </trkpt>
      <trkpt lat="44.38783" lon="-0.0463">
        <ele>192.779245</ele>
        <time>2022-12-28T14:22:38.762Z</time>
      </trkpt>
      <trkpt lat="44.38781" lon="-0.04614">
        <ele>192.865767</ele>
        <time>2022-12-28T14:22:41.747Z</time>
      </trkpt>
      <trkpt lat="44.3878" lon="-0.04598">
        <ele>192.953898</ele>
        <time>2022-12-28T14:22:44.796Z</time>
      </trkpt>
      <trkpt lat="44.38779" lon="-0.04582">
        <ele>193.039257</ele>
        <time>2022-12-28T14:22:47.747Z</time>
      </trkpt>
      <trkpt lat="44.38777" lon="-0.04566">
        <ele>193.127047</ele>
        <time>2022-12-28T14:22:50.797Z</time>
      </trkpt>
      <trkpt lat="44.38775" lon="-0.04549">
        <ele>193.217616</ele>
        <time>2022-12-28T14:22:53.735Z</time>
      </trkpt>
      <trkpt lat="44.38773" lon="-0.04533">
        <ele>193.309999</ele>
        <time>2022-12-28T14:22:56.748Z</time>
      </trkpt>
      <trkpt lat="44.38769" lon="-0.04515">
        <ele>193.408414</ele>
        <time>2022-12-28T14:22:59.748Z</time>
      </trkpt>
      <trkpt lat="44.38764" lon="-0.045">
        <ele>193.499557</ele>
        <time>2022-12-28T14:23:02.746Z</time>
      </trkpt>
      <trkpt lat="44.38759" lon="-0.04484">
        <ele>193.59366</ele>
        <time>2022-12-28T14:23:05.750Z</time>
      </trkpt>
      <trkpt lat="44.38754" lon="-0.04473">
        <ele>193.663545</ele>
        <time>2022-12-28T14:23:07.747Z</time>
      </trkpt>
      <trkpt lat="44.38748" lon="-0.04459">
        <ele>193.75399</ele>
        <time>2022-12-28T14:23:10.747Z</time>
      </trkpt>
      <trkpt lat="44.38741" lon="-0.04445">
        <ele>193.845422</ele>
        <time>2022-12-28T14:23:13.764Z</time>
      </trkpt>
      <trkpt lat="44.3873" lon="-0.04434">
        <ele>193.946987</ele>
        <time>2022-12-28T14:23:16.753Z</time>
      </trkpt>
      <trkpt lat="44.38721" lon="-0.0442">
        <ele>193.94852</ele>
        <time>2022-12-28T14:23:19.758Z</time>
      </trkpt>
      <trkpt lat="44.38715" lon="-0.04411">
        <ele>193.923266</ele>
        <time>2022-12-28T14:23:21.750Z</time>
      </trkpt>
      <trkpt lat="44.38708" lon="-0.04401">
        <ele>193.894934</ele>
        <time>2022-12-28T14:23:23.749Z</time>
      </trkpt>
      <trkpt lat="44.38699" lon="-0.04388">
        <ele>193.85893</ele>
        <time>2022-12-28T14:23:26.760Z</time>
      </trkpt>
      <trkpt lat="44.38691" lon="-0.04375">
        <ele>193.824634</ele>
        <time>2022-12-28T14:23:29.759Z</time>
      </trkpt>
      <trkpt lat="44.38684" lon="-0.04363">
        <ele>193.793271</ele>
        <time>2022-12-28T14:23:32.722Z</time>
      </trkpt>
      <trkpt lat="44.38675" lon="-0.04351">
        <ele>193.760454</ele>
        <time>2022-12-28T14:23:35.747Z</time>
      </trkpt>
      <trkpt lat="44.38664" lon="-0.04338">
        <ele>193.718779</ele>
        <time>2022-12-28T14:23:38.746Z</time>
      </trkpt>
      <trkpt lat="44.38657" lon="-0.04327">
        <ele>193.691108</ele>
        <time>2022-12-28T14:23:40.750Z</time>
      </trkpt>
      <trkpt lat="44.38649" lon="-0.04313">
        <ele>193.655027</ele>
        <time>2022-12-28T14:23:43.759Z</time>
      </trkpt>
      <trkpt lat="44.38641" lon="-0.04303">
        <ele>193.62418</ele>
        <time>2022-12-28T14:23:45.756Z</time>
      </trkpt>
      <trkpt lat="44.38634" lon="-0.04292">
        <ele>193.596325</ele>
        <time>2022-12-28T14:23:47.805Z</time>
      </trkpt>
      <trkpt lat="44.38627" lon="-0.04282">
        <ele>193.567952</ele>
        <time>2022-12-28T14:23:49.748Z</time>
      </trkpt>
      <trkpt lat="44.38618" lon="-0.04266">
        <ele>193.528454</ele>
        <time>2022-12-28T14:23:52.742Z</time>
      </trkpt>
      <trkpt lat="44.38613" lon="-0.04256">
        <ele>193.502682</ele>
        <time>2022-12-28T14:23:54.736Z</time>
      </trkpt>
      <trkpt lat="44.38607" lon="-0.04245">
        <ele>193.475445</ele>
        <time>2022-12-28T14:23:56.753Z</time>
      </trkpt>
      <trkpt lat="44.38601" lon="-0.04234">
        <ele>193.397379</ele>
        <time>2022-12-28T14:23:58.759Z</time>
      </trkpt>
      <trkpt lat="44.38596" lon="-0.04223">
        <ele>193.319975</ele>
        <time>2022-12-28T14:24:00.751Z</time>
      </trkpt>
      <trkpt lat="44.3859" lon="-0.04212">
        <ele>193.238351</ele>
        <time>2022-12-28T14:24:02.750Z</time>
      </trkpt>
      <trkpt lat="44.38583" lon="-0.04201">
        <ele>193.152411</ele>
        <time>2022-12-28T14:24:04.758Z</time>
      </trkpt>
      <trkpt lat="44.38577" lon="-0.0419">
        <ele>193.071302</ele>
        <time>2022-12-28T14:24:06.750Z</time>
      </trkpt>
      <trkpt lat="44.38572" lon="-0.04179">
        <ele>192.991638</ele>
        <time>2022-12-28T14:24:08.761Z</time>
      </trkpt>
      <trkpt lat="44.38565" lon="-0.04167">
        <ele>192.901454</ele>
        <time>2022-12-28T14:24:10.749Z</time>
      </trkpt>
      <trkpt lat="44.38559" lon="-0.04155">
        <ele>192.816023</ele>
        <time>2022-12-28T14:24:12.739Z</time>
      </trkpt>
      <trkpt lat="44.38553" lon="-0.04145">
        <ele>192.736723</ele>
        <time>2022-12-28T14:24:14.730Z</time>
      </trkpt>
      <trkpt lat="44.38547" lon="-0.04135">
        <ele>192.660852</ele>
        <time>2022-12-28T14:24:16.749Z</time>
      </trkpt>
      <trkpt lat="44.38541" lon="-0.04124">
        <ele>192.579726</ele>
        <time>2022-12-28T14:24:18.736Z</time>
      </trkpt>
      <trkpt lat="44.38536" lon="-0.04113">
        <ele>192.501005</ele>
        <time>2022-12-28T14:24:20.754Z</time>
      </trkpt>
      <trkpt lat="44.38527" lon="-0.04098">
        <ele>192.389636</ele>
        <time>2022-12-28T14:24:23.810Z</time>
      </trkpt>
      <trkpt lat="44.38522" lon="-0.04086">
        <ele>192.302744</ele>
        <time>2022-12-28T14:24:25.748Z</time>
      </trkpt>
      <trkpt lat="44.38515" lon="-0.04075">
        <ele>192.221545</ele>
        <time>2022-12-28T14:24:27.745Z</time>
      </trkpt>
      <trkpt lat="44.38509" lon="-0.04063">
        <ele>192.136101</ele>
        <time>2022-12-28T14:24:29.799Z</time>
      </trkpt>
      <trkpt lat="44.38503" lon="-0.04052">
        <ele>192.052589</ele>
        <time>2022-12-28T14:24:31.747Z</time>
      </trkpt>
      <trkpt lat="44.38497" lon="-0.04041">
        <ele>192.022856</ele>
        <time>2022-12-28T14:24:33.748Z</time>
      </trkpt>
      <trkpt lat="44.3849" lon="-0.0403">
        <ele>192.164594</ele>
        <time>2022-12-28T14:24:35.799Z</time>
      </trkpt>
      <trkpt lat="44.38485" lon="-0.04018">
        <ele>192.299946</ele>
        <time>2022-12-28T14:24:37.757Z</time>
      </trkpt>
      <trkpt lat="44.38477" lon="-0.04004">
        <ele>192.472791</ele>
        <time>2022-12-28T14:24:40.749Z</time>
      </trkpt>
      <trkpt lat="44.38469" lon="-0.0399">
        <ele>192.648684</ele>
        <time>2022-12-28T14:24:43.750Z</time>
      </trkpt>
      <trkpt lat="44.38463" lon="-0.03977">
        <ele>192.804626</ele>
        <time>2022-12-28T14:24:46.752Z</time>
      </trkpt>
      <trkpt lat="44.38456" lon="-0.03965">
        <ele>192.954943</ele>
        <time>2022-12-28T14:24:49.752Z</time>
      </trkpt>
      <trkpt lat="44.38449" lon="-0.03953">
        <ele>193.110107</ele>
        <time>2022-12-28T14:24:52.819Z</time>
      </trkpt>
      <trkpt lat="44.38443" lon="-0.0394">
        <ele>193.260371</ele>
        <time>2022-12-28T14:24:55.739Z</time>
      </trkpt>
      <trkpt lat="44.38436" lon="-0.03928">
        <ele>193.409197</ele>
        <time>2022-12-28T14:24:58.801Z</time>
      </trkpt>
      <trkpt lat="44.3843" lon="-0.03916">
        <ele>193.558689</ele>
        <time>2022-12-28T14:25:01.745Z</time>
      </trkpt>
      <trkpt lat="44.38423" lon="-0.03904">
        <ele>193.70684</ele>
        <time>2022-12-28T14:25:04.748Z</time>
      </trkpt>
      <trkpt lat="44.38416" lon="-0.03892">
        <ele>193.862736</ele>
        <time>2022-12-28T14:25:07.753Z</time>
      </trkpt>
      <trkpt lat="44.38409" lon="-0.03879">
        <ele>194.01635</ele>
        <time>2022-12-28T14:25:10.731Z</time>
      </trkpt>
      <trkpt lat="44.38403" lon="-0.03869">
        <ele>194.150048</ele>
        <time>2022-12-28T14:25:13.760Z</time>
      </trkpt>
      <trkpt lat="44.38397" lon="-0.03858">
        <ele>194.28434</ele>
        <time>2022-12-28T14:25:16.751Z</time>
      </trkpt>
      <trkpt lat="44.38391" lon="-0.03846">
        <ele>194.433808</ele>
        <time>2022-12-28T14:25:19.749Z</time>
      </trkpt>
      <trkpt lat="44.38384" lon="-0.03833">
        <ele>194.388874</ele>
        <time>2022-12-28T14:25:22.749Z</time>
      </trkpt>
      <trkpt lat="44.38377" lon="-0.0382">
        <ele>194.299892</ele>
        <time>2022-12-28T14:25:25.751Z</time>
      </trkpt>
      <trkpt lat="44.3837" lon="-0.03806">
        <ele>194.200486</ele>
        <time>2022-12-28T14:25:28.747Z</time>
      </trkpt>
      <trkpt lat="44.38362" lon="-0.03791">
        <ele>194.098814</ele>
        <time>2022-12-28T14:25:31.748Z</time>
      </trkpt>
      <trkpt lat="44.38354" lon="-0.03777">
        <ele>193.998812</ele>
        <time>2022-12-28T14:25:34.761Z</time>
      </trkpt>
      <trkpt lat="44.38346" lon="-0.03763">
        <ele>193.89613</ele>
        <time>2022-12-28T14:25:37.761Z</time>
      </trkpt>
      <trkpt lat="44.38338" lon="-0.03748">
        <ele>193.794468</ele>
        <time>2022-12-28T14:25:40.759Z</time>
      </trkpt>
      <trkpt lat="44.38332" lon="-0.03738">
        <ele>193.721808</ele>
        <time>2022-12-28T14:25:42.758Z</time>
      </trkpt>
      <trkpt lat="44.38325" lon="-0.03724">
        <ele>193.619196</ele>
        <time>2022-12-28T14:25:45.795Z</time>
      </trkpt>
      <trkpt lat="44.38319" lon="-0.03714">
        <ele>193.547568</ele>
        <time>2022-12-28T14:25:47.762Z</time>
      </trkpt>
      <trkpt lat="44.38313" lon="-0.03703">
        <ele>193.475971</ele>
        <time>2022-12-28T14:25:49.748Z</time>
      </trkpt>
      <trkpt lat="44.38308" lon="-0.03692">
        <ele>193.401635</ele>
        <time>2022-12-28T14:25:51.801Z</time>
      </trkpt>
      <trkpt lat="44.38302" lon="-0.03682">
        <ele>193.322011</ele>
        <time>2022-12-28T14:25:53.747Z</time>
      </trkpt>
      <trkpt lat="44.38296" lon="-0.0367">
        <ele>193.244963</ele>
        <time>2022-12-28T14:25:55.751Z</time>
      </trkpt>
      <trkpt lat="44.3829" lon="-0.03659">
        <ele>193.166094</ele>
        <time>2022-12-28T14:25:57.801Z</time>
      </trkpt>
      <trkpt lat="44.38284" lon="-0.03647">
        <ele>193.08358</ele>
        <time>2022-12-28T14:25:59.748Z</time>
      </trkpt>
      <trkpt lat="44.38277" lon="-0.03636">
        <ele>193.02923</ele>
        <time>2022-12-28T14:26:01.750Z</time>
      </trkpt>
      <trkpt lat="44.38271" lon="-0.03624">
        <ele>192.993294</ele>
        <time>2022-12-28T14:26:03.810Z</time>
      </trkpt>
      <trkpt lat="44.38266" lon="-0.03613">
        <ele>192.959636</ele>
        <time>2022-12-28T14:26:05.750Z</time>
      </trkpt>
      <trkpt lat="44.3826" lon="-0.03603">
        <ele>192.925987</ele>
        <time>2022-12-28T14:26:07.748Z</time>
      </trkpt>
      <trkpt lat="44.38254" lon="-0.03592">
        <ele>192.890435</ele>
        <time>2022-12-28T14:26:09.769Z</time>
      </trkpt>
      <trkpt lat="44.38248" lon="-0.03581">
        <ele>192.854884</ele>
        <time>2022-12-28T14:26:11.761Z</time>
      </trkpt>
      <trkpt lat="44.38242" lon="-0.0357">
        <ele>192.818753</ele>
        <time>2022-12-28T14:26:13.759Z</time>
      </trkpt>
      <trkpt lat="44.38236" lon="-0.03559">
        <ele>192.782599</ele>
        <time>2022-12-28T14:26:15.817Z</time>
      </trkpt>
      <trkpt lat="44.3823" lon="-0.03548">
        <ele>192.748291</ele>
        <time>2022-12-28T14:26:17.759Z</time>
      </trkpt>
      <trkpt lat="44.38224" lon="-0.03537">
        <ele>192.711312</ele>
        <time>2022-12-28T14:26:19.759Z</time>
      </trkpt>
      <trkpt lat="44.38217" lon="-0.03525">
        <ele>192.67536</ele>
        <time>2022-12-28T14:26:21.822Z</time>
      </trkpt>
      <trkpt lat="44.38211" lon="-0.03514">
        <ele>192.637961</ele>
        <time>2022-12-28T14:26:23.761Z</time>
      </trkpt>
      <trkpt lat="44.38205" lon="-0.03502">
        <ele>192.601831</ele>
        <time>2022-12-28T14:26:25.746Z</time>
      </trkpt>
      <trkpt lat="44.38198" lon="-0.03491">
        <ele>192.56381</ele>
        <time>2022-12-28T14:26:27.796Z</time>
      </trkpt>
      <trkpt lat="44.38192" lon="-0.03479">
        <ele>192.527466</ele>
        <time>2022-12-28T14:26:29.740Z</time>
      </trkpt>
      <trkpt lat="44.38186" lon="-0.03468">
        <ele>192.491122</ele>
        <time>2022-12-28T14:26:31.753Z</time>
      </trkpt>
      <trkpt lat="44.3818" lon="-0.03456">
        <ele>192.454786</ele>
        <time>2022-12-28T14:26:33.806Z</time>
      </trkpt>
      <trkpt lat="44.38174" lon="-0.03445">
        <ele>192.418612</ele>
        <time>2022-12-28T14:26:35.751Z</time>
      </trkpt>
      <trkpt lat="44.38167" lon="-0.03433">
        <ele>192.427758</ele>
        <time>2022-12-28T14:26:37.761Z</time>
      </trkpt>
      <trkpt lat="44.38161" lon="-0.03422">
        <ele>192.453326</ele>
        <time>2022-12-28T14:26:39.749Z</time>
      </trkpt>
      <trkpt lat="44.38155" lon="-0.0341">
        <ele>192.477219</ele>
        <time>2022-12-28T14:26:41.746Z</time>
      </trkpt>
      <trkpt lat="44.38148" lon="-0.03398">
        <ele>192.501956</ele>
        <time>2022-12-28T14:26:43.739Z</time>
      </trkpt>
      <trkpt lat="44.38142" lon="-0.03386">
        <ele>192.527078</ele>
        <time>2022-12-28T14:26:45.730Z</time>
      </trkpt>
      <trkpt lat="44.38135" lon="-0.03374">
        <ele>192.552647</ele>
        <time>2022-12-28T14:26:47.740Z</time>
      </trkpt>
      <trkpt lat="44.38129" lon="-0.03363">
        <ele>192.575861</ele>
        <time>2022-12-28T14:26:49.726Z</time>
      </trkpt>
      <trkpt lat="44.38123" lon="-0.03352">
        <ele>192.599755</ele>
        <time>2022-12-28T14:26:51.742Z</time>
      </trkpt>
      <trkpt lat="44.38117" lon="-0.0334">
        <ele>192.624063</ele>
        <time>2022-12-28T14:26:53.726Z</time>
      </trkpt>
      <trkpt lat="44.38111" lon="-0.03328">
        <ele>192.648639</ele>
        <time>2022-12-28T14:26:55.730Z</time>
      </trkpt>
      <trkpt lat="44.38105" lon="-0.03317">
        <ele>192.672813</ele>
        <time>2022-12-28T14:26:57.725Z</time>
      </trkpt>
      <trkpt lat="44.38098" lon="-0.03305">
        <ele>192.697453</ele>
        <time>2022-12-28T14:26:59.727Z</time>
      </trkpt>
      <trkpt lat="44.38092" lon="-0.03293">
        <ele>192.721621</ele>
        <time>2022-12-28T14:27:01.727Z</time>
      </trkpt>
      <trkpt lat="44.38086" lon="-0.03282">
        <ele>192.746241</ele>
        <time>2022-12-28T14:27:03.742Z</time>
      </trkpt>
      <trkpt lat="44.3808" lon="-0.03271">
        <ele>192.769179</ele>
        <time>2022-12-28T14:27:05.739Z</time>
      </trkpt>
      <trkpt lat="44.38074" lon="-0.0326">
        <ele>192.791575</ele>
        <time>2022-12-28T14:27:07.775Z</time>
      </trkpt>
      <trkpt lat="44.38069" lon="-0.0325">
        <ele>192.81342</ele>
        <time>2022-12-28T14:27:09.731Z</time>
      </trkpt>
      <trkpt lat="44.38062" lon="-0.03238">
        <ele>192.837737</ele>
        <time>2022-12-28T14:27:11.730Z</time>
      </trkpt>
      <trkpt lat="44.38056" lon="-0.03228">
        <ele>192.861322</ele>
        <time>2022-12-28T14:27:13.804Z</time>
      </trkpt>
      <trkpt lat="44.38048" lon="-0.03213">
        <ele>192.891983</ele>
        <time>2022-12-28T14:27:16.746Z</time>
      </trkpt>
      <trkpt lat="44.38043" lon="-0.03201">
        <ele>192.914628</ele>
        <time>2022-12-28T14:27:18.747Z</time>
      </trkpt>
      <trkpt lat="44.38037" lon="-0.03191">
        <ele>192.936667</ele>
        <time>2022-12-28T14:27:20.730Z</time>
      </trkpt>
      <trkpt lat="44.38031" lon="-0.03181">
        <ele>192.95948</ele>
        <time>2022-12-28T14:27:22.743Z</time>
      </trkpt>
      <trkpt lat="44.38024" lon="-0.0317">
        <ele>192.982735</ele>
        <time>2022-12-28T14:27:24.751Z</time>
      </trkpt>
      <trkpt lat="44.38016" lon="-0.03154">
        <ele>193.014872</ele>
        <time>2022-12-28T14:27:27.748Z</time>
      </trkpt>
      <trkpt lat="44.3801" lon="-0.03143">
        <ele>193.038352</ele>
        <time>2022-12-28T14:27:29.728Z</time>
      </trkpt>
      <trkpt lat="44.38004" lon="-0.03133">
        <ele>193.060602</ele>
        <time>2022-12-28T14:27:31.800Z</time>
      </trkpt>
      <trkpt lat="44.37998" lon="-0.03121">
        <ele>193.084214</ele>
        <time>2022-12-28T14:27:33.734Z</time>
      </trkpt>
      <trkpt lat="44.37992" lon="-0.0311">
        <ele>193.10835</ele>
        <time>2022-12-28T14:27:35.750Z</time>
      </trkpt>
      <trkpt lat="44.37986" lon="-0.03099">
        <ele>193.131149</ele>
        <time>2022-12-28T14:27:37.813Z</time>
      </trkpt>
      <trkpt lat="44.3798" lon="-0.03088">
        <ele>193.153659</ele>
        <time>2022-12-28T14:27:39.760Z</time>
      </trkpt>
      <trkpt lat="44.37974" lon="-0.03077">
        <ele>193.176341</ele>
        <time>2022-12-28T14:27:41.747Z</time>
      </trkpt>
      <trkpt lat="44.37969" lon="-0.03066">
        <ele>193.198987</ele>
        <time>2022-12-28T14:27:43.818Z</time>
      </trkpt>
      <trkpt lat="44.37963" lon="-0.03055">
        <ele>193.222039</ele>
        <time>2022-12-28T14:27:45.754Z</time>
      </trkpt>
      <trkpt lat="44.37957" lon="-0.03044">
        <ele>193.245145</ele>
        <time>2022-12-28T14:27:47.741Z</time>
      </trkpt>
      <trkpt lat="44.37951" lon="-0.03033">
        <ele>193.14944</ele>
        <time>2022-12-28T14:27:49.807Z</time>
      </trkpt>
      <trkpt lat="44.37945" lon="-0.03022">
        <ele>193.007088</ele>
        <time>2022-12-28T14:27:51.748Z</time>
      </trkpt>
      <trkpt lat="44.3794" lon="-0.03012">
        <ele>192.873911</ele>
        <time>2022-12-28T14:27:53.760Z</time>
      </trkpt>
      <trkpt lat="44.37934" lon="-0.03001">
        <ele>192.739946</ele>
        <time>2022-12-28T14:27:55.794Z</time>
      </trkpt>
      <trkpt lat="44.37929" lon="-0.0299">
        <ele>192.604309</ele>
        <time>2022-12-28T14:27:57.745Z</time>
      </trkpt>
      <trkpt lat="44.37924" lon="-0.0298">
        <ele>192.473612</ele>
        <time>2022-12-28T14:27:59.746Z</time>
      </trkpt>
      <trkpt lat="44.37916" lon="-0.02966">
        <ele>192.286427</ele>
        <time>2022-12-28T14:28:02.726Z</time>
      </trkpt>
      <trkpt lat="44.37908" lon="-0.02952">
        <ele>192.102127</ele>
        <time>2022-12-28T14:28:05.748Z</time>
      </trkpt>
      <trkpt lat="44.37902" lon="-0.02941">
        <ele>191.967993</ele>
        <time>2022-12-28T14:28:07.736Z</time>
      </trkpt>
      <trkpt lat="44.37896" lon="-0.02931">
        <ele>191.832047</ele>
        <time>2022-12-28T14:28:09.734Z</time>
      </trkpt>
      <trkpt lat="44.37891" lon="-0.0292">
        <ele>191.697979</ele>
        <time>2022-12-28T14:28:11.747Z</time>
      </trkpt>
      <trkpt lat="44.37885" lon="-0.0291">
        <ele>191.566118</ele>
        <time>2022-12-28T14:28:13.758Z</time>
      </trkpt>
      <trkpt lat="44.37879" lon="-0.02899">
        <ele>191.421954</ele>
        <time>2022-12-28T14:28:15.736Z</time>
      </trkpt>
      <trkpt lat="44.37872" lon="-0.02888">
        <ele>191.273583</ele>
        <time>2022-12-28T14:28:17.736Z</time>
      </trkpt>
      <trkpt lat="44.37866" lon="-0.02878">
        <ele>191.134434</ele>
        <time>2022-12-28T14:28:19.748Z</time>
      </trkpt>
      <trkpt lat="44.3786" lon="-0.02866">
        <ele>190.986952</ele>
        <time>2022-12-28T14:28:21.760Z</time>
      </trkpt>
      <trkpt lat="44.37854" lon="-0.02855">
        <ele>190.841274</ele>
        <time>2022-12-28T14:28:23.751Z</time>
      </trkpt>
      <trkpt lat="44.37848" lon="-0.02843">
        <ele>190.69047</ele>
        <time>2022-12-28T14:28:25.748Z</time>
      </trkpt>
      <trkpt lat="44.37841" lon="-0.02831">
        <ele>190.532451</ele>
        <time>2022-12-28T14:28:27.748Z</time>
      </trkpt>
      <trkpt lat="44.37835" lon="-0.0282">
        <ele>190.374885</ele>
        <time>2022-12-28T14:28:29.751Z</time>
      </trkpt>
      <trkpt lat="44.37828" lon="-0.02807">
        <ele>190.209541</ele>
        <time>2022-12-28T14:28:31.747Z</time>
      </trkpt>
      <trkpt lat="44.37822" lon="-0.02795">
        <ele>190.038081</ele>
        <time>2022-12-28T14:28:33.742Z</time>
      </trkpt>
      <trkpt lat="44.37815" lon="-0.02782">
        <ele>189.871642</ele>
        <time>2022-12-28T14:28:35.754Z</time>
      </trkpt>
      <trkpt lat="44.37808" lon="-0.0277">
        <ele>189.700967</ele>
        <time>2022-12-28T14:28:37.761Z</time>
      </trkpt>
      <trkpt lat="44.37801" lon="-0.02757">
        <ele>189.531066</ele>
        <time>2022-12-28T14:28:39.747Z</time>
      </trkpt>
      <trkpt lat="44.37794" lon="-0.02745">
        <ele>189.364713</ele>
        <time>2022-12-28T14:28:41.748Z</time>
      </trkpt>
      <trkpt lat="44.37788" lon="-0.02733">
        <ele>189.205482</ele>
        <time>2022-12-28T14:28:43.747Z</time>
      </trkpt>
      <trkpt lat="44.37781" lon="-0.02721">
        <ele>189.037513</ele>
        <time>2022-12-28T14:28:45.749Z</time>
      </trkpt>
      <trkpt lat="44.37775" lon="-0.02709">
        <ele>188.875554</ele>
        <time>2022-12-28T14:28:47.746Z</time>
      </trkpt>
      <trkpt lat="44.37768" lon="-0.02697">
        <ele>188.711938</ele>
        <time>2022-12-28T14:28:49.758Z</time>
      </trkpt>
      <trkpt lat="44.37762" lon="-0.02684">
        <ele>188.543101</ele>
        <time>2022-12-28T14:28:51.761Z</time>
      </trkpt>
      <trkpt lat="44.37755" lon="-0.02672">
        <ele>188.380392</ele>
        <time>2022-12-28T14:28:53.764Z</time>
      </trkpt>
      <trkpt lat="44.37749" lon="-0.02659">
        <ele>188.211529</ele>
        <time>2022-12-28T14:28:55.748Z</time>
      </trkpt>
      <trkpt lat="44.37742" lon="-0.02646">
        <ele>188.043563</ele>
        <time>2022-12-28T14:28:57.763Z</time>
      </trkpt>
      <trkpt lat="44.37735" lon="-0.02634">
        <ele>187.985819</ele>
        <time>2022-12-28T14:28:59.760Z</time>
      </trkpt>
      <trkpt lat="44.37729" lon="-0.02622">
        <ele>188.04401</ele>
        <time>2022-12-28T14:29:01.751Z</time>
      </trkpt>
      <trkpt lat="44.37722" lon="-0.02609">
        <ele>188.104108</ele>
        <time>2022-12-28T14:29:03.761Z</time>
      </trkpt>
      <trkpt lat="44.37715" lon="-0.02597">
        <ele>188.164803</ele>
        <time>2022-12-28T14:29:05.752Z</time>
      </trkpt>
      <trkpt lat="44.37709" lon="-0.02584">
        <ele>188.221754</ele>
        <time>2022-12-28T14:29:07.746Z</time>
      </trkpt>
      <trkpt lat="44.37703" lon="-0.02572">
        <ele>188.280301</ele>
        <time>2022-12-28T14:29:09.747Z</time>
      </trkpt>
      <trkpt lat="44.37697" lon="-0.02562">
        <ele>188.332499</ele>
        <time>2022-12-28T14:29:11.768Z</time>
      </trkpt>
      <trkpt lat="44.3769" lon="-0.0255">
        <ele>188.388946</ele>
        <time>2022-12-28T14:29:13.750Z</time>
      </trkpt>
      <trkpt lat="44.37685" lon="-0.0254">
        <ele>188.439579</ele>
        <time>2022-12-28T14:29:15.750Z</time>
      </trkpt>
      <trkpt lat="44.37677" lon="-0.02526">
        <ele>188.508489</ele>
        <time>2022-12-28T14:29:18.759Z</time>
      </trkpt>
      <trkpt lat="44.37669" lon="-0.02511">
        <ele>188.577684</ele>
        <time>2022-12-28T14:29:21.751Z</time>
      </trkpt>
      <trkpt lat="44.37661" lon="-0.02496">
        <ele>188.649696</ele>
        <time>2022-12-28T14:29:24.749Z</time>
      </trkpt>
      <trkpt lat="44.37653" lon="-0.02482">
        <ele>188.720518</ele>
        <time>2022-12-28T14:29:27.741Z</time>
      </trkpt>
      <trkpt lat="44.37645" lon="-0.02467">
        <ele>188.791949</ele>
        <time>2022-12-28T14:29:30.748Z</time>
      </trkpt>
      <trkpt lat="44.37637" lon="-0.02453">
        <ele>188.863685</ele>
        <time>2022-12-28T14:29:33.748Z</time>
      </trkpt>
      <trkpt lat="44.37629" lon="-0.02438">
        <ele>188.946479</ele>
        <time>2022-12-28T14:29:36.753Z</time>
      </trkpt>
      <trkpt lat="44.37624" lon="-0.02428">
        <ele>189.126979</ele>
        <time>2022-12-28T14:29:38.745Z</time>
      </trkpt>
      <trkpt lat="44.37617" lon="-0.02413">
        <ele>189.38673</ele>
        <time>2022-12-28T14:29:41.746Z</time>
      </trkpt>
      <trkpt lat="44.37611" lon="-0.02403">
        <ele>189.579035</ele>
        <time>2022-12-28T14:29:43.741Z</time>
      </trkpt>
      <trkpt lat="44.37603" lon="-0.02388">
        <ele>189.842199</ele>
        <time>2022-12-28T14:29:46.733Z</time>
      </trkpt>
      <trkpt lat="44.37595" lon="-0.02374">
        <ele>190.087847</ele>
        <time>2022-12-28T14:29:49.758Z</time>
      </trkpt>
      <trkpt lat="44.37588" lon="-0.02361">
        <ele>190.33244</ele>
        <time>2022-12-28T14:29:52.751Z</time>
      </trkpt>
      <trkpt lat="44.3758" lon="-0.02347">
        <ele>190.582996</ele>
        <time>2022-12-28T14:29:55.746Z</time>
      </trkpt>
      <trkpt lat="44.37573" lon="-0.02334">
        <ele>190.816004</ele>
        <time>2022-12-28T14:29:58.748Z</time>
      </trkpt>
      <trkpt lat="44.37566" lon="-0.02321">
        <ele>191.051097</ele>
        <time>2022-12-28T14:30:01.750Z</time>
      </trkpt>
      <trkpt lat="44.37559" lon="-0.02308">
        <ele>191.282731</ele>
        <time>2022-12-28T14:30:04.754Z</time>
      </trkpt>
      <trkpt lat="44.37552" lon="-0.02295">
        <ele>191.521482</ele>
        <time>2022-12-28T14:30:07.800Z</time>
      </trkpt>
      <trkpt lat="44.37545" lon="-0.02282">
        <ele>191.757877</ele>
        <time>2022-12-28T14:30:10.750Z</time>
      </trkpt>
      <trkpt lat="44.37537" lon="-0.02268">
        <ele>192.003604</ele>
        <time>2022-12-28T14:30:13.815Z</time>
      </trkpt>
      <trkpt lat="44.37531" lon="-0.02255">
        <ele>192.229416</ele>
        <time>2022-12-28T14:30:16.759Z</time>
      </trkpt>
      <trkpt lat="44.37524" lon="-0.02242">
        <ele>192.457522</ele>
        <time>2022-12-28T14:30:19.800Z</time>
      </trkpt>
      <trkpt lat="44.37518" lon="-0.0223">
        <ele>192.577508</ele>
        <time>2022-12-28T14:30:22.759Z</time>
      </trkpt>
      <trkpt lat="44.3751" lon="-0.02217">
        <ele>192.654164</ele>
        <time>2022-12-28T14:30:25.799Z</time>
      </trkpt>
      <trkpt lat="44.37504" lon="-0.02204">
        <ele>192.732677</ele>
        <time>2022-12-28T14:30:28.746Z</time>
      </trkpt>
      <trkpt lat="44.37496" lon="-0.02191">
        <ele>192.813597</ele>
        <time>2022-12-28T14:30:31.790Z</time>
      </trkpt>
      <trkpt lat="44.3749" lon="-0.02177">
        <ele>192.889921</ele>
        <time>2022-12-28T14:30:34.738Z</time>
      </trkpt>
      <trkpt lat="44.37484" lon="-0.02162">
        <ele>192.973112</ele>
        <time>2022-12-28T14:30:37.810Z</time>
      </trkpt>
      <trkpt lat="44.37476" lon="-0.02148">
        <ele>193.062038</ele>
        <time>2022-12-28T14:30:40.757Z</time>
      </trkpt>
      <trkpt lat="44.37467" lon="-0.02137">
        <ele>193.139495</ele>
        <time>2022-12-28T14:30:43.798Z</time>
      </trkpt>
      <trkpt lat="44.37459" lon="-0.02123">
        <ele>193.226158</ele>
        <time>2022-12-28T14:30:46.759Z</time>
      </trkpt>
      <trkpt lat="44.37451" lon="-0.0211">
        <ele>193.310296</ele>
        <time>2022-12-28T14:30:49.800Z</time>
      </trkpt>
      <trkpt lat="44.37443" lon="-0.02096">
        <ele>193.392844</ele>
        <time>2022-12-28T14:30:52.759Z</time>
      </trkpt>
      <trkpt lat="44.37435" lon="-0.02082">
        <ele>193.478447</ele>
        <time>2022-12-28T14:30:55.802Z</time>
      </trkpt>
      <trkpt lat="44.37428" lon="-0.02069">
        <ele>193.558197</ele>
        <time>2022-12-28T14:30:58.738Z</time>
      </trkpt>
      <trkpt lat="44.3742" lon="-0.02056">
        <ele>193.640326</ele>
        <time>2022-12-28T14:31:01.808Z</time>
      </trkpt>
      <trkpt lat="44.37415" lon="-0.02045">
        <ele>193.703629</ele>
        <time>2022-12-28T14:31:03.752Z</time>
      </trkpt>
      <trkpt lat="44.37407" lon="-0.02032">
        <ele>193.808957</ele>
        <time>2022-12-28T14:31:06.763Z</time>
      </trkpt>
      <trkpt lat="44.374" lon="-0.02018">
        <ele>193.93877</ele>
        <time>2022-12-28T14:31:09.750Z</time>
      </trkpt>
      <trkpt lat="44.37392" lon="-0.02004">
        <ele>194.06943</ele>
        <time>2022-12-28T14:31:12.745Z</time>
      </trkpt>
      <trkpt lat="44.37384" lon="-0.01992">
        <ele>194.187164</ele>
        <time>2022-12-28T14:31:15.749Z</time>
      </trkpt>
      <trkpt lat="44.37378" lon="-0.01982">
        <ele>194.286303</ele>
        <time>2022-12-28T14:31:17.752Z</time>
      </trkpt>
      <trkpt lat="44.37369" lon="-0.01969">
        <ele>194.422149</ele>
        <time>2022-12-28T14:31:20.735Z</time>
      </trkpt>
      <trkpt lat="44.37362" lon="-0.0196">
        <ele>194.517322</ele>
        <time>2022-12-28T14:31:22.759Z</time>
      </trkpt>
      <trkpt lat="44.37353" lon="-0.01947">
        <ele>194.652646</ele>
        <time>2022-12-28T14:31:25.752Z</time>
      </trkpt>
      <trkpt lat="44.37347" lon="-0.01937">
        <ele>194.749777</ele>
        <time>2022-12-28T14:31:27.739Z</time>
      </trkpt>
      <trkpt lat="44.3734" lon="-0.01928">
        <ele>194.843544</ele>
        <time>2022-12-28T14:31:29.749Z</time>
      </trkpt>
      <trkpt lat="44.37331" lon="-0.01915">
        <ele>194.980122</ele>
        <time>2022-12-28T14:31:32.761Z</time>
      </trkpt>
      <trkpt lat="44.37324" lon="-0.01907">
        <ele>195.076104</ele>
        <time>2022-12-28T14:31:34.748Z</time>
      </trkpt>
      <trkpt lat="44.37317" lon="-0.01898">
        <ele>195.17441</ele>
        <time>2022-12-28T14:31:36.735Z</time>
      </trkpt>
      <trkpt lat="44.3731" lon="-0.01888">
        <ele>195.271369</ele>
        <time>2022-12-28T14:31:38.746Z</time>
      </trkpt>
      <trkpt lat="44.37304" lon="-0.0188">
        <ele>195.365825</ele>
        <time>2022-12-28T14:31:40.801Z</time>
      </trkpt>
      <trkpt lat="44.37296" lon="-0.01871">
        <ele>195.466182</ele>
        <time>2022-12-28T14:31:42.749Z</time>
      </trkpt>
      <trkpt lat="44.37289" lon="-0.01861">
        <ele>195.568211</ele>
        <time>2022-12-28T14:31:44.747Z</time>
      </trkpt>
      <trkpt lat="44.37282" lon="-0.01851">
        <ele>195.517174</ele>
        <time>2022-12-28T14:31:46.812Z</time>
      </trkpt>
      <trkpt lat="44.37275" lon="-0.01842">
        <ele>195.415284</ele>
        <time>2022-12-28T14:31:48.760Z</time>
      </trkpt>
      <trkpt lat="44.37267" lon="-0.01832">
        <ele>195.306579</ele>
        <time>2022-12-28T14:31:50.750Z</time>
      </trkpt>
      <trkpt lat="44.3726" lon="-0.01823">
        <ele>195.204406</ele>
        <time>2022-12-28T14:31:52.761Z</time>
      </trkpt>
      <trkpt lat="44.37252" lon="-0.01813">
        <ele>195.098987</ele>
        <time>2022-12-28T14:31:54.762Z</time>
      </trkpt>
      <trkpt lat="44.37245" lon="-0.01804">
        <ele>194.993663</ele>
        <time>2022-12-28T14:31:56.764Z</time>
      </trkpt>
      <trkpt lat="44.37238" lon="-0.01795">
        <ele>194.892526</ele>
        <time>2022-12-28T14:31:58.746Z</time>
      </trkpt>
      <trkpt lat="44.37231" lon="-0.01785">
        <ele>194.790559</ele>
        <time>2022-12-28T14:32:00.733Z</time>
      </trkpt>
      <trkpt lat="44.37223" lon="-0.01776">
        <ele>194.689654</ele>
        <time>2022-12-28T14:32:02.745Z</time>
      </trkpt>
      <trkpt lat="44.37216" lon="-0.01768">
        <ele>194.592746</ele>
        <time>2022-12-28T14:32:04.761Z</time>
      </trkpt>
      <trkpt lat="44.37209" lon="-0.01758">
        <ele>194.493087</ele>
        <time>2022-12-28T14:32:06.745Z</time>
      </trkpt>
      <trkpt lat="44.37202" lon="-0.01749">
        <ele>194.391714</ele>
        <time>2022-12-28T14:32:08.749Z</time>
      </trkpt>
      <trkpt lat="44.37192" lon="-0.01736">
        <ele>194.249335</ele>
        <time>2022-12-28T14:32:11.753Z</time>
      </trkpt>
      <trkpt lat="44.37185" lon="-0.01727">
        <ele>194.15504</ele>
        <time>2022-12-28T14:32:13.761Z</time>
      </trkpt>
      <trkpt lat="44.37178" lon="-0.01719">
        <ele>194.055109</ele>
        <time>2022-12-28T14:32:15.803Z</time>
      </trkpt>
      <trkpt lat="44.37171" lon="-0.01709">
        <ele>193.953225</ele>
        <time>2022-12-28T14:32:17.754Z</time>
      </trkpt>
      <trkpt lat="44.37164" lon="-0.017">
        <ele>193.854088</ele>
        <time>2022-12-28T14:32:19.749Z</time>
      </trkpt>
      <trkpt lat="44.37157" lon="-0.0169">
        <ele>193.752965</ele>
        <time>2022-12-28T14:32:21.820Z</time>
      </trkpt>
      <trkpt lat="44.3715" lon="-0.01681">
        <ele>193.591951</ele>
        <time>2022-12-28T14:32:23.751Z</time>
      </trkpt>
      <trkpt lat="44.37143" lon="-0.01671">
        <ele>193.409844</ele>
        <time>2022-12-28T14:32:25.763Z</time>
      </trkpt>
      <trkpt lat="44.37135" lon="-0.01661">
        <ele>193.218088</ele>
        <time>2022-12-28T14:32:27.824Z</time>
      </trkpt>
      <trkpt lat="44.37127" lon="-0.01651">
        <ele>193.028041</ele>
        <time>2022-12-28T14:32:29.750Z</time>
      </trkpt>
      <trkpt lat="44.37119" lon="-0.01641">
        <ele>192.834939</ele>
        <time>2022-12-28T14:32:31.747Z</time>
      </trkpt>
      <trkpt lat="44.3711" lon="-0.01631">
        <ele>192.637499</ele>
        <time>2022-12-28T14:32:33.805Z</time>
      </trkpt>
      <trkpt lat="44.37102" lon="-0.0162">
        <ele>192.432593</ele>
        <time>2022-12-28T14:32:35.747Z</time>
      </trkpt>
      <trkpt lat="44.37094" lon="-0.01609">
        <ele>192.221981</ele>
        <time>2022-12-28T14:32:37.758Z</time>
      </trkpt>
      <trkpt lat="44.37085" lon="-0.01598">
        <ele>192.00651</ele>
        <time>2022-12-28T14:32:39.812Z</time>
      </trkpt>
      <trkpt lat="44.37076" lon="-0.01587">
        <ele>191.797217</ele>
        <time>2022-12-28T14:32:41.754Z</time>
      </trkpt>
      <trkpt lat="44.37068" lon="-0.01576">
        <ele>191.589236</ele>
        <time>2022-12-28T14:32:43.748Z</time>
      </trkpt>
      <trkpt lat="44.37059" lon="-0.01565">
        <ele>191.385618</ele>
        <time>2022-12-28T14:32:45.751Z</time>
      </trkpt>
      <trkpt lat="44.37051" lon="-0.01554">
        <ele>191.178072</ele>
        <time>2022-12-28T14:32:47.752Z</time>
      </trkpt>
      <trkpt lat="44.37042" lon="-0.01544">
        <ele>190.972928</ele>
        <time>2022-12-28T14:32:49.762Z</time>
      </trkpt>
      <trkpt lat="44.37033" lon="-0.01534">
        <ele>190.7642</ele>
        <time>2022-12-28T14:32:51.759Z</time>
      </trkpt>
      <trkpt lat="44.37025" lon="-0.01523">
        <ele>190.557977</ele>
        <time>2022-12-28T14:32:53.762Z</time>
      </trkpt>
      <trkpt lat="44.37016" lon="-0.01512">
        <ele>190.41378</ele>
        <time>2022-12-28T14:32:55.753Z</time>
      </trkpt>
      <trkpt lat="44.37007" lon="-0.01502">
        <ele>190.292598</ele>
        <time>2022-12-28T14:32:57.750Z</time>
      </trkpt>
      <trkpt lat="44.36999" lon="-0.01491">
        <ele>190.176336</ele>
        <time>2022-12-28T14:32:59.755Z</time>
      </trkpt>
      <trkpt lat="44.36991" lon="-0.0148">
        <ele>190.057341</ele>
        <time>2022-12-28T14:33:01.750Z</time>
      </trkpt>
      <trkpt lat="44.36982" lon="-0.01469">
        <ele>189.941584</ele>
        <time>2022-12-28T14:33:03.761Z</time>
      </trkpt>
      <trkpt lat="44.36974" lon="-0.01458">
        <ele>189.826566</ele>
        <time>2022-12-28T14:33:05.753Z</time>
      </trkpt>
      <trkpt lat="44.36966" lon="-0.01447">
        <ele>189.711811</ele>
        <time>2022-12-28T14:33:07.749Z</time>
      </trkpt>
      <trkpt lat="44.36959" lon="-0.01437">
        <ele>189.605374</ele>
        <time>2022-12-28T14:33:09.750Z</time>
      </trkpt>
      <trkpt lat="44.36951" lon="-0.01426">
        <ele>189.49058</ele>
        <time>2022-12-28T14:33:11.759Z</time>
      </trkpt>
      <trkpt lat="44.36942" lon="-0.01414">
        <ele>189.369586</ele>
        <time>2022-12-28T14:33:13.760Z</time>
      </trkpt>
      <trkpt lat="44.36934" lon="-0.01403">
        <ele>189.252336</ele>
        <time>2022-12-28T14:33:15.755Z</time>
      </trkpt>
      <trkpt lat="44.36926" lon="-0.01393">
        <ele>189.140574</ele>
        <time>2022-12-28T14:33:17.748Z</time>
      </trkpt>
      <trkpt lat="44.36915" lon="-0.01382">
        <ele>189.006261</ele>
        <time>2022-12-28T14:33:19.749Z</time>
      </trkpt>
      <trkpt lat="44.36907" lon="-0.01372">
        <ele>188.894454</ele>
        <time>2022-12-28T14:33:21.747Z</time>
      </trkpt>
      <trkpt lat="44.36899" lon="-0.01361">
        <ele>188.779443</ele>
        <time>2022-12-28T14:33:23.747Z</time>
      </trkpt>
      <trkpt lat="44.36891" lon="-0.01351">
        <ele>188.6659</ele>
        <time>2022-12-28T14:33:25.748Z</time>
      </trkpt>
      <trkpt lat="44.36883" lon="-0.01341">
        <ele>188.674007</ele>
        <time>2022-12-28T14:33:27.756Z</time>
      </trkpt>
      <trkpt lat="44.36874" lon="-0.01331">
        <ele>188.700691</ele>
        <time>2022-12-28T14:33:29.749Z</time>
      </trkpt>
      <trkpt lat="44.36866" lon="-0.01321">
        <ele>188.727794</ele>
        <time>2022-12-28T14:33:31.748Z</time>
      </trkpt>
      <trkpt lat="44.36859" lon="-0.01312">
        <ele>188.752287</ele>
        <time>2022-12-28T14:33:33.757Z</time>
      </trkpt>
      <trkpt lat="44.36851" lon="-0.01302">
        <ele>188.778699</ele>
        <time>2022-12-28T14:33:35.749Z</time>
      </trkpt>
      <trkpt lat="44.36842" lon="-0.01291">
        <ele>188.807857</ele>
        <time>2022-12-28T14:33:37.746Z</time>
      </trkpt>
      <trkpt lat="44.36834" lon="-0.01281">
        <ele>188.834906</ele>
        <time>2022-12-28T14:33:39.752Z</time>
      </trkpt>
      <trkpt lat="44.36827" lon="-0.0127">
        <ele>188.860927</ele>
        <time>2022-12-28T14:33:41.760Z</time>
      </trkpt>
      <trkpt lat="44.36819" lon="-0.0126">
        <ele>188.888082</ele>
        <time>2022-12-28T14:33:43.754Z</time>
      </trkpt>
      <trkpt lat="44.36811" lon="-0.0125">
        <ele>188.913965</ele>
        <time>2022-12-28T14:33:45.750Z</time>
      </trkpt>
      <trkpt lat="44.36803" lon="-0.01239">
        <ele>188.941186</ele>
        <time>2022-12-28T14:33:47.739Z</time>
      </trkpt>
      <trkpt lat="44.36795" lon="-0.0123">
        <ele>188.967103</ele>
        <time>2022-12-28T14:33:49.761Z</time>
      </trkpt>
      <trkpt lat="44.36788" lon="-0.01221">
        <ele>188.991899</ele>
        <time>2022-12-28T14:33:51.742Z</time>
      </trkpt>
      <trkpt lat="44.3678" lon="-0.01212">
        <ele>189.016373</ele>
        <time>2022-12-28T14:33:53.759Z</time>
      </trkpt>
      <trkpt lat="44.36772" lon="-0.01201">
        <ele>189.0442</ele>
        <time>2022-12-28T14:33:55.752Z</time>
      </trkpt>
      <trkpt lat="44.36764" lon="-0.01191">
        <ele>189.069539</ele>
        <time>2022-12-28T14:33:57.744Z</time>
      </trkpt>
      <trkpt lat="44.36756" lon="-0.01182">
        <ele>189.095504</ele>
        <time>2022-12-28T14:33:59.750Z</time>
      </trkpt>
      <trkpt lat="44.36749" lon="-0.01172">
        <ele>189.048013</ele>
        <time>2022-12-28T14:34:01.806Z</time>
      </trkpt>
      <trkpt lat="44.36741" lon="-0.01161">
        <ele>188.990729</ele>
        <time>2022-12-28T14:34:03.746Z</time>
      </trkpt>
      <trkpt lat="44.36733" lon="-0.01151">
        <ele>188.934198</ele>
        <time>2022-12-28T14:34:05.762Z</time>
      </trkpt>
      <trkpt lat="44.36725" lon="-0.01141">
        <ele>188.878803</ele>
        <time>2022-12-28T14:34:07.814Z</time>
      </trkpt>
      <trkpt lat="44.36716" lon="-0.01129">
        <ele>188.817906</ele>
        <time>2022-12-28T14:34:09.753Z</time>
      </trkpt>
      <trkpt lat="44.36708" lon="-0.01119">
        <ele>188.761011</ele>
        <time>2022-12-28T14:34:11.749Z</time>
      </trkpt>
      <trkpt lat="44.36699" lon="-0.01108">
        <ele>188.702109</ele>
        <time>2022-12-28T14:34:13.814Z</time>
      </trkpt>
      <trkpt lat="44.36692" lon="-0.01097">
        <ele>188.645814</ele>
        <time>2022-12-28T14:34:15.760Z</time>
      </trkpt>
      <trkpt lat="44.36683" lon="-0.01087">
        <ele>188.585305</ele>
        <time>2022-12-28T14:34:17.753Z</time>
      </trkpt>
      <trkpt lat="44.36674" lon="-0.01076">
        <ele>188.526156</ele>
        <time>2022-12-28T14:34:19.820Z</time>
      </trkpt>
      <trkpt lat="44.36665" lon="-0.01065">
        <ele>188.464224</ele>
        <time>2022-12-28T14:34:21.750Z</time>
      </trkpt>
      <trkpt lat="44.36656" lon="-0.01053">
        <ele>188.400065</ele>
        <time>2022-12-28T14:34:23.753Z</time>
      </trkpt>
      <trkpt lat="44.36647" lon="-0.01042">
        <ele>188.338412</ele>
        <time>2022-12-28T14:34:25.795Z</time>
      </trkpt>
      <trkpt lat="44.36638" lon="-0.0103">
        <ele>188.278262</ele>
        <time>2022-12-28T14:34:27.748Z</time>
      </trkpt>
      <trkpt lat="44.36629" lon="-0.01019">
        <ele>188.217099</ele>
        <time>2022-12-28T14:34:29.753Z</time>
      </trkpt>
      <trkpt lat="44.36621" lon="-0.01008">
        <ele>188.162849</ele>
        <time>2022-12-28T14:34:31.796Z</time>
      </trkpt>
      <trkpt lat="44.36613" lon="-0.00997">
        <ele>188.122773</ele>
        <time>2022-12-28T14:34:33.752Z</time>
      </trkpt>
      <trkpt lat="44.36603" lon="-0.00987">
        <ele>188.080014</ele>
        <time>2022-12-28T14:34:35.760Z</time>
      </trkpt>
      <trkpt lat="44.36595" lon="-0.00976">
        <ele>188.039174</ele>
        <time>2022-12-28T14:34:37.762Z</time>
      </trkpt>
      <trkpt lat="44.36586" lon="-0.00964">
        <ele>187.997817</ele>
        <time>2022-12-28T14:34:39.754Z</time>
      </trkpt>
      <trkpt lat="44.36578" lon="-0.00953">
        <ele>187.958171</ele>
        <time>2022-12-28T14:34:41.760Z</time>
      </trkpt>
      <trkpt lat="44.3657" lon="-0.00944">
        <ele>187.920494</ele>
        <time>2022-12-28T14:34:43.760Z</time>
      </trkpt>
      <trkpt lat="44.36561" lon="-0.00934">
        <ele>187.878952</ele>
        <time>2022-12-28T14:34:45.762Z</time>
      </trkpt>
      <trkpt lat="44.36552" lon="-0.00923">
        <ele>187.836937</ele>
        <time>2022-12-28T14:34:47.759Z</time>
      </trkpt>
      <trkpt lat="44.36543" lon="-0.00912">
        <ele>187.795827</ele>
        <time>2022-12-28T14:34:49.759Z</time>
      </trkpt>
      <trkpt lat="44.36534" lon="-0.00901">
        <ele>187.75421</ele>
        <time>2022-12-28T14:34:51.749Z</time>
      </trkpt>
      <trkpt lat="44.36526" lon="-0.0089">
        <ele>187.712593</ele>
        <time>2022-12-28T14:34:53.747Z</time>
      </trkpt>
      <trkpt lat="44.36517" lon="-0.00879">
        <ele>187.672529</ele>
        <time>2022-12-28T14:34:55.759Z</time>
      </trkpt>
      <trkpt lat="44.36509" lon="-0.00868">
        <ele>187.631603</ele>
        <time>2022-12-28T14:34:57.749Z</time>
      </trkpt>
      <trkpt lat="44.36501" lon="-0.00858">
        <ele>187.592221</ele>
        <time>2022-12-28T14:34:59.754Z</time>
      </trkpt>
      <trkpt lat="44.36492" lon="-0.00847">
        <ele>187.552328</ele>
        <time>2022-12-28T14:35:01.751Z</time>
      </trkpt>
      <trkpt lat="44.36484" lon="-0.00837">
        <ele>187.33117</ele>
        <time>2022-12-28T14:35:03.748Z</time>
      </trkpt>
      <trkpt lat="44.36475" lon="-0.00826">
        <ele>187.020658</ele>
        <time>2022-12-28T14:35:05.757Z</time>
      </trkpt>
      <trkpt lat="44.36467" lon="-0.00816">
        <ele>186.721981</ele>
        <time>2022-12-28T14:35:07.748Z</time>
      </trkpt>
      <trkpt lat="44.36459" lon="-0.00806">
        <ele>186.421595</ele>
        <time>2022-12-28T14:35:09.747Z</time>
      </trkpt>
      <trkpt lat="44.36451" lon="-0.00795">
        <ele>186.119206</ele>
        <time>2022-12-28T14:35:11.759Z</time>
      </trkpt>
      <trkpt lat="44.36443" lon="-0.00786">
        <ele>185.841454</ele>
        <time>2022-12-28T14:35:13.754Z</time>
      </trkpt>
      <trkpt lat="44.36435" lon="-0.00776">
        <ele>185.539065</ele>
        <time>2022-12-28T14:35:15.751Z</time>
      </trkpt>
      <trkpt lat="44.36427" lon="-0.00767">
        <ele>185.255814</ele>
        <time>2022-12-28T14:35:17.747Z</time>
      </trkpt>
      <trkpt lat="44.36419" lon="-0.00757">
        <ele>184.982105</ele>
        <time>2022-12-28T14:35:19.733Z</time>
      </trkpt>
      <trkpt lat="44.36411" lon="-0.00748">
        <ele>184.693707</ele>
        <time>2022-12-28T14:35:21.749Z</time>
      </trkpt>
      <trkpt lat="44.36404" lon="-0.00738">
        <ele>184.411995</ele>
        <time>2022-12-28T14:35:23.755Z</time>
      </trkpt>
      <trkpt lat="44.36396" lon="-0.00728">
        <ele>184.132299</ele>
        <time>2022-12-28T14:35:25.759Z</time>
      </trkpt>
      <trkpt lat="44.36389" lon="-0.00718">
        <ele>183.841256</ele>
        <time>2022-12-28T14:35:27.760Z</time>
      </trkpt>
      <trkpt lat="44.36381" lon="-0.00708">
        <ele>183.549524</ele>
        <time>2022-12-28T14:35:29.758Z</time>
      </trkpt>
      <trkpt lat="44.36374" lon="-0.00698">
        <ele>183.280267</ele>
        <time>2022-12-28T14:35:31.750Z</time>
      </trkpt>
      <trkpt lat="44.36367" lon="-0.00689">
        <ele>183.01893</ele>
        <time>2022-12-28T14:35:33.756Z</time>
      </trkpt>
      <trkpt lat="44.36359" lon="-0.00679">
        <ele>182.727188</ele>
        <time>2022-12-28T14:35:35.750Z</time>
      </trkpt>
      <trkpt lat="44.36351" lon="-0.00669">
        <ele>182.609347</ele>
        <time>2022-12-28T14:35:37.759Z</time>
      </trkpt>
      <trkpt lat="44.36341" lon="-0.00658">
        <ele>182.599568</ele>
        <time>2022-12-28T14:35:40.748Z</time>
      </trkpt>
      <trkpt lat="44.36333" lon="-0.00649">
        <ele>182.592312</ele>
        <time>2022-12-28T14:35:42.819Z</time>
      </trkpt>
      <trkpt lat="44.36326" lon="-0.00639">
        <ele>182.584795</ele>
        <time>2022-12-28T14:35:44.747Z</time>
      </trkpt>
      <trkpt lat="44.36316" lon="-0.00626">
        <ele>182.574788</ele>
        <time>2022-12-28T14:35:47.756Z</time>
      </trkpt>
      <trkpt lat="44.36309" lon="-0.00617">
        <ele>182.567974</ele>
        <time>2022-12-28T14:35:49.753Z</time>
      </trkpt>
      <trkpt lat="44.36302" lon="-0.00609">
        <ele>182.561314</ele>
        <time>2022-12-28T14:35:51.758Z</time>
      </trkpt>
      <trkpt lat="44.36295" lon="-0.00599">
        <ele>182.553931</ele>
        <time>2022-12-28T14:35:53.748Z</time>
      </trkpt>
      <trkpt lat="44.36288" lon="-0.00591">
        <ele>182.547173</ele>
        <time>2022-12-28T14:35:55.740Z</time>
      </trkpt>
      <trkpt lat="44.36281" lon="-0.00582">
        <ele>182.540131</ele>
        <time>2022-12-28T14:35:57.749Z</time>
      </trkpt>
      <trkpt lat="44.36273" lon="-0.00573">
        <ele>182.532883</ele>
        <time>2022-12-28T14:35:59.762Z</time>
      </trkpt>
      <trkpt lat="44.36266" lon="-0.00565">
        <ele>182.526215</ele>
        <time>2022-12-28T14:36:01.762Z</time>
      </trkpt>
      <trkpt lat="44.36259" lon="-0.00556">
        <ele>182.519546</ele>
        <time>2022-12-28T14:36:03.746Z</time>
      </trkpt>
      <trkpt lat="44.36252" lon="-0.00547">
        <ele>182.512557</ele>
        <time>2022-12-28T14:36:05.805Z</time>
      </trkpt>
      <trkpt lat="44.36245" lon="-0.00538">
        <ele>182.505514</ele>
        <time>2022-12-28T14:36:07.747Z</time>
      </trkpt>
      <trkpt lat="44.36235" lon="-0.00526">
        <ele>182.4958</ele>
        <time>2022-12-28T14:36:10.751Z</time>
      </trkpt>
      <trkpt lat="44.36229" lon="-0.00517">
        <ele>182.489051</ele>
        <time>2022-12-28T14:36:12.764Z</time>
      </trkpt>
      <trkpt lat="44.36222" lon="-0.00508">
        <ele>182.482326</ele>
        <time>2022-12-28T14:36:14.759Z</time>
      </trkpt>
      <trkpt lat="44.36212" lon="-0.00494">
        <ele>182.781649</ele>
        <time>2022-12-28T14:36:17.812Z</time>
      </trkpt>
      <trkpt lat="44.36203" lon="-0.00483">
        <ele>183.055213</ele>
        <time>2022-12-28T14:36:20.762Z</time>
      </trkpt>
      <trkpt lat="44.36194" lon="-0.00472">
        <ele>183.322673</ele>
        <time>2022-12-28T14:36:23.771Z</time>
      </trkpt>
      <trkpt lat="44.36186" lon="-0.00461">
        <ele>183.575848</ele>
        <time>2022-12-28T14:36:26.763Z</time>
      </trkpt>
      <trkpt lat="44.36177" lon="-0.0045">
        <ele>183.841629</ele>
        <time>2022-12-28T14:36:29.752Z</time>
      </trkpt>
      <trkpt lat="44.36168" lon="-0.00439">
        <ele>184.106369</ele>
        <time>2022-12-28T14:36:32.749Z</time>
      </trkpt>
      <trkpt lat="44.3616" lon="-0.00428">
        <ele>184.363384</ele>
        <time>2022-12-28T14:36:35.761Z</time>
      </trkpt>
      <trkpt lat="44.36151" lon="-0.00417">
        <ele>184.61788</ele>
        <time>2022-12-28T14:36:38.735Z</time>
      </trkpt>
      <trkpt lat="44.36143" lon="-0.00407">
        <ele>184.862966</ele>
        <time>2022-12-28T14:36:41.760Z</time>
      </trkpt>
      <trkpt lat="44.36134" lon="-0.00396">
        <ele>185.129194</ele>
        <time>2022-12-28T14:36:45.807Z</time>
      </trkpt>
      <trkpt lat="44.36125" lon="-0.00385">
        <ele>185.381284</ele>
        <time>2022-12-28T14:36:49.753Z</time>
      </trkpt>
      <trkpt lat="44.36118" lon="-0.00376">
        <ele>185.591647</ele>
        <time>2022-12-28T14:36:52.759Z</time>
      </trkpt>
      <trkpt lat="44.36111" lon="-0.00367">
        <ele>185.810144</ele>
        <time>2022-12-28T14:36:55.756Z</time>
      </trkpt>
      <trkpt lat="44.36104" lon="-0.00358">
        <ele>186.031978</ele>
        <time>2022-12-28T14:36:58.748Z</time>
      </trkpt>
      <trkpt lat="44.36097" lon="-0.00349">
        <ele>186.248373</ele>
        <time>2022-12-28T14:37:01.749Z</time>
      </trkpt>
      <trkpt lat="44.36089" lon="-0.0034">
        <ele>186.465402</ele>
        <time>2022-12-28T14:37:04.754Z</time>
      </trkpt>
      <trkpt lat="44.36082" lon="-0.0033">
        <ele>186.489787</ele>
        <time>2022-12-28T14:37:07.753Z</time>
      </trkpt>
      <trkpt lat="44.36074" lon="-0.0032">
        <ele>186.498134</ele>
        <time>2022-12-28T14:37:10.758Z</time>
      </trkpt>
      <trkpt lat="44.36067" lon="-0.00311">
        <ele>186.506581</ele>
        <time>2022-12-28T14:37:13.745Z</time>
      </trkpt>
      <trkpt lat="44.36059" lon="-0.00301">
        <ele>186.515035</ele>
        <time>2022-12-28T14:37:16.755Z</time>
      </trkpt>
      <trkpt lat="44.36051" lon="-0.00292">
        <ele>186.523629</ele>
        <time>2022-12-28T14:37:19.760Z</time>
      </trkpt>
      <trkpt lat="44.36043" lon="-0.00282">
        <ele>186.532459</ele>
        <time>2022-12-28T14:37:22.734Z</time>
      </trkpt>
      <trkpt lat="44.36035" lon="-0.00272">
        <ele>186.54127</ele>
        <time>2022-12-28T14:37:25.751Z</time>
      </trkpt>
      <trkpt lat="44.36027" lon="-0.00262">
        <ele>186.55012</ele>
        <time>2022-12-28T14:37:28.750Z</time>
      </trkpt>
      <trkpt lat="44.36019" lon="-0.00251">
        <ele>186.559474</ele>
        <time>2022-12-28T14:37:31.750Z</time>
      </trkpt>
      <trkpt lat="44.3601" lon="-0.0024">
        <ele>186.569148</ele>
        <time>2022-12-28T14:37:34.750Z</time>
      </trkpt>
      <trkpt lat="44.36001" lon="-0.00229">
        <ele>186.579002</ele>
        <time>2022-12-28T14:37:37.758Z</time>
      </trkpt>
      <trkpt lat="44.35993" lon="-0.00217">
        <ele>186.588977</ele>
        <time>2022-12-28T14:37:40.756Z</time>
      </trkpt>
      <trkpt lat="44.35983" lon="-0.00206">
        <ele>186.599054</ele>
        <time>2022-12-28T14:37:43.749Z</time>
      </trkpt>
      <trkpt lat="44.35974" lon="-0.00195">
        <ele>186.609531</ele>
        <time>2022-12-28T14:37:46.746Z</time>
      </trkpt>
      <trkpt lat="44.35964" lon="-0.00183">
        <ele>186.620337</ele>
        <time>2022-12-28T14:37:49.761Z</time>
      </trkpt>
      <trkpt lat="44.35954" lon="-0.0017">
        <ele>186.640515</ele>
        <time>2022-12-28T14:37:52.764Z</time>
      </trkpt>
      <trkpt lat="44.35944" lon="-0.00158">
        <ele>186.775624</ele>
        <time>2022-12-28T14:37:55.749Z</time>
      </trkpt>
      <trkpt lat="44.35937" lon="-0.00149">
        <ele>186.870352</ele>
        <time>2022-12-28T14:37:57.761Z</time>
      </trkpt>
      <trkpt lat="44.3593" lon="-0.0014">
        <ele>186.960708</ele>
        <time>2022-12-28T14:37:59.806Z</time>
      </trkpt>
      <trkpt lat="44.35923" lon="-0.00131">
        <ele>187.05349</ele>
        <time>2022-12-28T14:38:01.751Z</time>
      </trkpt>
      <trkpt lat="44.35916" lon="-0.00123">
        <ele>187.14416</ele>
        <time>2022-12-28T14:38:03.735Z</time>
      </trkpt>
      <trkpt lat="44.35907" lon="-0.0011">
        <ele>187.277022</ele>
        <time>2022-12-28T14:38:06.758Z</time>
      </trkpt>
      <trkpt lat="44.35897" lon="-0.00097">
        <ele>187.411857</ele>
        <time>2022-12-28T14:38:09.765Z</time>
      </trkpt>
      <trkpt lat="44.35889" lon="-0.00089">
        <ele>187.504252</ele>
        <time>2022-12-28T14:38:11.804Z</time>
      </trkpt>
      <trkpt lat="44.35882" lon="-0.0008">
        <ele>187.599226</ele>
        <time>2022-12-28T14:38:13.755Z</time>
      </trkpt>
      <trkpt lat="44.35875" lon="-0.00071">
        <ele>187.696693</ele>
        <time>2022-12-28T14:38:15.741Z</time>
      </trkpt>
      <trkpt lat="44.35868" lon="-0.00061">
        <ele>187.795367</ele>
        <time>2022-12-28T14:38:17.819Z</time>
      </trkpt>
      <trkpt lat="44.35861" lon="-0.00052">
        <ele>187.893265</ele>
        <time>2022-12-28T14:38:19.762Z</time>
      </trkpt>
      <trkpt lat="44.35854" lon="-0.00043">
        <ele>187.991257</ele>
        <time>2022-12-28T14:38:21.752Z</time>
      </trkpt>
      <trkpt lat="44.35846" lon="-0.00034">
        <ele>188.087938</ele>
        <time>2022-12-28T14:38:23.816Z</time>
      </trkpt>
      <trkpt lat="44.35839" lon="-0.00024">
        <ele>188.188271</ele>
        <time>2022-12-28T14:38:25.762Z</time>
      </trkpt>
      <trkpt lat="44.35831" lon="-0.00014">
        <ele>188.293208</ele>
        <time>2022-12-28T14:38:27.751Z</time>
      </trkpt>
      <trkpt lat="44.35824" lon="-4.0E-5">
        <ele>188.396442</ele>
        <time>2022-12-28T14:38:29.816Z</time>
      </trkpt>
      <trkpt lat="44.35816" lon="5.0E-5">
        <ele>188.430008</ele>
        <time>2022-12-28T14:38:31.760Z</time>
      </trkpt>
      <trkpt lat="44.35807" lon="0.00016">
        <ele>188.44235</ele>
        <time>2022-12-28T14:38:33.751Z</time>
      </trkpt>
      <trkpt lat="44.358" lon="0.00026">
        <ele>188.45306</ele>
        <time>2022-12-28T14:38:35.819Z</time>
      </trkpt>
      <trkpt lat="44.35792" lon="0.00035">
        <ele>188.464242</ele>
        <time>2022-12-28T14:38:37.761Z</time>
      </trkpt>
      <trkpt lat="44.35784" lon="0.00044">
        <ele>188.474441</ele>
        <time>2022-12-28T14:38:39.750Z</time>
      </trkpt>
      <trkpt lat="44.35777" lon="0.00054">
        <ele>188.484869</ele>
        <time>2022-12-28T14:38:41.822Z</time>
      </trkpt>
      <trkpt lat="44.3577" lon="0.00062">
        <ele>188.495045</ele>
        <time>2022-12-28T14:38:43.750Z</time>
      </trkpt>
      <trkpt lat="44.35763" lon="0.00071">
        <ele>188.504739</ele>
        <time>2022-12-28T14:38:45.761Z</time>
      </trkpt>
      <trkpt lat="44.35755" lon="0.00081">
        <ele>188.515277</ele>
        <time>2022-12-28T14:38:47.732Z</time>
      </trkpt>
      <trkpt lat="44.35748" lon="0.0009">
        <ele>188.525595</ele>
        <time>2022-12-28T14:38:49.761Z</time>
      </trkpt>
      <trkpt lat="44.35741" lon="0.00099">
        <ele>188.535716</ele>
        <time>2022-12-28T14:38:51.731Z</time>
      </trkpt>
      <trkpt lat="44.35733" lon="0.00108">
        <ele>188.546228</ele>
        <time>2022-12-28T14:38:53.753Z</time>
      </trkpt>
      <trkpt lat="44.35726" lon="0.00117">
        <ele>188.555687</ele>
        <time>2022-12-28T14:38:55.754Z</time>
      </trkpt>
      <trkpt lat="44.35719" lon="0.00126">
        <ele>188.566534</ele>
        <time>2022-12-28T14:38:57.764Z</time>
      </trkpt>
      <trkpt lat="44.35712" lon="0.00136">
        <ele>188.577105</ele>
        <time>2022-12-28T14:38:59.761Z</time>
      </trkpt>
      <trkpt lat="44.35705" lon="0.00146">
        <ele>188.587623</ele>
        <time>2022-12-28T14:39:01.754Z</time>
      </trkpt>
      <trkpt lat="44.35698" lon="0.00157">
        <ele>188.598341</ele>
        <time>2022-12-28T14:39:03.760Z</time>
      </trkpt>
      <trkpt lat="44.35691" lon="0.00168">
        <ele>188.608888</ele>
        <time>2022-12-28T14:39:05.755Z</time>
      </trkpt>
      <trkpt lat="44.35685" lon="0.00178">
        <ele>188.554089</ele>
        <time>2022-12-28T14:39:07.755Z</time>
      </trkpt>
      <trkpt lat="44.35677" lon="0.00191">
        <ele>188.478434</ele>
        <time>2022-12-28T14:39:09.761Z</time>
      </trkpt>
      <trkpt lat="44.35671" lon="0.00202">
        <ele>188.410821</ele>
        <time>2022-12-28T14:39:11.757Z</time>
      </trkpt>
      <trkpt lat="44.35665" lon="0.00214">
        <ele>188.341723</ele>
        <time>2022-12-28T14:39:13.761Z</time>
      </trkpt>
      <trkpt lat="44.35659" lon="0.00226">
        <ele>188.272655</ele>
        <time>2022-12-28T14:39:15.763Z</time>
      </trkpt>
      <trkpt lat="44.35652" lon="0.00238">
        <ele>188.201297</ele>
        <time>2022-12-28T14:39:17.755Z</time>
      </trkpt>
      <trkpt lat="44.35647" lon="0.00251">
        <ele>188.129783</ele>
        <time>2022-12-28T14:39:19.740Z</time>
      </trkpt>
      <trkpt lat="44.35641" lon="0.00263">
        <ele>188.060714</ele>
        <time>2022-12-28T14:39:21.760Z</time>
      </trkpt>
      <trkpt lat="44.35634" lon="0.00275">
        <ele>187.989356</ele>
        <time>2022-12-28T14:39:23.751Z</time>
      </trkpt>
      <trkpt lat="44.35628" lon="0.00288">
        <ele>187.917224</ele>
        <time>2022-12-28T14:39:25.754Z</time>
      </trkpt>
      <trkpt lat="44.35622" lon="0.003">
        <ele>187.844719</ele>
        <time>2022-12-28T14:39:27.760Z</time>
      </trkpt>
      <trkpt lat="44.35616" lon="0.00311">
        <ele>187.779403</ele>
        <time>2022-12-28T14:39:29.749Z</time>
      </trkpt>
      <trkpt lat="44.35609" lon="0.00324">
        <ele>187.70573</ele>
        <time>2022-12-28T14:39:31.761Z</time>
      </trkpt>
      <trkpt lat="44.35603" lon="0.00336">
        <ele>187.633184</ele>
        <time>2022-12-28T14:39:33.758Z</time>
      </trkpt>
      <trkpt lat="44.35596" lon="0.00347">
        <ele>187.563892</ele>
        <time>2022-12-28T14:39:35.731Z</time>
      </trkpt>
      <trkpt lat="44.35589" lon="0.0036">
        <ele>187.489086</ele>
        <time>2022-12-28T14:39:37.772Z</time>
      </trkpt>
      <trkpt lat="44.35583" lon="0.00373">
        <ele>187.41921</ele>
        <time>2022-12-28T14:39:39.759Z</time>
      </trkpt>
      <trkpt lat="44.35576" lon="0.00388">
        <ele>187.371747</ele>
        <time>2022-12-28T14:39:41.752Z</time>
      </trkpt>
      <trkpt lat="44.35569" lon="0.004">
        <ele>187.325923</ele>
        <time>2022-12-28T14:39:43.761Z</time>
      </trkpt>
      <trkpt lat="44.35563" lon="0.00413">
        <ele>187.282228</ele>
        <time>2022-12-28T14:39:45.764Z</time>
      </trkpt>
      <trkpt lat="44.35556" lon="0.00425">
        <ele>187.240384</ele>
        <time>2022-12-28T14:39:47.761Z</time>
      </trkpt>
      <trkpt lat="44.3555" lon="0.00438">
        <ele>187.195802</ele>
        <time>2022-12-28T14:39:49.774Z</time>
      </trkpt>
      <trkpt lat="44.35543" lon="0.00451">
        <ele>187.151463</ele>
        <time>2022-12-28T14:39:51.760Z</time>
      </trkpt>
      <trkpt lat="44.35537" lon="0.00462">
        <ele>187.111191</ele>
        <time>2022-12-28T14:39:53.758Z</time>
      </trkpt>
      <trkpt lat="44.35532" lon="0.00474">
        <ele>187.073571</ele>
        <time>2022-12-28T14:39:55.806Z</time>
      </trkpt>
      <trkpt lat="44.35525" lon="0.00485">
        <ele>187.033685</ele>
        <time>2022-12-28T14:39:57.761Z</time>
      </trkpt>
      <trkpt lat="44.3552" lon="0.00496">
        <ele>186.997957</ele>
        <time>2022-12-28T14:39:59.749Z</time>
      </trkpt>
      <trkpt lat="44.35513" lon="0.00507">
        <ele>186.956889</ele>
        <time>2022-12-28T14:40:01.816Z</time>
      </trkpt>
      <trkpt lat="44.35507" lon="0.00518">
        <ele>186.917958</ele>
        <time>2022-12-28T14:40:03.757Z</time>
      </trkpt>
      <trkpt lat="44.355" lon="0.0053">
        <ele>186.871203</ele>
        <time>2022-12-28T14:40:06.758Z</time>
      </trkpt>
      <trkpt lat="44.35491" lon="0.00544">
        <ele>186.820348</ele>
        <time>2022-12-28T14:40:09.758Z</time>
      </trkpt>
      <trkpt lat="44.35484" lon="0.00553">
        <ele>186.782888</ele>
        <time>2022-12-28T14:40:11.763Z</time>
      </trkpt>
      <trkpt lat="44.35477" lon="0.00563">
        <ele>186.743808</ele>
        <time>2022-12-28T14:40:13.754Z</time>
      </trkpt>
      <trkpt lat="44.35467" lon="0.00575">
        <ele>186.865155</ele>
        <time>2022-12-28T14:40:16.757Z</time>
      </trkpt>
      <trkpt lat="44.35457" lon="0.00587">
        <ele>187.138318</ele>
        <time>2022-12-28T14:40:19.741Z</time>
      </trkpt>
      <trkpt lat="44.35447" lon="0.00598">
        <ele>187.393155</ele>
        <time>2022-12-28T14:40:22.761Z</time>
      </trkpt>
      <trkpt lat="44.35438" lon="0.00608">
        <ele>187.644634</ele>
        <time>2022-12-28T14:40:25.753Z</time>
      </trkpt>
      <trkpt lat="44.35428" lon="0.00618">
        <ele>187.894327</ele>
        <time>2022-12-28T14:40:28.762Z</time>
      </trkpt>
      <trkpt lat="44.35418" lon="0.00626">
        <ele>188.122232</ele>
        <time>2022-12-28T14:40:31.753Z</time>
      </trkpt>
      <trkpt lat="44.35408" lon="0.00634">
        <ele>188.36046</ele>
        <time>2022-12-28T14:40:34.750Z</time>
      </trkpt>
      <trkpt lat="44.35399" lon="0.00642">
        <ele>188.587751</ele>
        <time>2022-12-28T14:40:37.761Z</time>
      </trkpt>
      <trkpt lat="44.35389" lon="0.0065">
        <ele>188.819876</ele>
        <time>2022-12-28T14:40:40.755Z</time>
      </trkpt>
      <trkpt lat="44.35379" lon="0.00658">
        <ele>189.06506</ele>
        <time>2022-12-28T14:40:43.745Z</time>
      </trkpt>
      <trkpt lat="44.35369" lon="0.00667">
        <ele>189.294699</ele>
        <time>2022-12-28T14:40:46.754Z</time>
      </trkpt>
      <trkpt lat="44.35361" lon="0.00675">
        <ele>189.506648</ele>
        <time>2022-12-28T14:40:49.752Z</time>
      </trkpt>
      <trkpt lat="44.35353" lon="0.00683">
        <ele>189.716003</ele>
        <time>2022-12-28T14:40:52.737Z</time>
      </trkpt>
      <trkpt lat="44.35344" lon="0.00691">
        <ele>189.926046</ele>
        <time>2022-12-28T14:40:55.751Z</time>
      </trkpt>
      <trkpt lat="44.35335" lon="0.00698">
        <ele>190.140261</ele>
        <time>2022-12-28T14:40:58.736Z</time>
      </trkpt>
      <trkpt lat="44.35326" lon="0.00705">
        <ele>190.348333</ele>
        <time>2022-12-28T14:41:01.750Z</time>
      </trkpt>
      <trkpt lat="44.35319" lon="0.00713">
        <ele>190.43254</ele>
        <time>2022-12-28T14:41:04.750Z</time>
      </trkpt>
      <trkpt lat="44.35311" lon="0.00723">
        <ele>190.44825</ele>
        <time>2022-12-28T14:41:07.746Z</time>
      </trkpt>
      <trkpt lat="44.35306" lon="0.00737">
        <ele>190.46507</ele>
        <time>2022-12-28T14:41:11.761Z</time>
      </trkpt>
      <trkpt lat="44.35298" lon="0.0075">
        <ele>190.482923</ele>
        <time>2022-12-28T14:41:15.741Z</time>
      </trkpt>
      <trkpt lat="44.35293" lon="0.00763">
        <ele>190.499481</ele>
        <time>2022-12-28T14:41:18.754Z</time>
      </trkpt>
      <trkpt lat="44.35286" lon="0.00778">
        <ele>190.518393</ele>
        <time>2022-12-28T14:41:21.762Z</time>
      </trkpt>
      <trkpt lat="44.35282" lon="0.00794">
        <ele>190.536139</ele>
        <time>2022-12-28T14:41:24.751Z</time>
      </trkpt>
      <trkpt lat="44.35278" lon="0.00808">
        <ele>190.552219</ele>
        <time>2022-12-28T14:41:27.749Z</time>
      </trkpt>
      <trkpt lat="44.35276" lon="0.00822">
        <ele>190.56761</ele>
        <time>2022-12-28T14:41:30.751Z</time>
      </trkpt>
      <trkpt lat="44.35274" lon="0.00835">
        <ele>190.581753</ele>
        <time>2022-12-28T14:41:33.761Z</time>
      </trkpt>
      <trkpt lat="44.35272" lon="0.00848">
        <ele>190.596341</ele>
        <time>2022-12-28T14:41:36.760Z</time>
      </trkpt>
      <trkpt lat="44.3527" lon="0.00863">
        <ele>190.612303</ele>
        <time>2022-12-28T14:41:39.744Z</time>
      </trkpt>
      <trkpt lat="44.35268" lon="0.00877">
        <ele>190.628535</ele>
        <time>2022-12-28T14:41:42.758Z</time>
      </trkpt>
      <trkpt lat="44.35266" lon="0.00893">
        <ele>190.645609</ele>
        <time>2022-12-28T14:41:45.753Z</time>
      </trkpt>
      <trkpt lat="44.35264" lon="0.00909">
        <ele>190.663344</ele>
        <time>2022-12-28T14:41:48.750Z</time>
      </trkpt>
      <trkpt lat="44.35261" lon="0.00926">
        <ele>190.682011</ele>
        <time>2022-12-28T14:41:51.753Z</time>
      </trkpt>
      <trkpt lat="44.35258" lon="0.00943">
        <ele>190.714387</ele>
        <time>2022-12-28T14:41:54.750Z</time>
      </trkpt>
      <trkpt lat="44.35255" lon="0.0096">
        <ele>190.766967</ele>
        <time>2022-12-28T14:41:57.752Z</time>
      </trkpt>
      <trkpt lat="44.35251" lon="0.00974">
        <ele>190.816108</ele>
        <time>2022-12-28T14:42:00.740Z</time>
      </trkpt>
      <trkpt lat="44.35247" lon="0.00987">
        <ele>190.85944</ele>
        <time>2022-12-28T14:42:03.751Z</time>
      </trkpt>
      <trkpt lat="44.35241" lon="0.01">
        <ele>190.907865</ele>
        <time>2022-12-28T14:42:06.826Z</time>
      </trkpt>
      <trkpt lat="44.35234" lon="0.01013">
        <ele>190.959076</ele>
        <time>2022-12-28T14:42:09.748Z</time>
      </trkpt>
      <trkpt lat="44.3523" lon="0.01028">
        <ele>191.008199</ele>
        <time>2022-12-28T14:42:12.815Z</time>
      </trkpt>
      <trkpt lat="44.35227" lon="0.01044">
        <ele>191.059603</ele>
        <time>2022-12-28T14:42:15.761Z</time>
      </trkpt>
      <trkpt lat="44.35224" lon="0.01059">
        <ele>191.10909</ele>
        <time>2022-12-28T14:42:18.847Z</time>
      </trkpt>
      <trkpt lat="44.35224" lon="0.01075">
        <ele>191.156838</ele>
        <time>2022-12-28T14:42:21.753Z</time>
      </trkpt>
      <trkpt lat="44.35222" lon="0.01089">
        <ele>191.202466</ele>
        <time>2022-12-28T14:42:24.731Z</time>
      </trkpt>
      <trkpt lat="44.3522" lon="0.01105">
        <ele>191.253076</ele>
        <time>2022-12-28T14:42:27.763Z</time>
      </trkpt>
      <trkpt lat="44.35218" lon="0.01121">
        <ele>191.303518</ele>
        <time>2022-12-28T14:42:30.755Z</time>
      </trkpt>
      <trkpt lat="44.35218" lon="0.01138">
        <ele>191.355234</ele>
        <time>2022-12-28T14:42:33.753Z</time>
      </trkpt>
      <trkpt lat="44.35218" lon="0.01154">
        <ele>191.406622</ele>
        <time>2022-12-28T14:42:36.734Z</time>
      </trkpt>
      <trkpt lat="44.35216" lon="0.01171">
        <ele>191.458604</ele>
        <time>2022-12-28T14:42:39.763Z</time>
      </trkpt>
      <trkpt lat="44.35213" lon="0.01189">
        <ele>191.409197</ele>
        <time>2022-12-28T14:42:42.763Z</time>
      </trkpt>
      <trkpt lat="44.35213" lon="0.01202">
        <ele>191.337425</ele>
        <time>2022-12-28T14:42:44.731Z</time>
      </trkpt>
      <trkpt lat="44.35213" lon="0.01221">
        <ele>191.235903</ele>
        <time>2022-12-28T14:42:47.757Z</time>
      </trkpt>
      <trkpt lat="44.35212" lon="0.01239">
        <ele>191.136324</ele>
        <time>2022-12-28T14:42:50.763Z</time>
      </trkpt>
      <trkpt lat="44.35211" lon="0.01258">
        <ele>191.036924</ele>
        <time>2022-12-28T14:42:53.753Z</time>
      </trkpt>
      <trkpt lat="44.3521" lon="0.0127">
        <ele>190.968424</ele>
        <time>2022-12-28T14:42:55.755Z</time>
      </trkpt>
      <trkpt lat="44.35209" lon="0.01288">
        <ele>190.870514</ele>
        <time>2022-12-28T14:42:58.791Z</time>
      </trkpt>
      <trkpt lat="44.35208" lon="0.01306">
        <ele>190.774638</ele>
        <time>2022-12-28T14:43:01.750Z</time>
      </trkpt>
      <trkpt lat="44.35207" lon="0.01323">
        <ele>190.680175</ele>
        <time>2022-12-28T14:43:04.750Z</time>
      </trkpt>
      <trkpt lat="44.35207" lon="0.01342">
        <ele>190.58081</ele>
        <time>2022-12-28T14:43:07.757Z</time>
      </trkpt>
      <trkpt lat="44.35206" lon="0.01355">
        <ele>190.51194</ele>
        <time>2022-12-28T14:43:09.815Z</time>
      </trkpt>
      <trkpt lat="44.35204" lon="0.01374">
        <ele>190.408192</ele>
        <time>2022-12-28T14:43:12.760Z</time>
      </trkpt>
      <trkpt lat="44.35204" lon="0.01388">
        <ele>190.332088</ele>
        <time>2022-12-28T14:43:14.761Z</time>
      </trkpt>
      <trkpt lat="44.35203" lon="0.01401">
        <ele>190.259301</ele>
        <time>2022-12-28T14:43:16.750Z</time>
      </trkpt>
      <trkpt lat="44.35201" lon="0.01416">
        <ele>190.179005</ele>
        <time>2022-12-28T14:43:18.749Z</time>
      </trkpt>
      <trkpt lat="44.35201" lon="0.0143">
        <ele>190.112406</ele>
        <time>2022-12-28T14:43:20.756Z</time>
      </trkpt>
      <trkpt lat="44.352" lon="0.01444">
        <ele>190.081613</ele>
        <time>2022-12-28T14:43:22.734Z</time>
      </trkpt>
      <trkpt lat="44.35199" lon="0.01458">
        <ele>190.051589</ele>
        <time>2022-12-28T14:43:24.736Z</time>
      </trkpt>
      <trkpt lat="44.35198" lon="0.01471">
        <ele>190.02221</ele>
        <time>2022-12-28T14:43:26.792Z</time>
      </trkpt>
      <trkpt lat="44.35197" lon="0.01484">
        <ele>189.994029</ele>
        <time>2022-12-28T14:43:28.755Z</time>
      </trkpt>
      <trkpt lat="44.35196" lon="0.01497">
        <ele>189.96534</ele>
        <time>2022-12-28T14:43:30.760Z</time>
      </trkpt>
      <trkpt lat="44.35194" lon="0.0151">
        <ele>189.93577</ele>
        <time>2022-12-28T14:43:32.759Z</time>
      </trkpt>
      <trkpt lat="44.35192" lon="0.01524">
        <ele>189.904259</ele>
        <time>2022-12-28T14:43:34.751Z</time>
      </trkpt>
      <trkpt lat="44.3519" lon="0.01539">
        <ele>189.871668</ele>
        <time>2022-12-28T14:43:36.758Z</time>
      </trkpt>
      <trkpt lat="44.35188" lon="0.01554">
        <ele>189.839441</ele>
        <time>2022-12-28T14:43:38.747Z</time>
      </trkpt>
      <trkpt lat="44.35186" lon="0.01568">
        <ele>189.807646</ele>
        <time>2022-12-28T14:43:40.739Z</time>
      </trkpt>
      <trkpt lat="44.35184" lon="0.01583">
        <ele>189.774466</ele>
        <time>2022-12-28T14:43:42.759Z</time>
      </trkpt>
      <trkpt lat="44.35181" lon="0.01597">
        <ele>189.742269</ele>
        <time>2022-12-28T14:43:44.751Z</time>
      </trkpt>
      <trkpt lat="44.35179" lon="0.01611">
        <ele>189.710256</ele>
        <time>2022-12-28T14:43:46.758Z</time>
      </trkpt>
      <trkpt lat="44.35176" lon="0.01625">
        <ele>189.677611</ele>
        <time>2022-12-28T14:43:48.754Z</time>
      </trkpt>
      <trkpt lat="44.35173" lon="0.01639">
        <ele>189.646377</ele>
        <time>2022-12-28T14:43:50.765Z</time>
      </trkpt>
      <trkpt lat="44.35171" lon="0.01653">
        <ele>189.614981</ele>
        <time>2022-12-28T14:43:52.741Z</time>
      </trkpt>
      <trkpt lat="44.35168" lon="0.01667">
        <ele>189.584608</ele>
        <time>2022-12-28T14:43:54.763Z</time>
      </trkpt>
      <trkpt lat="44.35165" lon="0.0168">
        <ele>189.602803</ele>
        <time>2022-12-28T14:43:56.742Z</time>
      </trkpt>
      <trkpt lat="44.35162" lon="0.01693">
        <ele>189.671457</ele>
        <time>2022-12-28T14:43:58.762Z</time>
      </trkpt>
      <trkpt lat="44.35159" lon="0.01706">
        <ele>189.737804</ele>
        <time>2022-12-28T14:44:00.764Z</time>
      </trkpt>
      <trkpt lat="44.35156" lon="0.01719">
        <ele>189.804229</ele>
        <time>2022-12-28T14:44:02.758Z</time>
      </trkpt>
      <trkpt lat="44.35153" lon="0.01731">
        <ele>189.86992</ele>
        <time>2022-12-28T14:44:04.761Z</time>
      </trkpt>
      <trkpt lat="44.35149" lon="0.01744">
        <ele>189.939161</ele>
        <time>2022-12-28T14:44:06.752Z</time>
      </trkpt>
      <trkpt lat="44.35145" lon="0.01757">
        <ele>190.007872</ele>
        <time>2022-12-28T14:44:08.750Z</time>
      </trkpt>
      <trkpt lat="44.35142" lon="0.0177">
        <ele>190.074442</ele>
        <time>2022-12-28T14:44:10.736Z</time>
      </trkpt>
      <trkpt lat="44.35138" lon="0.01783">
        <ele>190.142861</ele>
        <time>2022-12-28T14:44:12.751Z</time>
      </trkpt>
      <trkpt lat="44.35135" lon="0.01796">
        <ele>190.207594</ele>
        <time>2022-12-28T14:44:14.761Z</time>
      </trkpt>
      <trkpt lat="44.35131" lon="0.01813">
        <ele>190.297946</ele>
        <time>2022-12-28T14:44:17.750Z</time>
      </trkpt>
      <trkpt lat="44.35127" lon="0.0183">
        <ele>190.384363</ele>
        <time>2022-12-28T14:44:20.757Z</time>
      </trkpt>
      <trkpt lat="44.35123" lon="0.01847">
        <ele>190.471675</ele>
        <time>2022-12-28T14:44:23.763Z</time>
      </trkpt>
      <trkpt lat="44.35119" lon="0.01864">
        <ele>190.558748</ele>
        <time>2022-12-28T14:44:26.758Z</time>
      </trkpt>
      <trkpt lat="44.35114" lon="0.0188">
        <ele>190.646098</ele>
        <time>2022-12-28T14:44:29.756Z</time>
      </trkpt>
      <trkpt lat="44.35109" lon="0.01897">
        <ele>190.735774</ele>
        <time>2022-12-28T14:44:32.762Z</time>
      </trkpt>
      <trkpt lat="44.35106" lon="0.0191">
        <ele>190.798686</ele>
        <time>2022-12-28T14:44:34.748Z</time>
      </trkpt>
      <trkpt lat="44.35103" lon="0.01922">
        <ele>190.7377</ele>
        <time>2022-12-28T14:44:36.749Z</time>
      </trkpt>
      <trkpt lat="44.35099" lon="0.0194">
        <ele>190.646382</ele>
        <time>2022-12-28T14:44:39.752Z</time>
      </trkpt>
      <trkpt lat="44.35095" lon="0.01954">
        <ele>190.58002</ele>
        <time>2022-12-28T14:44:41.762Z</time>
      </trkpt>
      <trkpt lat="44.35092" lon="0.01967">
        <ele>190.51386</ele>
        <time>2022-12-28T14:44:43.808Z</time>
      </trkpt>
      <trkpt lat="44.35088" lon="0.0198">
        <ele>190.445593</ele>
        <time>2022-12-28T14:44:45.761Z</time>
      </trkpt>
      <trkpt lat="44.35085" lon="0.01994">
        <ele>190.37691</ele>
        <time>2022-12-28T14:44:47.753Z</time>
      </trkpt>
      <trkpt lat="44.35082" lon="0.02008">
        <ele>190.307046</ele>
        <time>2022-12-28T14:44:49.821Z</time>
      </trkpt>
      <trkpt lat="44.35079" lon="0.02022">
        <ele>190.235738</ele>
        <time>2022-12-28T14:44:51.761Z</time>
      </trkpt>
      <trkpt lat="44.35076" lon="0.02036">
        <ele>190.166403</ele>
        <time>2022-12-28T14:44:53.761Z</time>
      </trkpt>
      <trkpt lat="44.35073" lon="0.0205">
        <ele>190.096082</ele>
        <time>2022-12-28T14:44:55.821Z</time>
      </trkpt>
      <trkpt lat="44.3507" lon="0.02065">
        <ele>190.022965</ele>
        <time>2022-12-28T14:44:57.761Z</time>
      </trkpt>
      <trkpt lat="44.35066" lon="0.02079">
        <ele>189.950249</ele>
        <time>2022-12-28T14:44:59.750Z</time>
      </trkpt>
      <trkpt lat="44.35064" lon="0.02094">
        <ele>189.877516</ele>
        <time>2022-12-28T14:45:01.803Z</time>
      </trkpt>
      <trkpt lat="44.35062" lon="0.0211">
        <ele>189.799702</ele>
        <time>2022-12-28T14:45:03.758Z</time>
      </trkpt>
      <trkpt lat="44.3506" lon="0.02125">
        <ele>189.729838</ele>
        <time>2022-12-28T14:45:05.749Z</time>
      </trkpt>
      <trkpt lat="44.35058" lon="0.0214">
        <ele>189.655774</ele>
        <time>2022-12-28T14:45:07.811Z</time>
      </trkpt>
      <trkpt lat="44.35056" lon="0.02156">
        <ele>189.590616</ele>
        <time>2022-12-28T14:45:09.766Z</time>
      </trkpt>
      <trkpt lat="44.35053" lon="0.0217">
        <ele>189.5559</ele>
        <time>2022-12-28T14:45:11.749Z</time>
      </trkpt>
      <trkpt lat="44.3505" lon="0.02184">
        <ele>189.521371</ele>
        <time>2022-12-28T14:45:13.819Z</time>
      </trkpt>
      <trkpt lat="44.35048" lon="0.02198">
        <ele>189.486487</ele>
        <time>2022-12-28T14:45:15.757Z</time>
      </trkpt>
      <trkpt lat="44.35046" lon="0.02212">
        <ele>189.452768</ele>
        <time>2022-12-28T14:45:17.766Z</time>
      </trkpt>
      <trkpt lat="44.35044" lon="0.02225">
        <ele>189.420525</ele>
        <time>2022-12-28T14:45:19.770Z</time>
      </trkpt>
      <trkpt lat="44.35042" lon="0.02239">
        <ele>189.388686</ele>
        <time>2022-12-28T14:45:21.762Z</time>
      </trkpt>
      <trkpt lat="44.3504" lon="0.02251">
        <ele>189.358528</ele>
        <time>2022-12-28T14:45:23.767Z</time>
      </trkpt>
      <trkpt lat="44.35039" lon="0.02264">
        <ele>189.326743</ele>
        <time>2022-12-28T14:45:25.834Z</time>
      </trkpt>
      <trkpt lat="44.35037" lon="0.02278">
        <ele>189.293508</ele>
        <time>2022-12-28T14:45:27.764Z</time>
      </trkpt>
      <trkpt lat="44.35035" lon="0.02292">
        <ele>189.259792</ele>
        <time>2022-12-28T14:45:29.755Z</time>
      </trkpt>
      <trkpt lat="44.35033" lon="0.02306">
        <ele>189.224969</ele>
        <time>2022-12-28T14:45:31.810Z</time>
      </trkpt>
      <trkpt lat="44.3503" lon="0.02321">
        <ele>189.188934</ele>
        <time>2022-12-28T14:45:33.750Z</time>
      </trkpt>
      <trkpt lat="44.35028" lon="0.02336">
        <ele>189.152844</ele>
        <time>2022-12-28T14:45:35.747Z</time>
      </trkpt>
      <trkpt lat="44.35025" lon="0.02351">
        <ele>189.114288</ele>
        <time>2022-12-28T14:45:37.800Z</time>
      </trkpt>
      <trkpt lat="44.35022" lon="0.02367">
        <ele>189.075115</ele>
        <time>2022-12-28T14:45:39.751Z</time>
      </trkpt>
      <trkpt lat="44.3502" lon="0.02383">
        <ele>189.03756</ele>
        <time>2022-12-28T14:45:41.740Z</time>
      </trkpt>
      <trkpt lat="44.35017" lon="0.02398">
        <ele>189.001537</ele>
        <time>2022-12-28T14:45:43.816Z</time>
      </trkpt>
      <trkpt lat="44.35014" lon="0.02414">
        <ele>188.979671</ele>
        <time>2022-12-28T14:45:45.759Z</time>
      </trkpt>
      <trkpt lat="44.35012" lon="0.0243">
        <ele>188.958387</ele>
        <time>2022-12-28T14:45:47.749Z</time>
      </trkpt>
      <trkpt lat="44.3501" lon="0.02447">
        <ele>188.936781</ele>
        <time>2022-12-28T14:45:49.817Z</time>
      </trkpt>
      <trkpt lat="44.35007" lon="0.02462">
        <ele>188.915122</ele>
        <time>2022-12-28T14:45:51.752Z</time>
      </trkpt>
      <trkpt lat="44.35004" lon="0.02477">
        <ele>188.8947</ele>
        <time>2022-12-28T14:45:53.761Z</time>
      </trkpt>
      <trkpt lat="44.35002" lon="0.02493">
        <ele>188.874518</ele>
        <time>2022-12-28T14:45:55.805Z</time>
      </trkpt>
      <trkpt lat="44.35001" lon="0.02507">
        <ele>188.854742</ele>
        <time>2022-12-28T14:45:57.730Z</time>
      </trkpt>
      <trkpt lat="44.34998" lon="0.02522">
        <ele>188.835522</ele>
        <time>2022-12-28T14:45:59.751Z</time>
      </trkpt>
      <trkpt lat="44.34996" lon="0.02536">
        <ele>188.816303</ele>
        <time>2022-12-28T14:46:01.741Z</time>
      </trkpt>
      <trkpt lat="44.34995" lon="0.02549">
        <ele>188.798645</ele>
        <time>2022-12-28T14:46:03.758Z</time>
      </trkpt>
      <trkpt lat="44.34993" lon="0.02563">
        <ele>188.779852</ele>
        <time>2022-12-28T14:46:05.754Z</time>
      </trkpt>
      <trkpt lat="44.34991" lon="0.02577">
        <ele>188.761613</ele>
        <time>2022-12-28T14:46:07.749Z</time>
      </trkpt>
      <trkpt lat="44.34989" lon="0.02589">
        <ele>188.744689</ele>
        <time>2022-12-28T14:46:09.761Z</time>
      </trkpt>
      <trkpt lat="44.34987" lon="0.02603">
        <ele>188.727084</ele>
        <time>2022-12-28T14:46:11.753Z</time>
      </trkpt>
      <trkpt lat="44.34984" lon="0.02616">
        <ele>188.707836</ele>
        <time>2022-12-28T14:46:13.753Z</time>
      </trkpt>
      <trkpt lat="44.3498" lon="0.0263">
        <ele>188.689149</ele>
        <time>2022-12-28T14:46:15.747Z</time>
      </trkpt>
      <trkpt lat="44.34979" lon="0.02644">
        <ele>188.69054</ele>
        <time>2022-12-28T14:46:17.743Z</time>
      </trkpt>
      <trkpt lat="44.34977" lon="0.02659">
        <ele>188.789908</ele>
        <time>2022-12-28T14:46:19.738Z</time>
      </trkpt>
      <trkpt lat="44.34975" lon="0.02672">
        <ele>188.881294</ele>
        <time>2022-12-28T14:46:21.757Z</time>
      </trkpt>
      <trkpt lat="44.34972" lon="0.02685">
        <ele>188.975405</ele>
        <time>2022-12-28T14:46:23.759Z</time>
      </trkpt>
      <trkpt lat="44.3497" lon="0.02699">
        <ele>189.070817</ele>
        <time>2022-12-28T14:46:25.736Z</time>
      </trkpt>
      <trkpt lat="44.34968" lon="0.02713">
        <ele>189.163666</ele>
        <time>2022-12-28T14:46:27.770Z</time>
      </trkpt>
      <trkpt lat="44.34967" lon="0.02726">
        <ele>189.252476</ele>
        <time>2022-12-28T14:46:29.756Z</time>
      </trkpt>
      <trkpt lat="44.34965" lon="0.02739">
        <ele>189.343821</ele>
        <time>2022-12-28T14:46:31.762Z</time>
      </trkpt>
      <trkpt lat="44.34963" lon="0.02753">
        <ele>189.439069</ele>
        <time>2022-12-28T14:46:33.752Z</time>
      </trkpt>
      <trkpt lat="44.34961" lon="0.02765">
        <ele>189.526627</ele>
        <time>2022-12-28T14:46:35.759Z</time>
      </trkpt>
      <trkpt lat="44.34959" lon="0.02778">
        <ele>189.617137</ele>
        <time>2022-12-28T14:46:37.760Z</time>
      </trkpt>
      <trkpt lat="44.34956" lon="0.02792">
        <ele>189.709962</ele>
        <time>2022-12-28T14:46:39.752Z</time>
      </trkpt>
      <trkpt lat="44.34954" lon="0.02805">
        <ele>189.80603</ele>
        <time>2022-12-28T14:46:41.754Z</time>
      </trkpt>
      <trkpt lat="44.34951" lon="0.02818">
        <ele>189.896634</ele>
        <time>2022-12-28T14:46:43.742Z</time>
      </trkpt>
      <trkpt lat="44.34948" lon="0.02833">
        <ele>189.998401</ele>
        <time>2022-12-28T14:46:45.748Z</time>
      </trkpt>
      <trkpt lat="44.34947" lon="0.02847">
        <ele>190.094392</ele>
        <time>2022-12-28T14:46:47.746Z</time>
      </trkpt>
      <trkpt lat="44.34944" lon="0.02861">
        <ele>190.193734</ele>
        <time>2022-12-28T14:46:49.750Z</time>
      </trkpt>
      <trkpt lat="44.34942" lon="0.02875">
        <ele>190.288397</ele>
        <time>2022-12-28T14:46:51.735Z</time>
      </trkpt>
      <trkpt lat="44.3494" lon="0.0289">
        <ele>190.388962</ele>
        <time>2022-12-28T14:46:53.753Z</time>
      </trkpt>
      <trkpt lat="44.34938" lon="0.02905">
        <ele>190.492085</ele>
        <time>2022-12-28T14:46:55.748Z</time>
      </trkpt>
      <trkpt lat="44.34935" lon="0.0292">
        <ele>190.599915</ele>
        <time>2022-12-28T14:46:57.761Z</time>
      </trkpt>
      <trkpt lat="44.34932" lon="0.02935">
        <ele>190.703368</ele>
        <time>2022-12-28T14:46:59.795Z</time>
      </trkpt>
      <trkpt lat="44.34929" lon="0.02951">
        <ele>190.812025</ele>
        <time>2022-12-28T14:47:01.751Z</time>
      </trkpt>
      <trkpt lat="44.34926" lon="0.02965">
        <ele>190.913568</ele>
        <time>2022-12-28T14:47:03.752Z</time>
      </trkpt>
      <trkpt lat="44.34923" lon="0.02982">
        <ele>191.028544</ele>
        <time>2022-12-28T14:47:05.764Z</time>
      </trkpt>
      <trkpt lat="44.3492" lon="0.02996">
        <ele>191.132293</ele>
        <time>2022-12-28T14:47:07.740Z</time>
      </trkpt>
      <trkpt lat="44.34916" lon="0.03012">
        <ele>191.243366</ele>
        <time>2022-12-28T14:47:09.760Z</time>
      </trkpt>
      <trkpt lat="44.34912" lon="0.03027">
        <ele>191.345486</ele>
        <time>2022-12-28T14:47:11.739Z</time>
      </trkpt>
      <trkpt lat="44.34909" lon="0.03041">
        <ele>191.445408</ele>
        <time>2022-12-28T14:47:13.739Z</time>
      </trkpt>
      <trkpt lat="44.34905" lon="0.03055">
        <ele>191.545338</ele>
        <time>2022-12-28T14:47:15.758Z</time>
      </trkpt>
      <trkpt lat="44.34902" lon="0.03066">
        <ele>191.629524</ele>
        <time>2022-12-28T14:47:17.739Z</time>
      </trkpt>
      <trkpt lat="44.34898" lon="0.03079">
        <ele>191.721485</ele>
        <time>2022-12-28T14:47:19.759Z</time>
      </trkpt>
      <trkpt lat="44.34893" lon="0.03091">
        <ele>191.81625</ele>
        <time>2022-12-28T14:47:21.762Z</time>
      </trkpt>
      <trkpt lat="44.3489" lon="0.03105">
        <ele>191.915842</ele>
        <time>2022-12-28T14:47:23.752Z</time>
      </trkpt>
      <trkpt lat="44.34886" lon="0.03119">
        <ele>192.012484</ele>
        <time>2022-12-28T14:47:25.760Z</time>
      </trkpt>
      <trkpt lat="44.34882" lon="0.03133">
        <ele>192.089599</ele>
        <time>2022-12-28T14:47:27.808Z</time>
      </trkpt>
      <trkpt lat="44.34877" lon="0.03146">
        <ele>192.143691</ele>
        <time>2022-12-28T14:47:29.749Z</time>
      </trkpt>
      <trkpt lat="44.34874" lon="0.03159">
        <ele>192.195926</ele>
        <time>2022-12-28T14:47:31.762Z</time>
      </trkpt>
      <trkpt lat="44.34869" lon="0.03174">
        <ele>192.252775</ele>
        <time>2022-12-28T14:47:33.811Z</time>
      </trkpt>
      <trkpt lat="44.34864" lon="0.03188">
        <ele>192.312053</ele>
        <time>2022-12-28T14:47:35.760Z</time>
      </trkpt>
      <trkpt lat="44.34859" lon="0.03202">
        <ele>192.368261</ele>
        <time>2022-12-28T14:47:37.750Z</time>
      </trkpt>
      <trkpt lat="44.34855" lon="0.03214">
        <ele>192.417601</ele>
        <time>2022-12-28T14:47:39.797Z</time>
      </trkpt>
      <trkpt lat="44.34849" lon="0.03229">
        <ele>192.482518</ele>
        <time>2022-12-28T14:47:41.764Z</time>
      </trkpt>
      <trkpt lat="44.34843" lon="0.03243">
        <ele>192.539775</ele>
        <time>2022-12-28T14:47:43.764Z</time>
      </trkpt>
      <trkpt lat="44.34836" lon="0.03257">
        <ele>192.601405</ele>
        <time>2022-12-28T14:47:45.812Z</time>
      </trkpt>
      <trkpt lat="44.34831" lon="0.0327">
        <ele>192.656954</ele>
        <time>2022-12-28T14:47:47.744Z</time>
      </trkpt>
      <trkpt lat="44.34825" lon="0.03283">
        <ele>192.710519</ele>
        <time>2022-12-28T14:47:49.761Z</time>
      </trkpt>
      <trkpt lat="44.34819" lon="0.03296">
        <ele>192.768911</ele>
        <time>2022-12-28T14:47:51.763Z</time>
      </trkpt>
      <trkpt lat="44.34813" lon="0.03309">
        <ele>192.825665</ele>
        <time>2022-12-28T14:47:53.750Z</time>
      </trkpt>
      <trkpt lat="44.34807" lon="0.03323">
        <ele>192.886736</ele>
        <time>2022-12-28T14:47:55.752Z</time>
      </trkpt>
      <trkpt lat="44.34801" lon="0.03337">
        <ele>192.945703</ele>
        <time>2022-12-28T14:47:57.735Z</time>
      </trkpt>
      <trkpt lat="44.34795" lon="0.0335">
        <ele>192.883068</ele>
        <time>2022-12-28T14:47:59.759Z</time>
      </trkpt>
      <trkpt lat="44.34789" lon="0.03364">
        <ele>192.621233</ele>
        <time>2022-12-28T14:48:01.762Z</time>
      </trkpt>
      <trkpt lat="44.34782" lon="0.03379">
        <ele>192.341011</ele>
        <time>2022-12-28T14:48:03.760Z</time>
      </trkpt>
      <trkpt lat="44.34776" lon="0.03393">
        <ele>192.063351</ele>
        <time>2022-12-28T14:48:05.748Z</time>
      </trkpt>
      <trkpt lat="44.34769" lon="0.03408">
        <ele>191.777853</ele>
        <time>2022-12-28T14:48:07.811Z</time>
      </trkpt>
      <trkpt lat="44.34761" lon="0.03423">
        <ele>191.486182</ele>
        <time>2022-12-28T14:48:09.763Z</time>
      </trkpt>
      <trkpt lat="44.34755" lon="0.03439">
        <ele>191.187572</ele>
        <time>2022-12-28T14:48:11.758Z</time>
      </trkpt>
      <trkpt lat="44.34748" lon="0.03456">
        <ele>190.885604</ele>
        <time>2022-12-28T14:48:13.809Z</time>
      </trkpt>
      <trkpt lat="44.34741" lon="0.03472">
        <ele>190.570103</ele>
        <time>2022-12-28T14:48:15.769Z</time>
      </trkpt>
      <trkpt lat="44.34733" lon="0.03488">
        <ele>190.26757</ele>
        <time>2022-12-28T14:48:17.763Z</time>
      </trkpt>
      <trkpt lat="44.34726" lon="0.03504">
        <ele>189.965837</ele>
        <time>2022-12-28T14:48:19.805Z</time>
      </trkpt>
      <trkpt lat="44.3472" lon="0.03519">
        <ele>189.682514</ele>
        <time>2022-12-28T14:48:21.766Z</time>
      </trkpt>
      <trkpt lat="44.34713" lon="0.03534">
        <ele>189.400764</ele>
        <time>2022-12-28T14:48:23.759Z</time>
      </trkpt>
      <trkpt lat="44.34707" lon="0.03548">
        <ele>189.132131</ele>
        <time>2022-12-28T14:48:25.802Z</time>
      </trkpt>
      <trkpt lat="44.34701" lon="0.03563">
        <ele>188.988322</ele>
        <time>2022-12-28T14:48:27.750Z</time>
      </trkpt>
      <trkpt lat="44.34695" lon="0.03575">
        <ele>189.144982</ele>
        <time>2022-12-28T14:48:29.750Z</time>
      </trkpt>
      <trkpt lat="44.34689" lon="0.03588">
        <ele>189.304709</ele>
        <time>2022-12-28T14:48:31.807Z</time>
      </trkpt>
      <trkpt lat="44.34683" lon="0.03599">
        <ele>189.452587</ele>
        <time>2022-12-28T14:48:33.751Z</time>
      </trkpt>
      <trkpt lat="44.34679" lon="0.03613">
        <ele>189.615297</ele>
        <time>2022-12-28T14:48:35.749Z</time>
      </trkpt>
      <trkpt lat="44.34671" lon="0.03626">
        <ele>189.789701</ele>
        <time>2022-12-28T14:48:37.796Z</time>
      </trkpt>
      <trkpt lat="44.34666" lon="0.03642">
        <ele>189.981805</ele>
        <time>2022-12-28T14:48:40.758Z</time>
      </trkpt>
      <trkpt lat="44.3466" lon="0.03654">
        <ele>190.132056</ele>
        <time>2022-12-28T14:48:42.760Z</time>
      </trkpt>
      <trkpt lat="44.34653" lon="0.0367">
        <ele>190.3256</ele>
        <time>2022-12-28T14:48:45.764Z</time>
      </trkpt>
      <trkpt lat="44.34647" lon="0.03685">
        <ele>190.508835</ele>
        <time>2022-12-28T14:48:48.815Z</time>
      </trkpt>
      <trkpt lat="44.3464" lon="0.03699">
        <ele>190.684785</ele>
        <time>2022-12-28T14:48:51.755Z</time>
      </trkpt>
      <trkpt lat="44.34635" lon="0.03711">
        <ele>190.836789</ele>
        <time>2022-12-28T14:48:54.820Z</time>
      </trkpt>
      <trkpt lat="44.34629" lon="0.03722">
        <ele>190.982036</ele>
        <time>2022-12-28T14:48:57.761Z</time>
      </trkpt>
      <trkpt lat="44.34625" lon="0.03734">
        <ele>191.126401</ele>
        <time>2022-12-28T14:49:00.801Z</time>
      </trkpt>
      <trkpt lat="44.3462" lon="0.03746">
        <ele>191.2669</ele>
        <time>2022-12-28T14:49:03.748Z</time>
      </trkpt>
      <trkpt lat="44.34615" lon="0.03757">
        <ele>191.403922</ele>
        <time>2022-12-28T14:49:06.842Z</time>
      </trkpt>
      <trkpt lat="44.34609" lon="0.03771">
        <ele>191.579615</ele>
        <time>2022-12-28T14:49:10.751Z</time>
      </trkpt>
      <trkpt lat="44.34604" lon="0.03783">
        <ele>191.771069</ele>
        <time>2022-12-28T14:49:13.752Z</time>
      </trkpt>
      <trkpt lat="44.346" lon="0.03794">
        <ele>191.971054</ele>
        <time>2022-12-28T14:49:16.750Z</time>
      </trkpt>
      <trkpt lat="44.34595" lon="0.03804">
        <ele>192.163002</ele>
        <time>2022-12-28T14:49:19.750Z</time>
      </trkpt>
      <trkpt lat="44.34588" lon="0.03816">
        <ele>192.389886</ele>
        <time>2022-12-28T14:49:23.817Z</time>
      </trkpt>
      <trkpt lat="44.34582" lon="0.03828">
        <ele>192.608044</ele>
        <time>2022-12-28T14:49:27.763Z</time>
      </trkpt>
      <trkpt lat="44.34576" lon="0.03841">
        <ele>192.846924</ele>
        <time>2022-12-28T14:49:31.733Z</time>
      </trkpt>
      <trkpt lat="44.34569" lon="0.03855">
        <ele>193.098272</ele>
        <time>2022-12-28T14:49:35.749Z</time>
      </trkpt>
      <trkpt lat="44.34564" lon="0.03865">
        <ele>193.291377</ele>
        <time>2022-12-28T14:49:38.758Z</time>
      </trkpt>
      <trkpt lat="44.34559" lon="0.03875">
        <ele>193.483222</ele>
        <time>2022-12-28T14:49:41.761Z</time>
      </trkpt>
      <trkpt lat="44.34552" lon="0.03889">
        <ele>193.739437</ele>
        <time>2022-12-28T14:49:45.755Z</time>
      </trkpt>
      <trkpt lat="44.34546" lon="0.03899">
        <ele>193.939056</ele>
        <time>2022-12-28T14:49:48.750Z</time>
      </trkpt>
      <trkpt lat="44.34539" lon="0.03909">
        <ele>194.159308</ele>
        <time>2022-12-28T14:49:51.793Z</time>
      </trkpt>
      <trkpt lat="44.34532" lon="0.0392">
        <ele>194.372021</ele>
        <time>2022-12-28T14:49:54.750Z</time>
      </trkpt>
      <trkpt lat="44.34526" lon="0.0393">
        <ele>194.570459</ele>
        <time>2022-12-28T14:49:57.797Z</time>
      </trkpt>
      <trkpt lat="44.34521" lon="0.03941">
        <ele>194.776205</ele>
        <time>2022-12-28T14:50:00.766Z</time>
      </trkpt>
      <trkpt lat="44.34513" lon="0.03954">
        <ele>195.029352</ele>
        <time>2022-12-28T14:50:04.754Z</time>
      </trkpt>
      <trkpt lat="44.34508" lon="0.03964">
        <ele>195.223732</ele>
        <time>2022-12-28T14:50:07.738Z</time>
      </trkpt>
      <trkpt lat="44.34501" lon="0.03978">
        <ele>195.45355</ele>
        <time>2022-12-28T14:50:11.757Z</time>
      </trkpt>
      <trkpt lat="44.34495" lon="0.03988">
        <ele>195.582325</ele>
        <time>2022-12-28T14:50:14.765Z</time>
      </trkpt>
      <trkpt lat="44.34489" lon="0.04">
        <ele>195.717239</ele>
        <time>2022-12-28T14:50:17.753Z</time>
      </trkpt>
      <trkpt lat="44.34483" lon="0.04012">
        <ele>195.857566</ele>
        <time>2022-12-28T14:50:20.806Z</time>
      </trkpt>
      <trkpt lat="44.34477" lon="0.04023">
        <ele>195.99171</ele>
        <time>2022-12-28T14:50:23.760Z</time>
      </trkpt>
      <trkpt lat="44.34472" lon="0.04035">
        <ele>196.124575</ele>
        <time>2022-12-28T14:50:26.794Z</time>
      </trkpt>
      <trkpt lat="44.34465" lon="0.04047">
        <ele>196.267245</ele>
        <time>2022-12-28T14:50:29.761Z</time>
      </trkpt>
      <trkpt lat="44.34458" lon="0.0406">
        <ele>196.42144</ele>
        <time>2022-12-28T14:50:32.824Z</time>
      </trkpt>
      <trkpt lat="44.34451" lon="0.04074">
        <ele>196.578712</ele>
        <time>2022-12-28T14:50:35.750Z</time>
      </trkpt>
      <trkpt lat="44.34444" lon="0.04087">
        <ele>196.740801</ele>
        <time>2022-12-28T14:50:38.812Z</time>
      </trkpt>
      <trkpt lat="44.34436" lon="0.04101">
        <ele>196.909165</ele>
        <time>2022-12-28T14:50:41.759Z</time>
      </trkpt>
      <trkpt lat="44.34428" lon="0.04115">
        <ele>197.070284</ele>
        <time>2022-12-28T14:50:44.800Z</time>
      </trkpt>
      <trkpt lat="44.34421" lon="0.04128">
        <ele>197.235508</ele>
        <time>2022-12-28T14:50:47.754Z</time>
      </trkpt>
      <trkpt lat="44.34413" lon="0.04142">
        <ele>197.403041</ele>
        <time>2022-12-28T14:50:50.802Z</time>
      </trkpt>
      <trkpt lat="44.34406" lon="0.04155">
        <ele>197.549539</ele>
        <time>2022-12-28T14:50:53.760Z</time>
      </trkpt>
      <trkpt lat="44.34401" lon="0.04166">
        <ele>197.677558</ele>
        <time>2022-12-28T14:50:56.793Z</time>
      </trkpt>
      <trkpt lat="44.34394" lon="0.04178">
        <ele>197.798003</ele>
        <time>2022-12-28T14:50:59.753Z</time>
      </trkpt>
      <trkpt lat="44.34387" lon="0.04191">
        <ele>197.76629</ele>
        <time>2022-12-28T14:51:02.755Z</time>
      </trkpt>
      <trkpt lat="44.34381" lon="0.04204">
        <ele>197.732958</ele>
        <time>2022-12-28T14:51:05.760Z</time>
      </trkpt>
      <trkpt lat="44.34373" lon="0.04218">
        <ele>197.697843</ele>
        <time>2022-12-28T14:51:08.759Z</time>
      </trkpt>
      <trkpt lat="44.34365" lon="0.04233">
        <ele>197.66093</ele>
        <time>2022-12-28T14:51:11.764Z</time>
      </trkpt>
      <trkpt lat="44.34357" lon="0.04248">
        <ele>197.624016</ele>
        <time>2022-12-28T14:51:14.759Z</time>
      </trkpt>
      <trkpt lat="44.34351" lon="0.04258">
        <ele>197.598266</ele>
        <time>2022-12-28T14:51:16.762Z</time>
      </trkpt>
      <trkpt lat="44.34346" lon="0.04269">
        <ele>197.572378</ele>
        <time>2022-12-28T14:51:18.737Z</time>
      </trkpt>
      <trkpt lat="44.3434" lon="0.04279">
        <ele>197.546413</ele>
        <time>2022-12-28T14:51:20.765Z</time>
      </trkpt>
      <trkpt lat="44.34333" lon="0.04289">
        <ele>197.518638</ele>
        <time>2022-12-28T14:51:22.751Z</time>
      </trkpt>
      <trkpt lat="44.34325" lon="0.04305">
        <ele>197.480776</ele>
        <time>2022-12-28T14:51:25.761Z</time>
      </trkpt>
      <trkpt lat="44.3432" lon="0.04315">
        <ele>197.455692</ele>
        <time>2022-12-28T14:51:27.738Z</time>
      </trkpt>
      <trkpt lat="44.34314" lon="0.04326">
        <ele>197.428014</ele>
        <time>2022-12-28T14:51:29.760Z</time>
      </trkpt>
      <trkpt lat="44.34309" lon="0.04337">
        <ele>197.402436</ele>
        <time>2022-12-28T14:51:31.829Z</time>
      </trkpt>
      <trkpt lat="44.34303" lon="0.04347">
        <ele>197.375232</ele>
        <time>2022-12-28T14:51:33.750Z</time>
      </trkpt>
      <trkpt lat="44.34298" lon="0.04358">
        <ele>197.349168</ele>
        <time>2022-12-28T14:51:35.766Z</time>
      </trkpt>
      <trkpt lat="44.34292" lon="0.04369">
        <ele>197.32328</ele>
        <time>2022-12-28T14:51:37.821Z</time>
      </trkpt>
      <trkpt lat="44.34286" lon="0.04379">
        <ele>197.282133</ele>
        <time>2022-12-28T14:51:39.761Z</time>
      </trkpt>
      <trkpt lat="44.34279" lon="0.04395">
        <ele>197.128792</ele>
        <time>2022-12-28T14:51:42.759Z</time>
      </trkpt>
      <trkpt lat="44.34273" lon="0.0441">
        <ele>196.9835</ele>
        <time>2022-12-28T14:51:45.758Z</time>
      </trkpt>
      <trkpt lat="44.34266" lon="0.04426">
        <ele>196.829219</ele>
        <time>2022-12-28T14:51:48.797Z</time>
      </trkpt>
      <trkpt lat="44.34261" lon="0.04437">
        <ele>196.721449</ele>
        <time>2022-12-28T14:51:50.754Z</time>
      </trkpt>
      <trkpt lat="44.34256" lon="0.04449">
        <ele>196.60631</ele>
        <time>2022-12-28T14:51:52.755Z</time>
      </trkpt>
      <trkpt lat="44.34251" lon="0.04462">
        <ele>196.486104</ele>
        <time>2022-12-28T14:51:54.744Z</time>
      </trkpt>
      <trkpt lat="44.34246" lon="0.04475">
        <ele>196.360779</ele>
        <time>2022-12-28T14:51:56.743Z</time>
      </trkpt>
      <trkpt lat="44.34241" lon="0.0449">
        <ele>196.226971</ele>
        <time>2022-12-28T14:51:58.754Z</time>
      </trkpt>
      <trkpt lat="44.34237" lon="0.04504">
        <ele>196.097434</ele>
        <time>2022-12-28T14:52:00.765Z</time>
      </trkpt>
      <trkpt lat="44.34232" lon="0.04519">
        <ele>195.964656</ele>
        <time>2022-12-28T14:52:02.759Z</time>
      </trkpt>
      <trkpt lat="44.34227" lon="0.04534">
        <ele>195.827659</ele>
        <time>2022-12-28T14:52:04.756Z</time>
      </trkpt>
      <trkpt lat="44.34222" lon="0.0455">
        <ele>195.689149</ele>
        <time>2022-12-28T14:52:06.764Z</time>
      </trkpt>
      <trkpt lat="44.34218" lon="0.04564">
        <ele>195.558074</ele>
        <time>2022-12-28T14:52:08.763Z</time>
      </trkpt>
      <trkpt lat="44.34214" lon="0.0458">
        <ele>195.419564</ele>
        <time>2022-12-28T14:52:10.756Z</time>
      </trkpt>
      <trkpt lat="44.3421" lon="0.04596">
        <ele>195.275099</ele>
        <time>2022-12-28T14:52:12.756Z</time>
      </trkpt>
      <trkpt lat="44.34206" lon="0.04613">
        <ele>195.283311</ele>
        <time>2022-12-28T14:52:14.753Z</time>
      </trkpt>
      <trkpt lat="44.34202" lon="0.04629">
        <ele>195.380451</ele>
        <time>2022-12-28T14:52:16.738Z</time>
      </trkpt>
      <trkpt lat="44.34197" lon="0.04646">
        <ele>195.481283</ele>
        <time>2022-12-28T14:52:18.761Z</time>
      </trkpt>
      <trkpt lat="44.34193" lon="0.04663">
        <ele>195.579758</ele>
        <time>2022-12-28T14:52:20.756Z</time>
      </trkpt>
      <trkpt lat="44.34189" lon="0.04678">
        <ele>195.674806</ele>
        <time>2022-12-28T14:52:22.764Z</time>
      </trkpt>
      <trkpt lat="44.34185" lon="0.04695">
        <ele>195.769852</ele>
        <time>2022-12-28T14:52:24.755Z</time>
      </trkpt>
      <trkpt lat="44.34181" lon="0.0471">
        <ele>195.86331</ele>
        <time>2022-12-28T14:52:26.750Z</time>
      </trkpt>
      <trkpt lat="44.34177" lon="0.04726">
        <ele>195.955185</ele>
        <time>2022-12-28T14:52:28.761Z</time>
      </trkpt>
      <trkpt lat="44.34174" lon="0.0474">
        <ele>196.041285</ele>
        <time>2022-12-28T14:52:30.737Z</time>
      </trkpt>
      <trkpt lat="44.3417" lon="0.04755">
        <ele>196.1261</ele>
        <time>2022-12-28T14:52:32.759Z</time>
      </trkpt>
      <trkpt lat="44.34165" lon="0.04768">
        <ele>196.210904</ele>
        <time>2022-12-28T14:52:34.756Z</time>
      </trkpt>
      <trkpt lat="44.34161" lon="0.04782">
        <ele>196.296011</ele>
        <time>2022-12-28T14:52:36.744Z</time>
      </trkpt>
      <trkpt lat="44.34157" lon="0.04796">
        <ele>196.379356</ele>
        <time>2022-12-28T14:52:38.759Z</time>
      </trkpt>
      <trkpt lat="44.34153" lon="0.04809">
        <ele>196.460615</ele>
        <time>2022-12-28T14:52:40.828Z</time>
      </trkpt>
      <trkpt lat="44.34148" lon="0.04823">
        <ele>196.543221</ele>
        <time>2022-12-28T14:52:42.760Z</time>
      </trkpt>
      <trkpt lat="44.34143" lon="0.04835">
        <ele>196.625263</ele>
        <time>2022-12-28T14:52:44.763Z</time>
      </trkpt>
      <trkpt lat="44.34137" lon="0.04849">
        <ele>196.117315</ele>
        <time>2022-12-28T14:52:46.818Z</time>
      </trkpt>
      <trkpt lat="44.34131" lon="0.04861">
        <ele>195.598315</ele>
        <time>2022-12-28T14:52:48.763Z</time>
      </trkpt>
      <trkpt lat="44.34125" lon="0.04875">
        <ele>195.047318</ele>
        <time>2022-12-28T14:52:50.764Z</time>
      </trkpt>
      <trkpt lat="44.34119" lon="0.04887">
        <ele>194.553882</ele>
        <time>2022-12-28T14:52:52.828Z</time>
      </trkpt>
      <trkpt lat="44.34114" lon="0.04897">
        <ele>194.115852</ele>
        <time>2022-12-28T14:52:54.754Z</time>
      </trkpt>
      <trkpt lat="44.34108" lon="0.04909">
        <ele>193.630473</ele>
        <time>2022-12-28T14:52:56.751Z</time>
      </trkpt>
      <trkpt lat="44.34103" lon="0.04921">
        <ele>193.131317</ele>
        <time>2022-12-28T14:52:58.786Z</time>
      </trkpt>
      <trkpt lat="44.34096" lon="0.04933">
        <ele>192.631667</ele>
        <time>2022-12-28T14:53:00.765Z</time>
      </trkpt>
      <trkpt lat="44.3409" lon="0.04945">
        <ele>192.115535</ele>
        <time>2022-12-28T14:53:02.761Z</time>
      </trkpt>
      <trkpt lat="44.34084" lon="0.04958">
        <ele>191.588654</ele>
        <time>2022-12-28T14:53:04.761Z</time>
      </trkpt>
      <trkpt lat="44.34077" lon="0.04969">
        <ele>191.068945</ele>
        <time>2022-12-28T14:53:06.761Z</time>
      </trkpt>
      <trkpt lat="44.34071" lon="0.04983">
        <ele>190.507124</ele>
        <time>2022-12-28T14:53:08.764Z</time>
      </trkpt>
      <trkpt lat="44.34064" lon="0.04996">
        <ele>189.971789</ele>
        <time>2022-12-28T14:53:10.768Z</time>
      </trkpt>
      <trkpt lat="44.34058" lon="0.05009">
        <ele>189.428185</ele>
        <time>2022-12-28T14:53:12.761Z</time>
      </trkpt>
      <trkpt lat="44.3405" lon="0.05024">
        <ele>188.81474</ele>
        <time>2022-12-28T14:53:14.763Z</time>
      </trkpt>
      <trkpt lat="44.34043" lon="0.05039">
        <ele>188.181328</ele>
        <time>2022-12-28T14:53:16.760Z</time>
      </trkpt>
      <trkpt lat="44.34035" lon="0.05055">
        <ele>187.161451</ele>
        <time>2022-12-28T14:53:18.762Z</time>
      </trkpt>
      <trkpt lat="44.34028" lon="0.0507">
        <ele>186.163936</ele>
        <time>2022-12-28T14:53:20.766Z</time>
      </trkpt>
      <trkpt lat="44.34021" lon="0.05085">
        <ele>185.157426</ele>
        <time>2022-12-28T14:53:22.758Z</time>
      </trkpt>
      <trkpt lat="44.34014" lon="0.051">
        <ele>184.15883</ele>
        <time>2022-12-28T14:53:24.749Z</time>
      </trkpt>
      <trkpt lat="44.34007" lon="0.05116">
        <ele>183.143313</ele>
        <time>2022-12-28T14:53:26.760Z</time>
      </trkpt>
      <trkpt lat="44.33999" lon="0.05131">
        <ele>182.087231</ele>
        <time>2022-12-28T14:53:28.763Z</time>
      </trkpt>
      <trkpt lat="44.33991" lon="0.05147">
        <ele>180.957742</ele>
        <time>2022-12-28T14:53:30.760Z</time>
      </trkpt>
      <trkpt lat="44.33984" lon="0.05163">
        <ele>179.880429</ele>
        <time>2022-12-28T14:53:32.754Z</time>
      </trkpt>
      <trkpt lat="44.33975" lon="0.05179">
        <ele>178.783086</ele>
        <time>2022-12-28T14:53:34.755Z</time>
      </trkpt>
      <trkpt lat="44.33968" lon="0.05197">
        <ele>177.63578</ele>
        <time>2022-12-28T14:53:36.737Z</time>
      </trkpt>
      <trkpt lat="44.33959" lon="0.05215">
        <ele>176.391539</ele>
        <time>2022-12-28T14:53:38.749Z</time>
      </trkpt>
      <trkpt lat="44.33951" lon="0.05233">
        <ele>175.20248</ele>
        <time>2022-12-28T14:53:40.756Z</time>
      </trkpt>
      <trkpt lat="44.33942" lon="0.05251">
        <ele>173.958236</ele>
        <time>2022-12-28T14:53:42.758Z</time>
      </trkpt>
      <trkpt lat="44.33933" lon="0.05269">
        <ele>172.780023</ele>
        <time>2022-12-28T14:53:44.815Z</time>
      </trkpt>
      <trkpt lat="44.33924" lon="0.05287">
        <ele>171.554234</ele>
        <time>2022-12-28T14:53:46.759Z</time>
      </trkpt>
      <trkpt lat="44.33915" lon="0.05306">
        <ele>170.315337</ele>
        <time>2022-12-28T14:53:48.763Z</time>
      </trkpt>
      <trkpt lat="44.33906" lon="0.05325">
        <ele>169.071627</ele>
        <time>2022-12-28T14:53:50.802Z</time>
      </trkpt>
      <trkpt lat="44.33897" lon="0.05344">
        <ele>167.801464</ele>
        <time>2022-12-28T14:53:52.755Z</time>
      </trkpt>
      <trkpt lat="44.33887" lon="0.05363">
        <ele>166.540356</ele>
        <time>2022-12-28T14:53:54.760Z</time>
      </trkpt>
      <trkpt lat="44.33878" lon="0.05383">
        <ele>165.230433</ele>
        <time>2022-12-28T14:53:56.807Z</time>
      </trkpt>
      <trkpt lat="44.33868" lon="0.05402">
        <ele>163.947106</ele>
        <time>2022-12-28T14:53:58.752Z</time>
      </trkpt>
      <trkpt lat="44.33858" lon="0.05421">
        <ele>162.650547</ele>
        <time>2022-12-28T14:54:00.742Z</time>
      </trkpt>
      <trkpt lat="44.33853" lon="0.05432">
        <ele>161.955521</ele>
        <time>2022-12-28T14:54:01.760Z</time>
      </trkpt>
      <trkpt lat="44.33844" lon="0.05452">
        <ele>160.627063</ele>
        <time>2022-12-28T14:54:03.745Z</time>
      </trkpt>
      <trkpt lat="44.33834" lon="0.05472">
        <ele>159.627559</ele>
        <time>2022-12-28T14:54:05.764Z</time>
      </trkpt>
      <trkpt lat="44.33824" lon="0.05491">
        <ele>158.844082</ele>
        <time>2022-12-28T14:54:07.763Z</time>
      </trkpt>
      <trkpt lat="44.33815" lon="0.05511">
        <ele>158.036074</ele>
        <time>2022-12-28T14:54:09.742Z</time>
      </trkpt>
      <trkpt lat="44.33805" lon="0.0553">
        <ele>157.255466</ele>
        <time>2022-12-28T14:54:11.763Z</time>
      </trkpt>
      <trkpt lat="44.33795" lon="0.05549">
        <ele>156.474817</ele>
        <time>2022-12-28T14:54:13.757Z</time>
      </trkpt>
      <trkpt lat="44.33786" lon="0.05569">
        <ele>155.666942</ele>
        <time>2022-12-28T14:54:15.756Z</time>
      </trkpt>
      <trkpt lat="44.33775" lon="0.0559">
        <ele>154.826691</ele>
        <time>2022-12-28T14:54:17.745Z</time>
      </trkpt>
      <trkpt lat="44.33765" lon="0.0561">
        <ele>154.002701</ele>
        <time>2022-12-28T14:54:19.746Z</time>
      </trkpt>
      <trkpt lat="44.3376" lon="0.05621">
        <ele>153.579747</ele>
        <time>2022-12-28T14:54:20.746Z</time>
      </trkpt>
      <trkpt lat="44.3375" lon="0.05641">
        <ele>152.774698</ele>
        <time>2022-12-28T14:54:22.762Z</time>
      </trkpt>
      <trkpt lat="44.3374" lon="0.0566">
        <ele>151.980331</ele>
        <time>2022-12-28T14:54:24.761Z</time>
      </trkpt>
      <trkpt lat="44.33731" lon="0.0568">
        <ele>151.382006</ele>
        <time>2022-12-28T14:54:26.762Z</time>
      </trkpt>
      <trkpt lat="44.33721" lon="0.057">
        <ele>150.863266</ele>
        <time>2022-12-28T14:54:28.760Z</time>
      </trkpt>
      <trkpt lat="44.33712" lon="0.05719">
        <ele>150.349606</ele>
        <time>2022-12-28T14:54:30.762Z</time>
      </trkpt>
      <trkpt lat="44.33702" lon="0.05738">
        <ele>149.846501</ele>
        <time>2022-12-28T14:54:32.764Z</time>
      </trkpt>
      <trkpt lat="44.33692" lon="0.05757">
        <ele>149.352072</ele>
        <time>2022-12-28T14:54:34.758Z</time>
      </trkpt>
      <trkpt lat="44.33682" lon="0.05774">
        <ele>148.88132</ele>
        <time>2022-12-28T14:54:36.738Z</time>
      </trkpt>
      <trkpt lat="44.33671" lon="0.05792">
        <ele>148.379205</ele>
        <time>2022-12-28T14:54:38.759Z</time>
      </trkpt>
      <trkpt lat="44.33661" lon="0.05808">
        <ele>147.909305</ele>
        <time>2022-12-28T14:54:40.761Z</time>
      </trkpt>
      <trkpt lat="44.3365" lon="0.05824">
        <ele>147.437916</ele>
        <time>2022-12-28T14:54:42.806Z</time>
      </trkpt>
      <trkpt lat="44.33639" lon="0.0584">
        <ele>146.968015</ele>
        <time>2022-12-28T14:54:44.764Z</time>
      </trkpt>
      <trkpt lat="44.33629" lon="0.05855">
        <ele>146.51007</ele>
        <time>2022-12-28T14:54:46.753Z</time>
      </trkpt>
      <trkpt lat="44.33618" lon="0.0587">
        <ele>145.868221</ele>
        <time>2022-12-28T14:54:48.843Z</time>
      </trkpt>
      <trkpt lat="44.33608" lon="0.05884">
        <ele>145.093836</ele>
        <time>2022-12-28T14:54:50.762Z</time>
      </trkpt>
      <trkpt lat="44.33597" lon="0.05898">
        <ele>144.308728</ele>
        <time>2022-12-28T14:54:52.750Z</time>
      </trkpt>
      <trkpt lat="44.33587" lon="0.05913">
        <ele>143.513741</ele>
        <time>2022-12-28T14:54:54.805Z</time>
      </trkpt>
      <trkpt lat="44.33577" lon="0.05927">
        <ele>142.726301</ele>
        <time>2022-12-28T14:54:56.763Z</time>
      </trkpt>
      <trkpt lat="44.33566" lon="0.05942">
        <ele>141.949798</ele>
        <time>2022-12-28T14:54:58.739Z</time>
      </trkpt>
      <trkpt lat="44.33556" lon="0.05956">
        <ele>141.186919</ele>
        <time>2022-12-28T14:55:00.784Z</time>
      </trkpt>
      <trkpt lat="44.33546" lon="0.05969">
        <ele>140.430893</ele>
        <time>2022-12-28T14:55:02.738Z</time>
      </trkpt>
      <trkpt lat="44.33536" lon="0.05983">
        <ele>139.648739</ele>
        <time>2022-12-28T14:55:04.735Z</time>
      </trkpt>
      <trkpt lat="44.33525" lon="0.05997">
        <ele>138.878203</ele>
        <time>2022-12-28T14:55:06.801Z</time>
      </trkpt>
      <trkpt lat="44.33515" lon="0.06011">
        <ele>138.137553</ele>
        <time>2022-12-28T14:55:08.759Z</time>
      </trkpt>
      <trkpt lat="44.33505" lon="0.06024">
        <ele>137.406354</ele>
        <time>2022-12-28T14:55:10.750Z</time>
      </trkpt>
      <trkpt lat="44.33496" lon="0.06038">
        <ele>136.66881</ele>
        <time>2022-12-28T14:55:12.814Z</time>
      </trkpt>
      <trkpt lat="44.33485" lon="0.06052">
        <ele>136.067324</ele>
        <time>2022-12-28T14:55:14.761Z</time>
      </trkpt>
      <trkpt lat="44.33475" lon="0.06066">
        <ele>135.488589</ele>
        <time>2022-12-28T14:55:16.762Z</time>
      </trkpt>
      <trkpt lat="44.33465" lon="0.0608">
        <ele>134.901683</ele>
        <time>2022-12-28T14:55:18.808Z</time>
      </trkpt>
      <trkpt lat="44.33455" lon="0.06094">
        <ele>134.300681</ele>
        <time>2022-12-28T14:55:20.730Z</time>
      </trkpt>
      <trkpt lat="44.33445" lon="0.06109">
        <ele>133.697796</ele>
        <time>2022-12-28T14:55:22.752Z</time>
      </trkpt>
      <trkpt lat="44.33434" lon="0.06124">
        <ele>133.077705</ele>
        <time>2022-12-28T14:55:24.809Z</time>
      </trkpt>
      <trkpt lat="44.33423" lon="0.0614">
        <ele>132.42097</ele>
        <time>2022-12-28T14:55:26.753Z</time>
      </trkpt>
      <trkpt lat="44.33411" lon="0.06156">
        <ele>131.759789</ele>
        <time>2022-12-28T14:55:28.762Z</time>
      </trkpt>
      <trkpt lat="44.334" lon="0.06172">
        <ele>131.092767</ele>
        <time>2022-12-28T14:55:30.808Z</time>
      </trkpt>
      <trkpt lat="44.33388" lon="0.06188">
        <ele>130.425746</ele>
        <time>2022-12-28T14:55:32.763Z</time>
      </trkpt>
      <trkpt lat="44.33377" lon="0.06204">
        <ele>129.763306</ele>
        <time>2022-12-28T14:55:34.763Z</time>
      </trkpt>
      <trkpt lat="44.33366" lon="0.06221">
        <ele>129.146337</ele>
        <time>2022-12-28T14:55:36.818Z</time>
      </trkpt>
      <trkpt lat="44.33354" lon="0.06239">
        <ele>128.647209</ele>
        <time>2022-12-28T14:55:38.742Z</time>
      </trkpt>
      <trkpt lat="44.33342" lon="0.06255">
        <ele>128.141183</ele>
        <time>2022-12-28T14:55:40.765Z</time>
      </trkpt>
      <trkpt lat="44.3333" lon="0.06273">
        <ele>127.631878</ele>
        <time>2022-12-28T14:55:42.816Z</time>
      </trkpt>
      <trkpt lat="44.33318" lon="0.0629">
        <ele>127.117846</ele>
        <time>2022-12-28T14:55:44.764Z</time>
      </trkpt>
      <trkpt lat="44.33306" lon="0.06308">
        <ele>126.604515</ele>
        <time>2022-12-28T14:55:46.755Z</time>
      </trkpt>
      <trkpt lat="44.33294" lon="0.06325">
        <ele>126.105384</ele>
        <time>2022-12-28T14:55:48.819Z</time>
      </trkpt>
      <trkpt lat="44.33283" lon="0.06343">
        <ele>125.614356</ele>
        <time>2022-12-28T14:55:50.758Z</time>
      </trkpt>
      <trkpt lat="44.33273" lon="0.0636">
        <ele>125.146684</ele>
        <time>2022-12-28T14:55:52.759Z</time>
      </trkpt>
      <trkpt lat="44.33263" lon="0.06377">
        <ele>124.685799</ele>
        <time>2022-12-28T14:55:54.806Z</time>
      </trkpt>
      <trkpt lat="44.33254" lon="0.06393">
        <ele>124.252366</ele>
        <time>2022-12-28T14:55:56.761Z</time>
      </trkpt>
      <trkpt lat="44.33245" lon="0.0641">
        <ele>123.874132</ele>
        <time>2022-12-28T14:55:58.761Z</time>
      </trkpt>
      <trkpt lat="44.33237" lon="0.06427">
        <ele>123.60163</ele>
        <time>2022-12-28T14:56:00.842Z</time>
      </trkpt>
      <trkpt lat="44.33228" lon="0.06443">
        <ele>123.333469</ele>
        <time>2022-12-28T14:56:02.762Z</time>
      </trkpt>
      <trkpt lat="44.33219" lon="0.06459">
        <ele>123.060967</ele>
        <time>2022-12-28T14:56:04.763Z</time>
      </trkpt>
      <trkpt lat="44.33211" lon="0.06475">
        <ele>122.804864</ele>
        <time>2022-12-28T14:56:06.763Z</time>
      </trkpt>
      <trkpt lat="44.33204" lon="0.06489">
        <ele>122.56615</ele>
        <time>2022-12-28T14:56:08.764Z</time>
      </trkpt>
      <trkpt lat="44.33197" lon="0.06504">
        <ele>122.322022</ele>
        <time>2022-12-28T14:56:10.739Z</time>
      </trkpt>
      <trkpt lat="44.33189" lon="0.06517">
        <ele>122.091414</ele>
        <time>2022-12-28T14:56:12.764Z</time>
      </trkpt>
      <trkpt lat="44.33181" lon="0.06531">
        <ele>121.853409</ele>
        <time>2022-12-28T14:56:14.764Z</time>
      </trkpt>
      <trkpt lat="44.33173" lon="0.06544">
        <ele>121.618513</ele>
        <time>2022-12-28T14:56:16.753Z</time>
      </trkpt>
      <trkpt lat="44.33164" lon="0.06557">
        <ele>121.381927</ele>
        <time>2022-12-28T14:56:18.762Z</time>
      </trkpt>
      <trkpt lat="44.33156" lon="0.06569">
        <ele>121.160165</ele>
        <time>2022-12-28T14:56:20.761Z</time>
      </trkpt>
      <trkpt lat="44.33147" lon="0.06582">
        <ele>120.922606</ele>
        <time>2022-12-28T14:56:22.763Z</time>
      </trkpt>
      <trkpt lat="44.33138" lon="0.06594">
        <ele>120.695112</ele>
        <time>2022-12-28T14:56:24.743Z</time>
      </trkpt>
      <trkpt lat="44.33129" lon="0.06606">
        <ele>120.685611</ele>
        <time>2022-12-28T14:56:26.754Z</time>
      </trkpt>
      <trkpt lat="44.33119" lon="0.06617">
        <ele>120.762527</ele>
        <time>2022-12-28T14:56:28.750Z</time>
      </trkpt>
      <trkpt lat="44.33108" lon="0.06628">
        <ele>120.84306</ele>
        <time>2022-12-28T14:56:30.745Z</time>
      </trkpt>
      <trkpt lat="44.33098" lon="0.06639">
        <ele>120.921105</ele>
        <time>2022-12-28T14:56:32.754Z</time>
      </trkpt>
      <trkpt lat="44.33088" lon="0.06647">
        <ele>120.994692</ele>
        <time>2022-12-28T14:56:34.758Z</time>
      </trkpt>
      <trkpt lat="44.33077" lon="0.06656">
        <ele>121.070592</ele>
        <time>2022-12-28T14:56:36.762Z</time>
      </trkpt>
      <trkpt lat="44.33067" lon="0.06666">
        <ele>121.148855</ele>
        <time>2022-12-28T14:56:38.762Z</time>
      </trkpt>
      <trkpt lat="44.33056" lon="0.06675">
        <ele>121.223863</ele>
        <time>2022-12-28T14:56:40.747Z</time>
      </trkpt>
      <trkpt lat="44.33047" lon="0.06681">
        <ele>121.286754</ele>
        <time>2022-12-28T14:56:42.738Z</time>
      </trkpt>
      <trkpt lat="44.33037" lon="0.06688">
        <ele>121.352274</ele>
        <time>2022-12-28T14:56:44.758Z</time>
      </trkpt>
      <trkpt lat="44.33029" lon="0.06695">
        <ele>121.409283</ele>
        <time>2022-12-28T14:56:46.761Z</time>
      </trkpt>
      <trkpt lat="44.33018" lon="0.06704">
        <ele>121.490157</ele>
        <time>2022-12-28T14:56:49.763Z</time>
      </trkpt>
      <trkpt lat="44.3301" lon="0.06711">
        <ele>121.547232</ele>
        <time>2022-12-28T14:56:51.762Z</time>
      </trkpt>
      <trkpt lat="44.32999" lon="0.06719">
        <ele>121.624153</ele>
        <time>2022-12-28T14:56:54.749Z</time>
      </trkpt>
      <trkpt lat="44.32988" lon="0.06727">
        <ele>121.698349</ele>
        <time>2022-12-28T14:56:57.761Z</time>
      </trkpt>
      <trkpt lat="44.32979" lon="0.06734">
        <ele>121.844353</ele>
        <time>2022-12-28T14:57:00.732Z</time>
      </trkpt>
      <trkpt lat="44.32971" lon="0.06741">
        <ele>122.064413</ele>
        <time>2022-12-28T14:57:03.763Z</time>
      </trkpt>
      <trkpt lat="44.32963" lon="0.06748">
        <ele>122.274072</ele>
        <time>2022-12-28T14:57:06.749Z</time>
      </trkpt>
      <trkpt lat="44.32955" lon="0.06755">
        <ele>122.475708</ele>
        <time>2022-12-28T14:57:09.763Z</time>
      </trkpt>
      <trkpt lat="44.32946" lon="0.06762">
        <ele>122.70624</ele>
        <time>2022-12-28T14:57:12.762Z</time>
      </trkpt>
      <trkpt lat="44.32937" lon="0.06768">
        <ele>122.925321</ele>
        <time>2022-12-28T14:57:15.764Z</time>
      </trkpt>
      <trkpt lat="44.32928" lon="0.06776">
        <ele>123.15826</ele>
        <time>2022-12-28T14:57:18.739Z</time>
      </trkpt>
      <trkpt lat="44.32919" lon="0.06783">
        <ele>123.390117</ele>
        <time>2022-12-28T14:57:21.750Z</time>
      </trkpt>
      <trkpt lat="44.32911" lon="0.0679">
        <ele>123.606245</ele>
        <time>2022-12-28T14:57:24.762Z</time>
      </trkpt>
      <trkpt lat="44.32902" lon="0.06798">
        <ele>123.830207</ele>
        <time>2022-12-28T14:57:27.761Z</time>
      </trkpt>
      <trkpt lat="44.32894" lon="0.06806">
        <ele>124.065326</ele>
        <time>2022-12-28T14:57:30.754Z</time>
      </trkpt>
      <trkpt lat="44.32885" lon="0.06814">
        <ele>124.295865</ele>
        <time>2022-12-28T14:57:33.758Z</time>
      </trkpt>
      <trkpt lat="44.32877" lon="0.06823">
        <ele>124.52718</ele>
        <time>2022-12-28T14:57:36.759Z</time>
      </trkpt>
      <trkpt lat="44.32869" lon="0.06832">
        <ele>124.754754</ele>
        <time>2022-12-28T14:57:39.752Z</time>
      </trkpt>
      <trkpt lat="44.32861" lon="0.06842">
        <ele>124.990188</ele>
        <time>2022-12-28T14:57:42.761Z</time>
      </trkpt>
      <trkpt lat="44.32853" lon="0.06852">
        <ele>125.231492</ele>
        <time>2022-12-28T14:57:45.761Z</time>
      </trkpt>
      <trkpt lat="44.32845" lon="0.06863">
        <ele>125.483911</ele>
        <time>2022-12-28T14:57:48.761Z</time>
      </trkpt>
      <trkpt lat="44.32837" lon="0.06875">
        <ele>125.73279</ele>
        <time>2022-12-28T14:57:51.843Z</time>
      </trkpt>
      <trkpt lat="44.32829" lon="0.06886">
        <ele>125.821381</ele>
        <time>2022-12-28T14:57:54.771Z</time>
      </trkpt>
      <trkpt lat="44.32823" lon="0.06898">
        <ele>125.902736</ele>
        <time>2022-12-28T14:57:57.739Z</time>
      </trkpt>
      <trkpt lat="44.32816" lon="0.06909">
        <ele>125.98746</ele>
        <time>2022-12-28T14:58:00.763Z</time>
      </trkpt>
      <trkpt lat="44.32808" lon="0.0692">
        <ele>126.084678</ele>
        <time>2022-12-28T14:58:03.765Z</time>
      </trkpt>
      <trkpt lat="44.328" lon="0.06934">
        <ele>126.18481</ele>
        <time>2022-12-28T14:58:06.754Z</time>
      </trkpt>
      <trkpt lat="44.32792" lon="0.06948">
        <ele>126.28865</ele>
        <time>2022-12-28T14:58:09.762Z</time>
      </trkpt>
      <trkpt lat="44.32786" lon="0.06959">
        <ele>126.362587</ele>
        <time>2022-12-28T14:58:11.762Z</time>
      </trkpt>
      <trkpt lat="44.32781" lon="0.06969">
        <ele>126.437429</ele>
        <time>2022-12-28T14:58:13.753Z</time>
      </trkpt>
      <trkpt lat="44.32775" lon="0.06979">
        <ele>126.511782</ele>
        <time>2022-12-28T14:58:15.754Z</time>
      </trkpt>
      <trkpt lat="44.32769" lon="0.0699">
        <ele>126.589397</ele>
        <time>2022-12-28T14:58:17.760Z</time>
      </trkpt>
      <trkpt lat="44.32763" lon="0.07">
        <ele>126.665806</ele>
        <time>2022-12-28T14:58:19.764Z</time>
      </trkpt>
      <trkpt lat="44.32757" lon="0.07011">
        <ele>126.744851</ele>
        <time>2022-12-28T14:58:21.750Z</time>
      </trkpt>
      <trkpt lat="44.32751" lon="0.07023">
        <ele>126.828996</ele>
        <time>2022-12-28T14:58:23.761Z</time>
      </trkpt>
      <trkpt lat="44.32745" lon="0.07034">
        <ele>126.906124</ele>
        <time>2022-12-28T14:58:25.740Z</time>
      </trkpt>
      <trkpt lat="44.3274" lon="0.07046">
        <ele>126.989834</ele>
        <time>2022-12-28T14:58:27.759Z</time>
      </trkpt>
      <trkpt lat="44.32734" lon="0.07057">
        <ele>127.069825</ele>
        <time>2022-12-28T14:58:29.764Z</time>
      </trkpt>
      <trkpt lat="44.32727" lon="0.07068">
        <ele>127.152714</ele>
        <time>2022-12-28T14:58:31.760Z</time>
      </trkpt>
      <trkpt lat="44.32721" lon="0.0708">
        <ele>126.956561</ele>
        <time>2022-12-28T14:58:33.760Z</time>
      </trkpt>
      <trkpt lat="44.32714" lon="0.07091">
        <ele>126.669653</ele>
        <time>2022-12-28T14:58:35.733Z</time>
      </trkpt>
      <trkpt lat="44.32709" lon="0.07102">
        <ele>126.405181</ele>
        <time>2022-12-28T14:58:37.751Z</time>
      </trkpt>
      <trkpt lat="44.32702" lon="0.07114">
        <ele>126.110548</ele>
        <time>2022-12-28T14:58:39.756Z</time>
      </trkpt>
      <trkpt lat="44.32696" lon="0.07125">
        <ele>125.849151</ele>
        <time>2022-12-28T14:58:41.811Z</time>
      </trkpt>
      <trkpt lat="44.3269" lon="0.07137">
        <ele>125.567264</ele>
        <time>2022-12-28T14:58:43.751Z</time>
      </trkpt>
      <trkpt lat="44.32685" lon="0.07149">
        <ele>125.283377</ele>
        <time>2022-12-28T14:58:45.759Z</time>
      </trkpt>
      <trkpt lat="44.32677" lon="0.07162">
        <ele>124.950954</ele>
        <time>2022-12-28T14:58:47.784Z</time>
      </trkpt>
      <trkpt lat="44.3267" lon="0.07175">
        <ele>124.627827</ele>
        <time>2022-12-28T14:58:49.763Z</time>
      </trkpt>
      <trkpt lat="44.32662" lon="0.07189">
        <ele>124.297901</ele>
        <time>2022-12-28T14:58:51.765Z</time>
      </trkpt>
      <trkpt lat="44.32654" lon="0.07202">
        <ele>123.951579</ele>
        <time>2022-12-28T14:58:53.819Z</time>
      </trkpt>
      <trkpt lat="44.32646" lon="0.07216">
        <ele>123.607725</ele>
        <time>2022-12-28T14:58:55.758Z</time>
      </trkpt>
      <trkpt lat="44.32638" lon="0.0723">
        <ele>123.257461</ele>
        <time>2022-12-28T14:58:57.744Z</time>
      </trkpt>
      <trkpt lat="44.32631" lon="0.07244">
        <ele>122.924835</ele>
        <time>2022-12-28T14:58:59.779Z</time>
      </trkpt>
      <trkpt lat="44.32623" lon="0.07258">
        <ele>122.585828</ele>
        <time>2022-12-28T14:59:01.762Z</time>
      </trkpt>
      <trkpt lat="44.32615" lon="0.07272">
        <ele>122.233059</ele>
        <time>2022-12-28T14:59:03.737Z</time>
      </trkpt>
      <trkpt lat="44.32607" lon="0.07286">
        <ele>121.869213</ele>
        <time>2022-12-28T14:59:05.747Z</time>
      </trkpt>
      <trkpt lat="44.326" lon="0.07299">
        <ele>121.52689</ele>
        <time>2022-12-28T14:59:07.758Z</time>
      </trkpt>
      <trkpt lat="44.32592" lon="0.07311">
        <ele>121.191722</ele>
        <time>2022-12-28T14:59:09.762Z</time>
      </trkpt>
      <trkpt lat="44.32584" lon="0.07325">
        <ele>120.836596</ele>
        <time>2022-12-28T14:59:11.804Z</time>
      </trkpt>
      <trkpt lat="44.32576" lon="0.07337">
        <ele>120.474921</ele>
        <time>2022-12-28T14:59:13.753Z</time>
      </trkpt>
      <trkpt lat="44.32567" lon="0.0735">
        <ele>120.117131</ele>
        <time>2022-12-28T14:59:15.751Z</time>
      </trkpt>
      <trkpt lat="44.32557" lon="0.07361">
        <ele>119.738386</ele>
        <time>2022-12-28T14:59:17.815Z</time>
      </trkpt>
      <trkpt lat="44.32546" lon="0.07372">
        <ele>119.37322</ele>
        <time>2022-12-28T14:59:19.753Z</time>
      </trkpt>
      <trkpt lat="44.32536" lon="0.07381">
        <ele>119.02405</ele>
        <time>2022-12-28T14:59:21.763Z</time>
      </trkpt>
      <trkpt lat="44.32526" lon="0.0739">
        <ele>118.682176</ele>
        <time>2022-12-28T14:59:23.765Z</time>
      </trkpt>
      <trkpt lat="44.32516" lon="0.07398">
        <ele>118.349767</ele>
        <time>2022-12-28T14:59:25.754Z</time>
      </trkpt>
      <trkpt lat="44.32505" lon="0.07405">
        <ele>118.014676</ele>
        <time>2022-12-28T14:59:27.764Z</time>
      </trkpt>
      <trkpt lat="44.32495" lon="0.07413">
        <ele>117.69126</ele>
        <time>2022-12-28T14:59:29.736Z</time>
      </trkpt>
      <trkpt lat="44.32486" lon="0.07421">
        <ele>117.368826</ele>
        <time>2022-12-28T14:59:31.758Z</time>
      </trkpt>
      <trkpt lat="44.32476" lon="0.07429">
        <ele>117.036071</ele>
        <time>2022-12-28T14:59:33.754Z</time>
      </trkpt>
      <trkpt lat="44.32465" lon="0.07438">
        <ele>116.657616</ele>
        <time>2022-12-28T14:59:35.756Z</time>
      </trkpt>
      <trkpt lat="44.32456" lon="0.07446">
        <ele>116.330607</ele>
        <time>2022-12-28T14:59:37.752Z</time>
      </trkpt>
      <trkpt lat="44.32445" lon="0.07453">
        <ele>115.970472</ele>
        <time>2022-12-28T14:59:39.755Z</time>
      </trkpt>
      <trkpt lat="44.32436" lon="0.0746">
        <ele>115.633168</ele>
        <time>2022-12-28T14:59:41.761Z</time>
      </trkpt>
      <trkpt lat="44.32426" lon="0.07465">
        <ele>115.30964</ele>
        <time>2022-12-28T14:59:43.757Z</time>
      </trkpt>
      <trkpt lat="44.32416" lon="0.07472">
        <ele>114.970768</ele>
        <time>2022-12-28T14:59:45.766Z</time>
      </trkpt>
      <trkpt lat="44.32406" lon="0.0748">
        <ele>114.626605</ele>
        <time>2022-12-28T14:59:47.743Z</time>
      </trkpt>
      <trkpt lat="44.32395" lon="0.07488">
        <ele>114.253715</ele>
        <time>2022-12-28T14:59:49.761Z</time>
      </trkpt>
      <trkpt lat="44.32385" lon="0.07497">
        <ele>113.877629</ele>
        <time>2022-12-28T14:59:51.762Z</time>
      </trkpt>
      <trkpt lat="44.32374" lon="0.07506">
        <ele>113.495622</ele>
        <time>2022-12-28T14:59:53.761Z</time>
      </trkpt>
      <trkpt lat="44.32363" lon="0.07514">
        <ele>113.123736</ele>
        <time>2022-12-28T14:59:55.757Z</time>
      </trkpt>
      <trkpt lat="44.32353" lon="0.07523">
        <ele>112.754848</ele>
        <time>2022-12-28T14:59:57.760Z</time>
      </trkpt>
      <trkpt lat="44.32343" lon="0.07531">
        <ele>112.394186</ele>
        <time>2022-12-28T14:59:59.744Z</time>
      </trkpt>
      <trkpt lat="44.32333" lon="0.07538">
        <ele>112.0597</ele>
        <time>2022-12-28T15:00:01.758Z</time>
      </trkpt>
      <trkpt lat="44.32324" lon="0.07545">
        <ele>111.747069</ele>
        <time>2022-12-28T15:00:03.760Z</time>
      </trkpt>
      <trkpt lat="44.32315" lon="0.07553">
        <ele>111.533151</ele>
        <time>2022-12-28T15:00:05.753Z</time>
      </trkpt>
      <trkpt lat="44.32306" lon="0.07559">
        <ele>111.397723</ele>
        <time>2022-12-28T15:00:07.761Z</time>
      </trkpt>
      <trkpt lat="44.32297" lon="0.07566">
        <ele>111.243406</ele>
        <time>2022-12-28T15:00:09.764Z</time>
      </trkpt>
      <trkpt lat="44.32287" lon="0.07575">
        <ele>111.084773</ele>
        <time>2022-12-28T15:00:11.763Z</time>
      </trkpt>
      <trkpt lat="44.32277" lon="0.07582">
        <ele>110.922106</ele>
        <time>2022-12-28T15:00:13.762Z</time>
      </trkpt>
      <trkpt lat="44.32267" lon="0.0759">
        <ele>110.759011</ele>
        <time>2022-12-28T15:00:15.767Z</time>
      </trkpt>
      <trkpt lat="44.32256" lon="0.07599">
        <ele>110.580767</ele>
        <time>2022-12-28T15:00:17.761Z</time>
      </trkpt>
      <trkpt lat="44.32246" lon="0.07607">
        <ele>110.420857</ele>
        <time>2022-12-28T15:00:19.760Z</time>
      </trkpt>
      <trkpt lat="44.32235" lon="0.07614">
        <ele>110.251133</ele>
        <time>2022-12-28T15:00:21.760Z</time>
      </trkpt>
      <trkpt lat="44.32225" lon="0.07622">
        <ele>110.089995</ele>
        <time>2022-12-28T15:00:23.751Z</time>
      </trkpt>
      <trkpt lat="44.32214" lon="0.0763">
        <ele>109.919327</ele>
        <time>2022-12-28T15:00:25.763Z</time>
      </trkpt>
      <trkpt lat="44.32204" lon="0.07639">
        <ele>109.747333</ele>
        <time>2022-12-28T15:00:27.758Z</time>
      </trkpt>
      <trkpt lat="44.32193" lon="0.07648">
        <ele>109.578377</ele>
        <time>2022-12-28T15:00:29.750Z</time>
      </trkpt>
      <trkpt lat="44.32182" lon="0.07655">
        <ele>109.40902</ele>
        <time>2022-12-28T15:00:31.754Z</time>
      </trkpt>
      <trkpt lat="44.32172" lon="0.07663">
        <ele>109.248831</ele>
        <time>2022-12-28T15:00:33.763Z</time>
      </trkpt>
      <trkpt lat="44.32162" lon="0.07672">
        <ele>109.102845</ele>
        <time>2022-12-28T15:00:35.764Z</time>
      </trkpt>
      <trkpt lat="44.32151" lon="0.0768">
        <ele>109.065401</ele>
        <time>2022-12-28T15:00:37.757Z</time>
      </trkpt>
      <trkpt lat="44.32141" lon="0.07688">
        <ele>109.029552</ele>
        <time>2022-12-28T15:00:39.764Z</time>
      </trkpt>
      <trkpt lat="44.32131" lon="0.07695">
        <ele>108.993796</ele>
        <time>2022-12-28T15:00:41.743Z</time>
      </trkpt>
      <trkpt lat="44.32121" lon="0.07703">
        <ele>108.957564</ele>
        <time>2022-12-28T15:00:43.761Z</time>
      </trkpt>
      <trkpt lat="44.32111" lon="0.07709">
        <ele>108.924647</ele>
        <time>2022-12-28T15:00:45.754Z</time>
      </trkpt>
      <trkpt lat="44.32102" lon="0.07716">
        <ele>108.892295</ele>
        <time>2022-12-28T15:00:47.761Z</time>
      </trkpt>
      <trkpt lat="44.32092" lon="0.07723">
        <ele>108.858121</ele>
        <time>2022-12-28T15:00:49.761Z</time>
      </trkpt>
      <trkpt lat="44.32081" lon="0.07729">
        <ele>108.820735</ele>
        <time>2022-12-28T15:00:51.761Z</time>
      </trkpt>
      <trkpt lat="44.32071" lon="0.07736">
        <ele>108.78602</ele>
        <time>2022-12-28T15:00:53.763Z</time>
      </trkpt>
      <trkpt lat="44.32062" lon="0.07743">
        <ele>108.75202</ele>
        <time>2022-12-28T15:00:55.758Z</time>
      </trkpt>
      <trkpt lat="44.32052" lon="0.07748">
        <ele>108.71983</ele>
        <time>2022-12-28T15:00:57.788Z</time>
      </trkpt>
      <trkpt lat="44.32043" lon="0.07754">
        <ele>108.6881</ele>
        <time>2022-12-28T15:00:59.739Z</time>
      </trkpt>
      <trkpt lat="44.32034" lon="0.0776">
        <ele>108.656697</ele>
        <time>2022-12-28T15:01:01.761Z</time>
      </trkpt>
      <trkpt lat="44.32025" lon="0.07765">
        <ele>108.626788</ele>
        <time>2022-12-28T15:01:03.752Z</time>
      </trkpt>
      <trkpt lat="44.32016" lon="0.07769">
        <ele>108.596156</ele>
        <time>2022-12-28T15:01:05.740Z</time>
      </trkpt>
      <trkpt lat="44.32006" lon="0.07774">
        <ele>108.56538</ele>
        <time>2022-12-28T15:01:07.762Z</time>
      </trkpt>
      <trkpt lat="44.31998" lon="0.07779">
        <ele>108.576173</ele>
        <time>2022-12-28T15:01:09.763Z</time>
      </trkpt>
      <trkpt lat="44.31988" lon="0.07784">
        <ele>108.641749</ele>
        <time>2022-12-28T15:01:11.762Z</time>
      </trkpt>
      <trkpt lat="44.31979" lon="0.07791">
        <ele>108.708963</ele>
        <time>2022-12-28T15:01:13.762Z</time>
      </trkpt>
      <trkpt lat="44.31971" lon="0.07797">
        <ele>108.770124</ele>
        <time>2022-12-28T15:01:15.760Z</time>
      </trkpt>
      <trkpt lat="44.31963" lon="0.07805">
        <ele>108.835304</ele>
        <time>2022-12-28T15:01:17.763Z</time>
      </trkpt>
      <trkpt lat="44.31954" lon="0.07812">
        <ele>108.902136</ele>
        <time>2022-12-28T15:01:19.753Z</time>
      </trkpt>
      <trkpt lat="44.31947" lon="0.07822">
        <ele>108.96699</ele>
        <time>2022-12-28T15:01:21.764Z</time>
      </trkpt>
      <trkpt lat="44.31939" lon="0.07832">
        <ele>109.040366</ele>
        <time>2022-12-28T15:01:23.762Z</time>
      </trkpt>
      <trkpt lat="44.31931" lon="0.07843">
        <ele>109.11335</ele>
        <time>2022-12-28T15:01:25.743Z</time>
      </trkpt>
      <trkpt lat="44.31923" lon="0.07855">
        <ele>109.18827</ele>
        <time>2022-12-28T15:01:27.750Z</time>
      </trkpt>
      <trkpt lat="44.31915" lon="0.07866">
        <ele>109.26365</ele>
        <time>2022-12-28T15:01:29.762Z</time>
      </trkpt>
      <trkpt lat="44.31907" lon="0.07877">
        <ele>109.339494</ele>
        <time>2022-12-28T15:01:31.763Z</time>
      </trkpt>
      <trkpt lat="44.31899" lon="0.07889">
        <ele>109.416605</ele>
        <time>2022-12-28T15:01:33.762Z</time>
      </trkpt>
      <trkpt lat="44.3189" lon="0.079">
        <ele>109.495134</ele>
        <time>2022-12-28T15:01:35.768Z</time>
      </trkpt>
      <trkpt lat="44.31882" lon="0.07912">
        <ele>109.572691</ele>
        <time>2022-12-28T15:01:37.764Z</time>
      </trkpt>
      <trkpt lat="44.31873" lon="0.07923">
        <ele>109.649767</ele>
        <time>2022-12-28T15:01:39.761Z</time>
      </trkpt>
      <trkpt lat="44.31865" lon="0.07933">
        <ele>109.721761</ele>
        <time>2022-12-28T15:01:41.752Z</time>
      </trkpt>
      <trkpt lat="44.31857" lon="0.07943">
        <ele>109.672367</ele>
        <time>2022-12-28T15:01:43.759Z</time>
      </trkpt>
      <trkpt lat="44.3185" lon="0.07953">
        <ele>109.60218</ele>
        <time>2022-12-28T15:01:45.739Z</time>
      </trkpt>
      <trkpt lat="44.3184" lon="0.07966">
        <ele>109.507998</ele>
        <time>2022-12-28T15:01:48.726Z</time>
      </trkpt>
      <trkpt lat="44.31832" lon="0.07977">
        <ele>109.424175</ele>
        <time>2022-12-28T15:01:51.758Z</time>
      </trkpt>
      <trkpt lat="44.31824" lon="0.07988">
        <ele>109.344019</ele>
        <time>2022-12-28T15:01:54.749Z</time>
      </trkpt>
      <trkpt lat="44.31814" lon="0.08">
        <ele>109.251709</ele>
        <time>2022-12-28T15:01:57.758Z</time>
      </trkpt>
      <trkpt lat="44.31808" lon="0.0801">
        <ele>109.185068</ele>
        <time>2022-12-28T15:01:59.756Z</time>
      </trkpt>
      <trkpt lat="44.318" lon="0.08019">
        <ele>109.113275</ele>
        <time>2022-12-28T15:02:01.759Z</time>
      </trkpt>
      <trkpt lat="44.31793" lon="0.08028">
        <ele>109.044776</ele>
        <time>2022-12-28T15:02:03.758Z</time>
      </trkpt>
      <trkpt lat="44.31785" lon="0.08039">
        <ele>108.965873</ele>
        <time>2022-12-28T15:02:05.750Z</time>
      </trkpt>
      <trkpt lat="44.31777" lon="0.0805">
        <ele>108.883156</ele>
        <time>2022-12-28T15:02:07.761Z</time>
      </trkpt>
      <trkpt lat="44.31769" lon="0.0806">
        <ele>108.806643</ele>
        <time>2022-12-28T15:02:09.762Z</time>
      </trkpt>
      <trkpt lat="44.31761" lon="0.0807">
        <ele>108.730689</ele>
        <time>2022-12-28T15:02:11.761Z</time>
      </trkpt>
      <trkpt lat="44.31753" lon="0.08081">
        <ele>108.652617</ele>
        <time>2022-12-28T15:02:13.739Z</time>
      </trkpt>
      <trkpt lat="44.31746" lon="0.08091">
        <ele>108.579578</ele>
        <time>2022-12-28T15:02:15.760Z</time>
      </trkpt>
      <trkpt lat="44.31738" lon="0.081">
        <ele>108.509342</ele>
        <time>2022-12-28T15:02:17.757Z</time>
      </trkpt>
      <trkpt lat="44.31731" lon="0.0811">
        <ele>108.476863</ele>
        <time>2022-12-28T15:02:19.759Z</time>
      </trkpt>
      <trkpt lat="44.31724" lon="0.0812">
        <ele>108.55683</ele>
        <time>2022-12-28T15:02:21.740Z</time>
      </trkpt>
      <trkpt lat="44.31716" lon="0.08129">
        <ele>108.639203</ele>
        <time>2022-12-28T15:02:23.751Z</time>
      </trkpt>
      <trkpt lat="44.31707" lon="0.08138">
        <ele>108.722021</ele>
        <time>2022-12-28T15:02:25.762Z</time>
      </trkpt>
      <trkpt lat="44.317" lon="0.08148">
        <ele>108.803716</ele>
        <time>2022-12-28T15:02:27.761Z</time>
      </trkpt>
      <trkpt lat="44.31692" lon="0.08159">
        <ele>108.887028</ele>
        <time>2022-12-28T15:02:29.741Z</time>
      </trkpt>
      <trkpt lat="44.31685" lon="0.08169">
        <ele>108.969823</ele>
        <time>2022-12-28T15:02:31.752Z</time>
      </trkpt>
      <trkpt lat="44.31677" lon="0.08179">
        <ele>109.059072</ele>
        <time>2022-12-28T15:02:33.749Z</time>
      </trkpt>
      <trkpt lat="44.31669" lon="0.08191">
        <ele>109.148379</ele>
        <time>2022-12-28T15:02:35.760Z</time>
      </trkpt>
      <trkpt lat="44.31661" lon="0.08201">
        <ele>109.235861</ele>
        <time>2022-12-28T15:02:37.761Z</time>
      </trkpt>
      <trkpt lat="44.31652" lon="0.08212">
        <ele>109.326827</ele>
        <time>2022-12-28T15:02:39.756Z</time>
      </trkpt>
      <trkpt lat="44.31644" lon="0.08224">
        <ele>109.421174</ele>
        <time>2022-12-28T15:02:41.739Z</time>
      </trkpt>
      <trkpt lat="44.31636" lon="0.08234">
        <ele>109.502678</ele>
        <time>2022-12-28T15:02:43.739Z</time>
      </trkpt>
      <trkpt lat="44.31629" lon="0.08244">
        <ele>109.585355</ele>
        <time>2022-12-28T15:02:45.756Z</time>
      </trkpt>
      <trkpt lat="44.31621" lon="0.08254">
        <ele>109.669401</ele>
        <time>2022-12-28T15:02:47.764Z</time>
      </trkpt>
      <trkpt lat="44.31613" lon="0.08263">
        <ele>109.748404</ele>
        <time>2022-12-28T15:02:49.744Z</time>
      </trkpt>
      <trkpt lat="44.31605" lon="0.08272">
        <ele>109.830614</ele>
        <time>2022-12-28T15:02:51.739Z</time>
      </trkpt>
      <trkpt lat="44.31599" lon="0.08283">
        <ele>109.868959</ele>
        <time>2022-12-28T15:02:53.753Z</time>
      </trkpt>
      <trkpt lat="44.31592" lon="0.08293">
        <ele>109.84889</ele>
        <time>2022-12-28T15:02:55.761Z</time>
      </trkpt>
      <trkpt lat="44.31584" lon="0.08303">
        <ele>109.828223</ele>
        <time>2022-12-28T15:02:57.763Z</time>
      </trkpt>
      <trkpt lat="44.31577" lon="0.08313">
        <ele>109.807915</ele>
        <time>2022-12-28T15:02:59.745Z</time>
      </trkpt>
      <trkpt lat="44.3157" lon="0.08323">
        <ele>109.788042</ele>
        <time>2022-12-28T15:03:01.760Z</time>
      </trkpt>
      <trkpt lat="44.31562" lon="0.08332">
        <ele>109.768217</ele>
        <time>2022-12-28T15:03:03.758Z</time>
      </trkpt>
      <trkpt lat="44.31555" lon="0.08342">
        <ele>109.748057</ele>
        <time>2022-12-28T15:03:05.759Z</time>
      </trkpt>
      <trkpt lat="44.31548" lon="0.08352">
        <ele>109.728479</ele>
        <time>2022-12-28T15:03:07.746Z</time>
      </trkpt>
      <trkpt lat="44.31541" lon="0.08362">
        <ele>109.709271</ele>
        <time>2022-12-28T15:03:09.744Z</time>
      </trkpt>
      <trkpt lat="44.31534" lon="0.08372">
        <ele>109.689515</ele>
        <time>2022-12-28T15:03:11.750Z</time>
      </trkpt>
      <trkpt lat="44.31527" lon="0.08382">
        <ele>109.669402</ele>
        <time>2022-12-28T15:03:13.763Z</time>
      </trkpt>
      <trkpt lat="44.3152" lon="0.08392">
        <ele>109.649475</ele>
        <time>2022-12-28T15:03:15.753Z</time>
      </trkpt>
      <trkpt lat="44.31512" lon="0.08401">
        <ele>109.629545</ele>
        <time>2022-12-28T15:03:17.759Z</time>
      </trkpt>
      <trkpt lat="44.31504" lon="0.08411">
        <ele>109.609075</ele>
        <time>2022-12-28T15:03:19.763Z</time>
      </trkpt>
      <trkpt lat="44.31497" lon="0.08421">
        <ele>109.588231</ele>
        <time>2022-12-28T15:03:21.753Z</time>
      </trkpt>
      <trkpt lat="44.3149" lon="0.08431">
        <ele>109.569232</ele>
        <time>2022-12-28T15:03:23.739Z</time>
      </trkpt>
      <trkpt lat="44.31483" lon="0.08439">
        <ele>109.551029</ele>
        <time>2022-12-28T15:03:25.742Z</time>
      </trkpt>
      <trkpt lat="44.31475" lon="0.08452">
        <ele>109.526222</ele>
        <time>2022-12-28T15:03:28.751Z</time>
      </trkpt>
      <trkpt lat="44.31466" lon="0.08464">
        <ele>109.568117</ele>
        <time>2022-12-28T15:03:31.763Z</time>
      </trkpt>
      <trkpt lat="44.31458" lon="0.08476">
        <ele>109.618658</ele>
        <time>2022-12-28T15:03:34.770Z</time>
      </trkpt>
      <trkpt lat="44.31449" lon="0.08487">
        <ele>109.670375</ele>
        <time>2022-12-28T15:03:37.742Z</time>
      </trkpt>
      <trkpt lat="44.31442" lon="0.08497">
        <ele>109.718713</ele>
        <time>2022-12-28T15:03:40.753Z</time>
      </trkpt>
      <trkpt lat="44.31433" lon="0.08506">
        <ele>109.766826</ele>
        <time>2022-12-28T15:03:43.733Z</time>
      </trkpt>
      <trkpt lat="44.31423" lon="0.08511">
        <ele>109.811914</ele>
        <time>2022-12-28T15:03:46.762Z</time>
      </trkpt>
      <trkpt lat="44.31413" lon="0.08511">
        <ele>109.859253</ele>
        <time>2022-12-28T15:03:49.763Z</time>
      </trkpt>
      <trkpt lat="44.31402" lon="0.08512">
        <ele>109.907971</ele>
        <time>2022-12-28T15:03:52.762Z</time>
      </trkpt>
      <trkpt lat="44.31393" lon="0.08523">
        <ele>109.961882</ele>
        <time>2022-12-28T15:03:55.763Z</time>
      </trkpt>
      <trkpt lat="44.31389" lon="0.0854">
        <ele>110.018528</ele>
        <time>2022-12-28T15:03:58.761Z</time>
      </trkpt>
      <trkpt lat="44.31388" lon="0.08556">
        <ele>110.070642</ele>
        <time>2022-12-28T15:04:01.761Z</time>
      </trkpt>
      <trkpt lat="44.31386" lon="0.08572">
        <ele>110.120024</ele>
        <time>2022-12-28T15:04:04.763Z</time>
      </trkpt>
      <trkpt lat="44.31385" lon="0.08589">
        <ele>110.175309</ele>
        <time>2022-12-28T15:04:07.764Z</time>
      </trkpt>
      <trkpt lat="44.31384" lon="0.08606">
        <ele>110.231095</ele>
        <time>2022-12-28T15:04:10.729Z</time>
      </trkpt>
      <trkpt lat="44.31381" lon="0.08624">
        <ele>110.287332</ele>
        <time>2022-12-28T15:04:13.760Z</time>
      </trkpt>
      <trkpt lat="44.31376" lon="0.08641">
        <ele>110.357468</ele>
        <time>2022-12-28T15:04:16.763Z</time>
      </trkpt>
      <trkpt lat="44.31371" lon="0.08657">
        <ele>110.443515</ele>
        <time>2022-12-28T15:04:19.754Z</time>
      </trkpt>
      <trkpt lat="44.31365" lon="0.08674">
        <ele>110.533791</ele>
        <time>2022-12-28T15:04:22.763Z</time>
      </trkpt>
      <trkpt lat="44.31361" lon="0.08686">
        <ele>110.600696</ele>
        <time>2022-12-28T15:04:24.761Z</time>
      </trkpt>
      <trkpt lat="44.31357" lon="0.08699">
        <ele>110.671726</ele>
        <time>2022-12-28T15:04:26.759Z</time>
      </trkpt>
      <trkpt lat="44.31354" lon="0.08713">
        <ele>110.73904</ele>
        <time>2022-12-28T15:04:28.823Z</time>
      </trkpt>
      <trkpt lat="44.31351" lon="0.08727">
        <ele>110.809807</ele>
        <time>2022-12-28T15:04:30.740Z</time>
      </trkpt>
      <trkpt lat="44.31349" lon="0.08741">
        <ele>110.8813</ele>
        <time>2022-12-28T15:04:32.764Z</time>
      </trkpt>
      <trkpt lat="44.31349" lon="0.08757">
        <ele>110.958575</ele>
        <time>2022-12-28T15:04:34.840Z</time>
      </trkpt>
      <trkpt lat="44.31348" lon="0.08773">
        <ele>111.034913</ele>
        <time>2022-12-28T15:04:36.758Z</time>
      </trkpt>
      <trkpt lat="44.31347" lon="0.08791">
        <ele>111.125478</ele>
        <time>2022-12-28T15:04:39.758Z</time>
      </trkpt>
      <trkpt lat="44.31346" lon="0.08804">
        <ele>111.189603</ele>
        <time>2022-12-28T15:04:41.753Z</time>
      </trkpt>
      <trkpt lat="44.31346" lon="0.08823">
        <ele>111.280399</ele>
        <time>2022-12-28T15:04:44.754Z</time>
      </trkpt>
      <trkpt lat="44.31343" lon="0.0884">
        <ele>111.366218</ele>
        <time>2022-12-28T15:04:47.759Z</time>
      </trkpt>
      <trkpt lat="44.31341" lon="0.08859">
        <ele>111.458503</ele>
        <time>2022-12-28T15:04:50.761Z</time>
      </trkpt>
      <trkpt lat="44.3134" lon="0.08878">
        <ele>111.542696</ele>
        <time>2022-12-28T15:04:53.762Z</time>
      </trkpt>
      <trkpt lat="44.3134" lon="0.08891">
        <ele>111.500009</ele>
        <time>2022-12-28T15:04:55.762Z</time>
      </trkpt>
      <trkpt lat="44.31339" lon="0.08909">
        <ele>111.44152</ele>
        <time>2022-12-28T15:04:58.760Z</time>
      </trkpt>
      <trkpt lat="44.31336" lon="0.08927">
        <ele>111.382756</ele>
        <time>2022-12-28T15:05:01.744Z</time>
      </trkpt>
      <trkpt lat="44.31333" lon="0.08945">
        <ele>111.325229</ele>
        <time>2022-12-28T15:05:04.759Z</time>
      </trkpt>
      <trkpt lat="44.3133" lon="0.08962">
        <ele>111.269768</ele>
        <time>2022-12-28T15:05:07.750Z</time>
      </trkpt>
      <trkpt lat="44.31328" lon="0.0898">
        <ele>111.210592</ele>
        <time>2022-12-28T15:05:10.759Z</time>
      </trkpt>
      <trkpt lat="44.31326" lon="0.08999">
        <ele>111.150397</ele>
        <time>2022-12-28T15:05:13.765Z</time>
      </trkpt>
      <trkpt lat="44.31324" lon="0.09011">
        <ele>111.109386</ele>
        <time>2022-12-28T15:05:15.763Z</time>
      </trkpt>
      <trkpt lat="44.31321" lon="0.09025">
        <ele>111.065967</ele>
        <time>2022-12-28T15:05:17.750Z</time>
      </trkpt>
      <trkpt lat="44.31318" lon="0.09042">
        <ele>111.008327</ele>
        <time>2022-12-28T15:05:20.744Z</time>
      </trkpt>
      <trkpt lat="44.31316" lon="0.09054">
        <ele>110.968089</ele>
        <time>2022-12-28T15:05:22.753Z</time>
      </trkpt>
      <trkpt lat="44.31314" lon="0.09071">
        <ele>110.912831</ele>
        <time>2022-12-28T15:05:25.822Z</time>
      </trkpt>
      <trkpt lat="44.31313" lon="0.09086">
        <ele>110.867267</ele>
        <time>2022-12-28T15:05:28.762Z</time>
      </trkpt>
      <trkpt lat="44.31313" lon="0.09099">
        <ele>110.82571</ele>
        <time>2022-12-28T15:05:31.817Z</time>
      </trkpt>
      <trkpt lat="44.31311" lon="0.09115">
        <ele>110.774215</ele>
        <time>2022-12-28T15:05:35.751Z</time>
      </trkpt>
      <trkpt lat="44.31308" lon="0.0913">
        <ele>110.76087</ele>
        <time>2022-12-28T15:05:39.762Z</time>
      </trkpt>
      <trkpt lat="44.31302" lon="0.09143">
        <ele>110.799345</ele>
        <time>2022-12-28T15:05:42.812Z</time>
      </trkpt>
      <trkpt lat="44.31295" lon="0.09154">
        <ele>110.835845</ele>
        <time>2022-12-28T15:05:45.764Z</time>
      </trkpt>
      <trkpt lat="44.31286" lon="0.09161">
        <ele>110.870985</ele>
        <time>2022-12-28T15:05:48.813Z</time>
      </trkpt>
      <trkpt lat="44.31278" lon="0.09169">
        <ele>110.90526</ele>
        <time>2022-12-28T15:05:51.753Z</time>
      </trkpt>
      <trkpt lat="44.31271" lon="0.09177">
        <ele>110.938106</ele>
        <time>2022-12-28T15:05:54.814Z</time>
      </trkpt>
      <trkpt lat="44.31263" lon="0.09184">
        <ele>110.970952</ele>
        <time>2022-12-28T15:05:57.761Z</time>
      </trkpt>
      <trkpt lat="44.31253" lon="0.09194">
        <ele>111.012228</ele>
        <time>2022-12-28T15:06:01.753Z</time>
      </trkpt>
      <trkpt lat="44.31245" lon="0.09201">
        <ele>111.043744</ele>
        <time>2022-12-28T15:06:04.760Z</time>
      </trkpt>
      <trkpt lat="44.31237" lon="0.09204">
        <ele>111.075912</ele>
        <time>2022-12-28T15:06:07.738Z</time>
      </trkpt>
      <trkpt lat="44.31228" lon="0.09208">
        <ele>111.108548</ele>
        <time>2022-12-28T15:06:10.733Z</time>
      </trkpt>
      <trkpt lat="44.31217" lon="0.09213">
        <ele>111.147945</ele>
        <time>2022-12-28T15:06:14.757Z</time>
      </trkpt>
      <trkpt lat="44.31206" lon="0.09217">
        <ele>111.18715</ele>
        <time>2022-12-28T15:06:18.760Z</time>
      </trkpt>
      <trkpt lat="44.31195" lon="0.09222">
        <ele>111.227941</ele>
        <time>2022-12-28T15:06:22.748Z</time>
      </trkpt>
      <trkpt lat="44.31184" lon="0.09228">
        <ele>111.267427</ele>
        <time>2022-12-28T15:06:26.758Z</time>
      </trkpt>
      <trkpt lat="44.31174" lon="0.09234">
        <ele>111.307506</ele>
        <time>2022-12-28T15:06:30.833Z</time>
      </trkpt>
      <trkpt lat="44.31165" lon="0.09239">
        <ele>111.339961</ele>
        <time>2022-12-28T15:06:33.765Z</time>
      </trkpt>
      <trkpt lat="44.31154" lon="0.09243">
        <ele>111.414929</ele>
        <time>2022-12-28T15:06:37.762Z</time>
      </trkpt>
      <trkpt lat="44.31145" lon="0.09248">
        <ele>111.646537</ele>
        <time>2022-12-28T15:06:41.813Z</time>
      </trkpt>
      <trkpt lat="44.31133" lon="0.09254">
        <ele>111.911629</ele>
        <time>2022-12-28T15:06:45.759Z</time>
      </trkpt>
      <trkpt lat="44.31122" lon="0.09258">
        <ele>112.172747</ele>
        <time>2022-12-28T15:06:49.764Z</time>
      </trkpt>
      <trkpt lat="44.31112" lon="0.09261">
        <ele>112.40892</ele>
        <time>2022-12-28T15:06:53.744Z</time>
      </trkpt>
      <trkpt lat="44.31102" lon="0.09266">
        <ele>112.624799</ele>
        <time>2022-12-28T15:06:57.761Z</time>
      </trkpt>
      <trkpt lat="44.31092" lon="0.09271">
        <ele>112.87938</ele>
        <time>2022-12-28T15:07:01.750Z</time>
      </trkpt>
      <trkpt lat="44.31081" lon="0.09275">
        <ele>113.134605</ele>
        <time>2022-12-28T15:07:05.753Z</time>
      </trkpt>
      <trkpt lat="44.31069" lon="0.09281">
        <ele>113.394398</ele>
        <time>2022-12-28T15:07:09.819Z</time>
      </trkpt>
      <trkpt lat="44.31061" lon="0.09285">
        <ele>113.596753</ele>
        <time>2022-12-28T15:07:12.763Z</time>
      </trkpt>
      <trkpt lat="44.31052" lon="0.09289">
        <ele>113.803752</ele>
        <time>2022-12-28T15:07:15.803Z</time>
      </trkpt>
      <trkpt lat="44.31043" lon="0.09292">
        <ele>114.00383</ele>
        <time>2022-12-28T15:07:18.750Z</time>
      </trkpt>
      <trkpt lat="44.31035" lon="0.09297">
        <ele>114.207688</ele>
        <time>2022-12-28T15:07:21.823Z</time>
      </trkpt>
      <trkpt lat="44.31023" lon="0.09301">
        <ele>114.475181</ele>
        <time>2022-12-28T15:07:25.740Z</time>
      </trkpt>
      <trkpt lat="44.31014" lon="0.09306">
        <ele>114.677637</ele>
        <time>2022-12-28T15:07:28.761Z</time>
      </trkpt>
      <trkpt lat="44.31006" lon="0.09311">
        <ele>114.886286</ele>
        <time>2022-12-28T15:07:31.756Z</time>
      </trkpt>
      <trkpt lat="44.30997" lon="0.09315">
        <ele>115.091236</ele>
        <time>2022-12-28T15:07:34.761Z</time>
      </trkpt>
      <trkpt lat="44.30987" lon="0.09319">
        <ele>115.3197</ele>
        <time>2022-12-28T15:07:38.757Z</time>
      </trkpt>
      <trkpt lat="44.30976" lon="0.09324">
        <ele>115.268324</ele>
        <time>2022-12-28T15:07:42.762Z</time>
      </trkpt>
      <trkpt lat="44.30965" lon="0.09321">
        <ele>115.171021</ele>
        <time>2022-12-28T15:07:46.776Z</time>
      </trkpt>
      <trkpt lat="44.30958" lon="0.09328">
        <ele>115.089431</ele>
        <time>2022-12-28T15:07:51.830Z</time>
      </trkpt>
      <trkpt lat="44.30957" lon="0.09331">
        <ele>115.072003</ele>
        <time>2022-12-28T15:08:05.099Z</time>
      </trkpt>
      <trkpt lat="44.30938" lon="0.09343">
        <ele>114.894989</ele>
        <time>2022-12-28T15:12:38.755Z</time>
      </trkpt>
      <trkpt lat="44.30927" lon="0.09347">
        <ele>114.793457</ele>
        <time>2022-12-28T15:12:42.762Z</time>
      </trkpt>
      <trkpt lat="44.30918" lon="0.09352">
        <ele>114.707557</ele>
        <time>2022-12-28T15:12:45.761Z</time>
      </trkpt>
      <trkpt lat="44.30909" lon="0.09357">
        <ele>114.621217</ele>
        <time>2022-12-28T15:12:48.761Z</time>
      </trkpt>
      <trkpt lat="44.309" lon="0.09362">
        <ele>114.539192</ele>
        <time>2022-12-28T15:12:51.733Z</time>
      </trkpt>
      <trkpt lat="44.30891" lon="0.09366">
        <ele>114.452252</ele>
        <time>2022-12-28T15:12:54.759Z</time>
      </trkpt>
      <trkpt lat="44.30881" lon="0.09371">
        <ele>114.363012</ele>
        <time>2022-12-28T15:12:57.762Z</time>
      </trkpt>
      <trkpt lat="44.30871" lon="0.09374">
        <ele>114.274836</ele>
        <time>2022-12-28T15:13:00.746Z</time>
      </trkpt>
      <trkpt lat="44.30861" lon="0.09379">
        <ele>114.182246</ele>
        <time>2022-12-28T15:13:03.738Z</time>
      </trkpt>
      <trkpt lat="44.30851" lon="0.09383">
        <ele>114.086394</ele>
        <time>2022-12-28T15:13:06.749Z</time>
      </trkpt>
      <trkpt lat="44.3084" lon="0.09388">
        <ele>113.986394</ele>
        <time>2022-12-28T15:13:09.752Z</time>
      </trkpt>
      <trkpt lat="44.30829" lon="0.09392">
        <ele>113.885549</ele>
        <time>2022-12-28T15:13:12.735Z</time>
      </trkpt>
      <trkpt lat="44.30818" lon="0.09396">
        <ele>113.788756</ele>
        <time>2022-12-28T15:13:15.753Z</time>
      </trkpt>
      <trkpt lat="44.30807" lon="0.09399">
        <ele>113.843891</ele>
        <time>2022-12-28T15:13:18.741Z</time>
      </trkpt>
      <trkpt lat="44.30797" lon="0.09403">
        <ele>113.916273</ele>
        <time>2022-12-28T15:13:21.756Z</time>
      </trkpt>
      <trkpt lat="44.30787" lon="0.09408">
        <ele>113.991477</ele>
        <time>2022-12-28T15:13:24.753Z</time>
      </trkpt>
      <trkpt lat="44.30777" lon="0.09412">
        <ele>114.06706</ele>
        <time>2022-12-28T15:13:27.753Z</time>
      </trkpt>
      <trkpt lat="44.30766" lon="0.09417">
        <ele>114.143402</ele>
        <time>2022-12-28T15:13:30.753Z</time>
      </trkpt>
      <trkpt lat="44.30757" lon="0.09424">
        <ele>114.21556</ele>
        <time>2022-12-28T15:13:33.756Z</time>
      </trkpt>
      <trkpt lat="44.30747" lon="0.09428">
        <ele>114.281992</ele>
        <time>2022-12-28T15:13:36.748Z</time>
      </trkpt>
      <trkpt lat="44.30738" lon="0.09432">
        <ele>114.347139</ele>
        <time>2022-12-28T15:13:39.752Z</time>
      </trkpt>
      <trkpt lat="44.30729" lon="0.09437">
        <ele>114.419925</ele>
        <time>2022-12-28T15:13:42.757Z</time>
      </trkpt>
      <trkpt lat="44.30718" lon="0.09443">
        <ele>114.499514</ele>
        <time>2022-12-28T15:13:45.771Z</time>
      </trkpt>
      <trkpt lat="44.30707" lon="0.09448">
        <ele>114.577659</ele>
        <time>2022-12-28T15:13:48.766Z</time>
      </trkpt>
      <trkpt lat="44.30695" lon="0.09454">
        <ele>114.664394</ele>
        <time>2022-12-28T15:13:51.760Z</time>
      </trkpt>
      <trkpt lat="44.30683" lon="0.09459">
        <ele>114.749254</ele>
        <time>2022-12-28T15:13:54.753Z</time>
      </trkpt>
      <trkpt lat="44.30672" lon="0.09463">
        <ele>114.827473</ele>
        <time>2022-12-28T15:13:57.761Z</time>
      </trkpt>
      <trkpt lat="44.30662" lon="0.09468">
        <ele>114.902849</ele>
        <time>2022-12-28T15:14:00.746Z</time>
      </trkpt>
      <trkpt lat="44.30652" lon="0.09472">
        <ele>114.973997</ele>
        <time>2022-12-28T15:14:03.758Z</time>
      </trkpt>
      <trkpt lat="44.30641" lon="0.09477">
        <ele>114.960811</ele>
        <time>2022-12-28T15:14:06.753Z</time>
      </trkpt>
      <trkpt lat="44.3063" lon="0.09482">
        <ele>114.838838</ele>
        <time>2022-12-28T15:14:09.756Z</time>
      </trkpt>
      <trkpt lat="44.30619" lon="0.09488">
        <ele>114.721336</ele>
        <time>2022-12-28T15:14:12.737Z</time>
      </trkpt>
      <trkpt lat="44.30608" lon="0.09494">
        <ele>114.60676</ele>
        <time>2022-12-28T15:14:15.756Z</time>
      </trkpt>
      <trkpt lat="44.30598" lon="0.09497">
        <ele>114.497208</ele>
        <time>2022-12-28T15:14:18.765Z</time>
      </trkpt>
      <trkpt lat="44.30587" lon="0.09503">
        <ele>114.38212</ele>
        <time>2022-12-28T15:14:21.757Z</time>
      </trkpt>
      <trkpt lat="44.30576" lon="0.09508">
        <ele>114.267563</ele>
        <time>2022-12-28T15:14:24.763Z</time>
      </trkpt>
      <trkpt lat="44.30565" lon="0.09514">
        <ele>114.148171</ele>
        <time>2022-12-28T15:14:27.762Z</time>
      </trkpt>
      <trkpt lat="44.30555" lon="0.09519">
        <ele>114.039835</ele>
        <time>2022-12-28T15:14:30.750Z</time>
      </trkpt>
      <trkpt lat="44.30544" lon="0.09523">
        <ele>113.918822</ele>
        <time>2022-12-28T15:14:33.741Z</time>
      </trkpt>
      <trkpt lat="44.30533" lon="0.09528">
        <ele>113.799354</ele>
        <time>2022-12-28T15:14:36.756Z</time>
      </trkpt>
      <trkpt lat="44.30521" lon="0.09533">
        <ele>113.681828</ele>
        <time>2022-12-28T15:14:39.757Z</time>
      </trkpt>
      <trkpt lat="44.3051" lon="0.09538">
        <ele>113.556669</ele>
        <time>2022-12-28T15:14:42.770Z</time>
      </trkpt>
      <trkpt lat="44.30499" lon="0.09542">
        <ele>113.449702</ele>
        <time>2022-12-28T15:14:45.767Z</time>
      </trkpt>
      <trkpt lat="44.30491" lon="0.09545">
        <ele>113.357377</ele>
        <time>2022-12-28T15:14:48.759Z</time>
      </trkpt>
      <trkpt lat="44.30481" lon="0.09549">
        <ele>113.251357</ele>
        <time>2022-12-28T15:14:51.768Z</time>
      </trkpt>
      <trkpt lat="44.30472" lon="0.09553">
        <ele>113.269652</ele>
        <time>2022-12-28T15:14:54.760Z</time>
      </trkpt>
      <trkpt lat="44.30463" lon="0.09557">
        <ele>113.482684</ele>
        <time>2022-12-28T15:14:57.760Z</time>
      </trkpt>
      <trkpt lat="44.30452" lon="0.09563">
        <ele>113.747506</ele>
        <time>2022-12-28T15:15:01.742Z</time>
      </trkpt>
      <trkpt lat="44.30442" lon="0.09567">
        <ele>113.990254</ele>
        <time>2022-12-28T15:15:05.743Z</time>
      </trkpt>
      <trkpt lat="44.30432" lon="0.09573">
        <ele>114.242223</ele>
        <time>2022-12-28T15:15:09.759Z</time>
      </trkpt>
      <trkpt lat="44.30421" lon="0.09578">
        <ele>114.504341</ele>
        <time>2022-12-28T15:15:13.757Z</time>
      </trkpt>
      <trkpt lat="44.30411" lon="0.09583">
        <ele>114.751942</ele>
        <time>2022-12-28T15:15:17.763Z</time>
      </trkpt>
      <trkpt lat="44.30401" lon="0.09587">
        <ele>114.990131</ele>
        <time>2022-12-28T15:15:21.766Z</time>
      </trkpt>
      <trkpt lat="44.30391" lon="0.09591">
        <ele>115.222187</ele>
        <time>2022-12-28T15:15:25.761Z</time>
      </trkpt>
      <trkpt lat="44.30381" lon="0.09597">
        <ele>115.466867</ele>
        <time>2022-12-28T15:15:29.755Z</time>
      </trkpt>
      <trkpt lat="44.30372" lon="0.09601">
        <ele>115.693401</ele>
        <time>2022-12-28T15:15:33.769Z</time>
      </trkpt>
      <trkpt lat="44.30362" lon="0.09605">
        <ele>115.925457</ele>
        <time>2022-12-28T15:15:37.754Z</time>
      </trkpt>
      <trkpt lat="44.30353" lon="0.09609">
        <ele>116.143946</ele>
        <time>2022-12-28T15:15:41.768Z</time>
      </trkpt>
      <trkpt lat="44.30343" lon="0.09614">
        <ele>116.372139</ele>
        <time>2022-12-28T15:15:45.768Z</time>
      </trkpt>
      <trkpt lat="44.30333" lon="0.09618">
        <ele>116.620775</ele>
        <time>2022-12-28T15:15:49.762Z</time>
      </trkpt>
      <trkpt lat="44.30323" lon="0.09623">
        <ele>116.871272</ele>
        <time>2022-12-28T15:15:53.765Z</time>
      </trkpt>
      <trkpt lat="44.30313" lon="0.09627">
        <ele>117.090269</ele>
        <time>2022-12-28T15:15:57.765Z</time>
      </trkpt>
      <trkpt lat="44.30304" lon="0.09631">
        <ele>117.333619</ele>
        <time>2022-12-28T15:16:01.749Z</time>
      </trkpt>
      <trkpt lat="44.30293" lon="0.09634">
        <ele>117.794506</ele>
        <time>2022-12-28T15:16:06.735Z</time>
      </trkpt>
      <trkpt lat="44.30282" lon="0.09639">
        <ele>118.24774</ele>
        <time>2022-12-28T15:16:10.755Z</time>
      </trkpt>
      <trkpt lat="44.30273" lon="0.09645">
        <ele>118.676437</ele>
        <time>2022-12-28T15:16:14.761Z</time>
      </trkpt>
      <trkpt lat="44.30264" lon="0.09651">
        <ele>119.061252</ele>
        <time>2022-12-28T15:16:18.757Z</time>
      </trkpt>
      <trkpt lat="44.30256" lon="0.09656">
        <ele>119.460961</ele>
        <time>2022-12-28T15:16:22.747Z</time>
      </trkpt>
      <trkpt lat="44.30245" lon="0.0966">
        <ele>119.909449</ele>
        <time>2022-12-28T15:16:26.749Z</time>
      </trkpt>
      <trkpt lat="44.30236" lon="0.09664">
        <ele>120.309582</ele>
        <time>2022-12-28T15:16:30.762Z</time>
      </trkpt>
      <trkpt lat="44.30227" lon="0.09668">
        <ele>120.709714</ele>
        <time>2022-12-28T15:16:34.755Z</time>
      </trkpt>
      <trkpt lat="44.30217" lon="0.09673">
        <ele>121.115989</ele>
        <time>2022-12-28T15:16:38.751Z</time>
      </trkpt>
      <trkpt lat="44.30207" lon="0.09678">
        <ele>121.569454</ele>
        <time>2022-12-28T15:16:42.736Z</time>
      </trkpt>
      <trkpt lat="44.30197" lon="0.09682">
        <ele>121.990181</ele>
        <time>2022-12-28T15:16:46.747Z</time>
      </trkpt>
      <trkpt lat="44.30186" lon="0.09686">
        <ele>122.460886</ele>
        <time>2022-12-28T15:16:50.766Z</time>
      </trkpt>
      <trkpt lat="44.30177" lon="0.0969">
        <ele>122.847488</ele>
        <time>2022-12-28T15:16:53.770Z</time>
      </trkpt>
      <trkpt lat="44.30168" lon="0.09693">
        <ele>123.243634</ele>
        <time>2022-12-28T15:16:56.757Z</time>
      </trkpt>
      <trkpt lat="44.30158" lon="0.09697">
        <ele>123.665193</ele>
        <time>2022-12-28T15:16:59.767Z</time>
      </trkpt>
      <trkpt lat="44.30148" lon="0.097">
        <ele>124.078</ele>
        <time>2022-12-28T15:17:02.767Z</time>
      </trkpt>
      <trkpt lat="44.30139" lon="0.09703">
        <ele>124.470925</ele>
        <time>2022-12-28T15:17:05.757Z</time>
      </trkpt>
      <trkpt lat="44.30128" lon="0.09708">
        <ele>125.097765</ele>
        <time>2022-12-28T15:17:09.769Z</time>
      </trkpt>
      <trkpt lat="44.30117" lon="0.09714">
        <ele>125.866254</ele>
        <time>2022-12-28T15:17:13.742Z</time>
      </trkpt>
      <trkpt lat="44.30106" lon="0.09719">
        <ele>126.634744</ele>
        <time>2022-12-28T15:17:17.766Z</time>
      </trkpt>
      <trkpt lat="44.30096" lon="0.09724">
        <ele>127.364556</ele>
        <time>2022-12-28T15:17:21.767Z</time>
      </trkpt>
      <trkpt lat="44.30085" lon="0.09727">
        <ele>128.057199</ele>
        <time>2022-12-28T15:17:25.756Z</time>
      </trkpt>
      <trkpt lat="44.30076" lon="0.09732">
        <ele>128.730064</ele>
        <time>2022-12-28T15:17:29.747Z</time>
      </trkpt>
      <trkpt lat="44.30066" lon="0.09737">
        <ele>129.421349</ele>
        <time>2022-12-28T15:17:33.770Z</time>
      </trkpt>
      <trkpt lat="44.30057" lon="0.09741">
        <ele>130.08589</ele>
        <time>2022-12-28T15:17:37.749Z</time>
      </trkpt>
      <trkpt lat="44.30047" lon="0.09745">
        <ele>130.755791</ele>
        <time>2022-12-28T15:17:41.741Z</time>
      </trkpt>
      <trkpt lat="44.30037" lon="0.0975">
        <ele>131.446129</ele>
        <time>2022-12-28T15:17:45.768Z</time>
      </trkpt>
      <trkpt lat="44.30028" lon="0.09755">
        <ele>132.083552</ele>
        <time>2022-12-28T15:17:49.763Z</time>
      </trkpt>
      <trkpt lat="44.30018" lon="0.09759">
        <ele>132.805623</ele>
        <time>2022-12-28T15:17:54.755Z</time>
      </trkpt>
      <trkpt lat="44.30007" lon="0.09763">
        <ele>133.521164</ele>
        <time>2022-12-28T15:17:59.755Z</time>
      </trkpt>
      <trkpt lat="44.29999" lon="0.09766">
        <ele>134.124227</ele>
        <time>2022-12-28T15:18:03.757Z</time>
      </trkpt>
      <trkpt lat="44.2999" lon="0.0977">
        <ele>134.718729</ele>
        <time>2022-12-28T15:18:07.742Z</time>
      </trkpt>
      <trkpt lat="44.29981" lon="0.09774">
        <ele>135.346067</ele>
        <time>2022-12-28T15:18:12.736Z</time>
      </trkpt>
      <trkpt lat="44.29972" lon="0.09779">
        <ele>135.970414</ele>
        <time>2022-12-28T15:18:17.757Z</time>
      </trkpt>
      <trkpt lat="44.29964" lon="0.09784">
        <ele>136.604954</ele>
        <time>2022-12-28T15:18:22.753Z</time>
      </trkpt>
      <trkpt lat="44.29955" lon="0.09788">
        <ele>137.063629</ele>
        <time>2022-12-28T15:18:26.738Z</time>
      </trkpt>
      <trkpt lat="44.29946" lon="0.09792">
        <ele>137.529241</ele>
        <time>2022-12-28T15:18:30.755Z</time>
      </trkpt>
      <trkpt lat="44.29935" lon="0.09796">
        <ele>138.063811</ele>
        <time>2022-12-28T15:18:35.753Z</time>
      </trkpt>
      <trkpt lat="44.29926" lon="0.09801">
        <ele>138.545535</ele>
        <time>2022-12-28T15:18:40.755Z</time>
      </trkpt>
      <trkpt lat="44.29916" lon="0.09805">
        <ele>139.053034</ele>
        <time>2022-12-28T15:18:45.758Z</time>
      </trkpt>
      <trkpt lat="44.29906" lon="0.0981">
        <ele>139.559807</ele>
        <time>2022-12-28T15:18:51.737Z</time>
      </trkpt>
      <trkpt lat="44.29896" lon="0.09815">
        <ele>140.043627</ele>
        <time>2022-12-28T15:18:57.739Z</time>
      </trkpt>
      <trkpt lat="44.29888" lon="0.0982">
        <ele>140.493317</ele>
        <time>2022-12-28T15:19:02.739Z</time>
      </trkpt>
      <trkpt lat="44.29878" lon="0.09824">
        <ele>140.986337</ele>
        <time>2022-12-28T15:19:07.741Z</time>
      </trkpt>
      <trkpt lat="44.29869" lon="0.09827">
        <ele>141.439976</ele>
        <time>2022-12-28T15:19:12.756Z</time>
      </trkpt>
      <trkpt lat="44.2986" lon="0.09831">
        <ele>141.913037</ele>
        <time>2022-12-28T15:19:18.748Z</time>
      </trkpt>
      <trkpt lat="44.29851" lon="0.09835">
        <ele>142.367555</ele>
        <time>2022-12-28T15:19:24.744Z</time>
      </trkpt>
      <trkpt lat="44.29841" lon="0.09839">
        <ele>142.854912</ele>
        <time>2022-12-28T15:19:30.744Z</time>
      </trkpt>
      <trkpt lat="44.29832" lon="0.09843">
        <ele>143.328947</ele>
        <time>2022-12-28T15:19:35.739Z</time>
      </trkpt>
      <trkpt lat="44.29822" lon="0.09848">
        <ele>143.801661</ele>
        <time>2022-12-28T15:19:41.741Z</time>
      </trkpt>
      <trkpt lat="44.29814" lon="0.09851">
        <ele>144.245931</ele>
        <time>2022-12-28T15:19:55.745Z</time>
      </trkpt>
      <trkpt lat="44.298" lon="0.09859">
        <ele>144.961755</ele>
        <time>2022-12-28T15:20:25.742Z</time>
      </trkpt>
      <trkpt lat="44.29791" lon="0.09861">
        <ele>145.373412</ele>
        <time>2022-12-28T15:20:30.739Z</time>
      </trkpt>
      <trkpt lat="44.29781" lon="0.09864">
        <ele>145.496697</ele>
        <time>2022-12-28T15:20:35.754Z</time>
      </trkpt>
      <trkpt lat="44.29772" lon="0.09867">
        <ele>145.619978</ele>
        <time>2022-12-28T15:20:40.740Z</time>
      </trkpt>
      <trkpt lat="44.29763" lon="0.09872">
        <ele>145.733396</ele>
        <time>2022-12-28T15:20:45.755Z</time>
      </trkpt>
      <trkpt lat="44.29753" lon="0.09877">
        <ele>145.866915</ele>
        <time>2022-12-28T15:20:51.744Z</time>
      </trkpt>
      <trkpt lat="44.29744" lon="0.09882">
        <ele>145.995979</ele>
        <time>2022-12-28T15:20:56.740Z</time>
      </trkpt>
      <trkpt lat="44.29735" lon="0.09887">
        <ele>146.113566</ele>
        <time>2022-12-28T15:21:01.760Z</time>
      </trkpt>
      <trkpt lat="44.29726" lon="0.0989">
        <ele>146.231314</ele>
        <time>2022-12-28T15:21:06.743Z</time>
      </trkpt>
      <trkpt lat="44.29717" lon="0.09893">
        <ele>146.350209</ele>
        <time>2022-12-28T15:21:11.754Z</time>
      </trkpt>
      <trkpt lat="44.29707" lon="0.09898">
        <ele>146.481057</ele>
        <time>2022-12-28T15:21:16.746Z</time>
      </trkpt>
      <trkpt lat="44.29697" lon="0.09902">
        <ele>146.609657</ele>
        <time>2022-12-28T15:21:21.744Z</time>
      </trkpt>
      <trkpt lat="44.29687" lon="0.09906">
        <ele>146.735089</ele>
        <time>2022-12-28T15:21:26.744Z</time>
      </trkpt>
      <trkpt lat="44.29678" lon="0.09909">
        <ele>146.855937</ele>
        <time>2022-12-28T15:21:38.735Z</time>
      </trkpt>
      <trkpt lat="44.29668" lon="0.09913">
        <ele>146.987907</ele>
        <time>2022-12-28T15:21:43.741Z</time>
      </trkpt>
      <trkpt lat="44.29657" lon="0.09918">
        <ele>147.128562</ele>
        <time>2022-12-28T15:21:47.741Z</time>
      </trkpt>
      <trkpt lat="44.29649" lon="0.09923">
        <ele>147.246365</ele>
        <time>2022-12-28T15:21:50.736Z</time>
      </trkpt>
      <trkpt lat="44.29639" lon="0.09926">
        <ele>147.372306</ele>
        <time>2022-12-28T15:21:53.754Z</time>
      </trkpt>
      <trkpt lat="44.29629" lon="0.0993">
        <ele>147.505246</ele>
        <time>2022-12-28T15:21:56.756Z</time>
      </trkpt>
      <trkpt lat="44.29619" lon="0.09935">
        <ele>147.608565</ele>
        <time>2022-12-28T15:21:59.770Z</time>
      </trkpt>
      <trkpt lat="44.29608" lon="0.09939">
        <ele>147.484725</ele>
        <time>2022-12-28T15:22:02.760Z</time>
      </trkpt>
      <trkpt lat="44.29598" lon="0.09943">
        <ele>147.354398</ele>
        <time>2022-12-28T15:22:05.758Z</time>
      </trkpt>
      <trkpt lat="44.29588" lon="0.09949">
        <ele>147.222754</ele>
        <time>2022-12-28T15:22:08.754Z</time>
      </trkpt>
      <trkpt lat="44.29577" lon="0.09954">
        <ele>147.092942</ele>
        <time>2022-12-28T15:22:11.763Z</time>
      </trkpt>
      <trkpt lat="44.29566" lon="0.09959">
        <ele>146.952595</ele>
        <time>2022-12-28T15:22:14.759Z</time>
      </trkpt>
      <trkpt lat="44.29555" lon="0.09964">
        <ele>146.821179</ele>
        <time>2022-12-28T15:22:17.767Z</time>
      </trkpt>
      <trkpt lat="44.29544" lon="0.09969">
        <ele>146.68273</ele>
        <time>2022-12-28T15:22:20.754Z</time>
      </trkpt>
      <trkpt lat="44.29533" lon="0.09972">
        <ele>146.549062</ele>
        <time>2022-12-28T15:22:23.768Z</time>
      </trkpt>
      <trkpt lat="44.29522" lon="0.09976">
        <ele>146.418824</ele>
        <time>2022-12-28T15:22:26.753Z</time>
      </trkpt>
      <trkpt lat="44.29511" lon="0.09982">
        <ele>146.272311</ele>
        <time>2022-12-28T15:22:29.766Z</time>
      </trkpt>
      <trkpt lat="44.29499" lon="0.09987">
        <ele>146.123846</ele>
        <time>2022-12-28T15:22:32.749Z</time>
      </trkpt>
      <trkpt lat="44.29488" lon="0.09993">
        <ele>145.986425</ele>
        <time>2022-12-28T15:22:35.739Z</time>
      </trkpt>
      <trkpt lat="44.29476" lon="0.09998">
        <ele>145.840963</ele>
        <time>2022-12-28T15:22:38.765Z</time>
      </trkpt>
      <trkpt lat="44.29464" lon="0.10003">
        <ele>145.695501</ele>
        <time>2022-12-28T15:22:41.767Z</time>
      </trkpt>
      <trkpt lat="44.29455" lon="0.10007">
        <ele>145.586199</ele>
        <time>2022-12-28T15:22:43.760Z</time>
      </trkpt>
      <trkpt lat="44.29443" lon="0.10012">
        <ele>145.773432</ele>
        <time>2022-12-28T15:22:46.769Z</time>
      </trkpt>
      <trkpt lat="44.2943" lon="0.10018">
        <ele>146.360165</ele>
        <time>2022-12-28T15:22:49.758Z</time>
      </trkpt>
      <trkpt lat="44.29418" lon="0.10024">
        <ele>146.919849</ele>
        <time>2022-12-28T15:22:52.765Z</time>
      </trkpt>
      <trkpt lat="44.29406" lon="0.1003">
        <ele>147.483556</ele>
        <time>2022-12-28T15:22:55.745Z</time>
      </trkpt>
      <trkpt lat="44.29396" lon="0.10035">
        <ele>147.95861</ele>
        <time>2022-12-28T15:22:58.749Z</time>
      </trkpt>
      <trkpt lat="44.29387" lon="0.10039">
        <ele>148.378222</ele>
        <time>2022-12-28T15:23:01.751Z</time>
      </trkpt>
      <trkpt lat="44.29376" lon="0.10043">
        <ele>148.860365</ele>
        <time>2022-12-28T15:23:04.759Z</time>
      </trkpt>
      <trkpt lat="44.29367" lon="0.10048">
        <ele>149.297552</ele>
        <time>2022-12-28T15:23:07.763Z</time>
      </trkpt>
      <trkpt lat="44.29357" lon="0.10052">
        <ele>149.733605</ele>
        <time>2022-12-28T15:23:10.763Z</time>
      </trkpt>
      <trkpt lat="44.29347" lon="0.10057">
        <ele>150.217627</ele>
        <time>2022-12-28T15:23:13.743Z</time>
      </trkpt>
      <trkpt lat="44.29336" lon="0.10063">
        <ele>150.725437</ele>
        <time>2022-12-28T15:23:16.751Z</time>
      </trkpt>
      <trkpt lat="44.29325" lon="0.10069">
        <ele>151.2455</ele>
        <time>2022-12-28T15:23:19.755Z</time>
      </trkpt>
      <trkpt lat="44.29315" lon="0.10076">
        <ele>151.742614</ele>
        <time>2022-12-28T15:23:22.760Z</time>
      </trkpt>
      <trkpt lat="44.29305" lon="0.10083">
        <ele>152.239729</ele>
        <time>2022-12-28T15:23:25.755Z</time>
      </trkpt>
      <trkpt lat="44.29294" lon="0.1009">
        <ele>152.752085</ele>
        <time>2022-12-28T15:23:28.766Z</time>
      </trkpt>
      <trkpt lat="44.29284" lon="0.101">
        <ele>153.291182</ele>
        <time>2022-12-28T15:23:31.750Z</time>
      </trkpt>
      <trkpt lat="44.29275" lon="0.10109">
        <ele>153.393838</ele>
        <time>2022-12-28T15:23:34.753Z</time>
      </trkpt>
      <trkpt lat="44.29265" lon="0.10118">
        <ele>153.36888</ele>
        <time>2022-12-28T15:23:37.758Z</time>
      </trkpt>
      <trkpt lat="44.29255" lon="0.10127">
        <ele>153.342858</ele>
        <time>2022-12-28T15:23:40.756Z</time>
      </trkpt>
      <trkpt lat="44.29245" lon="0.10136">
        <ele>153.317634</ele>
        <time>2022-12-28T15:23:43.751Z</time>
      </trkpt>
      <trkpt lat="44.29236" lon="0.10145">
        <ele>153.293477</ele>
        <time>2022-12-28T15:23:46.765Z</time>
      </trkpt>
      <trkpt lat="44.29227" lon="0.10154">
        <ele>153.269778</ele>
        <time>2022-12-28T15:23:49.760Z</time>
      </trkpt>
      <trkpt lat="44.29219" lon="0.10163">
        <ele>153.246592</ele>
        <time>2022-12-28T15:23:52.761Z</time>
      </trkpt>
      <trkpt lat="44.29212" lon="0.10172">
        <ele>153.226202</ele>
        <time>2022-12-28T15:23:55.748Z</time>
      </trkpt>
      <trkpt lat="44.29203" lon="0.1018">
        <ele>153.202574</ele>
        <time>2022-12-28T15:23:58.741Z</time>
      </trkpt>
      <trkpt lat="44.29195" lon="0.10189">
        <ele>153.180697</ele>
        <time>2022-12-28T15:24:01.752Z</time>
      </trkpt>
      <trkpt lat="44.29186" lon="0.10196">
        <ele>153.158997</ele>
        <time>2022-12-28T15:24:04.764Z</time>
      </trkpt>
      <trkpt lat="44.29176" lon="0.10206">
        <ele>153.132694</ele>
        <time>2022-12-28T15:24:08.763Z</time>
      </trkpt>
      <trkpt lat="44.29168" lon="0.10213">
        <ele>153.112391</ele>
        <time>2022-12-28T15:24:11.737Z</time>
      </trkpt>
      <trkpt lat="44.2916" lon="0.10221">
        <ele>153.090988</ele>
        <time>2022-12-28T15:24:14.738Z</time>
      </trkpt>
      <trkpt lat="44.29152" lon="0.10231">
        <ele>153.066992</ele>
        <time>2022-12-28T15:24:17.754Z</time>
      </trkpt>
      <trkpt lat="44.29143" lon="0.1024">
        <ele>153.043024</ele>
        <time>2022-12-28T15:24:20.768Z</time>
      </trkpt>
      <trkpt lat="44.29133" lon="0.10249">
        <ele>152.943285</ele>
        <time>2022-12-28T15:24:23.758Z</time>
      </trkpt>
      <trkpt lat="44.29122" lon="0.10258">
        <ele>152.586067</ele>
        <time>2022-12-28T15:24:26.770Z</time>
      </trkpt>
      <trkpt lat="44.29114" lon="0.10265">
        <ele>152.319065</ele>
        <time>2022-12-28T15:24:28.750Z</time>
      </trkpt>
      <trkpt lat="44.29105" lon="0.10273">
        <ele>152.015964</ele>
        <time>2022-12-28T15:24:30.759Z</time>
      </trkpt>
      <trkpt lat="44.29095" lon="0.10283">
        <ele>151.689252</ele>
        <time>2022-12-28T15:24:32.768Z</time>
      </trkpt>
      <trkpt lat="44.29085" lon="0.10292">
        <ele>151.346563</ele>
        <time>2022-12-28T15:24:34.760Z</time>
      </trkpt>
      <trkpt lat="44.29075" lon="0.10301">
        <ele>151.021265</ele>
        <time>2022-12-28T15:24:36.755Z</time>
      </trkpt>
      <trkpt lat="44.29066" lon="0.10311">
        <ele>150.706279</ele>
        <time>2022-12-28T15:24:38.757Z</time>
      </trkpt>
      <trkpt lat="44.29055" lon="0.10321">
        <ele>150.330495</ele>
        <time>2022-12-28T15:24:40.742Z</time>
      </trkpt>
      <trkpt lat="44.29044" lon="0.10331">
        <ele>149.962787</ele>
        <time>2022-12-28T15:24:42.768Z</time>
      </trkpt>
      <trkpt lat="44.29033" lon="0.10343">
        <ele>149.570807</ele>
        <time>2022-12-28T15:24:44.757Z</time>
      </trkpt>
      <trkpt lat="44.29021" lon="0.10353">
        <ele>149.189926</ele>
        <time>2022-12-28T15:24:46.750Z</time>
      </trkpt>
      <trkpt lat="44.29011" lon="0.10363">
        <ele>148.843942</ele>
        <time>2022-12-28T15:24:48.750Z</time>
      </trkpt>
      <trkpt lat="44.29" lon="0.10374">
        <ele>148.469888</ele>
        <time>2022-12-28T15:24:50.754Z</time>
      </trkpt>
      <trkpt lat="44.28989" lon="0.10385">
        <ele>148.083799</ele>
        <time>2022-12-28T15:24:52.763Z</time>
      </trkpt>
      <trkpt lat="44.28977" lon="0.10395">
        <ele>147.524711</ele>
        <time>2022-12-28T15:24:54.768Z</time>
      </trkpt>
      <trkpt lat="44.28966" lon="0.10405">
        <ele>146.925825</ele>
        <time>2022-12-28T15:24:56.767Z</time>
      </trkpt>
      <trkpt lat="44.28955" lon="0.10416">
        <ele>146.311837</ele>
        <time>2022-12-28T15:24:58.766Z</time>
      </trkpt>
      <trkpt lat="44.28944" lon="0.10428">
        <ele>145.695959</ele>
        <time>2022-12-28T15:25:00.766Z</time>
      </trkpt>
      <trkpt lat="44.28933" lon="0.10439">
        <ele>145.083922</ele>
        <time>2022-12-28T15:25:02.768Z</time>
      </trkpt>
      <trkpt lat="44.28921" lon="0.10448">
        <ele>144.476244</ele>
        <time>2022-12-28T15:25:04.762Z</time>
      </trkpt>
      <trkpt lat="44.2891" lon="0.10459">
        <ele>143.864056</ele>
        <time>2022-12-28T15:25:06.751Z</time>
      </trkpt>
      <trkpt lat="44.28899" lon="0.1047">
        <ele>143.26667</ele>
        <time>2022-12-28T15:25:08.760Z</time>
      </trkpt>
      <trkpt lat="44.28888" lon="0.10481">
        <ele>142.66538</ele>
        <time>2022-12-28T15:25:10.754Z</time>
      </trkpt>
      <trkpt lat="44.28876" lon="0.10492">
        <ele>142.042201</ele>
        <time>2022-12-28T15:25:12.762Z</time>
      </trkpt>
      <trkpt lat="44.28865" lon="0.10503">
        <ele>141.419093</ele>
        <time>2022-12-28T15:25:14.758Z</time>
      </trkpt>
      <trkpt lat="44.28853" lon="0.10514">
        <ele>140.801186</ele>
        <time>2022-12-28T15:25:16.769Z</time>
      </trkpt>
      <trkpt lat="44.28841" lon="0.10525">
        <ele>140.146576</ele>
        <time>2022-12-28T15:25:18.772Z</time>
      </trkpt>
      <trkpt lat="44.28828" lon="0.10537">
        <ele>139.353956</ele>
        <time>2022-12-28T15:25:20.766Z</time>
      </trkpt>
      <trkpt lat="44.28815" lon="0.1055">
        <ele>138.495856</ele>
        <time>2022-12-28T15:25:22.753Z</time>
      </trkpt>
      <trkpt lat="44.28803" lon="0.10562">
        <ele>137.655513</ele>
        <time>2022-12-28T15:25:24.747Z</time>
      </trkpt>
      <trkpt lat="44.2879" lon="0.10574">
        <ele>136.797411</ele>
        <time>2022-12-28T15:25:26.751Z</time>
      </trkpt>
      <trkpt lat="44.28776" lon="0.10587">
        <ele>135.919262</ele>
        <time>2022-12-28T15:25:28.755Z</time>
      </trkpt>
      <trkpt lat="44.28763" lon="0.10601">
        <ele>135.000898</ele>
        <time>2022-12-28T15:25:30.763Z</time>
      </trkpt>
      <trkpt lat="44.2875" lon="0.10614">
        <ele>134.147246</ele>
        <time>2022-12-28T15:25:32.762Z</time>
      </trkpt>
      <trkpt lat="44.28736" lon="0.10627">
        <ele>133.222182</ele>
        <time>2022-12-28T15:25:34.769Z</time>
      </trkpt>
      <trkpt lat="44.28722" lon="0.10641">
        <ele>132.290534</ele>
        <time>2022-12-28T15:25:36.759Z</time>
      </trkpt>
      <trkpt lat="44.28708" lon="0.10654">
        <ele>131.38334</ele>
        <time>2022-12-28T15:25:38.766Z</time>
      </trkpt>
      <trkpt lat="44.28695" lon="0.10667">
        <ele>130.495566</ele>
        <time>2022-12-28T15:25:40.766Z</time>
      </trkpt>
      <trkpt lat="44.28681" lon="0.1068">
        <ele>129.955762</ele>
        <time>2022-12-28T15:25:42.752Z</time>
      </trkpt>
      <trkpt lat="44.28668" lon="0.10693">
        <ele>129.613416</ele>
        <time>2022-12-28T15:25:44.762Z</time>
      </trkpt>
      <trkpt lat="44.28655" lon="0.10706">
        <ele>129.288949</ele>
        <time>2022-12-28T15:25:46.753Z</time>
      </trkpt>
      <trkpt lat="44.28642" lon="0.10717">
        <ele>128.972787</ele>
        <time>2022-12-28T15:25:48.761Z</time>
      </trkpt>
      <trkpt lat="44.28631" lon="0.10729">
        <ele>128.681356</ele>
        <time>2022-12-28T15:25:50.765Z</time>
      </trkpt>
      <trkpt lat="44.2862" lon="0.1074">
        <ele>128.395209</ele>
        <time>2022-12-28T15:25:52.752Z</time>
      </trkpt>
      <trkpt lat="44.28608" lon="0.10751">
        <ele>128.111608</ele>
        <time>2022-12-28T15:25:54.757Z</time>
      </trkpt>
      <trkpt lat="44.28597" lon="0.1076">
        <ele>127.842942</ele>
        <time>2022-12-28T15:25:56.766Z</time>
      </trkpt>
      <trkpt lat="44.28588" lon="0.10771">
        <ele>127.598936</ele>
        <time>2022-12-28T15:25:58.754Z</time>
      </trkpt>
      <trkpt lat="44.28579" lon="0.1078">
        <ele>127.357032</ele>
        <time>2022-12-28T15:26:00.735Z</time>
      </trkpt>
      <trkpt lat="44.28569" lon="0.10787">
        <ele>127.137957</ele>
        <time>2022-12-28T15:26:02.751Z</time>
      </trkpt>
      <trkpt lat="44.28561" lon="0.10796">
        <ele>126.919954</ele>
        <time>2022-12-28T15:26:04.765Z</time>
      </trkpt>
      <trkpt lat="44.28552" lon="0.10804">
        <ele>126.697644</ele>
        <time>2022-12-28T15:26:06.757Z</time>
      </trkpt>
      <trkpt lat="44.28543" lon="0.10812">
        <ele>126.477887</ele>
        <time>2022-12-28T15:26:08.759Z</time>
      </trkpt>
      <trkpt lat="44.28533" lon="0.10821">
        <ele>126.329231</ele>
        <time>2022-12-28T15:26:10.758Z</time>
      </trkpt>
      <trkpt lat="44.28524" lon="0.1083">
        <ele>126.20385</ele>
        <time>2022-12-28T15:26:12.765Z</time>
      </trkpt>
      <trkpt lat="44.28515" lon="0.10841">
        <ele>126.077334</ele>
        <time>2022-12-28T15:26:14.756Z</time>
      </trkpt>
      <trkpt lat="44.28506" lon="0.10849">
        <ele>125.95509</ele>
        <time>2022-12-28T15:26:16.752Z</time>
      </trkpt>
      <trkpt lat="44.28497" lon="0.10858">
        <ele>125.82694</ele>
        <time>2022-12-28T15:26:18.764Z</time>
      </trkpt>
      <trkpt lat="44.28487" lon="0.10866">
        <ele>125.705184</ele>
        <time>2022-12-28T15:26:20.764Z</time>
      </trkpt>
      <trkpt lat="44.28478" lon="0.10875">
        <ele>125.57884</ele>
        <time>2022-12-28T15:26:22.766Z</time>
      </trkpt>
      <trkpt lat="44.28469" lon="0.10885">
        <ele>125.451592</ele>
        <time>2022-12-28T15:26:24.754Z</time>
      </trkpt>
      <trkpt lat="44.2846" lon="0.10894">
        <ele>125.327286</ele>
        <time>2022-12-28T15:26:26.762Z</time>
      </trkpt>
      <trkpt lat="44.2845" lon="0.10904">
        <ele>125.190444</ele>
        <time>2022-12-28T15:26:28.759Z</time>
      </trkpt>
      <trkpt lat="44.2844" lon="0.10913">
        <ele>125.061852</ele>
        <time>2022-12-28T15:26:30.763Z</time>
      </trkpt>
      <trkpt lat="44.2843" lon="0.10922">
        <ele>124.925443</ele>
        <time>2022-12-28T15:26:32.768Z</time>
      </trkpt>
      <trkpt lat="44.2842" lon="0.10931">
        <ele>124.795434</ele>
        <time>2022-12-28T15:26:34.767Z</time>
      </trkpt>
      <trkpt lat="44.28411" lon="0.10941">
        <ele>124.670978</ele>
        <time>2022-12-28T15:26:36.759Z</time>
      </trkpt>
      <trkpt lat="44.28402" lon="0.1095">
        <ele>124.541019</ele>
        <time>2022-12-28T15:26:38.752Z</time>
      </trkpt>
      <trkpt lat="44.28392" lon="0.10959">
        <ele>124.457736</ele>
        <time>2022-12-28T15:26:40.746Z</time>
      </trkpt>
      <trkpt lat="44.28382" lon="0.10966">
        <ele>124.525658</ele>
        <time>2022-12-28T15:26:42.739Z</time>
      </trkpt>
      <trkpt lat="44.28373" lon="0.10974">
        <ele>124.591194</ele>
        <time>2022-12-28T15:26:44.761Z</time>
      </trkpt>
      <trkpt lat="44.28363" lon="0.10983">
        <ele>124.661756</ele>
        <time>2022-12-28T15:26:46.739Z</time>
      </trkpt>
      <trkpt lat="44.28354" lon="0.10991">
        <ele>124.72921</ele>
        <time>2022-12-28T15:26:48.760Z</time>
      </trkpt>
      <trkpt lat="44.28345" lon="0.10999">
        <ele>124.794701</ele>
        <time>2022-12-28T15:26:50.738Z</time>
      </trkpt>
      <trkpt lat="44.28336" lon="0.11009">
        <ele>124.863464</ele>
        <time>2022-12-28T15:26:52.737Z</time>
      </trkpt>
      <trkpt lat="44.28328" lon="0.11016">
        <ele>124.924698</ele>
        <time>2022-12-28T15:26:54.760Z</time>
      </trkpt>
      <trkpt lat="44.28319" lon="0.11024">
        <ele>124.989721</ele>
        <time>2022-12-28T15:26:56.759Z</time>
      </trkpt>
      <trkpt lat="44.2831" lon="0.1103">
        <ele>125.046143</ele>
        <time>2022-12-28T15:26:58.750Z</time>
      </trkpt>
      <trkpt lat="44.28301" lon="0.11038">
        <ele>125.115253</ele>
        <time>2022-12-28T15:27:00.757Z</time>
      </trkpt>
      <trkpt lat="44.28291" lon="0.11047">
        <ele>125.182808</ele>
        <time>2022-12-28T15:27:02.766Z</time>
      </trkpt>
      <trkpt lat="44.28283" lon="0.11054">
        <ele>125.243047</ele>
        <time>2022-12-28T15:27:04.765Z</time>
      </trkpt>
      <trkpt lat="44.28275" lon="0.11063">
        <ele>125.306567</ele>
        <time>2022-12-28T15:27:06.767Z</time>
      </trkpt>
      <trkpt lat="44.28266" lon="0.11071">
        <ele>125.369553</ele>
        <time>2022-12-28T15:27:08.767Z</time>
      </trkpt>
      <trkpt lat="44.28259" lon="0.1108">
        <ele>125.427366</ele>
        <time>2022-12-28T15:27:10.766Z</time>
      </trkpt>
      <trkpt lat="44.28251" lon="0.11087">
        <ele>125.488908</ele>
        <time>2022-12-28T15:27:12.755Z</time>
      </trkpt>
      <trkpt lat="44.28242" lon="0.11096">
        <ele>125.610082</ele>
        <time>2022-12-28T15:27:14.767Z</time>
      </trkpt>
      <trkpt lat="44.28235" lon="0.11104">
        <ele>125.974837</ele>
        <time>2022-12-28T15:27:16.762Z</time>
      </trkpt>
      <trkpt lat="44.28226" lon="0.11113">
        <ele>126.378986</ele>
        <time>2022-12-28T15:27:18.761Z</time>
      </trkpt>
      <trkpt lat="44.28218" lon="0.11122">
        <ele>126.760429</ele>
        <time>2022-12-28T15:27:20.763Z</time>
      </trkpt>
      <trkpt lat="44.28208" lon="0.1113">
        <ele>127.19381</ele>
        <time>2022-12-28T15:27:22.744Z</time>
      </trkpt>
      <trkpt lat="44.28199" lon="0.1114">
        <ele>127.595151</ele>
        <time>2022-12-28T15:27:24.740Z</time>
      </trkpt>
      <trkpt lat="44.28191" lon="0.11148">
        <ele>127.980996</ele>
        <time>2022-12-28T15:27:26.762Z</time>
      </trkpt>
      <trkpt lat="44.28181" lon="0.11156">
        <ele>128.397366</ele>
        <time>2022-12-28T15:27:28.753Z</time>
      </trkpt>
      <trkpt lat="44.28172" lon="0.11164">
        <ele>128.814572</ele>
        <time>2022-12-28T15:27:30.748Z</time>
      </trkpt>
      <trkpt lat="44.28163" lon="0.11172">
        <ele>129.197464</ele>
        <time>2022-12-28T15:27:32.752Z</time>
      </trkpt>
      <trkpt lat="44.28155" lon="0.11181">
        <ele>129.598806</ele>
        <time>2022-12-28T15:27:34.767Z</time>
      </trkpt>
      <trkpt lat="44.28146" lon="0.1119">
        <ele>129.992617</ele>
        <time>2022-12-28T15:27:36.764Z</time>
      </trkpt>
      <trkpt lat="44.28138" lon="0.11199">
        <ele>130.387783</ele>
        <time>2022-12-28T15:27:38.743Z</time>
      </trkpt>
      <trkpt lat="44.2813" lon="0.11206">
        <ele>130.736146</ele>
        <time>2022-12-28T15:27:40.768Z</time>
      </trkpt>
      <trkpt lat="44.28121" lon="0.11215">
        <ele>131.118992</ele>
        <time>2022-12-28T15:27:42.769Z</time>
      </trkpt>
      <trkpt lat="44.28113" lon="0.11222">
        <ele>131.483853</ele>
        <time>2022-12-28T15:27:44.769Z</time>
      </trkpt>
      <trkpt lat="44.28105" lon="0.1123">
        <ele>131.848937</ele>
        <time>2022-12-28T15:27:46.767Z</time>
      </trkpt>
      <trkpt lat="44.28096" lon="0.11239">
        <ele>132.234302</ele>
        <time>2022-12-28T15:27:48.765Z</time>
      </trkpt>
      <trkpt lat="44.28086" lon="0.11246">
        <ele>132.26203</ele>
        <time>2022-12-28T15:27:50.749Z</time>
      </trkpt>
      <trkpt lat="44.28077" lon="0.11254">
        <ele>132.290182</ele>
        <time>2022-12-28T15:27:52.766Z</time>
      </trkpt>
      <trkpt lat="44.28069" lon="0.11263">
        <ele>132.316329</ele>
        <time>2022-12-28T15:27:54.787Z</time>
      </trkpt>
      <trkpt lat="44.2806" lon="0.11271">
        <ele>132.34309</ele>
        <time>2022-12-28T15:27:56.767Z</time>
      </trkpt>
      <trkpt lat="44.28051" lon="0.1128">
        <ele>132.371376</ele>
        <time>2022-12-28T15:27:58.752Z</time>
      </trkpt>
      <trkpt lat="44.28043" lon="0.11289">
        <ele>132.39795</ele>
        <time>2022-12-28T15:28:00.758Z</time>
      </trkpt>
      <trkpt lat="44.28034" lon="0.11299">
        <ele>132.424948</ele>
        <time>2022-12-28T15:28:02.768Z</time>
      </trkpt>
      <trkpt lat="44.28026" lon="0.11307">
        <ele>132.451151</ele>
        <time>2022-12-28T15:28:04.753Z</time>
      </trkpt>
      <trkpt lat="44.28017" lon="0.11316">
        <ele>132.478184</ele>
        <time>2022-12-28T15:28:06.757Z</time>
      </trkpt>
      <trkpt lat="44.28009" lon="0.11324">
        <ele>132.503912</ele>
        <time>2022-12-28T15:28:08.758Z</time>
      </trkpt>
      <trkpt lat="44.28" lon="0.11332">
        <ele>132.530032</ele>
        <time>2022-12-28T15:28:10.753Z</time>
      </trkpt>
      <trkpt lat="44.27992" lon="0.11341">
        <ele>132.556035</ele>
        <time>2022-12-28T15:28:12.766Z</time>
      </trkpt>
      <trkpt lat="44.27983" lon="0.11349">
        <ele>132.583897</ele>
        <time>2022-12-28T15:28:14.753Z</time>
      </trkpt>
      <trkpt lat="44.27974" lon="0.11358">
        <ele>132.610536</ele>
        <time>2022-12-28T15:28:16.758Z</time>
      </trkpt>
      <trkpt lat="44.27966" lon="0.11367">
        <ele>132.636539</ele>
        <time>2022-12-28T15:28:18.744Z</time>
      </trkpt>
      <trkpt lat="44.27958" lon="0.11375">
        <ele>132.662335</ele>
        <time>2022-12-28T15:28:20.759Z</time>
      </trkpt>
      <trkpt lat="44.2795" lon="0.11382">
        <ele>132.685445</ele>
        <time>2022-12-28T15:28:22.751Z</time>
      </trkpt>
      <trkpt lat="44.27941" lon="0.1139">
        <ele>132.3957</ele>
        <time>2022-12-28T15:28:24.758Z</time>
      </trkpt>
      <trkpt lat="44.27933" lon="0.11398">
        <ele>132.11748</ele>
        <time>2022-12-28T15:28:26.758Z</time>
      </trkpt>
      <trkpt lat="44.27926" lon="0.11405">
        <ele>131.855652</ele>
        <time>2022-12-28T15:28:28.750Z</time>
      </trkpt>
      <trkpt lat="44.27918" lon="0.11413">
        <ele>131.574104</ele>
        <time>2022-12-28T15:28:30.766Z</time>
      </trkpt>
      <trkpt lat="44.2791" lon="0.11422">
        <ele>131.296632</ele>
        <time>2022-12-28T15:28:32.737Z</time>
      </trkpt>
      <trkpt lat="44.27902" lon="0.11429">
        <ele>131.024856</ele>
        <time>2022-12-28T15:28:34.768Z</time>
      </trkpt>
      <trkpt lat="44.27893" lon="0.11435">
        <ele>130.738866</ele>
        <time>2022-12-28T15:28:36.770Z</time>
      </trkpt>
      <trkpt lat="44.27884" lon="0.11442">
        <ele>130.443283</ele>
        <time>2022-12-28T15:28:38.760Z</time>
      </trkpt>
      <trkpt lat="44.27875" lon="0.1145">
        <ele>130.137931</ele>
        <time>2022-12-28T15:28:40.754Z</time>
      </trkpt>
      <trkpt lat="44.27868" lon="0.11458">
        <ele>129.879232</ele>
        <time>2022-12-28T15:28:42.760Z</time>
      </trkpt>
      <trkpt lat="44.2786" lon="0.11466">
        <ele>129.601144</ele>
        <time>2022-12-28T15:28:44.756Z</time>
      </trkpt>
      <trkpt lat="44.27852" lon="0.11474">
        <ele>129.323055</ele>
        <time>2022-12-28T15:28:46.747Z</time>
      </trkpt>
      <trkpt lat="44.27844" lon="0.11481">
        <ele>129.045677</ele>
        <time>2022-12-28T15:28:48.747Z</time>
      </trkpt>
      <trkpt lat="44.27836" lon="0.11488">
        <ele>128.788618</ele>
        <time>2022-12-28T15:28:50.767Z</time>
      </trkpt>
      <trkpt lat="44.27829" lon="0.11497">
        <ele>128.523442</ele>
        <time>2022-12-28T15:28:52.740Z</time>
      </trkpt>
      <trkpt lat="44.27821" lon="0.11504">
        <ele>128.258981</ele>
        <time>2022-12-28T15:28:54.762Z</time>
      </trkpt>
      <trkpt lat="44.27814" lon="0.11511">
        <ele>127.998417</ele>
        <time>2022-12-28T15:28:56.758Z</time>
      </trkpt>
      <trkpt lat="44.27807" lon="0.11519">
        <ele>127.736217</ele>
        <time>2022-12-28T15:28:58.764Z</time>
      </trkpt>
      <trkpt lat="44.27799" lon="0.11527">
        <ele>127.489067</ele>
        <time>2022-12-28T15:29:00.765Z</time>
      </trkpt>
      <trkpt lat="44.27792" lon="0.11535">
        <ele>127.265481</ele>
        <time>2022-12-28T15:29:02.740Z</time>
      </trkpt>
      <trkpt lat="44.27781" lon="0.11547">
        <ele>126.950575</ele>
        <time>2022-12-28T15:29:05.757Z</time>
      </trkpt>
      <trkpt lat="44.2777" lon="0.11558">
        <ele>126.639392</ele>
        <time>2022-12-28T15:29:08.740Z</time>
      </trkpt>
      <trkpt lat="44.27763" lon="0.11565">
        <ele>126.427859</ele>
        <time>2022-12-28T15:29:10.762Z</time>
      </trkpt>
      <trkpt lat="44.27752" lon="0.11577">
        <ele>126.113359</ele>
        <time>2022-12-28T15:29:13.740Z</time>
      </trkpt>
      <trkpt lat="44.27744" lon="0.11583">
        <ele>125.899391</ele>
        <time>2022-12-28T15:29:15.744Z</time>
      </trkpt>
      <trkpt lat="44.27737" lon="0.11591">
        <ele>125.677453</ele>
        <time>2022-12-28T15:29:17.757Z</time>
      </trkpt>
      <trkpt lat="44.27726" lon="0.11601">
        <ele>125.367482</ele>
        <time>2022-12-28T15:29:20.766Z</time>
      </trkpt>
      <trkpt lat="44.27718" lon="0.11609">
        <ele>125.138843</ele>
        <time>2022-12-28T15:29:22.751Z</time>
      </trkpt>
      <trkpt lat="44.2771" lon="0.11617">
        <ele>124.909947</ele>
        <time>2022-12-28T15:29:24.758Z</time>
      </trkpt>
      <trkpt lat="44.27701" lon="0.11625">
        <ele>124.671729</ele>
        <time>2022-12-28T15:29:26.741Z</time>
      </trkpt>
      <trkpt lat="44.27693" lon="0.11633">
        <ele>124.441143</ele>
        <time>2022-12-28T15:29:28.755Z</time>
      </trkpt>
      <trkpt lat="44.27685" lon="0.1164">
        <ele>124.217222</ele>
        <time>2022-12-28T15:29:30.739Z</time>
      </trkpt>
      <trkpt lat="44.27677" lon="0.11649">
        <ele>123.978921</ele>
        <time>2022-12-28T15:29:32.756Z</time>
      </trkpt>
      <trkpt lat="44.27668" lon="0.11656">
        <ele>123.744071</ele>
        <time>2022-12-28T15:29:34.760Z</time>
      </trkpt>
      <trkpt lat="44.27662" lon="0.11666">
        <ele>123.50936</ele>
        <time>2022-12-28T15:29:36.754Z</time>
      </trkpt>
      <trkpt lat="44.27653" lon="0.11673">
        <ele>123.498154</ele>
        <time>2022-12-28T15:29:38.756Z</time>
      </trkpt>
      <trkpt lat="44.27645" lon="0.11682">
        <ele>123.925857</ele>
        <time>2022-12-28T15:29:40.758Z</time>
      </trkpt>
      <trkpt lat="44.27637" lon="0.11691">
        <ele>124.32383</ele>
        <time>2022-12-28T15:29:42.737Z</time>
      </trkpt>
      <trkpt lat="44.27629" lon="0.11697">
        <ele>124.701118</ele>
        <time>2022-12-28T15:29:44.765Z</time>
      </trkpt>
      <trkpt lat="44.27622" lon="0.11707">
        <ele>125.090761</ele>
        <time>2022-12-28T15:29:46.760Z</time>
      </trkpt>
      <trkpt lat="44.27614" lon="0.11714">
        <ele>125.476392</ele>
        <time>2022-12-28T15:29:48.766Z</time>
      </trkpt>
      <trkpt lat="44.27605" lon="0.11723">
        <ele>125.904731</ele>
        <time>2022-12-28T15:29:50.768Z</time>
      </trkpt>
      <trkpt lat="44.27597" lon="0.1173">
        <ele>126.284737</ele>
        <time>2022-12-28T15:29:52.755Z</time>
      </trkpt>
      <trkpt lat="44.27589" lon="0.11739">
        <ele>126.704224</ele>
        <time>2022-12-28T15:29:54.765Z</time>
      </trkpt>
      <trkpt lat="44.2758" lon="0.11746">
        <ele>127.132298</ele>
        <time>2022-12-28T15:29:56.760Z</time>
      </trkpt>
      <trkpt lat="44.2757" lon="0.11755">
        <ele>127.58479</ele>
        <time>2022-12-28T15:29:58.755Z</time>
      </trkpt>
      <trkpt lat="44.27563" lon="0.11764">
        <ele>127.991072</ele>
        <time>2022-12-28T15:30:00.766Z</time>
      </trkpt>
      <trkpt lat="44.27554" lon="0.11772">
        <ele>128.391124</ele>
        <time>2022-12-28T15:30:02.757Z</time>
      </trkpt>
      <trkpt lat="44.27547" lon="0.11779">
        <ele>128.763155</ele>
        <time>2022-12-28T15:30:04.757Z</time>
      </trkpt>
      <trkpt lat="44.27538" lon="0.11786">
        <ele>129.149895</ele>
        <time>2022-12-28T15:30:06.757Z</time>
      </trkpt>
      <trkpt lat="44.27529" lon="0.11796">
        <ele>129.643235</ele>
        <time>2022-12-28T15:30:09.766Z</time>
      </trkpt>
      <trkpt lat="44.27519" lon="0.11806">
        <ele>130.10548</ele>
        <time>2022-12-28T15:30:12.751Z</time>
      </trkpt>
      <trkpt lat="44.2751" lon="0.11815">
        <ele>130.556258</ele>
        <time>2022-12-28T15:30:15.755Z</time>
      </trkpt>
      <trkpt lat="44.27501" lon="0.11824">
        <ele>130.907368</ele>
        <time>2022-12-28T15:30:18.756Z</time>
      </trkpt>
      <trkpt lat="44.27492" lon="0.11831">
        <ele>131.217875</ele>
        <time>2022-12-28T15:30:21.747Z</time>
      </trkpt>
      <trkpt lat="44.27484" lon="0.11839">
        <ele>131.536705</ele>
        <time>2022-12-28T15:30:24.768Z</time>
      </trkpt>
      <trkpt lat="44.27475" lon="0.11847">
        <ele>131.868505</ele>
        <time>2022-12-28T15:30:27.751Z</time>
      </trkpt>
      <trkpt lat="44.27467" lon="0.11855">
        <ele>132.191195</ele>
        <time>2022-12-28T15:30:30.750Z</time>
      </trkpt>
      <trkpt lat="44.27459" lon="0.11863">
        <ele>132.501063</ele>
        <time>2022-12-28T15:30:33.742Z</time>
      </trkpt>
      <trkpt lat="44.27451" lon="0.11871">
        <ele>132.797192</ele>
        <time>2022-12-28T15:30:36.762Z</time>
      </trkpt>
      <trkpt lat="44.27444" lon="0.11879">
        <ele>133.086765</ele>
        <time>2022-12-28T15:30:39.762Z</time>
      </trkpt>
      <trkpt lat="44.27437" lon="0.11888">
        <ele>133.378365</ele>
        <time>2022-12-28T15:30:42.760Z</time>
      </trkpt>
      <trkpt lat="44.27429" lon="0.11895">
        <ele>133.658787</ele>
        <time>2022-12-28T15:30:45.758Z</time>
      </trkpt>
      <trkpt lat="44.2742" lon="0.11903">
        <ele>133.995556</ele>
        <time>2022-12-28T15:30:49.766Z</time>
      </trkpt>
      <trkpt lat="44.27412" lon="0.1191">
        <ele>134.28924</ele>
        <time>2022-12-28T15:30:52.744Z</time>
      </trkpt>
      <trkpt lat="44.27404" lon="0.11918">
        <ele>134.602966</ele>
        <time>2022-12-28T15:30:55.746Z</time>
      </trkpt>
      <trkpt lat="44.27397" lon="0.11926">
        <ele>134.893605</ele>
        <time>2022-12-28T15:30:58.736Z</time>
      </trkpt>
      <trkpt lat="44.2739" lon="0.11935">
        <ele>135.175682</ele>
        <time>2022-12-28T15:31:01.759Z</time>
      </trkpt>
      <trkpt lat="44.2738" lon="0.11944">
        <ele>135.543175</ele>
        <time>2022-12-28T15:31:05.758Z</time>
      </trkpt>
      <trkpt lat="44.27371" lon="0.11948">
        <ele>135.862077</ele>
        <time>2022-12-28T15:31:08.742Z</time>
      </trkpt>
      <trkpt lat="44.27364" lon="0.11959">
        <ele>136.176236</ele>
        <time>2022-12-28T15:31:11.746Z</time>
      </trkpt>
      <trkpt lat="44.27356" lon="0.11969">
        <ele>135.789912</ele>
        <time>2022-12-28T15:31:14.756Z</time>
      </trkpt>
      <trkpt lat="44.27347" lon="0.11978">
        <ele>135.351732</ele>
        <time>2022-12-28T15:31:17.759Z</time>
      </trkpt>
      <trkpt lat="44.27338" lon="0.11987">
        <ele>134.887738</ele>
        <time>2022-12-28T15:31:20.767Z</time>
      </trkpt>
      <trkpt lat="44.27327" lon="0.11998">
        <ele>134.354679</ele>
        <time>2022-12-28T15:31:23.764Z</time>
      </trkpt>
      <trkpt lat="44.27319" lon="0.12004">
        <ele>133.980102</ele>
        <time>2022-12-28T15:31:25.770Z</time>
      </trkpt>
      <trkpt lat="44.27311" lon="0.12011">
        <ele>133.614518</ele>
        <time>2022-12-28T15:31:27.766Z</time>
      </trkpt>
      <trkpt lat="44.27301" lon="0.12023">
        <ele>133.090157</ele>
        <time>2022-12-28T15:31:30.760Z</time>
      </trkpt>
      <trkpt lat="44.27293" lon="0.1203">
        <ele>132.69792</ele>
        <time>2022-12-28T15:31:32.754Z</time>
      </trkpt>
      <trkpt lat="44.27282" lon="0.12041">
        <ele>132.166139</ele>
        <time>2022-12-28T15:31:35.758Z</time>
      </trkpt>
      <trkpt lat="44.27275" lon="0.12048">
        <ele>131.788021</ele>
        <time>2022-12-28T15:31:37.760Z</time>
      </trkpt>
      <trkpt lat="44.27266" lon="0.12054">
        <ele>131.391309</ele>
        <time>2022-12-28T15:31:39.767Z</time>
      </trkpt>
      <trkpt lat="44.27259" lon="0.12063">
        <ele>131.01864</ele>
        <time>2022-12-28T15:31:41.768Z</time>
      </trkpt>
      <trkpt lat="44.27251" lon="0.12071">
        <ele>130.608763</ele>
        <time>2022-12-28T15:31:43.742Z</time>
      </trkpt>
      <trkpt lat="44.27241" lon="0.12079">
        <ele>130.172132</ele>
        <time>2022-12-28T15:31:45.767Z</time>
      </trkpt>
      <trkpt lat="44.27231" lon="0.12089">
        <ele>129.656862</ele>
        <time>2022-12-28T15:31:48.732Z</time>
      </trkpt>
      <trkpt lat="44.2722" lon="0.12094">
        <ele>129.192144</ele>
        <time>2022-12-28T15:31:50.767Z</time>
      </trkpt>
      <trkpt lat="44.27213" lon="0.12105">
        <ele>128.886691</ele>
        <time>2022-12-28T15:31:52.739Z</time>
      </trkpt>
      <trkpt lat="44.27207" lon="0.12116">
        <ele>128.730809</ele>
        <time>2022-12-28T15:31:54.762Z</time>
      </trkpt>
      <trkpt lat="44.27199" lon="0.12126">
        <ele>128.579224</ele>
        <time>2022-12-28T15:31:56.747Z</time>
      </trkpt>
      <trkpt lat="44.27191" lon="0.12133">
        <ele>128.42737</ele>
        <time>2022-12-28T15:31:58.750Z</time>
      </trkpt>
      <trkpt lat="44.27182" lon="0.12141">
        <ele>128.269637</ele>
        <time>2022-12-28T15:32:00.758Z</time>
      </trkpt>
      <trkpt lat="44.27175" lon="0.12149">
        <ele>128.125905</ele>
        <time>2022-12-28T15:32:02.750Z</time>
      </trkpt>
      <trkpt lat="44.27167" lon="0.12157">
        <ele>127.972192</ele>
        <time>2022-12-28T15:32:04.750Z</time>
      </trkpt>
      <trkpt lat="44.27158" lon="0.12163">
        <ele>127.818223</ele>
        <time>2022-12-28T15:32:06.747Z</time>
      </trkpt>
      <trkpt lat="44.2715" lon="0.12171">
        <ele>127.665638</ele>
        <time>2022-12-28T15:32:08.768Z</time>
      </trkpt>
      <trkpt lat="44.27142" lon="0.12179">
        <ele>127.522003</ele>
        <time>2022-12-28T15:32:10.752Z</time>
      </trkpt>
      <trkpt lat="44.27133" lon="0.12187">
        <ele>127.362627</ele>
        <time>2022-12-28T15:32:12.749Z</time>
      </trkpt>
      <trkpt lat="44.27125" lon="0.12194">
        <ele>127.208205</ele>
        <time>2022-12-28T15:32:14.737Z</time>
      </trkpt>
      <trkpt lat="44.27117" lon="0.12202">
        <ele>127.061389</ele>
        <time>2022-12-28T15:32:16.739Z</time>
      </trkpt>
      <trkpt lat="44.27109" lon="0.1221">
        <ele>126.908969</ele>
        <time>2022-12-28T15:32:18.756Z</time>
      </trkpt>
      <trkpt lat="44.271" lon="0.12217">
        <ele>126.760875</ele>
        <time>2022-12-28T15:32:20.759Z</time>
      </trkpt>
      <trkpt lat="44.27092" lon="0.12222">
        <ele>126.61711</ele>
        <time>2022-12-28T15:32:22.741Z</time>
      </trkpt>
      <trkpt lat="44.27084" lon="0.12231">
        <ele>126.462505</ele>
        <time>2022-12-28T15:32:24.759Z</time>
      </trkpt>
      <trkpt lat="44.27077" lon="0.12239">
        <ele>126.316092</ele>
        <time>2022-12-28T15:32:26.746Z</time>
      </trkpt>
      <trkpt lat="44.27068" lon="0.12247">
        <ele>126.249122</ele>
        <time>2022-12-28T15:32:28.763Z</time>
      </trkpt>
      <trkpt lat="44.27058" lon="0.12253">
        <ele>126.404979</ele>
        <time>2022-12-28T15:32:30.765Z</time>
      </trkpt>
      <trkpt lat="44.2705" lon="0.12261">
        <ele>126.534606</ele>
        <time>2022-12-28T15:32:32.755Z</time>
      </trkpt>
      <trkpt lat="44.27042" lon="0.12268">
        <ele>126.671139</ele>
        <time>2022-12-28T15:32:34.752Z</time>
      </trkpt>
      <trkpt lat="44.27032" lon="0.1228">
        <ele>126.858034</ele>
        <time>2022-12-28T15:32:37.751Z</time>
      </trkpt>
      <trkpt lat="44.27024" lon="0.12287">
        <ele>126.996332</ele>
        <time>2022-12-28T15:32:39.766Z</time>
      </trkpt>
      <trkpt lat="44.27017" lon="0.12297">
        <ele>127.127373</ele>
        <time>2022-12-28T15:32:41.767Z</time>
      </trkpt>
      <trkpt lat="44.2701" lon="0.12306">
        <ele>127.260738</ele>
        <time>2022-12-28T15:32:43.741Z</time>
      </trkpt>
      <trkpt lat="44.27002" lon="0.12313">
        <ele>127.39739</ele>
        <time>2022-12-28T15:32:45.763Z</time>
      </trkpt>
      <trkpt lat="44.26991" lon="0.12323">
        <ele>127.578876</ele>
        <time>2022-12-28T15:32:48.766Z</time>
      </trkpt>
      <trkpt lat="44.2698" lon="0.12335">
        <ele>127.774909</ele>
        <time>2022-12-28T15:32:51.767Z</time>
      </trkpt>
      <trkpt lat="44.26972" lon="0.12342">
        <ele>127.90741</ele>
        <time>2022-12-28T15:32:53.754Z</time>
      </trkpt>
      <trkpt lat="44.26965" lon="0.12351">
        <ele>128.040438</ele>
        <time>2022-12-28T15:32:55.750Z</time>
      </trkpt>
      <trkpt lat="44.26957" lon="0.12358">
        <ele>128.1695</ele>
        <time>2022-12-28T15:32:57.759Z</time>
      </trkpt>
      <trkpt lat="44.26949" lon="0.12364">
        <ele>128.304257</ele>
        <time>2022-12-28T15:32:59.768Z</time>
      </trkpt>
      <trkpt lat="44.26939" lon="0.12376">
        <ele>128.491675</ele>
        <time>2022-12-28T15:33:02.760Z</time>
      </trkpt>
      <trkpt lat="44.26931" lon="0.12383">
        <ele>128.618413</ele>
        <time>2022-12-28T15:33:04.762Z</time>
      </trkpt>
      <trkpt lat="44.26924" lon="0.12391">
        <ele>128.745906</ele>
        <time>2022-12-28T15:33:06.771Z</time>
      </trkpt>
      <trkpt lat="44.26917" lon="0.12398">
        <ele>128.866103</ele>
        <time>2022-12-28T15:33:08.759Z</time>
      </trkpt>
      <trkpt lat="44.26908" lon="0.12405">
        <ele>128.988235</ele>
        <time>2022-12-28T15:33:10.746Z</time>
      </trkpt>
      <trkpt lat="44.269" lon="0.12411">
        <ele>129.106751</ele>
        <time>2022-12-28T15:33:12.738Z</time>
      </trkpt>
      <trkpt lat="44.26893" lon="0.12419">
        <ele>129.225285</ele>
        <time>2022-12-28T15:33:14.741Z</time>
      </trkpt>
      <trkpt lat="44.26885" lon="0.12427">
        <ele>129.346448</ele>
        <time>2022-12-28T15:33:16.745Z</time>
      </trkpt>
      <trkpt lat="44.26878" lon="0.12434">
        <ele>129.470245</ele>
        <time>2022-12-28T15:33:18.744Z</time>
      </trkpt>
      <trkpt lat="44.26868" lon="0.12446">
        <ele>129.63524</ele>
        <time>2022-12-28T15:33:21.752Z</time>
      </trkpt>
      <trkpt lat="44.26861" lon="0.12454">
        <ele>129.752048</ele>
        <time>2022-12-28T15:33:23.763Z</time>
      </trkpt>
      <trkpt lat="44.26853" lon="0.12462">
        <ele>129.873214</ele>
        <time>2022-12-28T15:33:25.742Z</time>
      </trkpt>
      <trkpt lat="44.26845" lon="0.12469">
        <ele>129.992281</ele>
        <time>2022-12-28T15:33:27.757Z</time>
      </trkpt>
      <trkpt lat="44.26835" lon="0.1248">
        <ele>130.16582</ele>
        <time>2022-12-28T15:33:30.765Z</time>
      </trkpt>
      <trkpt lat="44.26826" lon="0.12489">
        <ele>130.305482</ele>
        <time>2022-12-28T15:33:33.746Z</time>
      </trkpt>
      <trkpt lat="44.26816" lon="0.12498">
        <ele>130.462982</ele>
        <time>2022-12-28T15:33:36.743Z</time>
      </trkpt>
      <trkpt lat="44.26805" lon="0.12507">
        <ele>130.62488</ele>
        <time>2022-12-28T15:33:39.753Z</time>
      </trkpt>
      <trkpt lat="44.26794" lon="0.12517">
        <ele>130.791668</ele>
        <time>2022-12-28T15:33:42.759Z</time>
      </trkpt>
      <trkpt lat="44.26784" lon="0.12527">
        <ele>130.952032</ele>
        <time>2022-12-28T15:33:45.752Z</time>
      </trkpt>
      <trkpt lat="44.26773" lon="0.12536">
        <ele>131.241794</ele>
        <time>2022-12-28T15:33:48.754Z</time>
      </trkpt>
      <trkpt lat="44.26763" lon="0.12546">
        <ele>131.747031</ele>
        <time>2022-12-28T15:33:51.771Z</time>
      </trkpt>
      <trkpt lat="44.26753" lon="0.12555">
        <ele>132.248739</ele>
        <time>2022-12-28T15:33:54.766Z</time>
      </trkpt>
      <trkpt lat="44.26743" lon="0.12563">
        <ele>132.738655</ele>
        <time>2022-12-28T15:33:57.766Z</time>
      </trkpt>
      <trkpt lat="44.26734" lon="0.12573">
        <ele>133.237193</ele>
        <time>2022-12-28T15:34:00.760Z</time>
      </trkpt>
      <trkpt lat="44.26724" lon="0.12583">
        <ele>133.738935</ele>
        <time>2022-12-28T15:34:03.765Z</time>
      </trkpt>
      <trkpt lat="44.26714" lon="0.12593">
        <ele>134.23895</ele>
        <time>2022-12-28T15:34:06.769Z</time>
      </trkpt>
      <trkpt lat="44.26704" lon="0.12602">
        <ele>134.73554</ele>
        <time>2022-12-28T15:34:09.769Z</time>
      </trkpt>
      <trkpt lat="44.26695" lon="0.12611">
        <ele>135.187759</ele>
        <time>2022-12-28T15:34:12.768Z</time>
      </trkpt>
      <trkpt lat="44.26687" lon="0.1262">
        <ele>135.642362</ele>
        <time>2022-12-28T15:34:15.768Z</time>
      </trkpt>
      <trkpt lat="44.26678" lon="0.1263">
        <ele>136.093695</ele>
        <time>2022-12-28T15:34:18.768Z</time>
      </trkpt>
      <trkpt lat="44.2667" lon="0.12639">
        <ele>136.548752</ele>
        <time>2022-12-28T15:34:21.749Z</time>
      </trkpt>
      <trkpt lat="44.26661" lon="0.12648">
        <ele>136.990801</ele>
        <time>2022-12-28T15:34:24.764Z</time>
      </trkpt>
      <trkpt lat="44.26652" lon="0.12656">
        <ele>137.42441</ele>
        <time>2022-12-28T15:34:27.768Z</time>
      </trkpt>
      <trkpt lat="44.26644" lon="0.12664">
        <ele>137.849433</ele>
        <time>2022-12-28T15:34:30.764Z</time>
      </trkpt>
      <trkpt lat="44.26636" lon="0.12672">
        <ele>138.243661</ele>
        <time>2022-12-28T15:34:33.747Z</time>
      </trkpt>
      <trkpt lat="44.26627" lon="0.12681">
        <ele>138.768119</ele>
        <time>2022-12-28T15:34:37.768Z</time>
      </trkpt>
      <trkpt lat="44.26619" lon="0.12688">
        <ele>139.307931</ele>
        <time>2022-12-28T15:34:41.750Z</time>
      </trkpt>
      <trkpt lat="44.26611" lon="0.12697">
        <ele>139.873195</ele>
        <time>2022-12-28T15:34:45.770Z</time>
      </trkpt>
      <trkpt lat="44.26603" lon="0.12704">
        <ele>140.442901</ele>
        <time>2022-12-28T15:34:49.756Z</time>
      </trkpt>
      <trkpt lat="44.26595" lon="0.12712">
        <ele>141.000984</ele>
        <time>2022-12-28T15:34:53.758Z</time>
      </trkpt>
      <trkpt lat="44.26587" lon="0.12719">
        <ele>141.523119</ele>
        <time>2022-12-28T15:34:57.752Z</time>
      </trkpt>
      <trkpt lat="44.26579" lon="0.12727">
        <ele>142.079082</ele>
        <time>2022-12-28T15:35:01.768Z</time>
      </trkpt>
      <trkpt lat="44.26571" lon="0.12734">
        <ele>142.607392</ele>
        <time>2022-12-28T15:35:05.765Z</time>
      </trkpt>
      <trkpt lat="44.26563" lon="0.12742">
        <ele>143.163122</ele>
        <time>2022-12-28T15:35:09.768Z</time>
      </trkpt>
      <trkpt lat="44.26556" lon="0.12749">
        <ele>143.676235</ele>
        <time>2022-12-28T15:35:13.767Z</time>
      </trkpt>
      <trkpt lat="44.26548" lon="0.12756">
        <ele>144.19944</ele>
        <time>2022-12-28T15:35:17.753Z</time>
      </trkpt>
      <trkpt lat="44.2654" lon="0.12764">
        <ele>144.745948</ele>
        <time>2022-12-28T15:35:21.762Z</time>
      </trkpt>
      <trkpt lat="44.26532" lon="0.12772">
        <ele>145.317986</ele>
        <time>2022-12-28T15:35:26.749Z</time>
      </trkpt>
      <trkpt lat="44.26525" lon="0.12782">
        <ele>145.879934</ele>
        <time>2022-12-28T15:35:31.764Z</time>
      </trkpt>
      <trkpt lat="44.26517" lon="0.1279">
        <ele>146.454347</ele>
        <time>2022-12-28T15:35:36.760Z</time>
      </trkpt>
      <trkpt lat="44.26508" lon="0.12798">
        <ele>147.02403</ele>
        <time>2022-12-28T15:35:41.740Z</time>
      </trkpt>
      <trkpt lat="44.265" lon="0.12807">
        <ele>147.633323</ele>
        <time>2022-12-28T15:35:46.759Z</time>
      </trkpt>
      <trkpt lat="44.26491" lon="0.12816">
        <ele>148.240442</ele>
        <time>2022-12-28T15:35:51.768Z</time>
      </trkpt>
      <trkpt lat="44.26482" lon="0.12824">
        <ele>148.749862</ele>
        <time>2022-12-28T15:35:56.765Z</time>
      </trkpt>
      <trkpt lat="44.26474" lon="0.12832">
        <ele>148.774366</ele>
        <time>2022-12-28T15:36:00.762Z</time>
      </trkpt>
      <trkpt lat="44.26466" lon="0.12839">
        <ele>148.798136</ele>
        <time>2022-12-28T15:36:04.757Z</time>
      </trkpt>
      <trkpt lat="44.26457" lon="0.12848">
        <ele>148.825457</ele>
        <time>2022-12-28T15:36:09.744Z</time>
      </trkpt>
      <trkpt lat="44.26449" lon="0.12855">
        <ele>148.850492</ele>
        <time>2022-12-28T15:36:13.738Z</time>
      </trkpt>
      <trkpt lat="44.26441" lon="0.12863">
        <ele>148.875622</ele>
        <time>2022-12-28T15:36:17.767Z</time>
      </trkpt>
      <trkpt lat="44.26433" lon="0.12872">
        <ele>148.900642</ele>
        <time>2022-12-28T15:36:21.767Z</time>
      </trkpt>
      <trkpt lat="44.26423" lon="0.1288">
        <ele>148.929093</ele>
        <time>2022-12-28T15:36:25.762Z</time>
      </trkpt>
      <trkpt lat="44.26414" lon="0.12888">
        <ele>148.95733</ele>
        <time>2022-12-28T15:36:29.768Z</time>
      </trkpt>
      <trkpt lat="44.26405" lon="0.12898">
        <ele>148.985757</ele>
        <time>2022-12-28T15:36:33.768Z</time>
      </trkpt>
      <trkpt lat="44.26395" lon="0.12907">
        <ele>149.01566</ele>
        <time>2022-12-28T15:36:37.750Z</time>
      </trkpt>
      <trkpt lat="44.26388" lon="0.12915">
        <ele>149.038452</ele>
        <time>2022-12-28T15:36:40.758Z</time>
      </trkpt>
      <trkpt lat="44.26379" lon="0.12922">
        <ele>149.063561</ele>
        <time>2022-12-28T15:36:43.787Z</time>
      </trkpt>
      <trkpt lat="44.26372" lon="0.1293">
        <ele>149.086911</ele>
        <time>2022-12-28T15:36:46.757Z</time>
      </trkpt>
      <trkpt lat="44.26363" lon="0.12936">
        <ele>149.110542</ele>
        <time>2022-12-28T15:36:49.754Z</time>
      </trkpt>
      <trkpt lat="44.26355" lon="0.12944">
        <ele>149.136471</ele>
        <time>2022-12-28T15:36:52.740Z</time>
      </trkpt>
      <trkpt lat="44.26347" lon="0.12954">
        <ele>149.163089</ele>
        <time>2022-12-28T15:36:55.750Z</time>
      </trkpt>
      <trkpt lat="44.26338" lon="0.12963">
        <ele>149.190575</ele>
        <time>2022-12-28T15:36:58.747Z</time>
      </trkpt>
      <trkpt lat="44.26328" lon="0.12972">
        <ele>149.05842</ele>
        <time>2022-12-28T15:37:01.766Z</time>
      </trkpt>
      <trkpt lat="44.2632" lon="0.12982">
        <ele>148.890039</ele>
        <time>2022-12-28T15:37:04.757Z</time>
      </trkpt>
      <trkpt lat="44.26311" lon="0.12991">
        <ele>148.725527</ele>
        <time>2022-12-28T15:37:07.766Z</time>
      </trkpt>
      <trkpt lat="44.26302" lon="0.12999">
        <ele>148.568024</ele>
        <time>2022-12-28T15:37:10.767Z</time>
      </trkpt>
      <trkpt lat="44.26293" lon="0.13007">
        <ele>148.404151</ele>
        <time>2022-12-28T15:37:13.742Z</time>
      </trkpt>
      <trkpt lat="44.26284" lon="0.13016">
        <ele>148.238548</ele>
        <time>2022-12-28T15:37:16.748Z</time>
      </trkpt>
      <trkpt lat="44.26275" lon="0.13025">
        <ele>148.068593</ele>
        <time>2022-12-28T15:37:19.757Z</time>
      </trkpt>
      <trkpt lat="44.26266" lon="0.13034">
        <ele>147.890546</ele>
        <time>2022-12-28T15:37:22.754Z</time>
      </trkpt>
      <trkpt lat="44.26256" lon="0.13044">
        <ele>147.712835</ele>
        <time>2022-12-28T15:37:25.755Z</time>
      </trkpt>
      <trkpt lat="44.26246" lon="0.13054">
        <ele>147.527914</ele>
        <time>2022-12-28T15:37:28.748Z</time>
      </trkpt>
      <trkpt lat="44.26236" lon="0.13064">
        <ele>147.33426</ele>
        <time>2022-12-28T15:37:31.753Z</time>
      </trkpt>
      <trkpt lat="44.26227" lon="0.13078">
        <ele>147.131822</ele>
        <time>2022-12-28T15:37:34.769Z</time>
      </trkpt>
      <trkpt lat="44.26219" lon="0.13084">
        <ele>146.992889</ele>
        <time>2022-12-28T15:37:36.758Z</time>
      </trkpt>
      <trkpt lat="44.26208" lon="0.13094">
        <ele>146.794749</ele>
        <time>2022-12-28T15:37:39.765Z</time>
      </trkpt>
      <trkpt lat="44.26197" lon="0.13104">
        <ele>146.605434</ele>
        <time>2022-12-28T15:37:42.769Z</time>
      </trkpt>
      <trkpt lat="44.26188" lon="0.13115">
        <ele>146.60227</ele>
        <time>2022-12-28T15:37:45.753Z</time>
      </trkpt>
      <trkpt lat="44.2618" lon="0.13122">
        <ele>146.97531</ele>
        <time>2022-12-28T15:37:47.760Z</time>
      </trkpt>
      <trkpt lat="44.26172" lon="0.13129">
        <ele>147.354215</ele>
        <time>2022-12-28T15:37:49.755Z</time>
      </trkpt>
      <trkpt lat="44.26161" lon="0.13141">
        <ele>147.887504</ele>
        <time>2022-12-28T15:37:52.756Z</time>
      </trkpt>
      <trkpt lat="44.26153" lon="0.13148">
        <ele>148.275203</ele>
        <time>2022-12-28T15:37:54.768Z</time>
      </trkpt>
      <trkpt lat="44.26145" lon="0.13155">
        <ele>148.654302</ele>
        <time>2022-12-28T15:37:56.774Z</time>
      </trkpt>
      <trkpt lat="44.26135" lon="0.13166">
        <ele>149.16058</ele>
        <time>2022-12-28T15:37:59.763Z</time>
      </trkpt>
      <trkpt lat="44.26124" lon="0.13176">
        <ele>149.678234</ele>
        <time>2022-12-28T15:38:02.765Z</time>
      </trkpt>
      <trkpt lat="44.26116" lon="0.13184">
        <ele>150.070246</ele>
        <time>2022-12-28T15:38:04.749Z</time>
      </trkpt>
      <trkpt lat="44.26106" lon="0.13194">
        <ele>150.566727</ele>
        <time>2022-12-28T15:38:07.749Z</time>
      </trkpt>
      <trkpt lat="44.26097" lon="0.13202">
        <ele>150.984823</ele>
        <time>2022-12-28T15:38:10.766Z</time>
      </trkpt>
      <trkpt lat="44.26088" lon="0.13212">
        <ele>151.453487</ele>
        <time>2022-12-28T15:38:13.767Z</time>
      </trkpt>
      <trkpt lat="44.26078" lon="0.13221">
        <ele>151.911148</ele>
        <time>2022-12-28T15:38:16.751Z</time>
      </trkpt>
      <trkpt lat="44.26067" lon="0.1323">
        <ele>152.408268</ele>
        <time>2022-12-28T15:38:19.754Z</time>
      </trkpt>
      <trkpt lat="44.26057" lon="0.13241">
        <ele>152.927353</ele>
        <time>2022-12-28T15:38:22.755Z</time>
      </trkpt>
      <trkpt lat="44.26048" lon="0.13251">
        <ele>153.394375</ele>
        <time>2022-12-28T15:38:25.737Z</time>
      </trkpt>
      <trkpt lat="44.26038" lon="0.13261">
        <ele>153.949317</ele>
        <time>2022-12-28T15:38:28.743Z</time>
      </trkpt>
      <trkpt lat="44.26026" lon="0.13271">
        <ele>154.584439</ele>
        <time>2022-12-28T15:38:31.770Z</time>
      </trkpt>
      <trkpt lat="44.26015" lon="0.1328">
        <ele>155.211431</ele>
        <time>2022-12-28T15:38:34.759Z</time>
      </trkpt>
      <trkpt lat="44.26005" lon="0.1329">
        <ele>155.780758</ele>
        <time>2022-12-28T15:38:37.764Z</time>
      </trkpt>
      <trkpt lat="44.25995" lon="0.13299">
        <ele>156.319157</ele>
        <time>2022-12-28T15:38:40.767Z</time>
      </trkpt>
      <trkpt lat="44.25987" lon="0.13308">
        <ele>156.814903</ele>
        <time>2022-12-28T15:38:43.741Z</time>
      </trkpt>
      <trkpt lat="44.25978" lon="0.13315">
        <ele>157.303582</ele>
        <time>2022-12-28T15:38:46.766Z</time>
      </trkpt>
      <trkpt lat="44.25971" lon="0.13325">
        <ele>157.780631</ele>
        <time>2022-12-28T15:38:49.743Z</time>
      </trkpt>
      <trkpt lat="44.25963" lon="0.13335">
        <ele>158.263607</ele>
        <time>2022-12-28T15:38:52.767Z</time>
      </trkpt>
      <trkpt lat="44.25953" lon="0.13343">
        <ele>158.829346</ele>
        <time>2022-12-28T15:38:55.739Z</time>
      </trkpt>
      <trkpt lat="44.25945" lon="0.13353">
        <ele>159.321743</ele>
        <time>2022-12-28T15:38:58.768Z</time>
      </trkpt>
      <trkpt lat="44.25936" lon="0.13361">
        <ele>159.837216</ele>
        <time>2022-12-28T15:39:01.736Z</time>
      </trkpt>
      <trkpt lat="44.25928" lon="0.1337">
        <ele>160.31295</ele>
        <time>2022-12-28T15:39:04.755Z</time>
      </trkpt>
      <trkpt lat="44.25921" lon="0.13378">
        <ele>160.754615</ele>
        <time>2022-12-28T15:39:07.766Z</time>
      </trkpt>
      <trkpt lat="44.25912" lon="0.13385">
        <ele>161.250881</ele>
        <time>2022-12-28T15:39:11.761Z</time>
      </trkpt>
      <trkpt lat="44.25904" lon="0.13395">
        <ele>161.747522</ele>
        <time>2022-12-28T15:39:15.759Z</time>
      </trkpt>
      <trkpt lat="44.25894" lon="0.13405">
        <ele>162.124526</ele>
        <time>2022-12-28T15:39:19.745Z</time>
      </trkpt>
      <trkpt lat="44.25886" lon="0.13411">
        <ele>162.123689</ele>
        <time>2022-12-28T15:39:22.763Z</time>
      </trkpt>
      <trkpt lat="44.25878" lon="0.13416">
        <ele>162.122875</ele>
        <time>2022-12-28T15:39:25.764Z</time>
      </trkpt>
      <trkpt lat="44.2587" lon="0.13424">
        <ele>162.122049</ele>
        <time>2022-12-28T15:39:28.750Z</time>
      </trkpt>
      <trkpt lat="44.25862" lon="0.13434">
        <ele>162.121083</ele>
        <time>2022-12-28T15:39:32.754Z</time>
      </trkpt>
      <trkpt lat="44.25854" lon="0.13442">
        <ele>162.120236</ele>
        <time>2022-12-28T15:39:35.767Z</time>
      </trkpt>
      <trkpt lat="44.25845" lon="0.13451">
        <ele>162.1192</ele>
        <time>2022-12-28T15:39:39.771Z</time>
      </trkpt>
      <trkpt lat="44.25837" lon="0.13459">
        <ele>162.118368</ele>
        <time>2022-12-28T15:39:42.747Z</time>
      </trkpt>
      <trkpt lat="44.25829" lon="0.13467">
        <ele>162.117493</ele>
        <time>2022-12-28T15:39:45.767Z</time>
      </trkpt>
      <trkpt lat="44.25821" lon="0.13475">
        <ele>162.116603</ele>
        <time>2022-12-28T15:39:48.771Z</time>
      </trkpt>
      <trkpt lat="44.25813" lon="0.13482">
        <ele>162.115754</ele>
        <time>2022-12-28T15:39:51.760Z</time>
      </trkpt>
      <trkpt lat="44.25804" lon="0.13491">
        <ele>162.114805</ele>
        <time>2022-12-28T15:39:54.758Z</time>
      </trkpt>
      <trkpt lat="44.25796" lon="0.13498">
        <ele>162.113987</ele>
        <time>2022-12-28T15:39:57.756Z</time>
      </trkpt>
      <trkpt lat="44.25788" lon="0.13506">
        <ele>162.113057</ele>
        <time>2022-12-28T15:40:00.759Z</time>
      </trkpt>
      <trkpt lat="44.2578" lon="0.13516">
        <ele>162.112097</ele>
        <time>2022-12-28T15:40:03.759Z</time>
      </trkpt>
      <trkpt lat="44.25771" lon="0.13524">
        <ele>162.111156</ele>
        <time>2022-12-28T15:40:06.763Z</time>
      </trkpt>
      <trkpt lat="44.25762" lon="0.13532">
        <ele>162.110265</ele>
        <time>2022-12-28T15:40:09.769Z</time>
      </trkpt>
      <trkpt lat="44.25754" lon="0.13538">
        <ele>162.109393</ele>
        <time>2022-12-28T15:40:12.768Z</time>
      </trkpt>
      <trkpt lat="44.25745" lon="0.13546">
        <ele>162.216755</ele>
        <time>2022-12-28T15:40:15.765Z</time>
      </trkpt>
      <trkpt lat="44.25737" lon="0.13554">
        <ele>162.447439</ele>
        <time>2022-12-28T15:40:18.769Z</time>
      </trkpt>
      <trkpt lat="44.25728" lon="0.13562">
        <ele>162.686843</ele>
        <time>2022-12-28T15:40:21.763Z</time>
      </trkpt>
      <trkpt lat="44.2572" lon="0.13569">
        <ele>162.918787</ele>
        <time>2022-12-28T15:40:24.759Z</time>
      </trkpt>
      <trkpt lat="44.25712" lon="0.13578">
        <ele>163.158113</ele>
        <time>2022-12-28T15:40:27.756Z</time>
      </trkpt>
      <trkpt lat="44.25703" lon="0.13587">
        <ele>163.405124</ele>
        <time>2022-12-28T15:40:30.770Z</time>
      </trkpt>
      <trkpt lat="44.25695" lon="0.13596">
        <ele>163.644058</ele>
        <time>2022-12-28T15:40:33.768Z</time>
      </trkpt>
      <trkpt lat="44.25686" lon="0.13607">
        <ele>163.913172</ele>
        <time>2022-12-28T15:40:36.758Z</time>
      </trkpt>
      <trkpt lat="44.25678" lon="0.13617">
        <ele>164.171261</ele>
        <time>2022-12-28T15:40:39.768Z</time>
      </trkpt>
      <trkpt lat="44.2567" lon="0.13626">
        <ele>164.40857</ele>
        <time>2022-12-28T15:40:42.768Z</time>
      </trkpt>
      <trkpt lat="44.25661" lon="0.13636">
        <ele>164.670679</ele>
        <time>2022-12-28T15:40:45.768Z</time>
      </trkpt>
      <trkpt lat="44.25651" lon="0.13644">
        <ele>164.92955</ele>
        <time>2022-12-28T15:40:48.762Z</time>
      </trkpt>
      <trkpt lat="44.25641" lon="0.13652">
        <ele>165.200445</ele>
        <time>2022-12-28T15:40:51.753Z</time>
      </trkpt>
      <trkpt lat="44.25631" lon="0.1366">
        <ele>165.464743</ele>
        <time>2022-12-28T15:40:54.749Z</time>
      </trkpt>
      <trkpt lat="44.25622" lon="0.13668">
        <ele>165.721216</ele>
        <time>2022-12-28T15:40:57.762Z</time>
      </trkpt>
      <trkpt lat="44.25614" lon="0.13678">
        <ele>165.963722</ele>
        <time>2022-12-28T15:41:00.739Z</time>
      </trkpt>
      <trkpt lat="44.25606" lon="0.13687">
        <ele>166.195926</ele>
        <time>2022-12-28T15:41:03.770Z</time>
      </trkpt>
      <trkpt lat="44.25598" lon="0.13696">
        <ele>166.176736</ele>
        <time>2022-12-28T15:41:06.760Z</time>
      </trkpt>
      <trkpt lat="44.2559" lon="0.13704">
        <ele>166.031409</ele>
        <time>2022-12-28T15:41:09.768Z</time>
      </trkpt>
      <trkpt lat="44.25579" lon="0.13711">
        <ele>165.866706</ele>
        <time>2022-12-28T15:41:12.762Z</time>
      </trkpt>
      <trkpt lat="44.2557" lon="0.13718">
        <ele>165.727338</ele>
        <time>2022-12-28T15:41:15.757Z</time>
      </trkpt>
      <trkpt lat="44.25561" lon="0.13728">
        <ele>165.5747</ele>
        <time>2022-12-28T15:41:18.764Z</time>
      </trkpt>
      <trkpt lat="44.25552" lon="0.13738">
        <ele>165.412228</ele>
        <time>2022-12-28T15:41:21.752Z</time>
      </trkpt>
      <trkpt lat="44.2554" lon="0.13748">
        <ele>165.209964</ele>
        <time>2022-12-28T15:41:24.739Z</time>
      </trkpt>
      <trkpt lat="44.25532" lon="0.13755">
        <ele>165.083646</ele>
        <time>2022-12-28T15:41:26.750Z</time>
      </trkpt>
      <trkpt lat="44.25524" lon="0.13762">
        <ele>164.958336</ele>
        <time>2022-12-28T15:41:28.766Z</time>
      </trkpt>
      <trkpt lat="44.25514" lon="0.13774">
        <ele>164.773866</ele>
        <time>2022-12-28T15:41:31.761Z</time>
      </trkpt>
      <trkpt lat="44.25508" lon="0.13783">
        <ele>164.647956</ele>
        <time>2022-12-28T15:41:33.741Z</time>
      </trkpt>
      <trkpt lat="44.25499" lon="0.13792">
        <ele>164.492572</ele>
        <time>2022-12-28T15:41:36.762Z</time>
      </trkpt>
      <trkpt lat="44.2549" lon="0.13799">
        <ele>164.358539</ele>
        <time>2022-12-28T15:41:38.769Z</time>
      </trkpt>
      <trkpt lat="44.25483" lon="0.13808">
        <ele>164.227602</ele>
        <time>2022-12-28T15:41:40.768Z</time>
      </trkpt>
      <trkpt lat="44.25473" lon="0.13819">
        <ele>164.054583</ele>
        <time>2022-12-28T15:41:43.751Z</time>
      </trkpt>
      <trkpt lat="44.25465" lon="0.13825">
        <ele>163.919141</ele>
        <time>2022-12-28T15:41:45.738Z</time>
      </trkpt>
      <trkpt lat="44.25457" lon="0.13833">
        <ele>163.76578</ele>
        <time>2022-12-28T15:41:47.770Z</time>
      </trkpt>
      <trkpt lat="44.25449" lon="0.13842">
        <ele>163.384854</ele>
        <time>2022-12-28T15:41:49.747Z</time>
      </trkpt>
      <trkpt lat="44.25441" lon="0.13848">
        <ele>163.022447</ele>
        <time>2022-12-28T15:41:51.740Z</time>
      </trkpt>
      <trkpt lat="44.25432" lon="0.13852">
        <ele>162.662938</ele>
        <time>2022-12-28T15:41:53.749Z</time>
      </trkpt>
      <trkpt lat="44.25424" lon="0.1386">
        <ele>162.294156</ele>
        <time>2022-12-28T15:41:55.741Z</time>
      </trkpt>
      <trkpt lat="44.25417" lon="0.1387">
        <ele>161.904882</ele>
        <time>2022-12-28T15:41:57.755Z</time>
      </trkpt>
      <trkpt lat="44.25407" lon="0.13883">
        <ele>161.365759</ele>
        <time>2022-12-28T15:42:00.742Z</time>
      </trkpt>
      <trkpt lat="44.25399" lon="0.13891">
        <ele>160.993454</ele>
        <time>2022-12-28T15:42:02.738Z</time>
      </trkpt>
      <trkpt lat="44.25392" lon="0.13899">
        <ele>160.622088</ele>
        <time>2022-12-28T15:42:04.762Z</time>
      </trkpt>
      <trkpt lat="44.25384" lon="0.13908">
        <ele>160.22449</ele>
        <time>2022-12-28T15:42:06.764Z</time>
      </trkpt>
      <trkpt lat="44.25376" lon="0.13917">
        <ele>159.810951</ele>
        <time>2022-12-28T15:42:08.768Z</time>
      </trkpt>
      <trkpt lat="44.25367" lon="0.13925">
        <ele>159.395737</ele>
        <time>2022-12-28T15:42:10.773Z</time>
      </trkpt>
      <trkpt lat="44.25357" lon="0.13934">
        <ele>158.959832</ele>
        <time>2022-12-28T15:42:12.755Z</time>
      </trkpt>
      <trkpt lat="44.25349" lon="0.13944">
        <ele>158.519771</ele>
        <time>2022-12-28T15:42:14.762Z</time>
      </trkpt>
      <trkpt lat="44.25339" lon="0.13954">
        <ele>158.05338</ele>
        <time>2022-12-28T15:42:16.740Z</time>
      </trkpt>
      <trkpt lat="44.25329" lon="0.13964">
        <ele>157.576033</ele>
        <time>2022-12-28T15:42:18.752Z</time>
      </trkpt>
      <trkpt lat="44.2532" lon="0.13973">
        <ele>157.13046</ele>
        <time>2022-12-28T15:42:20.757Z</time>
      </trkpt>
      <trkpt lat="44.25311" lon="0.13983">
        <ele>156.650977</ele>
        <time>2022-12-28T15:42:22.742Z</time>
      </trkpt>
      <trkpt lat="44.25301" lon="0.13993">
        <ele>156.047281</ele>
        <time>2022-12-28T15:42:24.767Z</time>
      </trkpt>
      <trkpt lat="44.25291" lon="0.14003">
        <ele>155.430846</ele>
        <time>2022-12-28T15:42:26.738Z</time>
      </trkpt>
      <trkpt lat="44.25282" lon="0.14012">
        <ele>154.870569</ele>
        <time>2022-12-28T15:42:28.767Z</time>
      </trkpt>
      <trkpt lat="44.25272" lon="0.14021">
        <ele>154.264497</ele>
        <time>2022-12-28T15:42:30.767Z</time>
      </trkpt>
      <trkpt lat="44.25262" lon="0.1403">
        <ele>153.644288</ele>
        <time>2022-12-28T15:42:32.771Z</time>
      </trkpt>
      <trkpt lat="44.25252" lon="0.14038">
        <ele>153.055117</ele>
        <time>2022-12-28T15:42:34.759Z</time>
      </trkpt>
      <trkpt lat="44.25241" lon="0.14048">
        <ele>152.408011</ele>
        <time>2022-12-28T15:42:36.750Z</time>
      </trkpt>
      <trkpt lat="44.25231" lon="0.14055">
        <ele>151.827122</ele>
        <time>2022-12-28T15:42:38.768Z</time>
      </trkpt>
      <trkpt lat="44.25221" lon="0.14064">
        <ele>151.244364</ele>
        <time>2022-12-28T15:42:40.755Z</time>
      </trkpt>
      <trkpt lat="44.25212" lon="0.14073">
        <ele>150.663643</ele>
        <time>2022-12-28T15:42:42.762Z</time>
      </trkpt>
      <trkpt lat="44.25202" lon="0.14081">
        <ele>150.083221</ele>
        <time>2022-12-28T15:42:44.769Z</time>
      </trkpt>
      <trkpt lat="44.25192" lon="0.14091">
        <ele>149.488016</ele>
        <time>2022-12-28T15:42:46.751Z</time>
      </trkpt>
      <trkpt lat="44.25184" lon="0.14101">
        <ele>148.909099</ele>
        <time>2022-12-28T15:42:48.741Z</time>
      </trkpt>
      <trkpt lat="44.25174" lon="0.14109">
        <ele>148.349075</ele>
        <time>2022-12-28T15:42:50.739Z</time>
      </trkpt>
      <trkpt lat="44.25166" lon="0.14121">
        <ele>147.747833</ele>
        <time>2022-12-28T15:42:52.761Z</time>
      </trkpt>
      <trkpt lat="44.25157" lon="0.14129">
        <ele>147.657574</ele>
        <time>2022-12-28T15:42:54.751Z</time>
      </trkpt>
      <trkpt lat="44.25148" lon="0.14137">
        <ele>147.628307</ele>
        <time>2022-12-28T15:42:56.747Z</time>
      </trkpt>
      <trkpt lat="44.2514" lon="0.14146">
        <ele>147.597369</ele>
        <time>2022-12-28T15:42:58.745Z</time>
      </trkpt>
      <trkpt lat="44.25131" lon="0.14156">
        <ele>147.565173</ele>
        <time>2022-12-28T15:43:00.741Z</time>
      </trkpt>
      <trkpt lat="44.25122" lon="0.14165">
        <ele>147.532132</ele>
        <time>2022-12-28T15:43:02.763Z</time>
      </trkpt>
      <trkpt lat="44.25113" lon="0.14173">
        <ele>147.501697</ele>
        <time>2022-12-28T15:43:04.757Z</time>
      </trkpt>
      <trkpt lat="44.25105" lon="0.14182">
        <ele>147.472676</ele>
        <time>2022-12-28T15:43:06.763Z</time>
      </trkpt>
      <trkpt lat="44.25096" lon="0.1419">
        <ele>147.441635</ele>
        <time>2022-12-28T15:43:08.760Z</time>
      </trkpt>
      <trkpt lat="44.25087" lon="0.14198">
        <ele>147.410219</ele>
        <time>2022-12-28T15:43:10.750Z</time>
      </trkpt>
      <trkpt lat="44.25076" lon="0.14205">
        <ele>147.3767</ele>
        <time>2022-12-28T15:43:12.742Z</time>
      </trkpt>
      <trkpt lat="44.25067" lon="0.14214">
        <ele>147.342801</ele>
        <time>2022-12-28T15:43:14.763Z</time>
      </trkpt>
      <trkpt lat="44.25059" lon="0.14222">
        <ele>147.313638</ele>
        <time>2022-12-28T15:43:16.737Z</time>
      </trkpt>
      <trkpt lat="44.25049" lon="0.1423">
        <ele>147.280245</ele>
        <time>2022-12-28T15:43:18.738Z</time>
      </trkpt>
      <trkpt lat="44.25039" lon="0.14241">
        <ele>147.246013</ele>
        <time>2022-12-28T15:43:20.776Z</time>
      </trkpt>
      <trkpt lat="44.2503" lon="0.14251">
        <ele>147.210583</ele>
        <time>2022-12-28T15:43:22.755Z</time>
      </trkpt>
      <trkpt lat="44.25022" lon="0.14262">
        <ele>147.179554</ele>
        <time>2022-12-28T15:43:24.757Z</time>
      </trkpt>
      <trkpt lat="44.25014" lon="0.14274">
        <ele>147.37713</ele>
        <time>2022-12-28T15:43:26.759Z</time>
      </trkpt>
      <trkpt lat="44.25004" lon="0.14281">
        <ele>147.720632</ele>
        <time>2022-12-28T15:43:28.761Z</time>
      </trkpt>
      <trkpt lat="44.24994" lon="0.14291">
        <ele>148.108297</ele>
        <time>2022-12-28T15:43:30.761Z</time>
      </trkpt>
      <trkpt lat="44.24986" lon="0.143">
        <ele>148.43925</ele>
        <time>2022-12-28T15:43:32.760Z</time>
      </trkpt>
      <trkpt lat="44.24976" lon="0.14309">
        <ele>148.825635</ele>
        <time>2022-12-28T15:43:34.768Z</time>
      </trkpt>
      <trkpt lat="44.24967" lon="0.14319">
        <ele>149.191855</ele>
        <time>2022-12-28T15:43:36.762Z</time>
      </trkpt>
      <trkpt lat="44.24956" lon="0.14329">
        <ele>149.583639</ele>
        <time>2022-12-28T15:43:38.759Z</time>
      </trkpt>
      <trkpt lat="44.24947" lon="0.14338">
        <ele>149.938936</ele>
        <time>2022-12-28T15:43:40.755Z</time>
      </trkpt>
      <trkpt lat="44.24938" lon="0.14346">
        <ele>150.278787</ele>
        <time>2022-12-28T15:43:42.760Z</time>
      </trkpt>
      <trkpt lat="44.2493" lon="0.14355">
        <ele>150.608995</ele>
        <time>2022-12-28T15:43:44.768Z</time>
      </trkpt>
      <trkpt lat="44.24921" lon="0.14363">
        <ele>150.942019</ele>
        <time>2022-12-28T15:43:46.769Z</time>
      </trkpt>
      <trkpt lat="44.24913" lon="0.14371">
        <ele>151.270234</ele>
        <time>2022-12-28T15:43:48.759Z</time>
      </trkpt>
      <trkpt lat="44.24905" lon="0.14379">
        <ele>151.577513</ele>
        <time>2022-12-28T15:43:50.768Z</time>
      </trkpt>
      <trkpt lat="44.24898" lon="0.14388">
        <ele>151.869409</ele>
        <time>2022-12-28T15:43:52.772Z</time>
      </trkpt>
      <trkpt lat="44.24889" lon="0.14395">
        <ele>152.187183</ele>
        <time>2022-12-28T15:43:54.759Z</time>
      </trkpt>
      <trkpt lat="44.24882" lon="0.14402">
        <ele>152.480249</ele>
        <time>2022-12-28T15:43:56.760Z</time>
      </trkpt>
      <trkpt lat="44.24873" lon="0.1441">
        <ele>152.807048</ele>
        <time>2022-12-28T15:43:58.758Z</time>
      </trkpt>
      <trkpt lat="44.24865" lon="0.14418">
        <ele>152.892877</ele>
        <time>2022-12-28T15:44:00.770Z</time>
      </trkpt>
      <trkpt lat="44.24856" lon="0.14425">
        <ele>152.945395</ele>
        <time>2022-12-28T15:44:02.764Z</time>
      </trkpt>
      <trkpt lat="44.24848" lon="0.14433">
        <ele>152.99546</ele>
        <time>2022-12-28T15:44:04.769Z</time>
      </trkpt>
      <trkpt lat="44.24839" lon="0.1444">
        <ele>153.048161</ele>
        <time>2022-12-28T15:44:06.739Z</time>
      </trkpt>
      <trkpt lat="44.24831" lon="0.14449">
        <ele>153.09893</ele>
        <time>2022-12-28T15:44:08.771Z</time>
      </trkpt>
      <trkpt lat="44.24823" lon="0.14456">
        <ele>153.146303</ele>
        <time>2022-12-28T15:44:10.763Z</time>
      </trkpt>
      <trkpt lat="44.24816" lon="0.14465">
        <ele>153.19606</ele>
        <time>2022-12-28T15:44:12.758Z</time>
      </trkpt>
      <trkpt lat="44.24807" lon="0.14473">
        <ele>153.246796</ele>
        <time>2022-12-28T15:44:14.760Z</time>
      </trkpt>
      <trkpt lat="44.24799" lon="0.14481">
        <ele>153.29624</ele>
        <time>2022-12-28T15:44:16.762Z</time>
      </trkpt>
      <trkpt lat="44.24791" lon="0.14488">
        <ele>153.345117</ele>
        <time>2022-12-28T15:44:18.768Z</time>
      </trkpt>
      <trkpt lat="44.24781" lon="0.14499">
        <ele>153.411438</ele>
        <time>2022-12-28T15:44:21.755Z</time>
      </trkpt>
      <trkpt lat="44.24772" lon="0.14505">
        <ele>153.458722</ele>
        <time>2022-12-28T15:44:23.760Z</time>
      </trkpt>
      <trkpt lat="44.24764" lon="0.14513">
        <ele>153.511906</ele>
        <time>2022-12-28T15:44:25.736Z</time>
      </trkpt>
      <trkpt lat="44.24756" lon="0.14521">
        <ele>153.560937</ele>
        <time>2022-12-28T15:44:27.754Z</time>
      </trkpt>
      <trkpt lat="44.24747" lon="0.14529">
        <ele>153.61246</ele>
        <time>2022-12-28T15:44:29.737Z</time>
      </trkpt>
      <trkpt lat="44.24739" lon="0.14537">
        <ele>153.66151</ele>
        <time>2022-12-28T15:44:31.764Z</time>
      </trkpt>
      <trkpt lat="44.24731" lon="0.14545">
        <ele>153.711159</ele>
        <time>2022-12-28T15:44:33.767Z</time>
      </trkpt>
      <trkpt lat="44.24723" lon="0.14553">
        <ele>153.753197</ele>
        <time>2022-12-28T15:44:35.754Z</time>
      </trkpt>
      <trkpt lat="44.24716" lon="0.14561">
        <ele>153.464007</ele>
        <time>2022-12-28T15:44:37.767Z</time>
      </trkpt>
      <trkpt lat="44.24707" lon="0.14568">
        <ele>153.136394</ele>
        <time>2022-12-28T15:44:39.770Z</time>
      </trkpt>
      <trkpt lat="44.24696" lon="0.14581">
        <ele>152.699622</ele>
        <time>2022-12-28T15:44:42.767Z</time>
      </trkpt>
      <trkpt lat="44.24688" lon="0.1459">
        <ele>152.389492</ele>
        <time>2022-12-28T15:44:44.757Z</time>
      </trkpt>
      <trkpt lat="44.2468" lon="0.14597">
        <ele>152.088921</ele>
        <time>2022-12-28T15:44:46.757Z</time>
      </trkpt>
      <trkpt lat="44.24671" lon="0.14605">
        <ele>151.7481</ele>
        <time>2022-12-28T15:44:48.766Z</time>
      </trkpt>
      <trkpt lat="44.24662" lon="0.14615">
        <ele>151.413685</ele>
        <time>2022-12-28T15:44:50.768Z</time>
      </trkpt>
      <trkpt lat="44.24652" lon="0.14624">
        <ele>151.042887</ele>
        <time>2022-12-28T15:44:52.765Z</time>
      </trkpt>
      <trkpt lat="44.24643" lon="0.14634">
        <ele>150.676878</ele>
        <time>2022-12-28T15:44:54.768Z</time>
      </trkpt>
      <trkpt lat="44.24633" lon="0.14646">
        <ele>150.261568</ele>
        <time>2022-12-28T15:44:56.760Z</time>
      </trkpt>
      <trkpt lat="44.24623" lon="0.14656">
        <ele>149.871718</ele>
        <time>2022-12-28T15:44:58.758Z</time>
      </trkpt>
      <trkpt lat="44.24611" lon="0.14667">
        <ele>149.438695</ele>
        <time>2022-12-28T15:45:00.756Z</time>
      </trkpt>
      <trkpt lat="44.246" lon="0.14678">
        <ele>149.005579</ele>
        <time>2022-12-28T15:45:02.768Z</time>
      </trkpt>
      <trkpt lat="44.24588" lon="0.1469">
        <ele>148.564859</ele>
        <time>2022-12-28T15:45:04.768Z</time>
      </trkpt>
      <trkpt lat="44.24577" lon="0.14701">
        <ele>148.142521</ele>
        <time>2022-12-28T15:45:06.748Z</time>
      </trkpt>
      <trkpt lat="44.24564" lon="0.14712">
        <ele>147.769471</ele>
        <time>2022-12-28T15:45:08.772Z</time>
      </trkpt>
      <trkpt lat="44.24553" lon="0.14724">
        <ele>147.423246</ele>
        <time>2022-12-28T15:45:10.756Z</time>
      </trkpt>
      <trkpt lat="44.24541" lon="0.14735">
        <ele>147.073881</ele>
        <time>2022-12-28T15:45:12.746Z</time>
      </trkpt>
      <trkpt lat="44.24527" lon="0.14748">
        <ele>146.663566</ele>
        <time>2022-12-28T15:45:14.768Z</time>
      </trkpt>
      <trkpt lat="44.24513" lon="0.14762">
        <ele>146.262027</ele>
        <time>2022-12-28T15:45:16.771Z</time>
      </trkpt>
      <trkpt lat="44.245" lon="0.14775">
        <ele>145.860818</ele>
        <time>2022-12-28T15:45:18.773Z</time>
      </trkpt>
      <trkpt lat="44.24487" lon="0.14788">
        <ele>145.472153</ele>
        <time>2022-12-28T15:45:20.748Z</time>
      </trkpt>
      <trkpt lat="44.2448" lon="0.14796">
        <ele>145.241819</ele>
        <time>2022-12-28T15:45:21.771Z</time>
      </trkpt>
      <trkpt lat="44.24468" lon="0.14806">
        <ele>144.907952</ele>
        <time>2022-12-28T15:45:23.769Z</time>
      </trkpt>
      <trkpt lat="44.24455" lon="0.14819">
        <ele>144.518735</ele>
        <time>2022-12-28T15:45:25.761Z</time>
      </trkpt>
      <trkpt lat="44.24444" lon="0.14831">
        <ele>144.172412</ele>
        <time>2022-12-28T15:45:27.771Z</time>
      </trkpt>
      <trkpt lat="44.24431" lon="0.14843">
        <ele>143.80718</ele>
        <time>2022-12-28T15:45:29.768Z</time>
      </trkpt>
      <trkpt lat="44.2442" lon="0.14854">
        <ele>144.077841</ele>
        <time>2022-12-28T15:45:31.757Z</time>
      </trkpt>
      <trkpt lat="44.24409" lon="0.14864">
        <ele>144.383987</ele>
        <time>2022-12-28T15:45:33.767Z</time>
      </trkpt>
      <trkpt lat="44.24399" lon="0.14874">
        <ele>144.670355</ele>
        <time>2022-12-28T15:45:35.754Z</time>
      </trkpt>
      <trkpt lat="44.2439" lon="0.14884">
        <ele>144.92367</ele>
        <time>2022-12-28T15:45:37.768Z</time>
      </trkpt>
      <trkpt lat="44.24381" lon="0.14891">
        <ele>145.147078</ele>
        <time>2022-12-28T15:45:39.757Z</time>
      </trkpt>
      <trkpt lat="44.24373" lon="0.14899">
        <ele>145.385901</ele>
        <time>2022-12-28T15:45:41.770Z</time>
      </trkpt>
      <trkpt lat="44.24365" lon="0.14906">
        <ele>145.596202</ele>
        <time>2022-12-28T15:45:43.769Z</time>
      </trkpt>
      <trkpt lat="44.24355" lon="0.14917">
        <ele>145.889277</ele>
        <time>2022-12-28T15:45:46.760Z</time>
      </trkpt>
      <trkpt lat="44.24344" lon="0.14927">
        <ele>146.171914</ele>
        <time>2022-12-28T15:45:49.769Z</time>
      </trkpt>
      <trkpt lat="44.24334" lon="0.14937">
        <ele>146.454551</ele>
        <time>2022-12-28T15:45:52.766Z</time>
      </trkpt>
      <trkpt lat="44.24324" lon="0.14948">
        <ele>146.747566</ele>
        <time>2022-12-28T15:45:55.768Z</time>
      </trkpt>
      <trkpt lat="44.24314" lon="0.14958">
        <ele>147.019962</ele>
        <time>2022-12-28T15:45:58.763Z</time>
      </trkpt>
      <trkpt lat="44.24305" lon="0.14967">
        <ele>147.29048</ele>
        <time>2022-12-28T15:46:01.770Z</time>
      </trkpt>
      <trkpt lat="44.24295" lon="0.14976">
        <ele>147.560157</ele>
        <time>2022-12-28T15:46:04.762Z</time>
      </trkpt>
      <trkpt lat="44.24285" lon="0.14985">
        <ele>147.827936</ele>
        <time>2022-12-28T15:46:07.767Z</time>
      </trkpt>
      <trkpt lat="44.24276" lon="0.14994">
        <ele>148.142228</ele>
        <time>2022-12-28T15:46:10.767Z</time>
      </trkpt>
      <trkpt lat="44.24268" lon="0.15001">
        <ele>148.447052</ele>
        <time>2022-12-28T15:46:13.753Z</time>
      </trkpt>
      <trkpt lat="44.2426" lon="0.15009">
        <ele>148.767558</ele>
        <time>2022-12-28T15:46:16.769Z</time>
      </trkpt>
      <trkpt lat="44.24252" lon="0.15017">
        <ele>149.090718</ele>
        <time>2022-12-28T15:46:19.758Z</time>
      </trkpt>
      <trkpt lat="44.24244" lon="0.15025">
        <ele>149.415234</ele>
        <time>2022-12-28T15:46:22.749Z</time>
      </trkpt>
      <trkpt lat="44.24235" lon="0.15034">
        <ele>149.742476</ele>
        <time>2022-12-28T15:46:25.769Z</time>
      </trkpt>
      <trkpt lat="44.24227" lon="0.15042">
        <ele>150.074757</ele>
        <time>2022-12-28T15:46:28.771Z</time>
      </trkpt>
      <trkpt lat="44.24219" lon="0.1505">
        <ele>150.361253</ele>
        <time>2022-12-28T15:46:31.763Z</time>
      </trkpt>
      <trkpt lat="44.24211" lon="0.15058">
        <ele>150.688336</ele>
        <time>2022-12-28T15:46:35.761Z</time>
      </trkpt>
      <trkpt lat="44.24202" lon="0.15066">
        <ele>151.044262</ele>
        <time>2022-12-28T15:46:40.760Z</time>
      </trkpt>
      <trkpt lat="44.24193" lon="0.15075">
        <ele>151.385834</ele>
        <time>2022-12-28T15:46:44.763Z</time>
      </trkpt>
      <trkpt lat="44.24186" lon="0.15084">
        <ele>151.691168</ele>
        <time>2022-12-28T15:46:48.739Z</time>
      </trkpt>
      <trkpt lat="44.24178" lon="0.15093">
        <ele>152.018654</ele>
        <time>2022-12-28T15:46:52.743Z</time>
      </trkpt>
      <trkpt lat="44.24168" lon="0.15101">
        <ele>152.377125</ele>
        <time>2022-12-28T15:46:56.740Z</time>
      </trkpt>
      <trkpt lat="44.24159" lon="0.15111">
        <ele>152.757941</ele>
        <time>2022-12-28T15:47:00.760Z</time>
      </trkpt>
      <trkpt lat="44.24149" lon="0.15121">
        <ele>153.129472</ele>
        <time>2022-12-28T15:47:04.767Z</time>
      </trkpt>
      <trkpt lat="44.2414" lon="0.15128">
        <ele>153.465982</ele>
        <time>2022-12-28T15:47:08.755Z</time>
      </trkpt>
      <trkpt lat="44.24131" lon="0.15136">
        <ele>153.581465</ele>
        <time>2022-12-28T15:47:12.739Z</time>
      </trkpt>
      <trkpt lat="44.24121" lon="0.15145">
        <ele>153.513666</ele>
        <time>2022-12-28T15:47:16.752Z</time>
      </trkpt>
      <trkpt lat="44.24113" lon="0.15154">
        <ele>153.455717</ele>
        <time>2022-12-28T15:47:20.744Z</time>
      </trkpt>
      <trkpt lat="44.24106" lon="0.15163">
        <ele>153.399315</ele>
        <time>2022-12-28T15:47:24.770Z</time>
      </trkpt>
      <trkpt lat="44.24099" lon="0.15172">
        <ele>153.346517</ele>
        <time>2022-12-28T15:47:28.766Z</time>
      </trkpt>
      <trkpt lat="44.24092" lon="0.15181">
        <ele>153.294512</ele>
        <time>2022-12-28T15:47:31.763Z</time>
      </trkpt>
      <trkpt lat="44.24085" lon="0.15193">
        <ele>153.230974</ele>
        <time>2022-12-28T15:47:35.749Z</time>
      </trkpt>
      <trkpt lat="44.24077" lon="0.15203">
        <ele>153.172921</ele>
        <time>2022-12-28T15:47:38.743Z</time>
      </trkpt>
      <trkpt lat="44.24069" lon="0.15214">
        <ele>153.109708</ele>
        <time>2022-12-28T15:47:41.772Z</time>
      </trkpt>
      <trkpt lat="44.24061" lon="0.15224">
        <ele>153.047952</ele>
        <time>2022-12-28T15:47:44.771Z</time>
      </trkpt>
      <trkpt lat="44.24053" lon="0.15235">
        <ele>152.981784</ele>
        <time>2022-12-28T15:47:47.770Z</time>
      </trkpt>
      <trkpt lat="44.24045" lon="0.15247">
        <ele>152.91749</ele>
        <time>2022-12-28T15:47:50.752Z</time>
      </trkpt>
      <trkpt lat="44.24038" lon="0.15255">
        <ele>152.864418</ele>
        <time>2022-12-28T15:47:52.748Z</time>
      </trkpt>
      <trkpt lat="44.24031" lon="0.15265">
        <ele>152.809783</ele>
        <time>2022-12-28T15:47:54.774Z</time>
      </trkpt>
      <trkpt lat="44.24021" lon="0.15279">
        <ele>152.730061</ele>
        <time>2022-12-28T15:47:57.752Z</time>
      </trkpt>
      <trkpt lat="44.24013" lon="0.15289">
        <ele>152.668163</ele>
        <time>2022-12-28T15:47:59.772Z</time>
      </trkpt>
      <trkpt lat="44.24004" lon="0.153">
        <ele>152.602161</ele>
        <time>2022-12-28T15:48:01.765Z</time>
      </trkpt>
      <trkpt lat="44.23997" lon="0.1531">
        <ele>152.71015</ele>
        <time>2022-12-28T15:48:03.753Z</time>
      </trkpt>
      <trkpt lat="44.23989" lon="0.15319">
        <ele>152.837623</ele>
        <time>2022-12-28T15:48:05.758Z</time>
      </trkpt>
      <trkpt lat="44.23983" lon="0.1533">
        <ele>152.962085</ele>
        <time>2022-12-28T15:48:07.770Z</time>
      </trkpt>
      <trkpt lat="44.23975" lon="0.15339">
        <ele>153.075467</ele>
        <time>2022-12-28T15:48:09.761Z</time>
      </trkpt>
      <trkpt lat="44.23967" lon="0.15353">
        <ele>153.232003</ele>
        <time>2022-12-28T15:48:12.747Z</time>
      </trkpt>
      <trkpt lat="44.2396" lon="0.15362">
        <ele>153.348208</ele>
        <time>2022-12-28T15:48:14.758Z</time>
      </trkpt>
      <trkpt lat="44.23951" lon="0.15375">
        <ele>153.504699</ele>
        <time>2022-12-28T15:48:17.766Z</time>
      </trkpt>
      <trkpt lat="44.23945" lon="0.15384">
        <ele>153.616953</ele>
        <time>2022-12-28T15:48:19.752Z</time>
      </trkpt>
      <trkpt lat="44.23937" lon="0.15398">
        <ele>153.769113</ele>
        <time>2022-12-28T15:48:22.758Z</time>
      </trkpt>
      <trkpt lat="44.23932" lon="0.15409">
        <ele>153.880505</ele>
        <time>2022-12-28T15:48:24.757Z</time>
      </trkpt>
      <trkpt lat="44.23928" lon="0.15425">
        <ele>154.026868</ele>
        <time>2022-12-28T15:48:27.750Z</time>
      </trkpt>
      <trkpt lat="44.23925" lon="0.1544">
        <ele>154.163885</ele>
        <time>2022-12-28T15:48:30.768Z</time>
      </trkpt>
      <trkpt lat="44.23922" lon="0.15456">
        <ele>154.305184</ele>
        <time>2022-12-28T15:48:33.753Z</time>
      </trkpt>
      <trkpt lat="44.23918" lon="0.15471">
        <ele>154.442672</ele>
        <time>2022-12-28T15:48:36.758Z</time>
      </trkpt>
      <trkpt lat="44.23914" lon="0.15485">
        <ele>154.577555</ele>
        <time>2022-12-28T15:48:39.767Z</time>
      </trkpt>
      <trkpt lat="44.23909" lon="0.155">
        <ele>154.719472</ele>
        <time>2022-12-28T15:48:42.760Z</time>
      </trkpt>
      <trkpt lat="44.23905" lon="0.15514">
        <ele>154.969665</ele>
        <time>2022-12-28T15:48:45.765Z</time>
      </trkpt>
      <trkpt lat="44.23898" lon="0.15522">
        <ele>155.235118</ele>
        <time>2022-12-28T15:48:54.767Z</time>
      </trkpt>
      <trkpt lat="44.23898" lon="0.15523">
        <ele>155.250224</ele>
        <time>2022-12-28T15:49:00.784Z</time>
      </trkpt>
      <trkpt lat="44.23892" lon="0.15537">
        <ele>155.595198</ele>
        <time>2022-12-28T15:49:56.738Z</time>
      </trkpt>
      <trkpt lat="44.23884" lon="0.15549">
        <ele>155.942584</ele>
        <time>2022-12-28T15:50:00.762Z</time>
      </trkpt>
      <trkpt lat="44.23876" lon="0.1556">
        <ele>156.269236</ele>
        <time>2022-12-28T15:50:03.769Z</time>
      </trkpt>
      <trkpt lat="44.23867" lon="0.15571">
        <ele>156.611735</ele>
        <time>2022-12-28T15:50:06.762Z</time>
      </trkpt>
      <trkpt lat="44.23859" lon="0.15583">
        <ele>156.96378</ele>
        <time>2022-12-28T15:50:09.771Z</time>
      </trkpt>
      <trkpt lat="44.23851" lon="0.15594">
        <ele>157.315825</ele>
        <time>2022-12-28T15:50:12.757Z</time>
      </trkpt>
      <trkpt lat="44.23842" lon="0.15607">
        <ele>157.682388</ele>
        <time>2022-12-28T15:50:15.735Z</time>
      </trkpt>
      <trkpt lat="44.23835" lon="0.15616">
        <ele>157.962816</ele>
        <time>2022-12-28T15:50:17.762Z</time>
      </trkpt>
      <trkpt lat="44.23826" lon="0.15629">
        <ele>158.347466</ele>
        <time>2022-12-28T15:50:20.742Z</time>
      </trkpt>
      <trkpt lat="44.23816" lon="0.15643">
        <ele>158.758126</ele>
        <time>2022-12-28T15:50:23.754Z</time>
      </trkpt>
      <trkpt lat="44.2381" lon="0.15652">
        <ele>159.028585</ele>
        <time>2022-12-28T15:50:25.765Z</time>
      </trkpt>
      <trkpt lat="44.238" lon="0.15665">
        <ele>159.431733</ele>
        <time>2022-12-28T15:50:28.763Z</time>
      </trkpt>
      <trkpt lat="44.23794" lon="0.15674">
        <ele>159.697504</ele>
        <time>2022-12-28T15:50:30.770Z</time>
      </trkpt>
      <trkpt lat="44.23787" lon="0.15684">
        <ele>159.98804</ele>
        <time>2022-12-28T15:50:32.748Z</time>
      </trkpt>
      <trkpt lat="44.2378" lon="0.15693">
        <ele>160.200868</ele>
        <time>2022-12-28T15:50:34.757Z</time>
      </trkpt>
      <trkpt lat="44.23771" lon="0.15706">
        <ele>160.455143</ele>
        <time>2022-12-28T15:50:37.747Z</time>
      </trkpt>
      <trkpt lat="44.23762" lon="0.15719">
        <ele>160.710776</ele>
        <time>2022-12-28T15:50:40.743Z</time>
      </trkpt>
      <trkpt lat="44.23756" lon="0.15728">
        <ele>160.887439</ele>
        <time>2022-12-28T15:50:42.750Z</time>
      </trkpt>
      <trkpt lat="44.23746" lon="0.1574">
        <ele>161.134627</ele>
        <time>2022-12-28T15:50:45.735Z</time>
      </trkpt>
      <trkpt lat="44.23738" lon="0.15752">
        <ele>161.365695</ele>
        <time>2022-12-28T15:50:48.758Z</time>
      </trkpt>
      <trkpt lat="44.23731" lon="0.15761">
        <ele>161.561823</ele>
        <time>2022-12-28T15:50:51.742Z</time>
      </trkpt>
      <trkpt lat="44.23723" lon="0.15772">
        <ele>161.782816</ele>
        <time>2022-12-28T15:50:55.747Z</time>
      </trkpt>
      <trkpt lat="44.23713" lon="0.15779">
        <ele>161.992489</ele>
        <time>2022-12-28T15:50:59.763Z</time>
      </trkpt>
      <trkpt lat="44.2371" lon="0.15786">
        <ele>162.105289</ele>
        <time>2022-12-28T15:51:12.682Z</time>
      </trkpt>
      <trkpt lat="44.22184" lon="0.17937">
        <ele>198.65444</ele>
        <time>2022-12-28T16:42:50.910Z</time>
      </trkpt>
      <trkpt lat="44.2219" lon="0.17928">
        <ele>197.162087</ele>
        <time>2022-12-28T16:43:06.770Z</time>
      </trkpt>
      <trkpt lat="44.222" lon="0.17932">
        <ele>195.480205</ele>
        <time>2022-12-28T16:43:24.766Z</time>
      </trkpt>
      <trkpt lat="44.22212" lon="0.17935">
        <ele>193.432584</ele>
        <time>2022-12-28T16:43:28.765Z</time>
      </trkpt>
      <trkpt lat="44.22223" lon="0.17939">
        <ele>191.599234</ele>
        <time>2022-12-28T16:43:31.765Z</time>
      </trkpt>
      <trkpt lat="44.22233" lon="0.17943">
        <ele>189.864815</ele>
        <time>2022-12-28T16:43:34.765Z</time>
      </trkpt>
      <trkpt lat="44.22244" lon="0.17947">
        <ele>188.085535</ele>
        <time>2022-12-28T16:43:37.748Z</time>
      </trkpt>
      <trkpt lat="44.22255" lon="0.17952">
        <ele>186.792866</ele>
        <time>2022-12-28T16:43:40.755Z</time>
      </trkpt>
      <trkpt lat="44.22267" lon="0.17956">
        <ele>185.600587</ele>
        <time>2022-12-28T16:43:43.766Z</time>
      </trkpt>
      <trkpt lat="44.22278" lon="0.17961">
        <ele>184.462325</ele>
        <time>2022-12-28T16:43:46.747Z</time>
      </trkpt>
      <trkpt lat="44.2229" lon="0.17965">
        <ele>183.290657</ele>
        <time>2022-12-28T16:43:49.769Z</time>
      </trkpt>
      <trkpt lat="44.22302" lon="0.1797">
        <ele>182.092676</ele>
        <time>2022-12-28T16:43:52.760Z</time>
      </trkpt>
      <trkpt lat="44.22314" lon="0.17975">
        <ele>180.882103</ele>
        <time>2022-12-28T16:43:55.767Z</time>
      </trkpt>
      <trkpt lat="44.22326" lon="0.1798">
        <ele>179.686129</ele>
        <time>2022-12-28T16:43:58.768Z</time>
      </trkpt>
      <trkpt lat="44.22338" lon="0.17985">
        <ele>178.510572</ele>
        <time>2022-12-28T16:44:01.770Z</time>
      </trkpt>
      <trkpt lat="44.22349" lon="0.17988">
        <ele>177.380721</ele>
        <time>2022-12-28T16:44:04.768Z</time>
      </trkpt>
      <trkpt lat="44.22361" lon="0.17993">
        <ele>176.205315</ele>
        <time>2022-12-28T16:44:07.764Z</time>
      </trkpt>
      <trkpt lat="44.22374" lon="0.17997">
        <ele>174.94089</ele>
        <time>2022-12-28T16:44:10.769Z</time>
      </trkpt>
      <trkpt lat="44.22387" lon="0.18002">
        <ele>173.665389</ele>
        <time>2022-12-28T16:44:13.785Z</time>
      </trkpt>
      <trkpt lat="44.22396" lon="0.18005">
        <ele>172.780915</ele>
        <time>2022-12-28T16:44:15.766Z</time>
      </trkpt>
      <trkpt lat="44.22409" lon="0.1801">
        <ele>171.479246</ele>
        <time>2022-12-28T16:44:18.766Z</time>
      </trkpt>
      <trkpt lat="44.22417" lon="0.18013">
        <ele>170.604104</ele>
        <time>2022-12-28T16:44:20.769Z</time>
      </trkpt>
      <trkpt lat="44.22427" lon="0.18017">
        <ele>170.356157</ele>
        <time>2022-12-28T16:44:22.771Z</time>
      </trkpt>
      <trkpt lat="44.22436" lon="0.1802">
        <ele>170.268014</ele>
        <time>2022-12-28T16:44:24.778Z</time>
      </trkpt>
      <trkpt lat="44.22446" lon="0.18023">
        <ele>170.17378</ele>
        <time>2022-12-28T16:44:26.763Z</time>
      </trkpt>
      <trkpt lat="44.22455" lon="0.18027">
        <ele>170.085064</ele>
        <time>2022-12-28T16:44:28.764Z</time>
      </trkpt>
      <trkpt lat="44.22464" lon="0.18031">
        <ele>169.996039</ele>
        <time>2022-12-28T16:44:30.765Z</time>
      </trkpt>
      <trkpt lat="44.22477" lon="0.18036">
        <ele>169.870046</ele>
        <time>2022-12-28T16:44:33.776Z</time>
      </trkpt>
      <trkpt lat="44.22489" lon="0.18041">
        <ele>169.747887</ele>
        <time>2022-12-28T16:44:36.763Z</time>
      </trkpt>
      <trkpt lat="44.22498" lon="0.18045">
        <ele>169.66206</ele>
        <time>2022-12-28T16:44:38.768Z</time>
      </trkpt>
      <trkpt lat="44.22507" lon="0.18048">
        <ele>169.574837</ele>
        <time>2022-12-28T16:44:40.776Z</time>
      </trkpt>
      <trkpt lat="44.22516" lon="0.18051">
        <ele>169.487768</ele>
        <time>2022-12-28T16:44:42.778Z</time>
      </trkpt>
      <trkpt lat="44.22525" lon="0.18054">
        <ele>169.400858</ele>
        <time>2022-12-28T16:44:44.764Z</time>
      </trkpt>
      <trkpt lat="44.22534" lon="0.18057">
        <ele>169.312825</ele>
        <time>2022-12-28T16:44:46.769Z</time>
      </trkpt>
      <trkpt lat="44.22543" lon="0.1806">
        <ele>169.223771</ele>
        <time>2022-12-28T16:44:48.762Z</time>
      </trkpt>
      <trkpt lat="44.22552" lon="0.18064">
        <ele>169.134638</ele>
        <time>2022-12-28T16:44:50.779Z</time>
      </trkpt>
      <trkpt lat="44.22561" lon="0.18068">
        <ele>169.045074</ele>
        <time>2022-12-28T16:44:52.777Z</time>
      </trkpt>
      <trkpt lat="44.22571" lon="0.18071">
        <ele>168.952211</ele>
        <time>2022-12-28T16:44:54.769Z</time>
      </trkpt>
      <trkpt lat="44.22581" lon="0.18074">
        <ele>168.85661</ele>
        <time>2022-12-28T16:44:56.748Z</time>
      </trkpt>
      <trkpt lat="44.2259" lon="0.18078">
        <ele>168.768468</ele>
        <time>2022-12-28T16:44:58.764Z</time>
      </trkpt>
      <trkpt lat="44.22599" lon="0.18081">
        <ele>168.681775</ele>
        <time>2022-12-28T16:45:00.763Z</time>
      </trkpt>
      <trkpt lat="44.22611" lon="0.18087">
        <ele>168.559363</ele>
        <time>2022-12-28T16:45:03.749Z</time>
      </trkpt>
      <trkpt lat="44.22623" lon="0.18092">
        <ele>168.438472</ele>
        <time>2022-12-28T16:45:06.763Z</time>
      </trkpt>
      <trkpt lat="44.22636" lon="0.18096">
        <ele>168.311296</ele>
        <time>2022-12-28T16:45:09.773Z</time>
      </trkpt>
      <trkpt lat="44.22645" lon="0.181">
        <ele>168.223563</ele>
        <time>2022-12-28T16:45:11.774Z</time>
      </trkpt>
      <trkpt lat="44.22654" lon="0.18103">
        <ele>168.134937</ele>
        <time>2022-12-28T16:45:13.755Z</time>
      </trkpt>
      <trkpt lat="44.22663" lon="0.18107">
        <ele>168.046119</ele>
        <time>2022-12-28T16:45:15.779Z</time>
      </trkpt>
      <trkpt lat="44.22672" lon="0.18109">
        <ele>167.956845</ele>
        <time>2022-12-28T16:45:17.750Z</time>
      </trkpt>
      <trkpt lat="44.22681" lon="0.18112">
        <ele>167.866483</ele>
        <time>2022-12-28T16:45:19.760Z</time>
      </trkpt>
      <trkpt lat="44.2269" lon="0.18116">
        <ele>167.778176</ele>
        <time>2022-12-28T16:45:21.776Z</time>
      </trkpt>
      <trkpt lat="44.22699" lon="0.1812">
        <ele>167.683101</ele>
        <time>2022-12-28T16:45:23.764Z</time>
      </trkpt>
      <trkpt lat="44.22708" lon="0.18124">
        <ele>167.593461</ele>
        <time>2022-12-28T16:45:25.751Z</time>
      </trkpt>
      <trkpt lat="44.22721" lon="0.18129">
        <ele>167.470013</ele>
        <time>2022-12-28T16:45:28.770Z</time>
      </trkpt>
      <trkpt lat="44.22734" lon="0.18133">
        <ele>167.341573</ele>
        <time>2022-12-28T16:45:31.768Z</time>
      </trkpt>
      <trkpt lat="44.22746" lon="0.18138">
        <ele>167.219032</ele>
        <time>2022-12-28T16:45:34.763Z</time>
      </trkpt>
      <trkpt lat="44.22758" lon="0.18143">
        <ele>167.096692</ele>
        <time>2022-12-28T16:45:37.776Z</time>
      </trkpt>
      <trkpt lat="44.22768" lon="0.18146">
        <ele>167.002905</ele>
        <time>2022-12-28T16:45:39.775Z</time>
      </trkpt>
      <trkpt lat="44.22777" lon="0.18149">
        <ele>166.89816</ele>
        <time>2022-12-28T16:45:41.750Z</time>
      </trkpt>
      <trkpt lat="44.22787" lon="0.18152">
        <ele>166.785595</ele>
        <time>2022-12-28T16:45:43.771Z</time>
      </trkpt>
      <trkpt lat="44.22796" lon="0.18155">
        <ele>166.679019</ele>
        <time>2022-12-28T16:45:45.765Z</time>
      </trkpt>
      <trkpt lat="44.22805" lon="0.18158">
        <ele>166.56787</ele>
        <time>2022-12-28T16:45:47.767Z</time>
      </trkpt>
      <trkpt lat="44.22815" lon="0.18163">
        <ele>166.45258</ele>
        <time>2022-12-28T16:45:49.779Z</time>
      </trkpt>
      <trkpt lat="44.22825" lon="0.18167">
        <ele>166.3354</ele>
        <time>2022-12-28T16:45:51.762Z</time>
      </trkpt>
      <trkpt lat="44.22836" lon="0.1817">
        <ele>166.212803</ele>
        <time>2022-12-28T16:45:53.780Z</time>
      </trkpt>
      <trkpt lat="44.22846" lon="0.18174">
        <ele>166.092771</ele>
        <time>2022-12-28T16:45:55.768Z</time>
      </trkpt>
      <trkpt lat="44.22857" lon="0.18177">
        <ele>165.968922</ele>
        <time>2022-12-28T16:45:57.771Z</time>
      </trkpt>
      <trkpt lat="44.22868" lon="0.18181">
        <ele>165.845039</ele>
        <time>2022-12-28T16:45:59.765Z</time>
      </trkpt>
      <trkpt lat="44.22878" lon="0.18185">
        <ele>165.728065</ele>
        <time>2022-12-28T16:46:01.767Z</time>
      </trkpt>
      <trkpt lat="44.22887" lon="0.18189">
        <ele>165.616061</ele>
        <time>2022-12-28T16:46:03.768Z</time>
      </trkpt>
      <trkpt lat="44.22897" lon="0.18192">
        <ele>165.505496</ele>
        <time>2022-12-28T16:46:05.764Z</time>
      </trkpt>
      <trkpt lat="44.22907" lon="0.18195">
        <ele>165.396206</ele>
        <time>2022-12-28T16:46:07.766Z</time>
      </trkpt>
      <trkpt lat="44.22916" lon="0.18199">
        <ele>165.291759</ele>
        <time>2022-12-28T16:46:09.764Z</time>
      </trkpt>
      <trkpt lat="44.22925" lon="0.18202">
        <ele>165.187099</ele>
        <time>2022-12-28T16:46:11.784Z</time>
      </trkpt>
      <trkpt lat="44.22934" lon="0.18205">
        <ele>165.078519</ele>
        <time>2022-12-28T16:46:13.767Z</time>
      </trkpt>
      <trkpt lat="44.22943" lon="0.1821">
        <ele>164.984903</ele>
        <time>2022-12-28T16:46:15.778Z</time>
      </trkpt>
      <trkpt lat="44.22953" lon="0.18213">
        <ele>164.919589</ele>
        <time>2022-12-28T16:46:17.777Z</time>
      </trkpt>
      <trkpt lat="44.22963" lon="0.18217">
        <ele>164.854276</ele>
        <time>2022-12-28T16:46:19.767Z</time>
      </trkpt>
      <trkpt lat="44.22973" lon="0.1822">
        <ele>164.78688</ele>
        <time>2022-12-28T16:46:21.775Z</time>
      </trkpt>
      <trkpt lat="44.22983" lon="0.18224">
        <ele>164.715665</ele>
        <time>2022-12-28T16:46:23.765Z</time>
      </trkpt>
      <trkpt lat="44.22993" lon="0.18228">
        <ele>164.647472</ele>
        <time>2022-12-28T16:46:25.766Z</time>
      </trkpt>
      <trkpt lat="44.23004" lon="0.18232">
        <ele>164.578894</ele>
        <time>2022-12-28T16:46:27.761Z</time>
      </trkpt>
      <trkpt lat="44.23013" lon="0.18235">
        <ele>164.51396</ele>
        <time>2022-12-28T16:46:29.767Z</time>
      </trkpt>
      <trkpt lat="44.23023" lon="0.18239">
        <ele>164.446352</ele>
        <time>2022-12-28T16:46:31.781Z</time>
      </trkpt>
      <trkpt lat="44.23033" lon="0.18242">
        <ele>164.382126</ele>
        <time>2022-12-28T16:46:33.776Z</time>
      </trkpt>
      <trkpt lat="44.23042" lon="0.18246">
        <ele>164.317946</ele>
        <time>2022-12-28T16:46:35.778Z</time>
      </trkpt>
      <trkpt lat="44.23051" lon="0.18249">
        <ele>164.258255</ele>
        <time>2022-12-28T16:46:37.763Z</time>
      </trkpt>
      <trkpt lat="44.23061" lon="0.18253">
        <ele>164.194573</ele>
        <time>2022-12-28T16:46:39.775Z</time>
      </trkpt>
      <trkpt lat="44.23074" lon="0.18257">
        <ele>164.106369</ele>
        <time>2022-12-28T16:46:42.765Z</time>
      </trkpt>
      <trkpt lat="44.23087" lon="0.18262">
        <ele>164.020871</ele>
        <time>2022-12-28T16:46:45.748Z</time>
      </trkpt>
      <trkpt lat="44.23099" lon="0.18266">
        <ele>163.935516</ele>
        <time>2022-12-28T16:46:48.764Z</time>
      </trkpt>
      <trkpt lat="44.23112" lon="0.18268">
        <ele>163.85341</ele>
        <time>2022-12-28T16:46:51.769Z</time>
      </trkpt>
      <trkpt lat="44.23124" lon="0.18269">
        <ele>163.900035</ele>
        <time>2022-12-28T16:46:54.767Z</time>
      </trkpt>
      <trkpt lat="44.23136" lon="0.18269">
        <ele>163.98488</ele>
        <time>2022-12-28T16:46:57.765Z</time>
      </trkpt>
      <trkpt lat="44.23149" lon="0.18267">
        <ele>164.076467</ele>
        <time>2022-12-28T16:47:00.769Z</time>
      </trkpt>
      <trkpt lat="44.23162" lon="0.18266">
        <ele>164.171346</ele>
        <time>2022-12-28T16:47:03.756Z</time>
      </trkpt>
      <trkpt lat="44.23171" lon="0.18266">
        <ele>164.237178</ele>
        <time>2022-12-28T16:47:05.768Z</time>
      </trkpt>
      <trkpt lat="44.2318" lon="0.18264">
        <ele>164.30249</ele>
        <time>2022-12-28T16:47:07.779Z</time>
      </trkpt>
      <trkpt lat="44.23194" lon="0.18264">
        <ele>164.397207</ele>
        <time>2022-12-28T16:47:10.765Z</time>
      </trkpt>
      <trkpt lat="44.23207" lon="0.18264">
        <ele>164.492651</ele>
        <time>2022-12-28T16:47:13.765Z</time>
      </trkpt>
      <trkpt lat="44.2322" lon="0.18263">
        <ele>164.585414</ele>
        <time>2022-12-28T16:47:16.770Z</time>
      </trkpt>
      <trkpt lat="44.23233" lon="0.18262">
        <ele>164.670995</ele>
        <time>2022-12-28T16:47:19.766Z</time>
      </trkpt>
      <trkpt lat="44.23244" lon="0.18261">
        <ele>164.754587</ele>
        <time>2022-12-28T16:47:22.768Z</time>
      </trkpt>
      <trkpt lat="44.23256" lon="0.18262">
        <ele>164.836619</ele>
        <time>2022-12-28T16:47:25.771Z</time>
      </trkpt>
      <trkpt lat="44.23269" lon="0.18261">
        <ele>164.92641</ele>
        <time>2022-12-28T16:47:28.754Z</time>
      </trkpt>
      <trkpt lat="44.23281" lon="0.1826">
        <ele>165.013682</ele>
        <time>2022-12-28T16:47:31.764Z</time>
      </trkpt>
      <trkpt lat="44.23293" lon="0.18259">
        <ele>165.0957</ele>
        <time>2022-12-28T16:47:34.769Z</time>
      </trkpt>
      <trkpt lat="44.23304" lon="0.18259">
        <ele>165.091792</ele>
        <time>2022-12-28T16:47:37.783Z</time>
      </trkpt>
      <trkpt lat="44.23315" lon="0.18259">
        <ele>165.074477</ele>
        <time>2022-12-28T16:47:40.769Z</time>
      </trkpt>
      <trkpt lat="44.23327" lon="0.18259">
        <ele>165.056551</ele>
        <time>2022-12-28T16:47:43.750Z</time>
      </trkpt>
      <trkpt lat="44.23339" lon="0.18258">
        <ele>165.038</ele>
        <time>2022-12-28T16:47:46.750Z</time>
      </trkpt>
      <trkpt lat="44.23351" lon="0.18258">
        <ele>165.019754</ele>
        <time>2022-12-28T16:47:49.758Z</time>
      </trkpt>
      <trkpt lat="44.23362" lon="0.18258">
        <ele>165.002751</ele>
        <time>2022-12-28T16:47:52.766Z</time>
      </trkpt>
      <trkpt lat="44.23373" lon="0.18258">
        <ele>164.985752</ele>
        <time>2022-12-28T16:47:55.764Z</time>
      </trkpt>
      <trkpt lat="44.23385" lon="0.18256">
        <ele>164.967103</ele>
        <time>2022-12-28T16:47:58.764Z</time>
      </trkpt>
      <trkpt lat="44.23397" lon="0.18255">
        <ele>164.947279</ele>
        <time>2022-12-28T16:48:01.746Z</time>
      </trkpt>
      <trkpt lat="44.23409" lon="0.18254">
        <ele>164.92979</ele>
        <time>2022-12-28T16:48:04.746Z</time>
      </trkpt>
      <trkpt lat="44.23418" lon="0.18252">
        <ele>164.915603</ele>
        <time>2022-12-28T16:48:08.762Z</time>
      </trkpt>
      <trkpt lat="44.23429" lon="0.18251">
        <ele>164.898809</ele>
        <time>2022-12-28T16:48:12.765Z</time>
      </trkpt>
      <trkpt lat="44.23438" lon="0.1825">
        <ele>164.884277</ele>
        <time>2022-12-28T16:48:15.765Z</time>
      </trkpt>
      <trkpt lat="44.23449" lon="0.1825">
        <ele>164.867267</ele>
        <time>2022-12-28T16:48:18.766Z</time>
      </trkpt>
      <trkpt lat="44.23461" lon="0.1825">
        <ele>164.849497</ele>
        <time>2022-12-28T16:48:21.778Z</time>
      </trkpt>
      <trkpt lat="44.23473" lon="0.1825">
        <ele>164.830933</ele>
        <time>2022-12-28T16:48:24.757Z</time>
      </trkpt>
      <trkpt lat="44.23484" lon="0.1825">
        <ele>164.936218</ele>
        <time>2022-12-28T16:48:27.773Z</time>
      </trkpt>
      <trkpt lat="44.23495" lon="0.1825">
        <ele>165.044873</ele>
        <time>2022-12-28T16:48:30.769Z</time>
      </trkpt>
      <trkpt lat="44.23505" lon="0.18251">
        <ele>165.153528</ele>
        <time>2022-12-28T16:48:33.759Z</time>
      </trkpt>
      <trkpt lat="44.23516" lon="0.18249">
        <ele>165.259593</ele>
        <time>2022-12-28T16:48:36.757Z</time>
      </trkpt>
      <trkpt lat="44.23525" lon="0.18247">
        <ele>165.361902</ele>
        <time>2022-12-28T16:48:39.778Z</time>
      </trkpt>
      <trkpt lat="44.23533" lon="0.1826">
        <ele>165.485431</ele>
        <time>2022-12-28T16:49:26.764Z</time>
      </trkpt>
      <trkpt lat="44.23531" lon="0.18273">
        <ele>165.581682</ele>
        <time>2022-12-28T16:49:31.759Z</time>
      </trkpt>
      <trkpt lat="44.2353" lon="0.18286">
        <ele>165.676135</ele>
        <time>2022-12-28T16:49:35.755Z</time>
      </trkpt>
      <trkpt lat="44.23532" lon="0.183">
        <ele>165.786533</ele>
        <time>2022-12-28T16:49:39.771Z</time>
      </trkpt>
      <trkpt lat="44.23537" lon="0.18313">
        <ele>165.892229</ele>
        <time>2022-12-28T16:49:43.765Z</time>
      </trkpt>
      <trkpt lat="44.23546" lon="0.18319">
        <ele>165.996548</ele>
        <time>2022-12-28T16:49:47.761Z</time>
      </trkpt>
      <trkpt lat="44.23556" lon="0.18322">
        <ele>166.097988</ele>
        <time>2022-12-28T16:49:51.772Z</time>
      </trkpt>
      <trkpt lat="44.23566" lon="0.18325">
        <ele>166.201593</ele>
        <time>2022-12-28T16:49:55.756Z</time>
      </trkpt>
      <trkpt lat="44.23576" lon="0.18328">
        <ele>166.304047</ele>
        <time>2022-12-28T16:49:59.759Z</time>
      </trkpt>
      <trkpt lat="44.23587" lon="0.18331">
        <ele>166.421465</ele>
        <time>2022-12-28T16:50:03.765Z</time>
      </trkpt>
      <trkpt lat="44.23596" lon="0.18333">
        <ele>166.516944</ele>
        <time>2022-12-28T16:50:06.765Z</time>
      </trkpt>
      <trkpt lat="44.23606" lon="0.18335">
        <ele>166.619986</ele>
        <time>2022-12-28T16:50:09.754Z</time>
      </trkpt>
      <trkpt lat="44.23617" lon="0.18339">
        <ele>166.64568</ele>
        <time>2022-12-28T16:50:12.756Z</time>
      </trkpt>
      <trkpt lat="44.23627" lon="0.18341">
        <ele>166.597804</ele>
        <time>2022-12-28T16:50:15.756Z</time>
      </trkpt>
      <trkpt lat="44.23637" lon="0.18343">
        <ele>166.554103</ele>
        <time>2022-12-28T16:50:18.759Z</time>
      </trkpt>
      <trkpt lat="44.23648" lon="0.18346">
        <ele>166.506312</ele>
        <time>2022-12-28T16:50:22.770Z</time>
      </trkpt>
      <trkpt lat="44.23657" lon="0.18348">
        <ele>166.465594</ele>
        <time>2022-12-28T16:50:26.756Z</time>
      </trkpt>
      <trkpt lat="44.23668" lon="0.18351">
        <ele>166.41589</ele>
        <time>2022-12-28T16:51:31.791Z</time>
      </trkpt>
      <trkpt lat="44.23679" lon="0.18355">
        <ele>166.368181</ele>
        <time>2022-12-28T16:52:49.819Z</time>
      </trkpt>
      <trkpt lat="44.23689" lon="0.18358">
        <ele>166.325213</ele>
        <time>2022-12-28T16:52:53.759Z</time>
      </trkpt>
      <trkpt lat="44.23697" lon="0.18362">
        <ele>166.285198</ele>
        <time>2022-12-28T16:52:56.755Z</time>
      </trkpt>
      <trkpt lat="44.23707" lon="0.18365">
        <ele>166.239874</ele>
        <time>2022-12-28T16:52:59.761Z</time>
      </trkpt>
      <trkpt lat="44.23718" lon="0.18369">
        <ele>166.192591</ele>
        <time>2022-12-28T16:53:02.760Z</time>
      </trkpt>
      <trkpt lat="44.23728" lon="0.18373">
        <ele>166.146226</ele>
        <time>2022-12-28T16:53:05.759Z</time>
      </trkpt>
      <trkpt lat="44.23738" lon="0.18377">
        <ele>166.101216</ele>
        <time>2022-12-28T16:53:08.756Z</time>
      </trkpt>
      <trkpt lat="44.23748" lon="0.18382">
        <ele>166.053826</ele>
        <time>2022-12-28T16:53:11.757Z</time>
      </trkpt>
      <trkpt lat="44.23759" lon="0.18386">
        <ele>166.004712</ele>
        <time>2022-12-28T16:53:14.763Z</time>
      </trkpt>
      <trkpt lat="44.23771" lon="0.18391">
        <ele>165.950034</ele>
        <time>2022-12-28T16:53:17.759Z</time>
      </trkpt>
      <trkpt lat="44.23783" lon="0.18396">
        <ele>165.895864</ele>
        <time>2022-12-28T16:53:20.759Z</time>
      </trkpt>
      <trkpt lat="44.23795" lon="0.184">
        <ele>165.471952</ele>
        <time>2022-12-28T16:53:23.766Z</time>
      </trkpt>
      <trkpt lat="44.23806" lon="0.18404">
        <ele>164.971332</ele>
        <time>2022-12-28T16:53:26.751Z</time>
      </trkpt>
      <trkpt lat="44.23817" lon="0.1841">
        <ele>164.459391</ele>
        <time>2022-12-28T16:53:29.750Z</time>
      </trkpt>
      <trkpt lat="44.23829" lon="0.18414">
        <ele>163.915653</ele>
        <time>2022-12-28T16:53:32.756Z</time>
      </trkpt>
      <trkpt lat="44.23838" lon="0.18418">
        <ele>163.51781</ele>
        <time>2022-12-28T16:53:34.760Z</time>
      </trkpt>
      <trkpt lat="44.23848" lon="0.18421">
        <ele>163.074964</ele>
        <time>2022-12-28T16:53:36.763Z</time>
      </trkpt>
      <trkpt lat="44.23858" lon="0.18425">
        <ele>162.651229</ele>
        <time>2022-12-28T16:53:38.766Z</time>
      </trkpt>
      <trkpt lat="44.23867" lon="0.18429">
        <ele>162.233421</ele>
        <time>2022-12-28T16:53:40.753Z</time>
      </trkpt>
      <trkpt lat="44.23877" lon="0.18433">
        <ele>161.803228</ele>
        <time>2022-12-28T16:53:42.757Z</time>
      </trkpt>
      <trkpt lat="44.23886" lon="0.18436">
        <ele>161.367985</ele>
        <time>2022-12-28T16:53:44.775Z</time>
      </trkpt>
      <trkpt lat="44.23897" lon="0.18441">
        <ele>160.909904</ele>
        <time>2022-12-28T16:53:46.767Z</time>
      </trkpt>
      <trkpt lat="44.23907" lon="0.18445">
        <ele>160.450554</ele>
        <time>2022-12-28T16:53:48.766Z</time>
      </trkpt>
      <trkpt lat="44.23917" lon="0.1845">
        <ele>159.994385</ele>
        <time>2022-12-28T16:53:50.756Z</time>
      </trkpt>
      <trkpt lat="44.23927" lon="0.18455">
        <ele>159.515014</ele>
        <time>2022-12-28T16:53:52.760Z</time>
      </trkpt>
      <trkpt lat="44.23938" lon="0.18459">
        <ele>159.029295</ele>
        <time>2022-12-28T16:53:54.760Z</time>
      </trkpt>
      <trkpt lat="44.23949" lon="0.18463">
        <ele>158.556028</ele>
        <time>2022-12-28T16:53:56.753Z</time>
      </trkpt>
      <trkpt lat="44.2396" lon="0.18468">
        <ele>158.129876</ele>
        <time>2022-12-28T16:53:58.764Z</time>
      </trkpt>
      <trkpt lat="44.23971" lon="0.18473">
        <ele>158.052441</ele>
        <time>2022-12-28T16:54:00.767Z</time>
      </trkpt>
      <trkpt lat="44.23982" lon="0.18477">
        <ele>157.978243</ele>
        <time>2022-12-28T16:54:02.757Z</time>
      </trkpt>
      <trkpt lat="44.23994" lon="0.18481">
        <ele>157.899057</ele>
        <time>2022-12-28T16:54:04.766Z</time>
      </trkpt>
      <trkpt lat="44.24004" lon="0.18485">
        <ele>157.830244</ele>
        <time>2022-12-28T16:54:06.771Z</time>
      </trkpt>
      <trkpt lat="44.24013" lon="0.18488">
        <ele>157.767216</ele>
        <time>2022-12-28T16:54:08.769Z</time>
      </trkpt>
      <trkpt lat="44.24021" lon="0.18492">
        <ele>157.706109</ele>
        <time>2022-12-28T16:54:10.755Z</time>
      </trkpt>
      <trkpt lat="44.24034" lon="0.18496">
        <ele>157.619457</ele>
        <time>2022-12-28T16:54:13.753Z</time>
      </trkpt>
      <trkpt lat="44.24048" lon="0.18499">
        <ele>157.528044</ele>
        <time>2022-12-28T16:54:16.769Z</time>
      </trkpt>
      <trkpt lat="44.2406" lon="0.18503">
        <ele>157.445832</ele>
        <time>2022-12-28T16:54:19.758Z</time>
      </trkpt>
      <trkpt lat="44.24072" lon="0.18507">
        <ele>157.363619</ele>
        <time>2022-12-28T16:54:22.755Z</time>
      </trkpt>
      <trkpt lat="44.24084" lon="0.18511">
        <ele>157.281407</ele>
        <time>2022-12-28T16:54:25.761Z</time>
      </trkpt>
      <trkpt lat="44.24093" lon="0.18514">
        <ele>157.217642</ele>
        <time>2022-12-28T16:54:27.763Z</time>
      </trkpt>
      <trkpt lat="44.24106" lon="0.18517">
        <ele>157.129506</ele>
        <time>2022-12-28T16:54:30.760Z</time>
      </trkpt>
      <trkpt lat="44.24119" lon="0.1852">
        <ele>157.039877</ele>
        <time>2022-12-28T16:54:33.769Z</time>
      </trkpt>
      <trkpt lat="44.24132" lon="0.18523">
        <ele>156.954857</ele>
        <time>2022-12-28T16:54:36.753Z</time>
      </trkpt>
      <trkpt lat="44.24144" lon="0.18526">
        <ele>156.973133</ele>
        <time>2022-12-28T16:54:39.765Z</time>
      </trkpt>
      <trkpt lat="44.24155" lon="0.18529">
        <ele>156.999876</ele>
        <time>2022-12-28T16:54:42.778Z</time>
      </trkpt>
      <trkpt lat="44.24166" lon="0.18532">
        <ele>157.023893</ele>
        <time>2022-12-28T16:54:45.764Z</time>
      </trkpt>
      <trkpt lat="44.24176" lon="0.18533">
        <ele>157.047113</ele>
        <time>2022-12-28T16:54:48.755Z</time>
      </trkpt>
      <trkpt lat="44.24186" lon="0.18536">
        <ele>157.070904</ele>
        <time>2022-12-28T16:54:51.770Z</time>
      </trkpt>
      <trkpt lat="44.24197" lon="0.18538">
        <ele>157.097036</ele>
        <time>2022-12-28T16:54:54.771Z</time>
      </trkpt>
      <trkpt lat="44.24208" lon="0.1854">
        <ele>157.123854</ele>
        <time>2022-12-28T16:54:57.761Z</time>
      </trkpt>
      <trkpt lat="44.24219" lon="0.18543">
        <ele>157.149577</ele>
        <time>2022-12-28T16:55:00.760Z</time>
      </trkpt>
      <trkpt lat="44.2423" lon="0.18545">
        <ele>157.174793</ele>
        <time>2022-12-28T16:55:03.768Z</time>
      </trkpt>
      <trkpt lat="44.24241" lon="0.18546">
        <ele>157.200473</ele>
        <time>2022-12-28T16:55:06.766Z</time>
      </trkpt>
      <trkpt lat="44.24251" lon="0.18548">
        <ele>157.223325</ele>
        <time>2022-12-28T16:55:09.755Z</time>
      </trkpt>
      <trkpt lat="44.24262" lon="0.18551">
        <ele>157.247908</ele>
        <time>2022-12-28T16:55:12.758Z</time>
      </trkpt>
      <trkpt lat="44.24271" lon="0.18553">
        <ele>157.269371</ele>
        <time>2022-12-28T16:55:15.764Z</time>
      </trkpt>
      <trkpt lat="44.24281" lon="0.18556">
        <ele>157.294475</ele>
        <time>2022-12-28T16:55:19.756Z</time>
      </trkpt>
      <trkpt lat="44.24297" lon="0.18561">
        <ele>157.330533</ele>
        <time>2022-12-28T16:55:40.776Z</time>
      </trkpt>
      <trkpt lat="44.24304" lon="0.18569">
        <ele>157.353477</ele>
        <time>2022-12-28T16:55:44.757Z</time>
      </trkpt>
      <trkpt lat="44.24312" lon="0.18582">
        <ele>157.560784</ele>
        <time>2022-12-28T16:55:48.761Z</time>
      </trkpt>
      <trkpt lat="44.24318" lon="0.18592">
        <ele>157.811627</ele>
        <time>2022-12-28T16:55:51.765Z</time>
      </trkpt>
      <trkpt lat="44.24325" lon="0.18603">
        <ele>158.060163</ele>
        <time>2022-12-28T16:55:54.768Z</time>
      </trkpt>
      <trkpt lat="44.24331" lon="0.18614">
        <ele>158.314142</ele>
        <time>2022-12-28T16:55:57.761Z</time>
      </trkpt>
      <trkpt lat="44.24338" lon="0.18626">
        <ele>158.613081</ele>
        <time>2022-12-28T16:56:01.756Z</time>
      </trkpt>
      <trkpt lat="44.24346" lon="0.18639">
        <ele>158.916078</ele>
        <time>2022-12-28T16:56:05.758Z</time>
      </trkpt>
      <trkpt lat="44.24352" lon="0.18649">
        <ele>159.152723</ele>
        <time>2022-12-28T16:56:08.761Z</time>
      </trkpt>
      <trkpt lat="44.24358" lon="0.18659">
        <ele>159.393376</ele>
        <time>2022-12-28T16:56:11.762Z</time>
      </trkpt>
      <trkpt lat="44.24364" lon="0.18669">
        <ele>159.625578</ele>
        <time>2022-12-28T16:56:14.771Z</time>
      </trkpt>
      <trkpt lat="44.24371" lon="0.18681">
        <ele>159.909095</ele>
        <time>2022-12-28T16:56:18.753Z</time>
      </trkpt>
      <trkpt lat="44.24377" lon="0.18693">
        <ele>160.188297</ele>
        <time>2022-12-28T16:56:22.749Z</time>
      </trkpt>
      <trkpt lat="44.24385" lon="0.18705">
        <ele>160.469757</ele>
        <time>2022-12-28T16:56:26.764Z</time>
      </trkpt>
      <trkpt lat="44.24392" lon="0.18717">
        <ele>160.763118</ele>
        <time>2022-12-28T16:56:30.758Z</time>
      </trkpt>
      <trkpt lat="44.24399" lon="0.18728">
        <ele>161.019122</ele>
        <time>2022-12-28T16:56:34.749Z</time>
      </trkpt>
      <trkpt lat="44.24406" lon="0.18736">
        <ele>161.249951</ele>
        <time>2022-12-28T16:56:37.765Z</time>
      </trkpt>
      <trkpt lat="44.24413" lon="0.18746">
        <ele>161.503782</ele>
        <time>2022-12-28T16:56:40.752Z</time>
      </trkpt>
      <trkpt lat="44.2442" lon="0.18757">
        <ele>161.771267</ele>
        <time>2022-12-28T16:56:43.754Z</time>
      </trkpt>
      <trkpt lat="44.24427" lon="0.18767">
        <ele>162.041224</ele>
        <time>2022-12-28T16:56:46.767Z</time>
      </trkpt>
      <trkpt lat="44.24436" lon="0.18777">
        <ele>162.309751</ele>
        <time>2022-12-28T16:56:49.767Z</time>
      </trkpt>
      <trkpt lat="44.24444" lon="0.18785">
        <ele>162.559108</ele>
        <time>2022-12-28T16:56:52.754Z</time>
      </trkpt>
      <trkpt lat="44.24452" lon="0.18793">
        <ele>162.802418</ele>
        <time>2022-12-28T16:56:55.753Z</time>
      </trkpt>
      <trkpt lat="44.2446" lon="0.18801">
        <ele>163.037796</ele>
        <time>2022-12-28T16:56:58.756Z</time>
      </trkpt>
      <trkpt lat="44.2447" lon="0.18811">
        <ele>163.32186</ele>
        <time>2022-12-28T16:57:02.768Z</time>
      </trkpt>
      <trkpt lat="44.24479" lon="0.18818">
        <ele>163.589173</ele>
        <time>2022-12-28T16:57:06.776Z</time>
      </trkpt>
      <trkpt lat="44.24489" lon="0.18826">
        <ele>163.85479</ele>
        <time>2022-12-28T16:57:10.754Z</time>
      </trkpt>
      <trkpt lat="44.24499" lon="0.18833">
        <ele>164.123025</ele>
        <time>2022-12-28T16:57:14.756Z</time>
      </trkpt>
      <trkpt lat="44.24509" lon="0.18841">
        <ele>164.4069</ele>
        <time>2022-12-28T16:57:18.766Z</time>
      </trkpt>
      <trkpt lat="44.24519" lon="0.18848">
        <ele>164.670041</ele>
        <time>2022-12-28T16:57:22.766Z</time>
      </trkpt>
      <trkpt lat="44.24528" lon="0.18855">
        <ele>164.924327</ele>
        <time>2022-12-28T16:57:26.773Z</time>
      </trkpt>
      <trkpt lat="44.24537" lon="0.1886">
        <ele>165.16698</ele>
        <time>2022-12-28T16:57:30.772Z</time>
      </trkpt>
      <trkpt lat="44.24546" lon="0.18867">
        <ele>165.40142</ele>
        <time>2022-12-28T16:57:34.772Z</time>
      </trkpt>
      <trkpt lat="44.24555" lon="0.18872">
        <ele>165.646057</ele>
        <time>2022-12-28T16:57:38.760Z</time>
      </trkpt>
      <trkpt lat="44.24564" lon="0.18878">
        <ele>165.892086</ele>
        <time>2022-12-28T16:57:42.774Z</time>
      </trkpt>
      <trkpt lat="44.24574" lon="0.18886">
        <ele>166.170823</ele>
        <time>2022-12-28T16:57:47.764Z</time>
      </trkpt>
      <trkpt lat="44.24585" lon="0.18893">
        <ele>166.059366</ele>
        <time>2022-12-28T16:57:51.765Z</time>
      </trkpt>
      <trkpt lat="44.24594" lon="0.189">
        <ele>165.671248</ele>
        <time>2022-12-28T16:57:54.764Z</time>
      </trkpt>
      <trkpt lat="44.24604" lon="0.18908">
        <ele>165.241584</ele>
        <time>2022-12-28T16:57:57.769Z</time>
      </trkpt>
      <trkpt lat="44.24614" lon="0.18916">
        <ele>164.796106</ele>
        <time>2022-12-28T16:58:00.764Z</time>
      </trkpt>
      <trkpt lat="44.24625" lon="0.18924">
        <ele>164.32357</ele>
        <time>2022-12-28T16:58:03.755Z</time>
      </trkpt>
      <trkpt lat="44.24637" lon="0.18934">
        <ele>163.814006</ele>
        <time>2022-12-28T16:58:06.776Z</time>
      </trkpt>
      <trkpt lat="44.24648" lon="0.18943">
        <ele>163.301739</ele>
        <time>2022-12-28T16:58:09.759Z</time>
      </trkpt>
      <trkpt lat="44.24656" lon="0.18951">
        <ele>162.94326</ele>
        <time>2022-12-28T16:58:11.766Z</time>
      </trkpt>
      <trkpt lat="44.24665" lon="0.18958">
        <ele>162.54275</ele>
        <time>2022-12-28T16:58:13.759Z</time>
      </trkpt>
      <trkpt lat="44.24674" lon="0.18966">
        <ele>162.157897</ele>
        <time>2022-12-28T16:58:15.772Z</time>
      </trkpt>
      <trkpt lat="44.24682" lon="0.18974">
        <ele>161.772916</ele>
        <time>2022-12-28T16:58:17.765Z</time>
      </trkpt>
      <trkpt lat="44.2469" lon="0.18983">
        <ele>161.390403</ele>
        <time>2022-12-28T16:58:19.762Z</time>
      </trkpt>
      <trkpt lat="44.24698" lon="0.1899">
        <ele>161.01798</ele>
        <time>2022-12-28T16:58:21.754Z</time>
      </trkpt>
      <trkpt lat="44.24706" lon="0.18998">
        <ele>160.647091</ele>
        <time>2022-12-28T16:58:23.759Z</time>
      </trkpt>
      <trkpt lat="44.24714" lon="0.19005">
        <ele>160.303693</ele>
        <time>2022-12-28T16:58:25.776Z</time>
      </trkpt>
      <trkpt lat="44.24721" lon="0.19013">
        <ele>159.960422</ele>
        <time>2022-12-28T16:58:27.774Z</time>
      </trkpt>
      <trkpt lat="44.24732" lon="0.19023">
        <ele>159.467568</ele>
        <time>2022-12-28T16:58:30.762Z</time>
      </trkpt>
      <trkpt lat="44.24738" lon="0.19032">
        <ele>159.106542</ele>
        <time>2022-12-28T16:58:32.769Z</time>
      </trkpt>
      <trkpt lat="44.24746" lon="0.19041">
        <ele>158.730883</ele>
        <time>2022-12-28T16:58:34.767Z</time>
      </trkpt>
      <trkpt lat="44.24753" lon="0.1905">
        <ele>158.349012</ele>
        <time>2022-12-28T16:58:36.768Z</time>
      </trkpt>
      <trkpt lat="44.2476" lon="0.19059">
        <ele>157.973353</ele>
        <time>2022-12-28T16:58:38.756Z</time>
      </trkpt>
      <trkpt lat="44.24768" lon="0.19068">
        <ele>157.592933</ele>
        <time>2022-12-28T16:58:40.761Z</time>
      </trkpt>
      <trkpt lat="44.24776" lon="0.19077">
        <ele>157.200495</ele>
        <time>2022-12-28T16:58:42.772Z</time>
      </trkpt>
      <trkpt lat="44.24784" lon="0.19086">
        <ele>156.800244</ele>
        <time>2022-12-28T16:58:44.764Z</time>
      </trkpt>
      <trkpt lat="44.24792" lon="0.19096">
        <ele>156.383282</ele>
        <time>2022-12-28T16:58:46.774Z</time>
      </trkpt>
      <trkpt lat="44.248" lon="0.19106">
        <ele>155.950994</ele>
        <time>2022-12-28T16:58:48.756Z</time>
      </trkpt>
      <trkpt lat="44.24809" lon="0.19116">
        <ele>155.499682</ele>
        <time>2022-12-28T16:58:50.771Z</time>
      </trkpt>
      <trkpt lat="44.24818" lon="0.19127">
        <ele>155.044251</ele>
        <time>2022-12-28T16:58:52.764Z</time>
      </trkpt>
      <trkpt lat="44.24827" lon="0.19137">
        <ele>154.586335</ele>
        <time>2022-12-28T16:58:54.769Z</time>
      </trkpt>
      <trkpt lat="44.24837" lon="0.19148">
        <ele>154.113622</ele>
        <time>2022-12-28T16:58:56.771Z</time>
      </trkpt>
      <trkpt lat="44.24846" lon="0.19159">
        <ele>153.638522</ele>
        <time>2022-12-28T16:58:58.774Z</time>
      </trkpt>
      <trkpt lat="44.24855" lon="0.1917">
        <ele>153.16803</ele>
        <time>2022-12-28T16:59:00.756Z</time>
      </trkpt>
      <trkpt lat="44.24865" lon="0.19181">
        <ele>152.689973</ele>
        <time>2022-12-28T16:59:02.755Z</time>
      </trkpt>
      <trkpt lat="44.24874" lon="0.19192">
        <ele>152.363683</ele>
        <time>2022-12-28T16:59:04.768Z</time>
      </trkpt>
      <trkpt lat="44.24884" lon="0.19204">
        <ele>152.115451</ele>
        <time>2022-12-28T16:59:06.772Z</time>
      </trkpt>
      <trkpt lat="44.24894" lon="0.19216">
        <ele>151.866319</ele>
        <time>2022-12-28T16:59:08.757Z</time>
      </trkpt>
      <trkpt lat="44.24904" lon="0.19228">
        <ele>151.604672</ele>
        <time>2022-12-28T16:59:10.766Z</time>
      </trkpt>
      <trkpt lat="44.24913" lon="0.19242">
        <ele>151.342922</ele>
        <time>2022-12-28T16:59:12.764Z</time>
      </trkpt>
      <trkpt lat="44.24923" lon="0.19256">
        <ele>151.066702</ele>
        <time>2022-12-28T16:59:14.757Z</time>
      </trkpt>
      <trkpt lat="44.24933" lon="0.1927">
        <ele>150.802739</ele>
        <time>2022-12-28T16:59:16.753Z</time>
      </trkpt>
      <trkpt lat="44.24942" lon="0.19283">
        <ele>150.546206</ele>
        <time>2022-12-28T16:59:18.758Z</time>
      </trkpt>
      <trkpt lat="44.24952" lon="0.19298">
        <ele>150.278527</ele>
        <time>2022-12-28T16:59:20.777Z</time>
      </trkpt>
      <trkpt lat="44.24961" lon="0.19311">
        <ele>150.021816</ele>
        <time>2022-12-28T16:59:22.757Z</time>
      </trkpt>
      <trkpt lat="44.24969" lon="0.19325">
        <ele>149.780029</ele>
        <time>2022-12-28T16:59:24.763Z</time>
      </trkpt>
      <trkpt lat="44.24978" lon="0.19337">
        <ele>149.530895</ele>
        <time>2022-12-28T16:59:26.761Z</time>
      </trkpt>
      <trkpt lat="44.24987" lon="0.1935">
        <ele>149.290684</ele>
        <time>2022-12-28T16:59:28.757Z</time>
      </trkpt>
      <trkpt lat="44.24995" lon="0.19362">
        <ele>149.059849</ele>
        <time>2022-12-28T16:59:30.758Z</time>
      </trkpt>
      <trkpt lat="44.25003" lon="0.19374">
        <ele>149.121975</ele>
        <time>2022-12-28T16:59:32.758Z</time>
      </trkpt>
      <trkpt lat="44.25011" lon="0.19385">
        <ele>149.179184</ele>
        <time>2022-12-28T16:59:34.764Z</time>
      </trkpt>
      <trkpt lat="44.25018" lon="0.19394">
        <ele>149.231767</ele>
        <time>2022-12-28T16:59:36.771Z</time>
      </trkpt>
      <trkpt lat="44.25023" lon="0.19405">
        <ele>149.281505</ele>
        <time>2022-12-28T16:59:38.768Z</time>
      </trkpt>
      <trkpt lat="44.25032" lon="0.19419">
        <ele>149.353915</ele>
        <time>2022-12-28T16:59:41.756Z</time>
      </trkpt>
      <trkpt lat="44.2504" lon="0.19432">
        <ele>149.419837</ele>
        <time>2022-12-28T16:59:44.756Z</time>
      </trkpt>
      <trkpt lat="44.25048" lon="0.19444">
        <ele>149.482245</ele>
        <time>2022-12-28T16:59:47.757Z</time>
      </trkpt>
      <trkpt lat="44.25055" lon="0.19455">
        <ele>149.541957</ele>
        <time>2022-12-28T16:59:50.765Z</time>
      </trkpt>
      <trkpt lat="44.25064" lon="0.19465">
        <ele>149.598764</ele>
        <time>2022-12-28T16:59:53.760Z</time>
      </trkpt>
      <trkpt lat="44.25071" lon="0.19477">
        <ele>149.658386</ele>
        <time>2022-12-28T16:59:56.758Z</time>
      </trkpt>
      <trkpt lat="44.25078" lon="0.19488">
        <ele>149.717545</ele>
        <time>2022-12-28T16:59:59.768Z</time>
      </trkpt>
      <trkpt lat="44.25086" lon="0.19499">
        <ele>149.776886</ele>
        <time>2022-12-28T17:00:02.770Z</time>
      </trkpt>
      <trkpt lat="44.25094" lon="0.1951">
        <ele>149.839573</ele>
        <time>2022-12-28T17:00:05.766Z</time>
      </trkpt>
      <trkpt lat="44.25102" lon="0.19523">
        <ele>149.903981</ele>
        <time>2022-12-28T17:00:08.757Z</time>
      </trkpt>
      <trkpt lat="44.25111" lon="0.19536">
        <ele>149.971296</ele>
        <time>2022-12-28T17:00:11.773Z</time>
      </trkpt>
      <trkpt lat="44.25119" lon="0.19548">
        <ele>150.034148</ele>
        <time>2022-12-28T17:00:14.755Z</time>
      </trkpt>
      <trkpt lat="44.25127" lon="0.1956">
        <ele>150.080501</ele>
        <time>2022-12-28T17:00:17.750Z</time>
      </trkpt>
      <trkpt lat="44.25135" lon="0.19571">
        <ele>150.123341</ele>
        <time>2022-12-28T17:00:20.771Z</time>
      </trkpt>
      <trkpt lat="44.25142" lon="0.1958">
        <ele>150.162278</ele>
        <time>2022-12-28T17:00:23.763Z</time>
      </trkpt>
      <trkpt lat="44.25149" lon="0.1959">
        <ele>150.202301</ele>
        <time>2022-12-28T17:00:26.767Z</time>
      </trkpt>
      <trkpt lat="44.25156" lon="0.19601">
        <ele>150.244392</ele>
        <time>2022-12-28T17:00:29.772Z</time>
      </trkpt>
      <trkpt lat="44.25163" lon="0.19613">
        <ele>150.289035</ele>
        <time>2022-12-28T17:00:32.767Z</time>
      </trkpt>
      <trkpt lat="44.25171" lon="0.19625">
        <ele>150.335388</ele>
        <time>2022-12-28T17:00:35.766Z</time>
      </trkpt>
      <trkpt lat="44.25179" lon="0.19637">
        <ele>150.383141</ele>
        <time>2022-12-28T17:00:38.784Z</time>
      </trkpt>
      <trkpt lat="44.25188" lon="0.19649">
        <ele>150.431719</ele>
        <time>2022-12-28T17:00:41.765Z</time>
      </trkpt>
      <trkpt lat="44.25196" lon="0.19661">
        <ele>150.479813</ele>
        <time>2022-12-28T17:00:44.759Z</time>
      </trkpt>
      <trkpt lat="44.25205" lon="0.19674">
        <ele>150.529197</ele>
        <time>2022-12-28T17:00:47.763Z</time>
      </trkpt>
      <trkpt lat="44.25213" lon="0.19687">
        <ele>150.578735</ele>
        <time>2022-12-28T17:00:50.767Z</time>
      </trkpt>
      <trkpt lat="44.25222" lon="0.197">
        <ele>150.629354</ele>
        <time>2022-12-28T17:00:53.768Z</time>
      </trkpt>
      <trkpt lat="44.25231" lon="0.19713">
        <ele>150.681417</ele>
        <time>2022-12-28T17:00:56.763Z</time>
      </trkpt>
      <trkpt lat="44.2524" lon="0.19725">
        <ele>150.733483</ele>
        <time>2022-12-28T17:00:59.768Z</time>
      </trkpt>
      <trkpt lat="44.25249" lon="0.19738">
        <ele>150.689644</ele>
        <time>2022-12-28T17:01:02.757Z</time>
      </trkpt>
      <trkpt lat="44.25257" lon="0.19751">
        <ele>150.625211</ele>
        <time>2022-12-28T17:01:05.764Z</time>
      </trkpt>
      <trkpt lat="44.25266" lon="0.19762">
        <ele>150.561581</ele>
        <time>2022-12-28T17:01:08.774Z</time>
      </trkpt>
      <trkpt lat="44.25274" lon="0.19774">
        <ele>150.4992</ele>
        <time>2022-12-28T17:01:11.765Z</time>
      </trkpt>
      <trkpt lat="44.25282" lon="0.19787">
        <ele>150.436799</ele>
        <time>2022-12-28T17:01:14.757Z</time>
      </trkpt>
      <trkpt lat="44.2529" lon="0.19797">
        <ele>150.382081</ele>
        <time>2022-12-28T17:01:17.777Z</time>
      </trkpt>
      <trkpt lat="44.25296" lon="0.19807">
        <ele>150.332004</ele>
        <time>2022-12-28T17:01:20.761Z</time>
      </trkpt>
      <trkpt lat="44.25303" lon="0.19816">
        <ele>150.27972</ele>
        <time>2022-12-28T17:01:23.775Z</time>
      </trkpt>
      <trkpt lat="44.25311" lon="0.19826">
        <ele>150.226673</ele>
        <time>2022-12-28T17:01:26.756Z</time>
      </trkpt>
      <trkpt lat="44.25318" lon="0.19836">
        <ele>150.174136</ele>
        <time>2022-12-28T17:01:29.768Z</time>
      </trkpt>
      <trkpt lat="44.25326" lon="0.19846">
        <ele>150.11963</ele>
        <time>2022-12-28T17:01:32.772Z</time>
      </trkpt>
      <trkpt lat="44.25333" lon="0.19856">
        <ele>150.063263</ele>
        <time>2022-12-28T17:01:35.755Z</time>
      </trkpt>
      <trkpt lat="44.25341" lon="0.19866">
        <ele>150.007494</ele>
        <time>2022-12-28T17:01:38.767Z</time>
      </trkpt>
      <trkpt lat="44.25349" lon="0.19876">
        <ele>149.952279</ele>
        <time>2022-12-28T17:01:41.757Z</time>
      </trkpt>
      <trkpt lat="44.25357" lon="0.19886">
        <ele>149.896112</ele>
        <time>2022-12-28T17:01:44.758Z</time>
      </trkpt>
      <trkpt lat="44.25365" lon="0.19895">
        <ele>149.842704</ele>
        <time>2022-12-28T17:01:47.757Z</time>
      </trkpt>
      <trkpt lat="44.25373" lon="0.19902">
        <ele>149.848819</ele>
        <time>2022-12-28T17:01:50.762Z</time>
      </trkpt>
      <trkpt lat="44.2538" lon="0.1991">
        <ele>150.121408</ele>
        <time>2022-12-28T17:01:53.763Z</time>
      </trkpt>
      <trkpt lat="44.25389" lon="0.19921">
        <ele>150.469703</ele>
        <time>2022-12-28T17:01:57.761Z</time>
      </trkpt>
      <trkpt lat="44.25397" lon="0.19931">
        <ele>150.809383</ele>
        <time>2022-12-28T17:02:01.763Z</time>
      </trkpt>
      <trkpt lat="44.25406" lon="0.1994">
        <ele>151.139706</ele>
        <time>2022-12-28T17:02:05.775Z</time>
      </trkpt>
      <trkpt lat="44.25415" lon="0.1995">
        <ele>151.491029</ele>
        <time>2022-12-28T17:02:09.772Z</time>
      </trkpt>
      <trkpt lat="44.25422" lon="0.19959">
        <ele>151.767284</ele>
        <time>2022-12-28T17:02:12.772Z</time>
      </trkpt>
      <trkpt lat="44.2543" lon="0.19966">
        <ele>152.04828</ele>
        <time>2022-12-28T17:02:15.751Z</time>
      </trkpt>
      <trkpt lat="44.25439" lon="0.19977">
        <ele>152.409918</ele>
        <time>2022-12-28T17:02:19.760Z</time>
      </trkpt>
      <trkpt lat="44.25449" lon="0.19987">
        <ele>152.76953</ele>
        <time>2022-12-28T17:02:23.772Z</time>
      </trkpt>
      <trkpt lat="44.25458" lon="0.19995">
        <ele>153.098531</ele>
        <time>2022-12-28T17:02:27.765Z</time>
      </trkpt>
      <trkpt lat="44.25467" lon="0.20003">
        <ele>153.397206</ele>
        <time>2022-12-28T17:02:31.779Z</time>
      </trkpt>
      <trkpt lat="44.25476" lon="0.20009">
        <ele>153.698231</ele>
        <time>2022-12-28T17:02:36.769Z</time>
      </trkpt>
      <trkpt lat="44.25484" lon="0.20017">
        <ele>153.996906</ele>
        <time>2022-12-28T17:02:41.769Z</time>
      </trkpt>
      <trkpt lat="44.25494" lon="0.20022">
        <ele>154.305637</ele>
        <time>2022-12-28T17:02:46.774Z</time>
      </trkpt>
      <trkpt lat="44.25503" lon="0.20027">
        <ele>154.594182</ele>
        <time>2022-12-28T17:02:51.771Z</time>
      </trkpt>
      <trkpt lat="44.25512" lon="0.20031">
        <ele>154.877947</ele>
        <time>2022-12-28T17:02:56.759Z</time>
      </trkpt>
      <trkpt lat="44.25522" lon="0.20036">
        <ele>155.210331</ele>
        <time>2022-12-28T17:03:02.776Z</time>
      </trkpt>
      <trkpt lat="44.2553" lon="0.2004">
        <ele>155.872306</ele>
        <time>2022-12-28T17:03:08.772Z</time>
      </trkpt>
      <trkpt lat="44.25539" lon="0.20043">
        <ele>156.535784</ele>
        <time>2022-12-28T17:03:29.762Z</time>
      </trkpt>
      <trkpt lat="44.25548" lon="0.20047">
        <ele>157.20777</ele>
        <time>2022-12-28T17:03:43.760Z</time>
      </trkpt>
      <trkpt lat="44.25557" lon="0.2005">
        <ele>157.91719</ele>
        <time>2022-12-28T17:03:49.760Z</time>
      </trkpt>
      <trkpt lat="44.25566" lon="0.20055">
        <ele>158.588063</ele>
        <time>2022-12-28T17:03:54.759Z</time>
      </trkpt>
      <trkpt lat="44.25576" lon="0.20057">
        <ele>159.337462</ele>
        <time>2022-12-28T17:04:00.776Z</time>
      </trkpt>
      <trkpt lat="44.25586" lon="0.2006">
        <ele>160.075416</ele>
        <time>2022-12-28T17:04:06.769Z</time>
      </trkpt>
      <trkpt lat="44.25595" lon="0.20064">
        <ele>160.81253</ele>
        <time>2022-12-28T17:04:13.765Z</time>
      </trkpt>
      <trkpt lat="44.25605" lon="0.20068">
        <ele>161.551795</ele>
        <time>2022-12-28T17:04:20.765Z</time>
      </trkpt>
      <trkpt lat="44.25615" lon="0.20071">
        <ele>162.267251</ele>
        <time>2022-12-28T17:04:27.768Z</time>
      </trkpt>
      <trkpt lat="44.25624" lon="0.20076">
        <ele>163.009702</ele>
        <time>2022-12-28T17:04:34.769Z</time>
      </trkpt>
      <trkpt lat="44.25633" lon="0.20082">
        <ele>163.682674</ele>
        <time>2022-12-28T17:04:41.769Z</time>
      </trkpt>
      <trkpt lat="44.25642" lon="0.20083">
        <ele>164.381391</ele>
        <time>2022-12-28T17:04:47.761Z</time>
      </trkpt>
      <trkpt lat="44.25652" lon="0.20087">
        <ele>165.109735</ele>
        <time>2022-12-28T17:04:54.764Z</time>
      </trkpt>
      <trkpt lat="44.25661" lon="0.20092">
        <ele>165.814459</ele>
        <time>2022-12-28T17:05:00.755Z</time>
      </trkpt>
      <trkpt lat="44.2567" lon="0.20095">
        <ele>166.493417</ele>
        <time>2022-12-28T17:05:06.759Z</time>
      </trkpt>
      <trkpt lat="44.25679" lon="0.20101">
        <ele>167.251935</ele>
        <time>2022-12-28T17:05:13.763Z</time>
      </trkpt>
      <trkpt lat="44.25689" lon="0.20106">
        <ele>167.97347</ele>
        <time>2022-12-28T17:05:19.772Z</time>
      </trkpt>
      <trkpt lat="44.25697" lon="0.20112">
        <ele>168.47358</ele>
        <time>2022-12-28T17:05:25.769Z</time>
      </trkpt>
      <trkpt lat="44.25706" lon="0.20118">
        <ele>168.799867</ele>
        <time>2022-12-28T17:05:31.759Z</time>
      </trkpt>
      <trkpt lat="44.25714" lon="0.20127">
        <ele>169.129292</ele>
        <time>2022-12-28T17:05:37.759Z</time>
      </trkpt>
      <trkpt lat="44.25714" lon="0.20114">
        <ele>169.427465</ele>
        <time>2022-12-28T17:05:47.767Z</time>
      </trkpt>
      <trkpt lat="44.25706" lon="0.20106">
        <ele>169.774064</ele>
        <time>2022-12-28T17:05:53.780Z</time>
      </trkpt>
      <trkpt lat="44.25698" lon="0.20097">
        <ele>170.098596</ele>
        <time>2022-12-28T17:05:58.768Z</time>
      </trkpt>
      <trkpt lat="44.25695" lon="0.20083">
        <ele>170.413167</ele>
        <time>2022-12-28T17:06:03.776Z</time>
      </trkpt>
      <trkpt lat="44.25698" lon="0.2007">
        <ele>170.743014</ele>
        <time>2022-12-28T17:06:08.768Z</time>
      </trkpt>
      <trkpt lat="44.25702" lon="0.20057">
        <ele>171.050713</ele>
        <time>2022-12-28T17:06:12.769Z</time>
      </trkpt>
      <trkpt lat="44.25706" lon="0.20042">
        <ele>171.410247</ele>
        <time>2022-12-28T17:06:16.768Z</time>
      </trkpt>
      <trkpt lat="44.25709" lon="0.20027">
        <ele>171.769772</ele>
        <time>2022-12-28T17:06:20.767Z</time>
      </trkpt>
      <trkpt lat="44.25713" lon="0.20015">
        <ele>172.075316</ele>
        <time>2022-12-28T17:06:24.770Z</time>
      </trkpt>
      <trkpt lat="44.25715" lon="0.2">
        <ele>172.436087</ele>
        <time>2022-12-28T17:06:28.769Z</time>
      </trkpt>
      <trkpt lat="44.25719" lon="0.19986">
        <ele>172.779405</ele>
        <time>2022-12-28T17:06:32.772Z</time>
      </trkpt>
      <trkpt lat="44.25723" lon="0.19972">
        <ele>173.120564</ele>
        <time>2022-12-28T17:06:37.774Z</time>
      </trkpt>
      <trkpt lat="44.25726" lon="0.19958">
        <ele>173.458842</ele>
        <time>2022-12-28T17:06:42.769Z</time>
      </trkpt>
      <trkpt lat="44.25728" lon="0.19945">
        <ele>173.758016</ele>
        <time>2022-12-28T17:06:46.761Z</time>
      </trkpt>
      <trkpt lat="44.25729" lon="0.1993">
        <ele>174.067407</ele>
        <time>2022-12-28T17:06:51.764Z</time>
      </trkpt>
      <trkpt lat="44.25732" lon="0.19916">
        <ele>174.067407</ele>
        <time>2022-12-28T17:06:56.778Z</time>
      </trkpt>
      <trkpt lat="44.25736" lon="0.19904">
        <ele>174.067407</ele>
        <time>2022-12-28T17:07:01.765Z</time>
      </trkpt>
      <trkpt lat="44.25739" lon="0.19893">
        <ele>174.067407</ele>
        <time>2022-12-28T17:07:15.779Z</time>
      </trkpt>
      <trkpt lat="44.25743" lon="0.19879">
        <ele>174.067407</ele>
        <time>2022-12-28T17:07:27.770Z</time>
      </trkpt>
      <trkpt lat="44.25746" lon="0.19864">
        <ele>174.067407</ele>
        <time>2022-12-28T17:07:32.770Z</time>
      </trkpt>
      <trkpt lat="44.25749" lon="0.19849">
        <ele>174.067407</ele>
        <time>2022-12-28T17:07:36.761Z</time>
      </trkpt>
      <trkpt lat="44.25751" lon="0.19834">
        <ele>174.067407</ele>
        <time>2022-12-28T17:07:40.767Z</time>
      </trkpt>
      <trkpt lat="44.25752" lon="0.1982">
        <ele>174.067407</ele>
        <time>2022-12-28T17:07:44.765Z</time>
      </trkpt>
      <trkpt lat="44.25753" lon="0.19804">
        <ele>174.067407</ele>
        <time>2022-12-28T17:07:49.766Z</time>
      </trkpt>
      <trkpt lat="44.25756" lon="0.19789">
        <ele>174.067407</ele>
        <time>2022-12-28T17:07:54.781Z</time>
      </trkpt>
      <trkpt lat="44.25758" lon="0.19775">
        <ele>174.067407</ele>
        <time>2022-12-28T17:07:59.760Z</time>
      </trkpt>
      <trkpt lat="44.25758" lon="0.1977">
        <ele>174.067407</ele>
        <time>2022-12-28T17:08:15.530Z</time>
        <extensions>
          <visugpx:TrkExtension xmlns:visugpx="https://www.visugpx.com/editgpx/">
            <visugpx:node>1</visugpx:node>
            </visugpx:TrkExtension>
        </extensions>
      </trkpt>
    </trkseg>
  </trk>
</gpx>